<?xml version="1.0" encoding="UTF-8" standalone="no" ?>
<gpx xmlns="http://www.topografix.com/GPX/1/1" xmlns:xsi="http://www.w3.org/2001/XMLSchema-instance" xsi:schemaLocation="http://www.topografix.com/GPX/1/1 http://www.topografix.com/GPX/1/1/gpx.xsd" version="1.1" creator="VisuGPX - https://www.visugpx.com">
  <metadata>
    <name>11575631-Clairveaux 88Km</name>
  </metadata>
  <trk>
    <name><![CDATA[11575631-Clairveaux 88Km_1]]></name>
    <extensions>
      <line xmlns="http://www.topografix.com/GPX/gpx_style/0/2">
        <color>0000FF</color>
        <width>4</width>
      </line>
    </extensions>
    <trkseg>
      <trkpt lat="46.49881" lon="5.72654">
        <ele>586</ele>
        <time>2020-07-29T19:20:36Z</time>
        <extensions>
          <visugpx:TrkExtension xmlns:visugpx="https://www.visugpx.com/editgpx/">
            <visugpx:node>1</visugpx:node>
            </visugpx:TrkExtension>
        </extensions>
      </trkpt>
      <trkpt lat="46.49881" lon="5.72647">
        <ele>586</ele>
        <time>2020-07-29T19:20:37Z</time>
      </trkpt>
      <trkpt lat="46.49876" lon="5.72665">
        <ele>586</ele>
        <time>2020-07-29T19:20:39Z</time>
      </trkpt>
      <trkpt lat="46.49868" lon="5.72697">
        <ele>588</ele>
        <time>2020-07-29T19:20:44Z</time>
      </trkpt>
      <trkpt lat="46.49855" lon="5.72728">
        <ele>589</ele>
        <time>2020-07-29T19:20:48Z</time>
      </trkpt>
      <trkpt lat="46.49851" lon="5.72737">
        <ele>589</ele>
        <time>2020-07-29T19:20:49Z</time>
      </trkpt>
      <trkpt lat="46.49845" lon="5.72754">
        <ele>590</ele>
        <time>2020-07-29T19:20:52Z</time>
      </trkpt>
      <trkpt lat="46.49845" lon="5.72757">
        <ele>590</ele>
        <time>2020-07-29T19:20:52Z</time>
      </trkpt>
      <trkpt lat="46.49841" lon="5.72798">
        <ele>590</ele>
        <time>2020-07-29T19:20:57Z</time>
      </trkpt>
      <trkpt lat="46.49844" lon="5.72841">
        <ele>591</ele>
        <time>2020-07-29T19:21:02Z</time>
      </trkpt>
      <trkpt lat="46.49854" lon="5.72884">
        <ele>592</ele>
        <time>2020-07-29T19:21:08Z</time>
      </trkpt>
      <trkpt lat="46.49859" lon="5.72906">
        <ele>592</ele>
        <time>2020-07-29T19:21:11Z</time>
      </trkpt>
      <trkpt lat="46.4986" lon="5.72958">
        <ele>594</ele>
        <time>2020-07-29T19:21:17Z</time>
      </trkpt>
      <trkpt lat="46.49861" lon="5.72998">
        <ele>596</ele>
        <time>2020-07-29T19:21:22Z</time>
      </trkpt>
      <trkpt lat="46.4986" lon="5.73004">
        <ele>596</ele>
        <time>2020-07-29T19:21:23Z</time>
      </trkpt>
      <trkpt lat="46.49853" lon="5.73054">
        <ele>597</ele>
        <time>2020-07-29T19:21:29Z</time>
      </trkpt>
      <trkpt lat="46.49842" lon="5.73096">
        <ele>598</ele>
        <time>2020-07-29T19:21:35Z</time>
      </trkpt>
      <trkpt lat="46.49804" lon="5.73149">
        <ele>597</ele>
        <time>2020-07-29T19:21:44Z</time>
      </trkpt>
      <trkpt lat="46.49765" lon="5.73185">
        <ele>597</ele>
        <time>2020-07-29T19:21:52Z</time>
      </trkpt>
      <trkpt lat="46.49755" lon="5.73201">
        <ele>598</ele>
        <time>2020-07-29T19:21:55Z</time>
      </trkpt>
      <trkpt lat="46.49746" lon="5.73218">
        <ele>598</ele>
        <time>2020-07-29T19:21:57Z</time>
      </trkpt>
      <trkpt lat="46.4973" lon="5.73257">
        <ele>600</ele>
        <time>2020-07-29T19:22:03Z</time>
      </trkpt>
      <trkpt lat="46.49673" lon="5.73373">
        <ele>605</ele>
        <time>2020-07-29T19:22:20Z</time>
      </trkpt>
      <trkpt lat="46.49652" lon="5.734">
        <ele>606</ele>
        <time>2020-07-29T19:22:25Z</time>
      </trkpt>
      <trkpt lat="46.49583" lon="5.73454">
        <ele>609</ele>
        <time>2020-07-29T19:22:39Z</time>
      </trkpt>
      <trkpt lat="46.49567" lon="5.73475">
        <ele>610</ele>
        <time>2020-07-29T19:22:43Z</time>
      </trkpt>
      <trkpt lat="46.49544" lon="5.73585">
        <ele>615</ele>
        <time>2020-07-29T19:22:57Z</time>
      </trkpt>
      <trkpt lat="46.49527" lon="5.73623">
        <ele>619</ele>
        <time>2020-07-29T19:23:03Z</time>
      </trkpt>
      <trkpt lat="46.49473" lon="5.73714">
        <ele>626</ele>
        <time>2020-07-29T19:23:18Z</time>
      </trkpt>
      <trkpt lat="46.49463" lon="5.73738">
        <ele>628</ele>
        <time>2020-07-29T19:23:21Z</time>
      </trkpt>
      <trkpt lat="46.49454" lon="5.73764">
        <ele>628</ele>
        <time>2020-07-29T19:23:25Z</time>
      </trkpt>
      <trkpt lat="46.49448" lon="5.73797">
        <ele>628</ele>
        <time>2020-07-29T19:23:29Z</time>
      </trkpt>
      <trkpt lat="46.49454" lon="5.73836">
        <ele>628</ele>
        <time>2020-07-29T19:23:34Z</time>
      </trkpt>
      <trkpt lat="46.4949" lon="5.74015">
        <ele>635</ele>
        <time>2020-07-29T19:23:57Z</time>
      </trkpt>
      <trkpt lat="46.49491" lon="5.74054">
        <ele>633</ele>
        <time>2020-07-29T19:24:01Z</time>
      </trkpt>
      <trkpt lat="46.49486" lon="5.74087">
        <ele>633</ele>
        <time>2020-07-29T19:24:05Z</time>
      </trkpt>
      <trkpt lat="46.49447" lon="5.74161">
        <ele>634</ele>
        <time>2020-07-29T19:24:17Z</time>
      </trkpt>
      <trkpt lat="46.4943" lon="5.74186">
        <ele>633</ele>
        <time>2020-07-29T19:24:21Z</time>
      </trkpt>
      <trkpt lat="46.49393" lon="5.74214">
        <ele>638</ele>
        <time>2020-07-29T19:24:29Z</time>
      </trkpt>
      <trkpt lat="46.49354" lon="5.74272">
        <ele>642</ele>
        <time>2020-07-29T19:24:39Z</time>
      </trkpt>
      <trkpt lat="46.49335" lon="5.74311">
        <ele>640</ele>
        <time>2020-07-29T19:24:44Z</time>
      </trkpt>
      <trkpt lat="46.49301" lon="5.74363">
        <ele>641</ele>
        <time>2020-07-29T19:24:53Z</time>
      </trkpt>
      <trkpt lat="46.49207" lon="5.74446">
        <ele>646</ele>
        <time>2020-07-29T19:25:13Z</time>
      </trkpt>
      <trkpt lat="46.49201" lon="5.7447">
        <ele>643</ele>
        <time>2020-07-29T19:25:16Z</time>
      </trkpt>
      <trkpt lat="46.492" lon="5.74482">
        <ele>642</ele>
        <time>2020-07-29T19:25:17Z</time>
      </trkpt>
      <trkpt lat="46.49193" lon="5.74511">
        <ele>641</ele>
        <time>2020-07-29T19:25:21Z</time>
      </trkpt>
      <trkpt lat="46.49177" lon="5.74542">
        <ele>643</ele>
        <time>2020-07-29T19:25:26Z</time>
      </trkpt>
      <trkpt lat="46.49147" lon="5.74615">
        <ele>648</ele>
        <time>2020-07-29T19:25:36Z</time>
      </trkpt>
      <trkpt lat="46.49053" lon="5.74741">
        <ele>645</ele>
        <time>2020-07-29T19:25:59Z</time>
      </trkpt>
      <trkpt lat="46.49014" lon="5.74856">
        <ele>635</ele>
        <time>2020-07-29T19:26:15Z</time>
      </trkpt>
      <trkpt lat="46.48988" lon="5.74903">
        <ele>635</ele>
        <time>2020-07-29T19:26:22Z</time>
      </trkpt>
      <trkpt lat="46.48939" lon="5.74961">
        <ele>633</ele>
        <time>2020-07-29T19:26:33Z</time>
      </trkpt>
      <trkpt lat="46.48927" lon="5.74993">
        <ele>631</ele>
        <time>2020-07-29T19:26:38Z</time>
      </trkpt>
      <trkpt lat="46.48922" lon="5.75037">
        <ele>631</ele>
        <time>2020-07-29T19:26:43Z</time>
      </trkpt>
      <trkpt lat="46.48902" lon="5.75124">
        <ele>631</ele>
        <time>2020-07-29T19:26:55Z</time>
      </trkpt>
      <trkpt lat="46.48853" lon="5.75322">
        <ele>638</ele>
        <time>2020-07-29T19:27:20Z</time>
      </trkpt>
      <trkpt lat="46.48787" lon="5.75538">
        <ele>651</ele>
        <time>2020-07-29T19:27:49Z</time>
      </trkpt>
      <trkpt lat="46.48782" lon="5.75571">
        <ele>652</ele>
        <time>2020-07-29T19:27:53Z</time>
      </trkpt>
      <trkpt lat="46.4879" lon="5.75614">
        <ele>653</ele>
        <time>2020-07-29T19:27:59Z</time>
      </trkpt>
      <trkpt lat="46.48806" lon="5.7567">
        <ele>652</ele>
        <time>2020-07-29T19:28:06Z</time>
      </trkpt>
      <trkpt lat="46.48821" lon="5.75699">
        <ele>651</ele>
        <time>2020-07-29T19:28:11Z</time>
      </trkpt>
      <trkpt lat="46.48839" lon="5.75717">
        <ele>651</ele>
        <time>2020-07-29T19:28:15Z</time>
      </trkpt>
      <trkpt lat="46.48891" lon="5.75735">
        <ele>654</ele>
        <time>2020-07-29T19:28:24Z</time>
      </trkpt>
      <trkpt lat="46.48966" lon="5.75793">
        <ele>654</ele>
        <time>2020-07-29T19:28:39Z</time>
      </trkpt>
      <trkpt lat="46.49074" lon="5.75849">
        <ele>660</ele>
        <time>2020-07-29T19:29:00Z</time>
      </trkpt>
      <trkpt lat="46.49083" lon="5.75859">
        <ele>659</ele>
        <time>2020-07-29T19:29:02Z</time>
      </trkpt>
      <trkpt lat="46.49152" lon="5.75988">
        <ele>658</ele>
        <time>2020-07-29T19:29:22Z</time>
      </trkpt>
      <trkpt lat="46.4917" lon="5.76006">
        <ele>659</ele>
        <time>2020-07-29T19:29:26Z</time>
      </trkpt>
      <trkpt lat="46.49242" lon="5.76044">
        <ele>668</ele>
        <time>2020-07-29T19:29:39Z</time>
      </trkpt>
      <trkpt lat="46.49303" lon="5.76092">
        <ele>679</ele>
        <time>2020-07-29T19:29:52Z</time>
      </trkpt>
      <trkpt lat="46.49347" lon="5.76122">
        <ele>685</ele>
        <time>2020-07-29T19:30:00Z</time>
      </trkpt>
      <trkpt lat="46.49387" lon="5.76169">
        <ele>686</ele>
        <time>2020-07-29T19:30:09Z</time>
      </trkpt>
      <trkpt lat="46.49449" lon="5.76237">
        <ele>687</ele>
        <time>2020-07-29T19:30:23Z</time>
      </trkpt>
      <trkpt lat="46.49488" lon="5.7627">
        <ele>691</ele>
        <time>2020-07-29T19:30:31Z</time>
      </trkpt>
      <trkpt lat="46.49492" lon="5.7629">
        <ele>691</ele>
        <time>2020-07-29T19:30:34Z</time>
      </trkpt>
      <trkpt lat="46.49495" lon="5.76367">
        <ele>683</ele>
        <time>2020-07-29T19:30:43Z</time>
      </trkpt>
      <trkpt lat="46.49507" lon="5.76397">
        <ele>682</ele>
        <time>2020-07-29T19:30:47Z</time>
      </trkpt>
      <trkpt lat="46.49607" lon="5.76471">
        <ele>695</ele>
        <time>2020-07-29T19:31:07Z</time>
      </trkpt>
      <trkpt lat="46.49678" lon="5.765">
        <ele>705</ele>
        <time>2020-07-29T19:31:21Z</time>
      </trkpt>
      <trkpt lat="46.49771" lon="5.76593">
        <ele>707</ele>
        <time>2020-07-29T19:31:41Z</time>
      </trkpt>
      <trkpt lat="46.49834" lon="5.76618">
        <ele>720</ele>
        <time>2020-07-29T19:31:52Z</time>
      </trkpt>
      <trkpt lat="46.49856" lon="5.76636">
        <ele>722</ele>
        <time>2020-07-29T19:31:57Z</time>
      </trkpt>
      <trkpt lat="46.49893" lon="5.76685">
        <ele>723</ele>
        <time>2020-07-29T19:32:06Z</time>
      </trkpt>
      <trkpt lat="46.4993" lon="5.76751">
        <ele>721</ele>
        <time>2020-07-29T19:32:16Z</time>
      </trkpt>
      <trkpt lat="46.49956" lon="5.76772">
        <ele>724</ele>
        <time>2020-07-29T19:32:21Z</time>
      </trkpt>
      <trkpt lat="46.49991" lon="5.76773">
        <ele>733</ele>
        <time>2020-07-29T19:32:28Z</time>
      </trkpt>
      <trkpt lat="46.50016" lon="5.76792">
        <ele>736</ele>
        <time>2020-07-29T19:32:33Z</time>
      </trkpt>
      <trkpt lat="46.50051" lon="5.76838">
        <ele>737</ele>
        <time>2020-07-29T19:32:41Z</time>
      </trkpt>
      <trkpt lat="46.50057" lon="5.76868">
        <ele>736</ele>
        <time>2020-07-29T19:32:45Z</time>
      </trkpt>
      <trkpt lat="46.50071" lon="5.76897">
        <ele>735</ele>
        <time>2020-07-29T19:32:49Z</time>
      </trkpt>
      <trkpt lat="46.50093" lon="5.76911">
        <ele>738</ele>
        <time>2020-07-29T19:32:53Z</time>
      </trkpt>
      <trkpt lat="46.50136" lon="5.76962">
        <ele>751</ele>
        <time>2020-07-29T19:33:03Z</time>
      </trkpt>
      <trkpt lat="46.50144" lon="5.76983">
        <ele>751</ele>
        <time>2020-07-29T19:33:06Z</time>
      </trkpt>
      <trkpt lat="46.50134" lon="5.76997">
        <ele>748</ele>
        <time>2020-07-29T19:33:09Z</time>
      </trkpt>
      <trkpt lat="46.50106" lon="5.76997">
        <ele>746</ele>
        <time>2020-07-29T19:33:14Z</time>
      </trkpt>
      <trkpt lat="46.50077" lon="5.76988">
        <ele>742</ele>
        <time>2020-07-29T19:33:19Z</time>
      </trkpt>
      <trkpt lat="46.50037" lon="5.76991">
        <ele>739</ele>
        <time>2020-07-29T19:33:26Z</time>
      </trkpt>
      <trkpt lat="46.50014" lon="5.77005">
        <ele>739</ele>
        <time>2020-07-29T19:33:31Z</time>
      </trkpt>
      <trkpt lat="46.5" lon="5.7705">
        <ele>743</ele>
        <time>2020-07-29T19:33:37Z</time>
      </trkpt>
      <trkpt lat="46.49973" lon="5.77113">
        <ele>745</ele>
        <time>2020-07-29T19:33:46Z</time>
      </trkpt>
      <trkpt lat="46.49923" lon="5.77199">
        <ele>751</ele>
        <time>2020-07-29T19:33:59Z</time>
      </trkpt>
      <trkpt lat="46.49822" lon="5.77323">
        <ele>761</ele>
        <time>2020-07-29T19:34:23Z</time>
      </trkpt>
      <trkpt lat="46.49794" lon="5.77344">
        <ele>762</ele>
        <time>2020-07-29T19:34:29Z</time>
      </trkpt>
      <trkpt lat="46.49738" lon="5.77403">
        <ele>768</ele>
        <time>2020-07-29T19:34:41Z</time>
      </trkpt>
      <trkpt lat="46.49705" lon="5.77413">
        <ele>769</ele>
        <time>2020-07-29T19:34:47Z</time>
      </trkpt>
      <trkpt lat="46.4963" lon="5.77389">
        <ele>758</ele>
        <time>2020-07-29T19:35:01Z</time>
      </trkpt>
      <trkpt lat="46.49594" lon="5.77388">
        <ele>759</ele>
        <time>2020-07-29T19:35:07Z</time>
      </trkpt>
      <trkpt lat="46.49538" lon="5.77418">
        <ele>771</ele>
        <time>2020-07-29T19:35:18Z</time>
      </trkpt>
      <trkpt lat="46.49502" lon="5.77465">
        <ele>773</ele>
        <time>2020-07-29T19:35:26Z</time>
      </trkpt>
      <trkpt lat="46.49485" lon="5.77478">
        <ele>773</ele>
        <time>2020-07-29T19:35:30Z</time>
      </trkpt>
      <trkpt lat="46.49469" lon="5.7748">
        <ele>774</ele>
        <time>2020-07-29T19:35:32Z</time>
      </trkpt>
      <trkpt lat="46.49452" lon="5.77486">
        <ele>775</ele>
        <time>2020-07-29T19:35:36Z</time>
      </trkpt>
      <trkpt lat="46.49446" lon="5.77506">
        <ele>774</ele>
        <time>2020-07-29T19:35:38Z</time>
      </trkpt>
      <trkpt lat="46.49438" lon="5.77549">
        <ele>774</ele>
        <time>2020-07-29T19:35:44Z</time>
      </trkpt>
      <trkpt lat="46.4943" lon="5.7758">
        <ele>774</ele>
        <time>2020-07-29T19:35:48Z</time>
      </trkpt>
      <trkpt lat="46.49421" lon="5.77606">
        <ele>776</ele>
        <time>2020-07-29T19:35:51Z</time>
      </trkpt>
      <trkpt lat="46.49411" lon="5.7762">
        <ele>777</ele>
        <time>2020-07-29T19:35:54Z</time>
      </trkpt>
      <trkpt lat="46.49398" lon="5.77627">
        <ele>777</ele>
        <time>2020-07-29T19:35:56Z</time>
      </trkpt>
      <trkpt lat="46.49387" lon="5.77629">
        <ele>777</ele>
        <time>2020-07-29T19:35:58Z</time>
      </trkpt>
      <trkpt lat="46.49337" lon="5.77614">
        <ele>777</ele>
        <time>2020-07-29T19:36:07Z</time>
      </trkpt>
      <trkpt lat="46.493" lon="5.77617">
        <ele>776</ele>
        <time>2020-07-29T19:36:14Z</time>
      </trkpt>
      <trkpt lat="46.49294" lon="5.77637">
        <ele>776</ele>
        <time>2020-07-29T19:36:17Z</time>
      </trkpt>
      <trkpt lat="46.49294" lon="5.77651">
        <ele>777</ele>
        <time>2020-07-29T19:36:18Z</time>
      </trkpt>
      <trkpt lat="46.49297" lon="5.77662">
        <ele>777</ele>
        <time>2020-07-29T19:36:20Z</time>
      </trkpt>
      <trkpt lat="46.49321" lon="5.77692">
        <ele>781</ele>
        <time>2020-07-29T19:36:25Z</time>
      </trkpt>
      <trkpt lat="46.49352" lon="5.77711">
        <ele>784</ele>
        <time>2020-07-29T19:36:31Z</time>
      </trkpt>
      <trkpt lat="46.49425" lon="5.77779">
        <ele>787</ele>
        <time>2020-07-29T19:36:47Z</time>
      </trkpt>
      <trkpt lat="46.49462" lon="5.77799">
        <ele>788</ele>
        <time>2020-07-29T19:36:54Z</time>
      </trkpt>
      <trkpt lat="46.4948" lon="5.77815">
        <ele>787</ele>
        <time>2020-07-29T19:36:58Z</time>
      </trkpt>
      <trkpt lat="46.4953" lon="5.7793">
        <ele>784</ele>
        <time>2020-07-29T19:37:14Z</time>
      </trkpt>
      <trkpt lat="46.49535" lon="5.77965">
        <ele>784</ele>
        <time>2020-07-29T19:37:19Z</time>
      </trkpt>
      <trkpt lat="46.49518" lon="5.78">
        <ele>785</ele>
        <time>2020-07-29T19:37:24Z</time>
      </trkpt>
      <trkpt lat="46.49496" lon="5.78016">
        <ele>786</ele>
        <time>2020-07-29T19:37:28Z</time>
      </trkpt>
      <trkpt lat="46.49435" lon="5.7804">
        <ele>785</ele>
        <time>2020-07-29T19:37:40Z</time>
      </trkpt>
      <trkpt lat="46.49292" lon="5.78056">
        <ele>785</ele>
        <time>2020-07-29T19:38:05Z</time>
      </trkpt>
      <trkpt lat="46.49224" lon="5.78052">
        <ele>788</ele>
        <time>2020-07-29T19:38:17Z</time>
      </trkpt>
      <trkpt lat="46.49157" lon="5.78058">
        <ele>789</ele>
        <time>2020-07-29T19:38:29Z</time>
      </trkpt>
      <trkpt lat="46.49078" lon="5.78074">
        <ele>789</ele>
        <time>2020-07-29T19:38:43Z</time>
      </trkpt>
      <trkpt lat="46.49011" lon="5.78074">
        <ele>789</ele>
        <time>2020-07-29T19:38:55Z</time>
      </trkpt>
      <trkpt lat="46.48936" lon="5.78071">
        <ele>791</ele>
        <time>2020-07-29T19:39:09Z</time>
      </trkpt>
      <trkpt lat="46.4892" lon="5.78077">
        <ele>791</ele>
        <time>2020-07-29T19:39:11Z</time>
      </trkpt>
      <trkpt lat="46.48902" lon="5.78098">
        <ele>791</ele>
        <time>2020-07-29T19:39:16Z</time>
      </trkpt>
      <trkpt lat="46.48891" lon="5.78115">
        <ele>790</ele>
        <time>2020-07-29T19:39:18Z</time>
      </trkpt>
      <trkpt lat="46.48885" lon="5.78135">
        <ele>790</ele>
        <time>2020-07-29T19:39:21Z</time>
      </trkpt>
      <trkpt lat="46.48881" lon="5.78159">
        <ele>789</ele>
        <time>2020-07-29T19:39:24Z</time>
      </trkpt>
      <trkpt lat="46.48882" lon="5.78179">
        <ele>789</ele>
        <time>2020-07-29T19:39:27Z</time>
      </trkpt>
      <trkpt lat="46.4889" lon="5.78207">
        <ele>790</ele>
        <time>2020-07-29T19:39:30Z</time>
      </trkpt>
      <trkpt lat="46.48905" lon="5.78228">
        <ele>790</ele>
        <time>2020-07-29T19:39:34Z</time>
      </trkpt>
      <trkpt lat="46.49103" lon="5.78413">
        <ele>799</ele>
        <time>2020-07-29T19:40:16Z</time>
      </trkpt>
      <trkpt lat="46.492" lon="5.78483">
        <ele>802</ele>
        <time>2020-07-29T19:40:35Z</time>
      </trkpt>
      <trkpt lat="46.49239" lon="5.78525">
        <ele>803</ele>
        <time>2020-07-29T19:40:44Z</time>
      </trkpt>
      <trkpt lat="46.49245" lon="5.7854">
        <ele>804</ele>
        <time>2020-07-29T19:40:46Z</time>
      </trkpt>
      <trkpt lat="46.49243" lon="5.78571">
        <ele>805</ele>
        <time>2020-07-29T19:40:50Z</time>
      </trkpt>
      <trkpt lat="46.49232" lon="5.7863">
        <ele>804</ele>
        <time>2020-07-29T19:40:57Z</time>
      </trkpt>
      <trkpt lat="46.49236" lon="5.78647">
        <ele>803</ele>
        <time>2020-07-29T19:40:59Z</time>
      </trkpt>
      <trkpt lat="46.4924" lon="5.78681">
        <ele>803</ele>
        <time>2020-07-29T19:41:04Z</time>
      </trkpt>
      <trkpt lat="46.49242" lon="5.78745">
        <ele>802</ele>
        <time>2020-07-29T19:41:12Z</time>
      </trkpt>
      <trkpt lat="46.4924" lon="5.78789">
        <ele>802</ele>
        <time>2020-07-29T19:41:17Z</time>
      </trkpt>
      <trkpt lat="46.49241" lon="5.78814">
        <ele>802</ele>
        <time>2020-07-29T19:41:20Z</time>
      </trkpt>
      <trkpt lat="46.49248" lon="5.78829">
        <ele>802</ele>
        <time>2020-07-29T19:41:22Z</time>
      </trkpt>
      <trkpt lat="46.49272" lon="5.78839">
        <ele>803</ele>
        <time>2020-07-29T19:41:27Z</time>
      </trkpt>
      <trkpt lat="46.49297" lon="5.78844">
        <ele>804</ele>
        <time>2020-07-29T19:41:31Z</time>
      </trkpt>
      <trkpt lat="46.49315" lon="5.78856">
        <ele>804</ele>
        <time>2020-07-29T19:41:35Z</time>
      </trkpt>
      <trkpt lat="46.49352" lon="5.7892">
        <ele>804</ele>
        <time>2020-07-29T19:41:45Z</time>
      </trkpt>
      <trkpt lat="46.49369" lon="5.7897">
        <ele>806</ele>
        <time>2020-07-29T19:41:52Z</time>
      </trkpt>
      <trkpt lat="46.49379" lon="5.79033">
        <ele>805</ele>
        <time>2020-07-29T19:42:00Z</time>
      </trkpt>
      <trkpt lat="46.49374" lon="5.79034">
        <ele>805</ele>
        <time>2020-07-29T19:42:01Z</time>
      </trkpt>
      <trkpt lat="46.49376" lon="5.79055">
        <ele>805</ele>
        <time>2020-07-29T19:42:03Z</time>
      </trkpt>
      <trkpt lat="46.49389" lon="5.79087">
        <ele>804</ele>
        <time>2020-07-29T19:42:08Z</time>
      </trkpt>
      <trkpt lat="46.49429" lon="5.79156">
        <ele>804</ele>
        <time>2020-07-29T19:42:19Z</time>
      </trkpt>
      <trkpt lat="46.49471" lon="5.79204">
        <ele>805</ele>
        <time>2020-07-29T19:42:28Z</time>
      </trkpt>
      <trkpt lat="46.49491" lon="5.79219">
        <ele>806</ele>
        <time>2020-07-29T19:42:32Z</time>
      </trkpt>
      <trkpt lat="46.49534" lon="5.79258">
        <ele>806</ele>
        <time>2020-07-29T19:42:41Z</time>
      </trkpt>
      <trkpt lat="46.49539" lon="5.79275">
        <ele>806</ele>
        <time>2020-07-29T19:42:44Z</time>
      </trkpt>
      <trkpt lat="46.4954" lon="5.7931">
        <ele>806</ele>
        <time>2020-07-29T19:42:48Z</time>
      </trkpt>
      <trkpt lat="46.49508" lon="5.79424">
        <ele>812</ele>
        <time>2020-07-29T19:43:03Z</time>
      </trkpt>
      <trkpt lat="46.49504" lon="5.7946">
        <ele>813</ele>
        <time>2020-07-29T19:43:07Z</time>
      </trkpt>
      <trkpt lat="46.49482" lon="5.79602">
        <ele>813</ele>
        <time>2020-07-29T19:43:25Z</time>
      </trkpt>
      <trkpt lat="46.49469" lon="5.79635">
        <ele>815</ele>
        <time>2020-07-29T19:43:30Z</time>
      </trkpt>
      <trkpt lat="46.49468" lon="5.79652">
        <ele>816</ele>
        <time>2020-07-29T19:43:32Z</time>
      </trkpt>
      <trkpt lat="46.49472" lon="5.79669">
        <ele>816</ele>
        <time>2020-07-29T19:43:34Z</time>
      </trkpt>
      <trkpt lat="46.49501" lon="5.79718">
        <ele>818</ele>
        <time>2020-07-29T19:43:42Z</time>
      </trkpt>
      <trkpt lat="46.49503" lon="5.79723">
        <ele>818</ele>
        <time>2020-07-29T19:43:43Z</time>
      </trkpt>
      <trkpt lat="46.49507" lon="5.79732">
        <ele>818</ele>
        <time>2020-07-29T19:43:44Z</time>
      </trkpt>
      <trkpt lat="46.49505" lon="5.79755">
        <ele>819</ele>
        <time>2020-07-29T19:43:47Z</time>
      </trkpt>
      <trkpt lat="46.49501" lon="5.79771">
        <ele>819</ele>
        <time>2020-07-29T19:43:49Z</time>
      </trkpt>
      <trkpt lat="46.49497" lon="5.79785">
        <ele>818</ele>
        <time>2020-07-29T19:43:51Z</time>
      </trkpt>
      <trkpt lat="46.49506" lon="5.79803">
        <ele>817</ele>
        <time>2020-07-29T19:43:54Z</time>
      </trkpt>
      <trkpt lat="46.49558" lon="5.7986">
        <ele>812</ele>
        <time>2020-07-29T19:44:05Z</time>
      </trkpt>
      <trkpt lat="46.49589" lon="5.79901">
        <ele>809</ele>
        <time>2020-07-29T19:44:13Z</time>
      </trkpt>
      <trkpt lat="46.49604" lon="5.79917">
        <ele>808</ele>
        <time>2020-07-29T19:44:16Z</time>
      </trkpt>
      <trkpt lat="46.49683" lon="5.7998">
        <ele>802</ele>
        <time>2020-07-29T19:44:32Z</time>
      </trkpt>
      <trkpt lat="46.49692" lon="5.79988">
        <ele>801</ele>
        <time>2020-07-29T19:44:34Z</time>
      </trkpt>
      <trkpt lat="46.49697" lon="5.79998">
        <ele>799</ele>
        <time>2020-07-29T19:44:35Z</time>
      </trkpt>
      <trkpt lat="46.49699" lon="5.80007">
        <ele>799</ele>
        <time>2020-07-29T19:44:37Z</time>
      </trkpt>
      <trkpt lat="46.49699" lon="5.80032">
        <ele>797</ele>
        <time>2020-07-29T19:44:40Z</time>
      </trkpt>
      <trkpt lat="46.49691" lon="5.80209">
        <ele>801</ele>
        <time>2020-07-29T19:45:01Z</time>
      </trkpt>
      <trkpt lat="46.4969" lon="5.80231">
        <ele>805</ele>
        <time>2020-07-29T19:45:04Z</time>
      </trkpt>
      <trkpt lat="46.49693" lon="5.80244">
        <ele>807</ele>
        <time>2020-07-29T19:45:06Z</time>
      </trkpt>
      <trkpt lat="46.49698" lon="5.80252">
        <ele>808</ele>
        <time>2020-07-29T19:45:07Z</time>
      </trkpt>
      <trkpt lat="46.49705" lon="5.80259">
        <ele>810</ele>
        <time>2020-07-29T19:45:09Z</time>
      </trkpt>
      <trkpt lat="46.49714" lon="5.80263">
        <ele>811</ele>
        <time>2020-07-29T19:45:10Z</time>
      </trkpt>
      <trkpt lat="46.4974" lon="5.80264">
        <ele>808</ele>
        <time>2020-07-29T19:45:15Z</time>
      </trkpt>
      <trkpt lat="46.49752" lon="5.80266">
        <ele>807</ele>
        <time>2020-07-29T19:45:17Z</time>
      </trkpt>
      <trkpt lat="46.49791" lon="5.80281">
        <ele>808</ele>
        <time>2020-07-29T19:45:24Z</time>
      </trkpt>
      <trkpt lat="46.49816" lon="5.80297">
        <ele>810</ele>
        <time>2020-07-29T19:45:29Z</time>
      </trkpt>
      <trkpt lat="46.49932" lon="5.8036">
        <ele>816</ele>
        <time>2020-07-29T19:45:51Z</time>
      </trkpt>
      <trkpt lat="46.49944" lon="5.80363">
        <ele>817</ele>
        <time>2020-07-29T19:45:53Z</time>
      </trkpt>
      <trkpt lat="46.49956" lon="5.80364">
        <ele>817</ele>
        <time>2020-07-29T19:45:55Z</time>
      </trkpt>
      <trkpt lat="46.49968" lon="5.80363">
        <ele>815</ele>
        <time>2020-07-29T19:45:58Z</time>
      </trkpt>
      <trkpt lat="46.4998" lon="5.80365">
        <ele>815</ele>
        <time>2020-07-29T19:46:00Z</time>
      </trkpt>
      <trkpt lat="46.50057" lon="5.80407">
        <ele>824</ele>
        <time>2020-07-29T19:46:14Z</time>
      </trkpt>
      <trkpt lat="46.50165" lon="5.80492">
        <ele>829</ele>
        <time>2020-07-29T19:46:36Z</time>
      </trkpt>
      <trkpt lat="46.50173" lon="5.80497">
        <ele>828</ele>
        <time>2020-07-29T19:46:38Z</time>
      </trkpt>
      <trkpt lat="46.50223" lon="5.80505">
        <ele>814</ele>
        <time>2020-07-29T19:46:47Z</time>
      </trkpt>
      <trkpt lat="46.50259" lon="5.80518">
        <ele>808</ele>
        <time>2020-07-29T19:46:53Z</time>
      </trkpt>
      <trkpt lat="46.50301" lon="5.80541">
        <ele>809</ele>
        <time>2020-07-29T19:47:01Z</time>
      </trkpt>
      <trkpt lat="46.50327" lon="5.8056">
        <ele>809</ele>
        <time>2020-07-29T19:47:06Z</time>
      </trkpt>
      <trkpt lat="46.50377" lon="5.80585">
        <ele>808</ele>
        <time>2020-07-29T19:47:16Z</time>
      </trkpt>
      <trkpt lat="46.50388" lon="5.80587">
        <ele>808</ele>
        <time>2020-07-29T19:47:18Z</time>
      </trkpt>
      <trkpt lat="46.50433" lon="5.80587">
        <ele>803</ele>
        <time>2020-07-29T19:47:26Z</time>
      </trkpt>
      <trkpt lat="46.50442" lon="5.80592">
        <ele>804</ele>
        <time>2020-07-29T19:47:28Z</time>
      </trkpt>
      <trkpt lat="46.50456" lon="5.80601">
        <ele>805</ele>
        <time>2020-07-29T19:47:30Z</time>
      </trkpt>
      <trkpt lat="46.50472" lon="5.80618">
        <ele>807</ele>
        <time>2020-07-29T19:47:34Z</time>
      </trkpt>
      <trkpt lat="46.50482" lon="5.80633">
        <ele>809</ele>
        <time>2020-07-29T19:47:36Z</time>
      </trkpt>
      <trkpt lat="46.50496" lon="5.80662">
        <ele>814</ele>
        <time>2020-07-29T19:47:41Z</time>
      </trkpt>
      <trkpt lat="46.50502" lon="5.8067">
        <ele>815</ele>
        <time>2020-07-29T19:47:42Z</time>
      </trkpt>
      <trkpt lat="46.50515" lon="5.80679">
        <ele>817</ele>
        <time>2020-07-29T19:47:45Z</time>
      </trkpt>
      <trkpt lat="46.50523" lon="5.80682">
        <ele>817</ele>
        <time>2020-07-29T19:47:46Z</time>
      </trkpt>
      <trkpt lat="46.50547" lon="5.80691">
        <ele>816</ele>
        <time>2020-07-29T19:47:51Z</time>
      </trkpt>
      <trkpt lat="46.50594" lon="5.80703">
        <ele>814</ele>
        <time>2020-07-29T19:47:59Z</time>
      </trkpt>
      <trkpt lat="46.50603" lon="5.80701">
        <ele>813</ele>
        <time>2020-07-29T19:48:01Z</time>
      </trkpt>
      <trkpt lat="46.50635" lon="5.80687">
        <ele>807</ele>
        <time>2020-07-29T19:48:07Z</time>
      </trkpt>
      <trkpt lat="46.5065" lon="5.80676">
        <ele>803</ele>
        <time>2020-07-29T19:48:10Z</time>
      </trkpt>
      <trkpt lat="46.50661" lon="5.8066">
        <ele>800</ele>
        <time>2020-07-29T19:48:12Z</time>
      </trkpt>
      <trkpt lat="46.50677" lon="5.80624">
        <ele>797</ele>
        <time>2020-07-29T19:48:18Z</time>
      </trkpt>
      <trkpt lat="46.5068" lon="5.80609">
        <ele>796</ele>
        <time>2020-07-29T19:48:20Z</time>
      </trkpt>
      <trkpt lat="46.50682" lon="5.80585">
        <ele>795</ele>
        <time>2020-07-29T19:48:23Z</time>
      </trkpt>
      <trkpt lat="46.50684" lon="5.80533">
        <ele>795</ele>
        <time>2020-07-29T19:48:29Z</time>
      </trkpt>
      <trkpt lat="46.50684" lon="5.80523">
        <ele>795</ele>
        <time>2020-07-29T19:48:30Z</time>
      </trkpt>
      <trkpt lat="46.50684" lon="5.80501">
        <ele>796</ele>
        <time>2020-07-29T19:48:33Z</time>
      </trkpt>
      <trkpt lat="46.50679" lon="5.80439">
        <ele>799</ele>
        <time>2020-07-29T19:48:40Z</time>
      </trkpt>
      <trkpt lat="46.50672" lon="5.80418">
        <ele>799</ele>
        <time>2020-07-29T19:48:43Z</time>
      </trkpt>
      <trkpt lat="46.50663" lon="5.80407">
        <ele>799</ele>
        <time>2020-07-29T19:48:45Z</time>
      </trkpt>
      <trkpt lat="46.50626" lon="5.80384">
        <ele>799</ele>
        <time>2020-07-29T19:48:53Z</time>
      </trkpt>
      <trkpt lat="46.50598" lon="5.80362">
        <ele>799</ele>
        <time>2020-07-29T19:48:58Z</time>
      </trkpt>
      <trkpt lat="46.50583" lon="5.80345">
        <ele>800</ele>
        <time>2020-07-29T19:49:02Z</time>
      </trkpt>
      <trkpt lat="46.50567" lon="5.80314">
        <ele>799</ele>
        <time>2020-07-29T19:49:06Z</time>
      </trkpt>
      <trkpt lat="46.50534" lon="5.80271">
        <ele>799</ele>
        <time>2020-07-29T19:49:14Z</time>
      </trkpt>
      <trkpt lat="46.50523" lon="5.80263">
        <ele>799</ele>
        <time>2020-07-29T19:49:16Z</time>
      </trkpt>
      <trkpt lat="46.50485" lon="5.80253">
        <ele>798</ele>
        <time>2020-07-29T19:49:23Z</time>
      </trkpt>
      <trkpt lat="46.50466" lon="5.80239">
        <ele>799</ele>
        <time>2020-07-29T19:49:27Z</time>
      </trkpt>
      <trkpt lat="46.50452" lon="5.80217">
        <ele>799</ele>
        <time>2020-07-29T19:49:31Z</time>
      </trkpt>
      <trkpt lat="46.50439" lon="5.80188">
        <ele>799</ele>
        <time>2020-07-29T19:49:35Z</time>
      </trkpt>
      <trkpt lat="46.50435" lon="5.80175">
        <ele>799</ele>
        <time>2020-07-29T19:49:37Z</time>
      </trkpt>
      <trkpt lat="46.5043" lon="5.80161">
        <ele>799</ele>
        <time>2020-07-29T19:49:39Z</time>
      </trkpt>
      <trkpt lat="46.50425" lon="5.8011">
        <ele>796</ele>
        <time>2020-07-29T19:49:45Z</time>
      </trkpt>
      <trkpt lat="46.5045" lon="5.8003">
        <ele>797</ele>
        <time>2020-07-29T19:49:56Z</time>
      </trkpt>
      <trkpt lat="46.50465" lon="5.80008">
        <ele>799</ele>
        <time>2020-07-29T19:50:00Z</time>
      </trkpt>
      <trkpt lat="46.50477" lon="5.80005">
        <ele>800</ele>
        <time>2020-07-29T19:50:02Z</time>
      </trkpt>
      <trkpt lat="46.50507" lon="5.80013">
        <ele>801</ele>
        <time>2020-07-29T19:50:07Z</time>
      </trkpt>
      <trkpt lat="46.50521" lon="5.79995">
        <ele>803</ele>
        <time>2020-07-29T19:50:10Z</time>
      </trkpt>
      <trkpt lat="46.50527" lon="5.79978">
        <ele>804</ele>
        <time>2020-07-29T19:50:13Z</time>
      </trkpt>
      <trkpt lat="46.50525" lon="5.79958">
        <ele>805</ele>
        <time>2020-07-29T19:50:15Z</time>
      </trkpt>
      <trkpt lat="46.50488" lon="5.79915">
        <ele>805</ele>
        <time>2020-07-29T19:50:24Z</time>
      </trkpt>
      <trkpt lat="46.50449" lon="5.79854">
        <ele>805</ele>
        <time>2020-07-29T19:50:34Z</time>
      </trkpt>
      <trkpt lat="46.50416" lon="5.79785">
        <ele>805</ele>
        <time>2020-07-29T19:50:44Z</time>
      </trkpt>
      <trkpt lat="46.50406" lon="5.79743">
        <ele>805</ele>
        <time>2020-07-29T19:50:50Z</time>
      </trkpt>
      <trkpt lat="46.50392" lon="5.79714">
        <ele>804</ele>
        <time>2020-07-29T19:50:54Z</time>
      </trkpt>
      <trkpt lat="46.5034" lon="5.79638">
        <ele>804</ele>
        <time>2020-07-29T19:51:07Z</time>
      </trkpt>
      <trkpt lat="46.50318" lon="5.79614">
        <ele>803</ele>
        <time>2020-07-29T19:51:12Z</time>
      </trkpt>
      <trkpt lat="46.503" lon="5.79575">
        <ele>801</ele>
        <time>2020-07-29T19:51:18Z</time>
      </trkpt>
      <trkpt lat="46.50288" lon="5.79541">
        <ele>800</ele>
        <time>2020-07-29T19:51:22Z</time>
      </trkpt>
      <trkpt lat="46.5029" lon="5.7952">
        <ele>799</ele>
        <time>2020-07-29T19:51:25Z</time>
      </trkpt>
      <trkpt lat="46.50313" lon="5.79448">
        <ele>798</ele>
        <time>2020-07-29T19:51:35Z</time>
      </trkpt>
      <trkpt lat="46.50329" lon="5.7941">
        <ele>798</ele>
        <time>2020-07-29T19:51:40Z</time>
      </trkpt>
      <trkpt lat="46.5034" lon="5.79385">
        <ele>799</ele>
        <time>2020-07-29T19:51:44Z</time>
      </trkpt>
      <trkpt lat="46.50361" lon="5.79365">
        <ele>800</ele>
        <time>2020-07-29T19:51:48Z</time>
      </trkpt>
      <trkpt lat="46.50384" lon="5.79352">
        <ele>801</ele>
        <time>2020-07-29T19:51:53Z</time>
      </trkpt>
      <trkpt lat="46.50412" lon="5.79349">
        <ele>801</ele>
        <time>2020-07-29T19:51:58Z</time>
      </trkpt>
      <trkpt lat="46.50469" lon="5.79355">
        <ele>804</ele>
        <time>2020-07-29T19:52:08Z</time>
      </trkpt>
      <trkpt lat="46.50481" lon="5.7935">
        <ele>806</ele>
        <time>2020-07-29T19:52:10Z</time>
      </trkpt>
      <trkpt lat="46.50504" lon="5.7934">
        <ele>808</ele>
        <time>2020-07-29T19:52:14Z</time>
      </trkpt>
      <trkpt lat="46.50596" lon="5.79361">
        <ele>810</ele>
        <time>2020-07-29T19:52:31Z</time>
      </trkpt>
      <trkpt lat="46.50669" lon="5.79376">
        <ele>812</ele>
        <time>2020-07-29T19:52:44Z</time>
      </trkpt>
      <trkpt lat="46.50699" lon="5.79372">
        <ele>813</ele>
        <time>2020-07-29T19:52:49Z</time>
      </trkpt>
      <trkpt lat="46.5078" lon="5.79347">
        <ele>815</ele>
        <time>2020-07-29T19:53:04Z</time>
      </trkpt>
      <trkpt lat="46.50783" lon="5.79361">
        <ele>815</ele>
        <time>2020-07-29T19:53:06Z</time>
      </trkpt>
      <trkpt lat="46.50791" lon="5.79375">
        <ele>814</ele>
        <time>2020-07-29T19:53:08Z</time>
      </trkpt>
      <trkpt lat="46.50797" lon="5.79379">
        <ele>814</ele>
        <time>2020-07-29T19:53:09Z</time>
      </trkpt>
      <trkpt lat="46.5081" lon="5.79382">
        <ele>814</ele>
        <time>2020-07-29T19:53:12Z</time>
      </trkpt>
      <trkpt lat="46.50853" lon="5.79379">
        <ele>813</ele>
        <time>2020-07-29T19:53:19Z</time>
      </trkpt>
      <trkpt lat="46.50864" lon="5.79386">
        <ele>813</ele>
        <time>2020-07-29T19:53:21Z</time>
      </trkpt>
      <trkpt lat="46.50908" lon="5.79467">
        <ele>808</ele>
        <time>2020-07-29T19:53:34Z</time>
      </trkpt>
      <trkpt lat="46.50975" lon="5.79579">
        <ele>803</ele>
        <time>2020-07-29T19:53:52Z</time>
      </trkpt>
      <trkpt lat="46.51003" lon="5.79634">
        <ele>800</ele>
        <time>2020-07-29T19:54:01Z</time>
      </trkpt>
      <trkpt lat="46.51022" lon="5.79679">
        <ele>797</ele>
        <time>2020-07-29T19:54:07Z</time>
      </trkpt>
      <trkpt lat="46.51059" lon="5.79727">
        <ele>795</ele>
        <time>2020-07-29T19:54:16Z</time>
      </trkpt>
      <trkpt lat="46.51087" lon="5.79756">
        <ele>794</ele>
        <time>2020-07-29T19:54:22Z</time>
      </trkpt>
      <trkpt lat="46.51112" lon="5.79792">
        <ele>794</ele>
        <time>2020-07-29T19:54:28Z</time>
      </trkpt>
      <trkpt lat="46.5113" lon="5.79834">
        <ele>792</ele>
        <time>2020-07-29T19:54:34Z</time>
      </trkpt>
      <trkpt lat="46.51148" lon="5.799">
        <ele>788</ele>
        <time>2020-07-29T19:54:43Z</time>
      </trkpt>
      <trkpt lat="46.51201" lon="5.80012">
        <ele>787</ele>
        <time>2020-07-29T19:55:00Z</time>
      </trkpt>
      <trkpt lat="46.51223" lon="5.8008">
        <ele>788</ele>
        <time>2020-07-29T19:55:09Z</time>
      </trkpt>
      <trkpt lat="46.51238" lon="5.8017">
        <ele>787</ele>
        <time>2020-07-29T19:55:20Z</time>
      </trkpt>
      <trkpt lat="46.51256" lon="5.80209">
        <ele>787</ele>
        <time>2020-07-29T19:55:26Z</time>
      </trkpt>
      <trkpt lat="46.51291" lon="5.8024">
        <ele>788</ele>
        <time>2020-07-29T19:55:33Z</time>
      </trkpt>
      <trkpt lat="46.51326" lon="5.80261">
        <ele>789</ele>
        <time>2020-07-29T19:55:40Z</time>
      </trkpt>
      <trkpt lat="46.51361" lon="5.80287">
        <ele>793</ele>
        <time>2020-07-29T19:55:47Z</time>
      </trkpt>
      <trkpt lat="46.51379" lon="5.80306">
        <ele>795</ele>
        <time>2020-07-29T19:55:51Z</time>
      </trkpt>
      <trkpt lat="46.51394" lon="5.80334">
        <ele>798</ele>
        <time>2020-07-29T19:55:55Z</time>
      </trkpt>
      <trkpt lat="46.51403" lon="5.80358">
        <ele>797</ele>
        <time>2020-07-29T19:55:59Z</time>
      </trkpt>
      <trkpt lat="46.51429" lon="5.80467">
        <ele>794</ele>
        <time>2020-07-29T19:56:13Z</time>
      </trkpt>
      <trkpt lat="46.51441" lon="5.80488">
        <ele>793</ele>
        <time>2020-07-29T19:56:16Z</time>
      </trkpt>
      <trkpt lat="46.51445" lon="5.80493">
        <ele>793</ele>
        <time>2020-07-29T19:56:17Z</time>
      </trkpt>
      <trkpt lat="46.51457" lon="5.80498">
        <ele>793</ele>
        <time>2020-07-29T19:56:19Z</time>
      </trkpt>
      <trkpt lat="46.51425" lon="5.80643">
        <ele>802</ele>
        <time>2020-07-29T19:56:38Z</time>
      </trkpt>
      <trkpt lat="46.51373" lon="5.80874">
        <ele>807</ele>
        <time>2020-07-29T19:57:08Z</time>
      </trkpt>
      <trkpt lat="46.51368" lon="5.80902">
        <ele>810</ele>
        <time>2020-07-29T19:57:11Z</time>
      </trkpt>
      <trkpt lat="46.51368" lon="5.80922">
        <ele>814</ele>
        <time>2020-07-29T19:57:14Z</time>
      </trkpt>
      <trkpt lat="46.51371" lon="5.80939">
        <ele>818</ele>
        <time>2020-07-29T19:57:16Z</time>
      </trkpt>
      <trkpt lat="46.51384" lon="5.80974">
        <ele>825</ele>
        <time>2020-07-29T19:57:21Z</time>
      </trkpt>
      <trkpt lat="46.51403" lon="5.80999">
        <ele>828</ele>
        <time>2020-07-29T19:57:25Z</time>
      </trkpt>
      <trkpt lat="46.51458" lon="5.81062">
        <ele>835</ele>
        <time>2020-07-29T19:57:38Z</time>
      </trkpt>
      <trkpt lat="46.5149" lon="5.8111">
        <ele>835</ele>
        <time>2020-07-29T19:57:46Z</time>
      </trkpt>
      <trkpt lat="46.51513" lon="5.81163">
        <ele>843</ele>
        <time>2020-07-29T19:57:54Z</time>
      </trkpt>
      <trkpt lat="46.51522" lon="5.81177">
        <ele>846</ele>
        <time>2020-07-29T19:57:56Z</time>
      </trkpt>
      <trkpt lat="46.51574" lon="5.81226">
        <ele>847</ele>
        <time>2020-07-29T19:58:07Z</time>
      </trkpt>
      <trkpt lat="46.51604" lon="5.81261">
        <ele>850</ele>
        <time>2020-07-29T19:58:14Z</time>
      </trkpt>
      <trkpt lat="46.51632" lon="5.81292">
        <ele>853</ele>
        <time>2020-07-29T19:58:20Z</time>
      </trkpt>
      <trkpt lat="46.51666" lon="5.81342">
        <ele>857</ele>
        <time>2020-07-29T19:58:29Z</time>
      </trkpt>
      <trkpt lat="46.51683" lon="5.81354">
        <ele>857</ele>
        <time>2020-07-29T19:58:32Z</time>
      </trkpt>
      <trkpt lat="46.51706" lon="5.81367">
        <ele>857</ele>
        <time>2020-07-29T19:58:36Z</time>
      </trkpt>
      <trkpt lat="46.51727" lon="5.81384">
        <ele>859</ele>
        <time>2020-07-29T19:58:41Z</time>
      </trkpt>
      <trkpt lat="46.51756" lon="5.81413">
        <ele>863</ele>
        <time>2020-07-29T19:58:47Z</time>
      </trkpt>
      <trkpt lat="46.51805" lon="5.81448">
        <ele>861</ele>
        <time>2020-07-29T19:58:57Z</time>
      </trkpt>
      <trkpt lat="46.51842" lon="5.81471">
        <ele>857</ele>
        <time>2020-07-29T19:59:04Z</time>
      </trkpt>
      <trkpt lat="46.51858" lon="5.8149">
        <ele>858</ele>
        <time>2020-07-29T19:59:08Z</time>
      </trkpt>
      <trkpt lat="46.51873" lon="5.81524">
        <ele>862</ele>
        <time>2020-07-29T19:59:12Z</time>
      </trkpt>
      <trkpt lat="46.51881" lon="5.81552">
        <ele>867</ele>
        <time>2020-07-29T19:59:16Z</time>
      </trkpt>
      <trkpt lat="46.51893" lon="5.81573">
        <ele>869</ele>
        <time>2020-07-29T19:59:20Z</time>
      </trkpt>
      <trkpt lat="46.5191" lon="5.81592">
        <ele>867</ele>
        <time>2020-07-29T19:59:23Z</time>
      </trkpt>
      <trkpt lat="46.51933" lon="5.81608">
        <ele>863</ele>
        <time>2020-07-29T19:59:28Z</time>
      </trkpt>
      <trkpt lat="46.51947" lon="5.81621">
        <ele>862</ele>
        <time>2020-07-29T19:59:31Z</time>
      </trkpt>
      <trkpt lat="46.51994" lon="5.81689">
        <ele>868</ele>
        <time>2020-07-29T19:59:43Z</time>
      </trkpt>
      <trkpt lat="46.52042" lon="5.81787">
        <ele>874</ele>
        <time>2020-07-29T19:59:57Z</time>
      </trkpt>
      <trkpt lat="46.52069" lon="5.81853">
        <ele>883</ele>
        <time>2020-07-29T20:00:07Z</time>
      </trkpt>
      <trkpt lat="46.52083" lon="5.81877">
        <ele>886</ele>
        <time>2020-07-29T20:00:11Z</time>
      </trkpt>
      <trkpt lat="46.52095" lon="5.81884">
        <ele>885</ele>
        <time>2020-07-29T20:00:13Z</time>
      </trkpt>
      <trkpt lat="46.52122" lon="5.81885">
        <ele>881</ele>
        <time>2020-07-29T20:00:18Z</time>
      </trkpt>
      <trkpt lat="46.52149" lon="5.81896">
        <ele>881</ele>
        <time>2020-07-29T20:00:23Z</time>
      </trkpt>
      <trkpt lat="46.52178" lon="5.81893">
        <ele>875</ele>
        <time>2020-07-29T20:00:28Z</time>
      </trkpt>
      <trkpt lat="46.52194" lon="5.81896">
        <ele>874</ele>
        <time>2020-07-29T20:00:31Z</time>
      </trkpt>
      <trkpt lat="46.52201" lon="5.81899">
        <ele>874</ele>
        <time>2020-07-29T20:00:32Z</time>
      </trkpt>
      <trkpt lat="46.52222" lon="5.81913">
        <ele>877</ele>
        <time>2020-07-29T20:00:36Z</time>
      </trkpt>
      <trkpt lat="46.52242" lon="5.81935">
        <ele>881</ele>
        <time>2020-07-29T20:00:41Z</time>
      </trkpt>
      <trkpt lat="46.52272" lon="5.81984">
        <ele>891</ele>
        <time>2020-07-29T20:00:49Z</time>
      </trkpt>
      <trkpt lat="46.52281" lon="5.8199">
        <ele>892</ele>
        <time>2020-07-29T20:00:50Z</time>
      </trkpt>
      <trkpt lat="46.52302" lon="5.81989">
        <ele>888</ele>
        <time>2020-07-29T20:00:54Z</time>
      </trkpt>
      <trkpt lat="46.52314" lon="5.81992">
        <ele>887</ele>
        <time>2020-07-29T20:00:56Z</time>
      </trkpt>
      <trkpt lat="46.52325" lon="5.82004">
        <ele>889</ele>
        <time>2020-07-29T20:00:59Z</time>
      </trkpt>
      <trkpt lat="46.5233" lon="5.82025">
        <ele>892</ele>
        <time>2020-07-29T20:01:02Z</time>
      </trkpt>
      <trkpt lat="46.5233" lon="5.82031">
        <ele>893</ele>
        <time>2020-07-29T20:01:02Z</time>
      </trkpt>
      <trkpt lat="46.52326" lon="5.82045">
        <ele>897</ele>
        <time>2020-07-29T20:01:04Z</time>
      </trkpt>
      <trkpt lat="46.52317" lon="5.82053">
        <ele>899</ele>
        <time>2020-07-29T20:01:06Z</time>
      </trkpt>
      <trkpt lat="46.52306" lon="5.82054">
        <ele>901</ele>
        <time>2020-07-29T20:01:08Z</time>
      </trkpt>
      <trkpt lat="46.523" lon="5.82052">
        <ele>901</ele>
        <time>2020-07-29T20:01:09Z</time>
      </trkpt>
      <trkpt lat="46.52285" lon="5.82034">
        <ele>900</ele>
        <time>2020-07-29T20:01:12Z</time>
      </trkpt>
      <trkpt lat="46.52257" lon="5.81991">
        <ele>896</ele>
        <time>2020-07-29T20:01:20Z</time>
      </trkpt>
      <trkpt lat="46.52245" lon="5.81983">
        <ele>895</ele>
        <time>2020-07-29T20:01:22Z</time>
      </trkpt>
      <trkpt lat="46.5223" lon="5.81981">
        <ele>895</ele>
        <time>2020-07-29T20:01:25Z</time>
      </trkpt>
      <trkpt lat="46.52212" lon="5.81987">
        <ele>898</ele>
        <time>2020-07-29T20:01:28Z</time>
      </trkpt>
      <trkpt lat="46.52193" lon="5.82001">
        <ele>903</ele>
        <time>2020-07-29T20:01:32Z</time>
      </trkpt>
      <trkpt lat="46.52175" lon="5.82009">
        <ele>905</ele>
        <time>2020-07-29T20:01:35Z</time>
      </trkpt>
      <trkpt lat="46.52122" lon="5.82017">
        <ele>908</ele>
        <time>2020-07-29T20:01:45Z</time>
      </trkpt>
      <trkpt lat="46.52103" lon="5.82023">
        <ele>910</ele>
        <time>2020-07-29T20:01:48Z</time>
      </trkpt>
      <trkpt lat="46.52049" lon="5.82059">
        <ele>916</ele>
        <time>2020-07-29T20:01:59Z</time>
      </trkpt>
      <trkpt lat="46.52027" lon="5.82067">
        <ele>918</ele>
        <time>2020-07-29T20:02:03Z</time>
      </trkpt>
      <trkpt lat="46.5201" lon="5.82066">
        <ele>918</ele>
        <time>2020-07-29T20:02:06Z</time>
      </trkpt>
      <trkpt lat="46.51915" lon="5.82042">
        <ele>922</ele>
        <time>2020-07-29T20:02:23Z</time>
      </trkpt>
      <trkpt lat="46.51877" lon="5.82037">
        <ele>923</ele>
        <time>2020-07-29T20:02:30Z</time>
      </trkpt>
      <trkpt lat="46.51826" lon="5.82048">
        <ele>926</ele>
        <time>2020-07-29T20:02:39Z</time>
      </trkpt>
      <trkpt lat="46.51805" lon="5.8205">
        <ele>927</ele>
        <time>2020-07-29T20:02:43Z</time>
      </trkpt>
      <trkpt lat="46.51794" lon="5.82047">
        <ele>927</ele>
        <time>2020-07-29T20:02:45Z</time>
      </trkpt>
      <trkpt lat="46.51759" lon="5.82027">
        <ele>927</ele>
        <time>2020-07-29T20:02:51Z</time>
      </trkpt>
      <trkpt lat="46.51744" lon="5.82026">
        <ele>927</ele>
        <time>2020-07-29T20:02:54Z</time>
      </trkpt>
      <trkpt lat="46.51738" lon="5.82028">
        <ele>927</ele>
        <time>2020-07-29T20:02:55Z</time>
      </trkpt>
      <trkpt lat="46.51728" lon="5.82035">
        <ele>928</ele>
        <time>2020-07-29T20:02:57Z</time>
      </trkpt>
      <trkpt lat="46.517" lon="5.82067">
        <ele>932</ele>
        <time>2020-07-29T20:03:03Z</time>
      </trkpt>
      <trkpt lat="46.51682" lon="5.82086">
        <ele>934</ele>
        <time>2020-07-29T20:03:07Z</time>
      </trkpt>
      <trkpt lat="46.51651" lon="5.82104">
        <ele>936</ele>
        <time>2020-07-29T20:03:13Z</time>
      </trkpt>
      <trkpt lat="46.5164" lon="5.82106">
        <ele>937</ele>
        <time>2020-07-29T20:03:15Z</time>
      </trkpt>
      <trkpt lat="46.51608" lon="5.82106">
        <ele>938</ele>
        <time>2020-07-29T20:03:21Z</time>
      </trkpt>
      <trkpt lat="46.51575" lon="5.82103">
        <ele>940</ele>
        <time>2020-07-29T20:03:27Z</time>
      </trkpt>
      <trkpt lat="46.51553" lon="5.82098">
        <ele>944</ele>
        <time>2020-07-29T20:03:31Z</time>
      </trkpt>
      <trkpt lat="46.51543" lon="5.8209">
        <ele>946</ele>
        <time>2020-07-29T20:03:33Z</time>
      </trkpt>
      <trkpt lat="46.51534" lon="5.82071">
        <ele>947</ele>
        <time>2020-07-29T20:03:36Z</time>
      </trkpt>
      <trkpt lat="46.51521" lon="5.81995">
        <ele>945</ele>
        <time>2020-07-29T20:03:45Z</time>
      </trkpt>
      <trkpt lat="46.51513" lon="5.8197">
        <ele>945</ele>
        <time>2020-07-29T20:03:49Z</time>
      </trkpt>
      <trkpt lat="46.51502" lon="5.8195">
        <ele>945</ele>
        <time>2020-07-29T20:03:52Z</time>
      </trkpt>
      <trkpt lat="46.51492" lon="5.81941">
        <ele>946</ele>
        <time>2020-07-29T20:03:54Z</time>
      </trkpt>
      <trkpt lat="46.51473" lon="5.81933">
        <ele>948</ele>
        <time>2020-07-29T20:03:57Z</time>
      </trkpt>
      <trkpt lat="46.51399" lon="5.81907">
        <ele>954</ele>
        <time>2020-07-29T20:04:11Z</time>
      </trkpt>
      <trkpt lat="46.51377" lon="5.81903">
        <ele>956</ele>
        <time>2020-07-29T20:04:15Z</time>
      </trkpt>
      <trkpt lat="46.51361" lon="5.81904">
        <ele>958</ele>
        <time>2020-07-29T20:04:18Z</time>
      </trkpt>
      <trkpt lat="46.51347" lon="5.81907">
        <ele>960</ele>
        <time>2020-07-29T20:04:20Z</time>
      </trkpt>
      <trkpt lat="46.51325" lon="5.8192">
        <ele>962</ele>
        <time>2020-07-29T20:04:24Z</time>
      </trkpt>
      <trkpt lat="46.51311" lon="5.81936">
        <ele>963</ele>
        <time>2020-07-29T20:04:28Z</time>
      </trkpt>
      <trkpt lat="46.51283" lon="5.8198">
        <ele>964</ele>
        <time>2020-07-29T20:04:35Z</time>
      </trkpt>
      <trkpt lat="46.51263" lon="5.82008">
        <ele>964</ele>
        <time>2020-07-29T20:04:40Z</time>
      </trkpt>
      <trkpt lat="46.51252" lon="5.8202">
        <ele>963</ele>
        <time>2020-07-29T20:04:42Z</time>
      </trkpt>
      <trkpt lat="46.51228" lon="5.82036">
        <ele>962</ele>
        <time>2020-07-29T20:04:47Z</time>
      </trkpt>
      <trkpt lat="46.5121" lon="5.82056">
        <ele>961</ele>
        <time>2020-07-29T20:04:51Z</time>
      </trkpt>
      <trkpt lat="46.51204" lon="5.82069">
        <ele>961</ele>
        <time>2020-07-29T20:04:53Z</time>
      </trkpt>
      <trkpt lat="46.51194" lon="5.82102">
        <ele>960</ele>
        <time>2020-07-29T20:04:57Z</time>
      </trkpt>
      <trkpt lat="46.51181" lon="5.82138">
        <ele>961</ele>
        <time>2020-07-29T20:05:02Z</time>
      </trkpt>
      <trkpt lat="46.51176" lon="5.82149">
        <ele>961</ele>
        <time>2020-07-29T20:05:04Z</time>
      </trkpt>
      <trkpt lat="46.51162" lon="5.82169">
        <ele>961</ele>
        <time>2020-07-29T20:05:07Z</time>
      </trkpt>
      <trkpt lat="46.51135" lon="5.82193">
        <ele>961</ele>
        <time>2020-07-29T20:05:13Z</time>
      </trkpt>
      <trkpt lat="46.51107" lon="5.82227">
        <ele>961</ele>
        <time>2020-07-29T20:05:20Z</time>
      </trkpt>
      <trkpt lat="46.51056" lon="5.82269">
        <ele>961</ele>
        <time>2020-07-29T20:05:30Z</time>
      </trkpt>
      <trkpt lat="46.51044" lon="5.82284">
        <ele>961</ele>
        <time>2020-07-29T20:05:33Z</time>
      </trkpt>
      <trkpt lat="46.51028" lon="5.82319">
        <ele>962</ele>
        <time>2020-07-29T20:05:38Z</time>
      </trkpt>
      <trkpt lat="46.51019" lon="5.82352">
        <ele>962</ele>
        <time>2020-07-29T20:05:42Z</time>
      </trkpt>
      <trkpt lat="46.51017" lon="5.82386">
        <ele>963</ele>
        <time>2020-07-29T20:05:47Z</time>
      </trkpt>
      <trkpt lat="46.5102" lon="5.82411">
        <ele>964</ele>
        <time>2020-07-29T20:05:50Z</time>
      </trkpt>
      <trkpt lat="46.51029" lon="5.82434">
        <ele>964</ele>
        <time>2020-07-29T20:05:53Z</time>
      </trkpt>
      <trkpt lat="46.51045" lon="5.8246">
        <ele>965</ele>
        <time>2020-07-29T20:05:57Z</time>
      </trkpt>
      <trkpt lat="46.51056" lon="5.82483">
        <ele>965</ele>
        <time>2020-07-29T20:06:01Z</time>
      </trkpt>
      <trkpt lat="46.51076" lon="5.82556">
        <ele>962</ele>
        <time>2020-07-29T20:06:10Z</time>
      </trkpt>
      <trkpt lat="46.51084" lon="5.82574">
        <ele>961</ele>
        <time>2020-07-29T20:06:13Z</time>
      </trkpt>
      <trkpt lat="46.51097" lon="5.82588">
        <ele>960</ele>
        <time>2020-07-29T20:06:16Z</time>
      </trkpt>
      <trkpt lat="46.51115" lon="5.82596">
        <ele>959</ele>
        <time>2020-07-29T20:06:19Z</time>
      </trkpt>
      <trkpt lat="46.51158" lon="5.82601">
        <ele>959</ele>
        <time>2020-07-29T20:06:27Z</time>
      </trkpt>
      <trkpt lat="46.51187" lon="5.82611">
        <ele>960</ele>
        <time>2020-07-29T20:06:32Z</time>
      </trkpt>
      <trkpt lat="46.51213" lon="5.82627">
        <ele>960</ele>
        <time>2020-07-29T20:06:37Z</time>
      </trkpt>
      <trkpt lat="46.5123" lon="5.82647">
        <ele>960</ele>
        <time>2020-07-29T20:06:41Z</time>
      </trkpt>
      <trkpt lat="46.51248" lon="5.82675">
        <ele>959</ele>
        <time>2020-07-29T20:06:46Z</time>
      </trkpt>
      <trkpt lat="46.51273" lon="5.8273">
        <ele>958</ele>
        <time>2020-07-29T20:06:54Z</time>
      </trkpt>
      <trkpt lat="46.51295" lon="5.82764">
        <ele>959</ele>
        <time>2020-07-29T20:06:59Z</time>
      </trkpt>
      <trkpt lat="46.5131" lon="5.82793">
        <ele>960</ele>
        <time>2020-07-29T20:07:04Z</time>
      </trkpt>
      <trkpt lat="46.51323" lon="5.82832">
        <ele>960</ele>
        <time>2020-07-29T20:07:09Z</time>
      </trkpt>
      <trkpt lat="46.5133" lon="5.82864">
        <ele>959</ele>
        <time>2020-07-29T20:07:13Z</time>
      </trkpt>
      <trkpt lat="46.51331" lon="5.82875">
        <ele>959</ele>
        <time>2020-07-29T20:07:15Z</time>
      </trkpt>
      <trkpt lat="46.5133" lon="5.82898">
        <ele>958</ele>
        <time>2020-07-29T20:07:17Z</time>
      </trkpt>
      <trkpt lat="46.51326" lon="5.82937">
        <ele>957</ele>
        <time>2020-07-29T20:07:22Z</time>
      </trkpt>
      <trkpt lat="46.51325" lon="5.82958">
        <ele>956</ele>
        <time>2020-07-29T20:07:25Z</time>
      </trkpt>
      <trkpt lat="46.5133" lon="5.82985">
        <ele>954</ele>
        <time>2020-07-29T20:07:28Z</time>
      </trkpt>
      <trkpt lat="46.51336" lon="5.83001">
        <ele>953</ele>
        <time>2020-07-29T20:07:31Z</time>
      </trkpt>
      <trkpt lat="46.51345" lon="5.83015">
        <ele>955</ele>
        <time>2020-07-29T20:07:33Z</time>
      </trkpt>
      <trkpt lat="46.51378" lon="5.83044">
        <ele>957</ele>
        <time>2020-07-29T20:07:40Z</time>
      </trkpt>
      <trkpt lat="46.51388" lon="5.83055">
        <ele>957</ele>
        <time>2020-07-29T20:07:42Z</time>
      </trkpt>
      <trkpt lat="46.51396" lon="5.83067">
        <ele>957</ele>
        <time>2020-07-29T20:07:44Z</time>
      </trkpt>
      <trkpt lat="46.51406" lon="5.83089">
        <ele>956</ele>
        <time>2020-07-29T20:07:47Z</time>
      </trkpt>
      <trkpt lat="46.51409" lon="5.83115">
        <ele>955</ele>
        <time>2020-07-29T20:07:50Z</time>
      </trkpt>
      <trkpt lat="46.51408" lon="5.83134">
        <ele>954</ele>
        <time>2020-07-29T20:07:53Z</time>
      </trkpt>
      <trkpt lat="46.51402" lon="5.83169">
        <ele>953</ele>
        <time>2020-07-29T20:07:57Z</time>
      </trkpt>
      <trkpt lat="46.51358" lon="5.83317">
        <ele>950</ele>
        <time>2020-07-29T20:08:17Z</time>
      </trkpt>
      <trkpt lat="46.51333" lon="5.83379">
        <ele>953</ele>
        <time>2020-07-29T20:08:26Z</time>
      </trkpt>
      <trkpt lat="46.51306" lon="5.8342">
        <ele>951</ele>
        <time>2020-07-29T20:08:33Z</time>
      </trkpt>
      <trkpt lat="46.51287" lon="5.83461">
        <ele>950</ele>
        <time>2020-07-29T20:08:39Z</time>
      </trkpt>
      <trkpt lat="46.51272" lon="5.8349">
        <ele>949</ele>
        <time>2020-07-29T20:08:43Z</time>
      </trkpt>
      <trkpt lat="46.5124" lon="5.8353">
        <ele>946</ele>
        <time>2020-07-29T20:08:51Z</time>
      </trkpt>
      <trkpt lat="46.51209" lon="5.83585">
        <ele>943</ele>
        <time>2020-07-29T20:08:59Z</time>
      </trkpt>
      <trkpt lat="46.512" lon="5.83596">
        <ele>942</ele>
        <time>2020-07-29T20:09:02Z</time>
      </trkpt>
      <trkpt lat="46.51162" lon="5.83637">
        <ele>942</ele>
        <time>2020-07-29T20:09:10Z</time>
      </trkpt>
      <trkpt lat="46.51148" lon="5.83657">
        <ele>942</ele>
        <time>2020-07-29T20:09:13Z</time>
      </trkpt>
      <trkpt lat="46.51118" lon="5.8371">
        <ele>936</ele>
        <time>2020-07-29T20:09:22Z</time>
      </trkpt>
      <trkpt lat="46.51112" lon="5.83729">
        <ele>933</ele>
        <time>2020-07-29T20:09:24Z</time>
      </trkpt>
      <trkpt lat="46.51111" lon="5.83739">
        <ele>931</ele>
        <time>2020-07-29T20:09:26Z</time>
      </trkpt>
      <trkpt lat="46.51115" lon="5.83756">
        <ele>929</ele>
        <time>2020-07-29T20:09:28Z</time>
      </trkpt>
      <trkpt lat="46.5112" lon="5.83768">
        <ele>928</ele>
        <time>2020-07-29T20:09:30Z</time>
      </trkpt>
      <trkpt lat="46.51129" lon="5.83779">
        <ele>927</ele>
        <time>2020-07-29T20:09:32Z</time>
      </trkpt>
      <trkpt lat="46.51135" lon="5.83781">
        <ele>927</ele>
        <time>2020-07-29T20:09:33Z</time>
      </trkpt>
      <trkpt lat="46.5117" lon="5.83787">
        <ele>930</ele>
        <time>2020-07-29T20:09:39Z</time>
      </trkpt>
      <trkpt lat="46.51184" lon="5.83799">
        <ele>929</ele>
        <time>2020-07-29T20:09:42Z</time>
      </trkpt>
      <trkpt lat="46.51193" lon="5.83818">
        <ele>927</ele>
        <time>2020-07-29T20:09:45Z</time>
      </trkpt>
      <trkpt lat="46.51194" lon="5.83841">
        <ele>924</ele>
        <time>2020-07-29T20:09:48Z</time>
      </trkpt>
      <trkpt lat="46.51192" lon="5.83855">
        <ele>922</ele>
        <time>2020-07-29T20:09:49Z</time>
      </trkpt>
      <trkpt lat="46.51168" lon="5.83926">
        <ele>913</ele>
        <time>2020-07-29T20:09:59Z</time>
      </trkpt>
      <trkpt lat="46.51162" lon="5.83951">
        <ele>911</ele>
        <time>2020-07-29T20:10:02Z</time>
      </trkpt>
      <trkpt lat="46.51161" lon="5.83965">
        <ele>911</ele>
        <time>2020-07-29T20:10:04Z</time>
      </trkpt>
      <trkpt lat="46.51159" lon="5.83965">
        <ele>911</ele>
        <time>2020-07-29T20:10:04Z</time>
      </trkpt>
      <trkpt lat="46.51155" lon="5.83968">
        <ele>910</ele>
        <time>2020-07-29T20:10:05Z</time>
      </trkpt>
      <trkpt lat="46.51154" lon="5.83974">
        <ele>910</ele>
        <time>2020-07-29T20:10:06Z</time>
      </trkpt>
      <trkpt lat="46.51154" lon="5.83977">
        <ele>910</ele>
        <time>2020-07-29T20:10:06Z</time>
      </trkpt>
      <trkpt lat="46.51155" lon="5.8398">
        <ele>910</ele>
        <time>2020-07-29T20:10:07Z</time>
      </trkpt>
      <trkpt lat="46.51159" lon="5.83983">
        <ele>910</ele>
        <time>2020-07-29T20:10:07Z</time>
      </trkpt>
      <trkpt lat="46.51163" lon="5.83982">
        <ele>910</ele>
        <time>2020-07-29T20:10:08Z</time>
      </trkpt>
      <trkpt lat="46.51166" lon="5.83975">
        <ele>910</ele>
        <time>2020-07-29T20:10:09Z</time>
      </trkpt>
      <trkpt lat="46.51166" lon="5.83974">
        <ele>910</ele>
        <time>2020-07-29T20:10:09Z</time>
      </trkpt>
      <trkpt lat="46.51173" lon="5.83972">
        <ele>910</ele>
        <time>2020-07-29T20:10:11Z</time>
      </trkpt>
      <trkpt lat="46.51183" lon="5.83969">
        <ele>911</ele>
        <time>2020-07-29T20:10:12Z</time>
      </trkpt>
      <trkpt lat="46.51195" lon="5.83963">
        <ele>911</ele>
        <time>2020-07-29T20:10:15Z</time>
      </trkpt>
      <trkpt lat="46.51216" lon="5.83946">
        <ele>913</ele>
        <time>2020-07-29T20:10:19Z</time>
      </trkpt>
      <trkpt lat="46.51222" lon="5.83942">
        <ele>914</ele>
        <time>2020-07-29T20:10:20Z</time>
      </trkpt>
      <trkpt lat="46.51235" lon="5.83939">
        <ele>915</ele>
        <time>2020-07-29T20:10:22Z</time>
      </trkpt>
      <trkpt lat="46.51249" lon="5.83943">
        <ele>915</ele>
        <time>2020-07-29T20:10:25Z</time>
      </trkpt>
      <trkpt lat="46.51258" lon="5.83947">
        <ele>915</ele>
        <time>2020-07-29T20:10:27Z</time>
      </trkpt>
      <trkpt lat="46.51282" lon="5.83958">
        <ele>916</ele>
        <time>2020-07-29T20:10:31Z</time>
      </trkpt>
      <trkpt lat="46.51297" lon="5.83967">
        <ele>917</ele>
        <time>2020-07-29T20:10:34Z</time>
      </trkpt>
      <trkpt lat="46.51307" lon="5.83979">
        <ele>916</ele>
        <time>2020-07-29T20:10:36Z</time>
      </trkpt>
      <trkpt lat="46.51315" lon="5.83994">
        <ele>915</ele>
        <time>2020-07-29T20:10:39Z</time>
      </trkpt>
      <trkpt lat="46.51319" lon="5.8401">
        <ele>914</ele>
        <time>2020-07-29T20:10:41Z</time>
      </trkpt>
      <trkpt lat="46.5132" lon="5.84019">
        <ele>913</ele>
        <time>2020-07-29T20:10:42Z</time>
      </trkpt>
      <trkpt lat="46.5132" lon="5.84025">
        <ele>912</ele>
        <time>2020-07-29T20:10:43Z</time>
      </trkpt>
      <trkpt lat="46.51318" lon="5.84056">
        <ele>909</ele>
        <time>2020-07-29T20:10:46Z</time>
      </trkpt>
      <trkpt lat="46.51319" lon="5.84073">
        <ele>907</ele>
        <time>2020-07-29T20:10:48Z</time>
      </trkpt>
      <trkpt lat="46.51322" lon="5.8408">
        <ele>906</ele>
        <time>2020-07-29T20:10:49Z</time>
      </trkpt>
      <trkpt lat="46.51325" lon="5.84086">
        <ele>906</ele>
        <time>2020-07-29T20:10:50Z</time>
      </trkpt>
      <trkpt lat="46.51329" lon="5.84093">
        <ele>906</ele>
        <time>2020-07-29T20:10:52Z</time>
      </trkpt>
      <trkpt lat="46.51341" lon="5.84103">
        <ele>907</ele>
        <time>2020-07-29T20:10:54Z</time>
      </trkpt>
      <trkpt lat="46.51395" lon="5.84137">
        <ele>914</ele>
        <time>2020-07-29T20:11:04Z</time>
      </trkpt>
      <trkpt lat="46.51417" lon="5.84157">
        <ele>915</ele>
        <time>2020-07-29T20:11:09Z</time>
      </trkpt>
      <trkpt lat="46.51428" lon="5.84165">
        <ele>915</ele>
        <time>2020-07-29T20:11:11Z</time>
      </trkpt>
      <trkpt lat="46.51436" lon="5.8417">
        <ele>915</ele>
        <time>2020-07-29T20:11:13Z</time>
      </trkpt>
      <trkpt lat="46.51463" lon="5.8418">
        <ele>917</ele>
        <time>2020-07-29T20:11:18Z</time>
      </trkpt>
      <trkpt lat="46.51498" lon="5.84184">
        <ele>919</ele>
        <time>2020-07-29T20:11:24Z</time>
      </trkpt>
      <trkpt lat="46.51512" lon="5.84191">
        <ele>918</ele>
        <time>2020-07-29T20:11:27Z</time>
      </trkpt>
      <trkpt lat="46.51545" lon="5.84241">
        <ele>914</ele>
        <time>2020-07-29T20:11:35Z</time>
      </trkpt>
      <trkpt lat="46.51596" lon="5.84282">
        <ele>914</ele>
        <time>2020-07-29T20:11:45Z</time>
      </trkpt>
      <trkpt lat="46.5164" lon="5.84324">
        <ele>912</ele>
        <time>2020-07-29T20:11:55Z</time>
      </trkpt>
      <trkpt lat="46.51675" lon="5.84358">
        <ele>911</ele>
        <time>2020-07-29T20:12:02Z</time>
      </trkpt>
      <trkpt lat="46.51677" lon="5.8436">
        <ele>911</ele>
        <time>2020-07-29T20:12:03Z</time>
      </trkpt>
      <trkpt lat="46.51699" lon="5.84376">
        <ele>912</ele>
        <time>2020-07-29T20:12:07Z</time>
      </trkpt>
      <trkpt lat="46.51725" lon="5.84405">
        <ele>912</ele>
        <time>2020-07-29T20:12:13Z</time>
      </trkpt>
      <trkpt lat="46.51738" lon="5.84447">
        <ele>912</ele>
        <time>2020-07-29T20:12:19Z</time>
      </trkpt>
      <trkpt lat="46.51736" lon="5.84544">
        <ele>911</ele>
        <time>2020-07-29T20:12:31Z</time>
      </trkpt>
      <trkpt lat="46.51725" lon="5.84622">
        <ele>909</ele>
        <time>2020-07-29T20:12:40Z</time>
      </trkpt>
      <trkpt lat="46.51727" lon="5.84671">
        <ele>909</ele>
        <time>2020-07-29T20:12:46Z</time>
      </trkpt>
      <trkpt lat="46.51742" lon="5.84738">
        <ele>908</ele>
        <time>2020-07-29T20:12:55Z</time>
      </trkpt>
      <trkpt lat="46.51767" lon="5.84775">
        <ele>908</ele>
        <time>2020-07-29T20:13:01Z</time>
      </trkpt>
      <trkpt lat="46.51869" lon="5.84869">
        <ele>908</ele>
        <time>2020-07-29T20:13:23Z</time>
      </trkpt>
      <trkpt lat="46.51892" lon="5.84886">
        <ele>907</ele>
        <time>2020-07-29T20:13:27Z</time>
      </trkpt>
      <trkpt lat="46.51905" lon="5.84894">
        <ele>906</ele>
        <time>2020-07-29T20:13:30Z</time>
      </trkpt>
      <trkpt lat="46.51915" lon="5.84899">
        <ele>906</ele>
        <time>2020-07-29T20:13:32Z</time>
      </trkpt>
      <trkpt lat="46.51938" lon="5.84904">
        <ele>907</ele>
        <time>2020-07-29T20:13:36Z</time>
      </trkpt>
      <trkpt lat="46.51954" lon="5.84901">
        <ele>908</ele>
        <time>2020-07-29T20:13:39Z</time>
      </trkpt>
      <trkpt lat="46.51969" lon="5.84894">
        <ele>909</ele>
        <time>2020-07-29T20:13:42Z</time>
      </trkpt>
      <trkpt lat="46.51988" lon="5.84879">
        <ele>912</ele>
        <time>2020-07-29T20:13:45Z</time>
      </trkpt>
      <trkpt lat="46.52006" lon="5.84858">
        <ele>914</ele>
        <time>2020-07-29T20:13:49Z</time>
      </trkpt>
      <trkpt lat="46.52058" lon="5.84771">
        <ele>916</ele>
        <time>2020-07-29T20:14:04Z</time>
      </trkpt>
      <trkpt lat="46.52074" lon="5.84754">
        <ele>916</ele>
        <time>2020-07-29T20:14:07Z</time>
      </trkpt>
      <trkpt lat="46.52079" lon="5.8475">
        <ele>915</ele>
        <time>2020-07-29T20:14:08Z</time>
      </trkpt>
      <trkpt lat="46.52093" lon="5.84741">
        <ele>917</ele>
        <time>2020-07-29T20:14:11Z</time>
      </trkpt>
      <trkpt lat="46.52106" lon="5.84737">
        <ele>918</ele>
        <time>2020-07-29T20:14:13Z</time>
      </trkpt>
      <trkpt lat="46.52121" lon="5.84735">
        <ele>919</ele>
        <time>2020-07-29T20:14:16Z</time>
      </trkpt>
      <trkpt lat="46.52136" lon="5.84739">
        <ele>919</ele>
        <time>2020-07-29T20:14:19Z</time>
      </trkpt>
      <trkpt lat="46.52145" lon="5.84743">
        <ele>919</ele>
        <time>2020-07-29T20:14:20Z</time>
      </trkpt>
      <trkpt lat="46.52158" lon="5.8475">
        <ele>919</ele>
        <time>2020-07-29T20:14:23Z</time>
      </trkpt>
      <trkpt lat="46.52236" lon="5.8479">
        <ele>919</ele>
        <time>2020-07-29T20:14:37Z</time>
      </trkpt>
      <trkpt lat="46.52252" lon="5.84798">
        <ele>919</ele>
        <time>2020-07-29T20:14:40Z</time>
      </trkpt>
      <trkpt lat="46.52261" lon="5.84804">
        <ele>920</ele>
        <time>2020-07-29T20:14:42Z</time>
      </trkpt>
      <trkpt lat="46.52272" lon="5.84813">
        <ele>920</ele>
        <time>2020-07-29T20:14:44Z</time>
      </trkpt>
      <trkpt lat="46.52277" lon="5.8482">
        <ele>920</ele>
        <time>2020-07-29T20:14:46Z</time>
      </trkpt>
      <trkpt lat="46.5228" lon="5.84824">
        <ele>920</ele>
        <time>2020-07-29T20:14:46Z</time>
      </trkpt>
      <trkpt lat="46.52283" lon="5.84832">
        <ele>919</ele>
        <time>2020-07-29T20:14:48Z</time>
      </trkpt>
      <trkpt lat="46.52286" lon="5.8484">
        <ele>919</ele>
        <time>2020-07-29T20:14:49Z</time>
      </trkpt>
      <trkpt lat="46.52287" lon="5.84842">
        <ele>919</ele>
        <time>2020-07-29T20:14:49Z</time>
      </trkpt>
      <trkpt lat="46.52292" lon="5.84831">
        <ele>921</ele>
        <time>2020-07-29T20:14:51Z</time>
      </trkpt>
      <trkpt lat="46.52299" lon="5.84816">
        <ele>924</ele>
        <time>2020-07-29T20:14:53Z</time>
      </trkpt>
      <trkpt lat="46.52305" lon="5.84817">
        <ele>925</ele>
        <time>2020-07-29T20:14:54Z</time>
      </trkpt>
      <trkpt lat="46.52321" lon="5.84831">
        <ele>925</ele>
        <time>2020-07-29T20:14:57Z</time>
      </trkpt>
      <trkpt lat="46.52365" lon="5.84886">
        <ele>923</ele>
        <time>2020-07-29T20:15:08Z</time>
      </trkpt>
      <trkpt lat="46.52375" lon="5.84895">
        <ele>923</ele>
        <time>2020-07-29T20:15:10Z</time>
      </trkpt>
      <trkpt lat="46.52388" lon="5.849">
        <ele>925</ele>
        <time>2020-07-29T20:15:12Z</time>
      </trkpt>
      <trkpt lat="46.52425" lon="5.849">
        <ele>930</ele>
        <time>2020-07-29T20:15:19Z</time>
      </trkpt>
      <trkpt lat="46.52509" lon="5.84894">
        <ele>938</ele>
        <time>2020-07-29T20:15:34Z</time>
      </trkpt>
      <trkpt lat="46.52522" lon="5.84888">
        <ele>940</ele>
        <time>2020-07-29T20:15:36Z</time>
      </trkpt>
      <trkpt lat="46.52547" lon="5.84867">
        <ele>946</ele>
        <time>2020-07-29T20:15:41Z</time>
      </trkpt>
      <trkpt lat="46.52578" lon="5.84825">
        <ele>953</ele>
        <time>2020-07-29T20:15:49Z</time>
      </trkpt>
      <trkpt lat="46.52593" lon="5.84816">
        <ele>954</ele>
        <time>2020-07-29T20:15:52Z</time>
      </trkpt>
      <trkpt lat="46.52606" lon="5.8481">
        <ele>954</ele>
        <time>2020-07-29T20:15:54Z</time>
      </trkpt>
      <trkpt lat="46.52641" lon="5.848">
        <ele>953</ele>
        <time>2020-07-29T20:16:00Z</time>
      </trkpt>
      <trkpt lat="46.5269" lon="5.8479">
        <ele>951</ele>
        <time>2020-07-29T20:16:09Z</time>
      </trkpt>
      <trkpt lat="46.52725" lon="5.84781">
        <ele>951</ele>
        <time>2020-07-29T20:16:15Z</time>
      </trkpt>
      <trkpt lat="46.52749" lon="5.84769">
        <ele>950</ele>
        <time>2020-07-29T20:16:20Z</time>
      </trkpt>
      <trkpt lat="46.52779" lon="5.84739">
        <ele>949</ele>
        <time>2020-07-29T20:16:26Z</time>
      </trkpt>
      <trkpt lat="46.5279" lon="5.84732">
        <ele>950</ele>
        <time>2020-07-29T20:16:29Z</time>
      </trkpt>
      <trkpt lat="46.52799" lon="5.84727">
        <ele>951</ele>
        <time>2020-07-29T20:16:30Z</time>
      </trkpt>
      <trkpt lat="46.52816" lon="5.84725">
        <ele>953</ele>
        <time>2020-07-29T20:16:33Z</time>
      </trkpt>
      <trkpt lat="46.52826" lon="5.84727">
        <ele>953</ele>
        <time>2020-07-29T20:16:35Z</time>
      </trkpt>
      <trkpt lat="46.5295" lon="5.84778">
        <ele>954</ele>
        <time>2020-07-29T20:16:58Z</time>
      </trkpt>
      <trkpt lat="46.52963" lon="5.84787">
        <ele>954</ele>
        <time>2020-07-29T20:17:01Z</time>
      </trkpt>
      <trkpt lat="46.53044" lon="5.84852">
        <ele>954</ele>
        <time>2020-07-29T20:17:17Z</time>
      </trkpt>
      <trkpt lat="46.53146" lon="5.8491">
        <ele>958</ele>
        <time>2020-07-29T20:17:37Z</time>
      </trkpt>
      <trkpt lat="46.53396" lon="5.85056">
        <ele>970</ele>
        <time>2020-07-29T20:18:25Z</time>
      </trkpt>
      <trkpt lat="46.53601" lon="5.85169">
        <ele>981</ele>
        <time>2020-07-29T20:19:04Z</time>
      </trkpt>
      <trkpt lat="46.53758" lon="5.85283">
        <ele>986</ele>
        <time>2020-07-29T20:19:35Z</time>
      </trkpt>
      <trkpt lat="46.53848" lon="5.85326">
        <ele>992</ele>
        <time>2020-07-29T20:19:52Z</time>
      </trkpt>
      <trkpt lat="46.53872" lon="5.85335">
        <ele>994</ele>
        <time>2020-07-29T20:19:56Z</time>
      </trkpt>
      <trkpt lat="46.53884" lon="5.85338">
        <ele>995</ele>
        <time>2020-07-29T20:19:58Z</time>
      </trkpt>
      <trkpt lat="46.53931" lon="5.85342">
        <ele>999</ele>
        <time>2020-07-29T20:20:07Z</time>
      </trkpt>
      <trkpt lat="46.53936" lon="5.85346">
        <ele>1000</ele>
        <time>2020-07-29T20:20:08Z</time>
      </trkpt>
      <trkpt lat="46.53946" lon="5.85362">
        <ele>1000</ele>
        <time>2020-07-29T20:20:10Z</time>
      </trkpt>
      <trkpt lat="46.53957" lon="5.85386">
        <ele>1000</ele>
        <time>2020-07-29T20:20:14Z</time>
      </trkpt>
      <trkpt lat="46.53965" lon="5.85399">
        <ele>1001</ele>
        <time>2020-07-29T20:20:16Z</time>
      </trkpt>
      <trkpt lat="46.53975" lon="5.85406">
        <ele>1002</ele>
        <time>2020-07-29T20:20:18Z</time>
      </trkpt>
      <trkpt lat="46.5401" lon="5.85425">
        <ele>1005</ele>
        <time>2020-07-29T20:20:25Z</time>
      </trkpt>
      <trkpt lat="46.54055" lon="5.8544">
        <ele>1008</ele>
        <time>2020-07-29T20:20:33Z</time>
      </trkpt>
      <trkpt lat="46.54074" lon="5.85449">
        <ele>1010</ele>
        <time>2020-07-29T20:20:36Z</time>
      </trkpt>
      <trkpt lat="46.54097" lon="5.85464">
        <ele>1012</ele>
        <time>2020-07-29T20:20:41Z</time>
      </trkpt>
      <trkpt lat="46.54134" lon="5.85492">
        <ele>1013</ele>
        <time>2020-07-29T20:20:48Z</time>
      </trkpt>
      <trkpt lat="46.5416" lon="5.85501">
        <ele>1014</ele>
        <time>2020-07-29T20:20:53Z</time>
      </trkpt>
      <trkpt lat="46.54185" lon="5.85514">
        <ele>1016</ele>
        <time>2020-07-29T20:20:58Z</time>
      </trkpt>
      <trkpt lat="46.54208" lon="5.85537">
        <ele>1017</ele>
        <time>2020-07-29T20:21:03Z</time>
      </trkpt>
      <trkpt lat="46.54219" lon="5.85543">
        <ele>1018</ele>
        <time>2020-07-29T20:21:05Z</time>
      </trkpt>
      <trkpt lat="46.5423" lon="5.85543">
        <ele>1020</ele>
        <time>2020-07-29T20:21:07Z</time>
      </trkpt>
      <trkpt lat="46.54235" lon="5.85538">
        <ele>1021</ele>
        <time>2020-07-29T20:21:08Z</time>
      </trkpt>
      <trkpt lat="46.5424" lon="5.85525">
        <ele>1022</ele>
        <time>2020-07-29T20:21:10Z</time>
      </trkpt>
      <trkpt lat="46.5424" lon="5.85517">
        <ele>1023</ele>
        <time>2020-07-29T20:21:11Z</time>
      </trkpt>
      <trkpt lat="46.54235" lon="5.85503">
        <ele>1023</ele>
        <time>2020-07-29T20:21:13Z</time>
      </trkpt>
      <trkpt lat="46.54155" lon="5.85412">
        <ele>1022</ele>
        <time>2020-07-29T20:21:31Z</time>
      </trkpt>
      <trkpt lat="46.54146" lon="5.85396">
        <ele>1022</ele>
        <time>2020-07-29T20:21:33Z</time>
      </trkpt>
      <trkpt lat="46.54144" lon="5.85388">
        <ele>1023</ele>
        <time>2020-07-29T20:21:34Z</time>
      </trkpt>
      <trkpt lat="46.54145" lon="5.85378">
        <ele>1024</ele>
        <time>2020-07-29T20:21:35Z</time>
      </trkpt>
      <trkpt lat="46.54153" lon="5.8535">
        <ele>1027</ele>
        <time>2020-07-29T20:21:39Z</time>
      </trkpt>
      <trkpt lat="46.54154" lon="5.85343">
        <ele>1028</ele>
        <time>2020-07-29T20:21:40Z</time>
      </trkpt>
      <trkpt lat="46.54153" lon="5.85335">
        <ele>1029</ele>
        <time>2020-07-29T20:21:41Z</time>
      </trkpt>
      <trkpt lat="46.54149" lon="5.85322">
        <ele>1030</ele>
        <time>2020-07-29T20:21:43Z</time>
      </trkpt>
      <trkpt lat="46.54141" lon="5.85313">
        <ele>1029</ele>
        <time>2020-07-29T20:21:45Z</time>
      </trkpt>
      <trkpt lat="46.54125" lon="5.85308">
        <ele>1027</ele>
        <time>2020-07-29T20:21:47Z</time>
      </trkpt>
      <trkpt lat="46.54109" lon="5.853">
        <ele>1025</ele>
        <time>2020-07-29T20:21:50Z</time>
      </trkpt>
      <trkpt lat="46.54104" lon="5.85295">
        <ele>1025</ele>
        <time>2020-07-29T20:21:52Z</time>
      </trkpt>
      <trkpt lat="46.541" lon="5.85282">
        <ele>1025</ele>
        <time>2020-07-29T20:21:53Z</time>
      </trkpt>
      <trkpt lat="46.54102" lon="5.85265">
        <ele>1027</ele>
        <time>2020-07-29T20:21:55Z</time>
      </trkpt>
      <trkpt lat="46.54119" lon="5.85215">
        <ele>1035</ele>
        <time>2020-07-29T20:22:02Z</time>
      </trkpt>
      <trkpt lat="46.54126" lon="5.85187">
        <ele>1039</ele>
        <time>2020-07-29T20:22:06Z</time>
      </trkpt>
      <trkpt lat="46.54134" lon="5.85126">
        <ele>1042</ele>
        <time>2020-07-29T20:22:13Z</time>
      </trkpt>
      <trkpt lat="46.54139" lon="5.8511">
        <ele>1043</ele>
        <time>2020-07-29T20:22:16Z</time>
      </trkpt>
      <trkpt lat="46.54145" lon="5.85102">
        <ele>1043</ele>
        <time>2020-07-29T20:22:17Z</time>
      </trkpt>
      <trkpt lat="46.5418" lon="5.85071">
        <ele>1042</ele>
        <time>2020-07-29T20:22:24Z</time>
      </trkpt>
      <trkpt lat="46.54188" lon="5.85067">
        <ele>1041</ele>
        <time>2020-07-29T20:22:26Z</time>
      </trkpt>
      <trkpt lat="46.542" lon="5.85065">
        <ele>1040</ele>
        <time>2020-07-29T20:22:28Z</time>
      </trkpt>
      <trkpt lat="46.54208" lon="5.85068">
        <ele>1041</ele>
        <time>2020-07-29T20:22:29Z</time>
      </trkpt>
      <trkpt lat="46.54222" lon="5.85082">
        <ele>1044</ele>
        <time>2020-07-29T20:22:32Z</time>
      </trkpt>
      <trkpt lat="46.54261" lon="5.85112">
        <ele>1047</ele>
        <time>2020-07-29T20:22:40Z</time>
      </trkpt>
      <trkpt lat="46.54287" lon="5.85125">
        <ele>1047</ele>
        <time>2020-07-29T20:22:45Z</time>
      </trkpt>
      <trkpt lat="46.54299" lon="5.85126">
        <ele>1046</ele>
        <time>2020-07-29T20:22:47Z</time>
      </trkpt>
      <trkpt lat="46.54306" lon="5.85124">
        <ele>1046</ele>
        <time>2020-07-29T20:22:49Z</time>
      </trkpt>
      <trkpt lat="46.54311" lon="5.85121">
        <ele>1045</ele>
        <time>2020-07-29T20:22:50Z</time>
      </trkpt>
      <trkpt lat="46.54329" lon="5.85101">
        <ele>1039</ele>
        <time>2020-07-29T20:22:54Z</time>
      </trkpt>
      <trkpt lat="46.54335" lon="5.85097">
        <ele>1038</ele>
        <time>2020-07-29T20:22:55Z</time>
      </trkpt>
      <trkpt lat="46.5435" lon="5.85096">
        <ele>1037</ele>
        <time>2020-07-29T20:22:57Z</time>
      </trkpt>
      <trkpt lat="46.54378" lon="5.85104">
        <ele>1036</ele>
        <time>2020-07-29T20:23:03Z</time>
      </trkpt>
      <trkpt lat="46.54417" lon="5.85123">
        <ele>1040</ele>
        <time>2020-07-29T20:23:10Z</time>
      </trkpt>
      <trkpt lat="46.54459" lon="5.85148">
        <ele>1043</ele>
        <time>2020-07-29T20:23:18Z</time>
      </trkpt>
      <trkpt lat="46.54524" lon="5.85174">
        <ele>1044</ele>
        <time>2020-07-29T20:23:30Z</time>
      </trkpt>
      <trkpt lat="46.54568" lon="5.85163">
        <ele>1037</ele>
        <time>2020-07-29T20:23:38Z</time>
      </trkpt>
      <trkpt lat="46.54581" lon="5.85163">
        <ele>1036</ele>
        <time>2020-07-29T20:23:40Z</time>
      </trkpt>
      <trkpt lat="46.54615" lon="5.85171">
        <ele>1037</ele>
        <time>2020-07-29T20:23:46Z</time>
      </trkpt>
      <trkpt lat="46.54632" lon="5.85171">
        <ele>1037</ele>
        <time>2020-07-29T20:23:49Z</time>
      </trkpt>
      <trkpt lat="46.54646" lon="5.85165">
        <ele>1036</ele>
        <time>2020-07-29T20:23:52Z</time>
      </trkpt>
      <trkpt lat="46.54654" lon="5.85159">
        <ele>1035</ele>
        <time>2020-07-29T20:23:54Z</time>
      </trkpt>
      <trkpt lat="46.54678" lon="5.85132">
        <ele>1032</ele>
        <time>2020-07-29T20:23:59Z</time>
      </trkpt>
      <trkpt lat="46.54701" lon="5.85095">
        <ele>1030</ele>
        <time>2020-07-29T20:24:05Z</time>
      </trkpt>
      <trkpt lat="46.54714" lon="5.85084">
        <ele>1030</ele>
        <time>2020-07-29T20:24:08Z</time>
      </trkpt>
      <trkpt lat="46.54722" lon="5.85081">
        <ele>1030</ele>
        <time>2020-07-29T20:24:09Z</time>
      </trkpt>
      <trkpt lat="46.54767" lon="5.85084">
        <ele>1030</ele>
        <time>2020-07-29T20:24:17Z</time>
      </trkpt>
      <trkpt lat="46.54783" lon="5.85079">
        <ele>1029</ele>
        <time>2020-07-29T20:24:20Z</time>
      </trkpt>
      <trkpt lat="46.54802" lon="5.85069">
        <ele>1029</ele>
        <time>2020-07-29T20:24:24Z</time>
      </trkpt>
      <trkpt lat="46.54833" lon="5.85045">
        <ele>1031</ele>
        <time>2020-07-29T20:24:30Z</time>
      </trkpt>
      <trkpt lat="46.54845" lon="5.85038">
        <ele>1031</ele>
        <time>2020-07-29T20:24:32Z</time>
      </trkpt>
      <trkpt lat="46.54875" lon="5.85029">
        <ele>1030</ele>
        <time>2020-07-29T20:24:38Z</time>
      </trkpt>
      <trkpt lat="46.54913" lon="5.85019">
        <ele>1027</ele>
        <time>2020-07-29T20:24:45Z</time>
      </trkpt>
      <trkpt lat="46.54924" lon="5.85015">
        <ele>1027</ele>
        <time>2020-07-29T20:24:47Z</time>
      </trkpt>
      <trkpt lat="46.54956" lon="5.84997">
        <ele>1028</ele>
        <time>2020-07-29T20:24:53Z</time>
      </trkpt>
      <trkpt lat="46.54969" lon="5.84994">
        <ele>1028</ele>
        <time>2020-07-29T20:24:55Z</time>
      </trkpt>
      <trkpt lat="46.54983" lon="5.84995">
        <ele>1028</ele>
        <time>2020-07-29T20:24:58Z</time>
      </trkpt>
      <trkpt lat="46.55021" lon="5.85005">
        <ele>1031</ele>
        <time>2020-07-29T20:25:04Z</time>
      </trkpt>
      <trkpt lat="46.55048" lon="5.85026">
        <ele>1036</ele>
        <time>2020-07-29T20:25:10Z</time>
      </trkpt>
      <trkpt lat="46.55055" lon="5.85027">
        <ele>1036</ele>
        <time>2020-07-29T20:25:11Z</time>
      </trkpt>
      <trkpt lat="46.5506" lon="5.85026">
        <ele>1037</ele>
        <time>2020-07-29T20:25:12Z</time>
      </trkpt>
      <trkpt lat="46.55066" lon="5.85014">
        <ele>1036</ele>
        <time>2020-07-29T20:25:14Z</time>
      </trkpt>
      <trkpt lat="46.55067" lon="5.85006">
        <ele>1036</ele>
        <time>2020-07-29T20:25:15Z</time>
      </trkpt>
      <trkpt lat="46.55066" lon="5.84999">
        <ele>1035</ele>
        <time>2020-07-29T20:25:16Z</time>
      </trkpt>
      <trkpt lat="46.55058" lon="5.84984">
        <ele>1033</ele>
        <time>2020-07-29T20:25:18Z</time>
      </trkpt>
      <trkpt lat="46.55046" lon="5.84977">
        <ele>1031</ele>
        <time>2020-07-29T20:25:20Z</time>
      </trkpt>
      <trkpt lat="46.54987" lon="5.84954">
        <ele>1024</ele>
        <time>2020-07-29T20:25:31Z</time>
      </trkpt>
      <trkpt lat="46.54965" lon="5.84943">
        <ele>1023</ele>
        <time>2020-07-29T20:25:35Z</time>
      </trkpt>
      <trkpt lat="46.54935" lon="5.8492">
        <ele>1022</ele>
        <time>2020-07-29T20:25:41Z</time>
      </trkpt>
      <trkpt lat="46.5492" lon="5.84894">
        <ele>1020</ele>
        <time>2020-07-29T20:25:46Z</time>
      </trkpt>
      <trkpt lat="46.54906" lon="5.84863">
        <ele>1021</ele>
        <time>2020-07-29T20:25:50Z</time>
      </trkpt>
      <trkpt lat="46.54898" lon="5.8485">
        <ele>1022</ele>
        <time>2020-07-29T20:25:52Z</time>
      </trkpt>
      <trkpt lat="46.54875" lon="5.84824">
        <ele>1028</ele>
        <time>2020-07-29T20:25:57Z</time>
      </trkpt>
      <trkpt lat="46.54874" lon="5.84814">
        <ele>1028</ele>
        <time>2020-07-29T20:25:59Z</time>
      </trkpt>
      <trkpt lat="46.54876" lon="5.84806">
        <ele>1028</ele>
        <time>2020-07-29T20:26:00Z</time>
      </trkpt>
      <trkpt lat="46.54883" lon="5.84798">
        <ele>1027</ele>
        <time>2020-07-29T20:26:01Z</time>
      </trkpt>
      <trkpt lat="46.54889" lon="5.84796">
        <ele>1025</ele>
        <time>2020-07-29T20:26:02Z</time>
      </trkpt>
      <trkpt lat="46.54968" lon="5.84815">
        <ele>1012</ele>
        <time>2020-07-29T20:26:17Z</time>
      </trkpt>
      <trkpt lat="46.5498" lon="5.84814">
        <ele>1011</ele>
        <time>2020-07-29T20:26:19Z</time>
      </trkpt>
      <trkpt lat="46.54992" lon="5.84803">
        <ele>1009</ele>
        <time>2020-07-29T20:26:21Z</time>
      </trkpt>
      <trkpt lat="46.55007" lon="5.84783">
        <ele>1007</ele>
        <time>2020-07-29T20:26:25Z</time>
      </trkpt>
      <trkpt lat="46.55032" lon="5.8476">
        <ele>1003</ele>
        <time>2020-07-29T20:26:30Z</time>
      </trkpt>
      <trkpt lat="46.55056" lon="5.84733">
        <ele>997</ele>
        <time>2020-07-29T20:26:36Z</time>
      </trkpt>
      <trkpt lat="46.55088" lon="5.84687">
        <ele>985</ele>
        <time>2020-07-29T20:26:44Z</time>
      </trkpt>
      <trkpt lat="46.55102" lon="5.84672">
        <ele>982</ele>
        <time>2020-07-29T20:26:47Z</time>
      </trkpt>
      <trkpt lat="46.55109" lon="5.84668">
        <ele>981</ele>
        <time>2020-07-29T20:26:48Z</time>
      </trkpt>
      <trkpt lat="46.55128" lon="5.84664">
        <ele>980</ele>
        <time>2020-07-29T20:26:51Z</time>
      </trkpt>
      <trkpt lat="46.55166" lon="5.84665">
        <ele>980</ele>
        <time>2020-07-29T20:26:58Z</time>
      </trkpt>
      <trkpt lat="46.55201" lon="5.84669">
        <ele>979</ele>
        <time>2020-07-29T20:27:04Z</time>
      </trkpt>
      <trkpt lat="46.55245" lon="5.84668">
        <ele>977</ele>
        <time>2020-07-29T20:27:12Z</time>
      </trkpt>
      <trkpt lat="46.55252" lon="5.84665">
        <ele>977</ele>
        <time>2020-07-29T20:27:14Z</time>
      </trkpt>
      <trkpt lat="46.55259" lon="5.8466">
        <ele>976</ele>
        <time>2020-07-29T20:27:15Z</time>
      </trkpt>
      <trkpt lat="46.55265" lon="5.8465">
        <ele>975</ele>
        <time>2020-07-29T20:27:17Z</time>
      </trkpt>
      <trkpt lat="46.5528" lon="5.84614">
        <ele>972</ele>
        <time>2020-07-29T20:27:22Z</time>
      </trkpt>
      <trkpt lat="46.55301" lon="5.84557">
        <ele>966</ele>
        <time>2020-07-29T20:27:30Z</time>
      </trkpt>
      <trkpt lat="46.55315" lon="5.8453">
        <ele>964</ele>
        <time>2020-07-29T20:27:34Z</time>
      </trkpt>
      <trkpt lat="46.55333" lon="5.84509">
        <ele>962</ele>
        <time>2020-07-29T20:27:38Z</time>
      </trkpt>
      <trkpt lat="46.55346" lon="5.845">
        <ele>960</ele>
        <time>2020-07-29T20:27:40Z</time>
      </trkpt>
      <trkpt lat="46.55361" lon="5.84498">
        <ele>958</ele>
        <time>2020-07-29T20:27:43Z</time>
      </trkpt>
      <trkpt lat="46.5538" lon="5.845">
        <ele>957</ele>
        <time>2020-07-29T20:27:46Z</time>
      </trkpt>
      <trkpt lat="46.55408" lon="5.84513">
        <ele>956</ele>
        <time>2020-07-29T20:27:52Z</time>
      </trkpt>
      <trkpt lat="46.55498" lon="5.84567">
        <ele>960</ele>
        <time>2020-07-29T20:28:09Z</time>
      </trkpt>
      <trkpt lat="46.55534" lon="5.84577">
        <ele>958</ele>
        <time>2020-07-29T20:28:16Z</time>
      </trkpt>
      <trkpt lat="46.55541" lon="5.84571">
        <ele>956</ele>
        <time>2020-07-29T20:28:17Z</time>
      </trkpt>
      <trkpt lat="46.55544" lon="5.84561">
        <ele>954</ele>
        <time>2020-07-29T20:28:18Z</time>
      </trkpt>
      <trkpt lat="46.55543" lon="5.8455">
        <ele>953</ele>
        <time>2020-07-29T20:28:20Z</time>
      </trkpt>
      <trkpt lat="46.55533" lon="5.8454">
        <ele>952</ele>
        <time>2020-07-29T20:28:22Z</time>
      </trkpt>
      <trkpt lat="46.55516" lon="5.84526">
        <ele>952</ele>
        <time>2020-07-29T20:28:25Z</time>
      </trkpt>
      <trkpt lat="46.55454" lon="5.8444">
        <ele>945</ele>
        <time>2020-07-29T20:28:41Z</time>
      </trkpt>
      <trkpt lat="46.55415" lon="5.84406">
        <ele>943</ele>
        <time>2020-07-29T20:28:49Z</time>
      </trkpt>
      <trkpt lat="46.55409" lon="5.84397">
        <ele>943</ele>
        <time>2020-07-29T20:28:50Z</time>
      </trkpt>
      <trkpt lat="46.55404" lon="5.84381">
        <ele>942</ele>
        <time>2020-07-29T20:28:52Z</time>
      </trkpt>
      <trkpt lat="46.55402" lon="5.84367">
        <ele>941</ele>
        <time>2020-07-29T20:28:54Z</time>
      </trkpt>
      <trkpt lat="46.55401" lon="5.84351">
        <ele>940</ele>
        <time>2020-07-29T20:28:56Z</time>
      </trkpt>
      <trkpt lat="46.55404" lon="5.84329">
        <ele>939</ele>
        <time>2020-07-29T20:28:59Z</time>
      </trkpt>
      <trkpt lat="46.5541" lon="5.84311">
        <ele>938</ele>
        <time>2020-07-29T20:29:01Z</time>
      </trkpt>
      <trkpt lat="46.55423" lon="5.84293">
        <ele>936</ele>
        <time>2020-07-29T20:29:04Z</time>
      </trkpt>
      <trkpt lat="46.55451" lon="5.84276">
        <ele>935</ele>
        <time>2020-07-29T20:29:10Z</time>
      </trkpt>
      <trkpt lat="46.55487" lon="5.8425">
        <ele>932</ele>
        <time>2020-07-29T20:29:17Z</time>
      </trkpt>
      <trkpt lat="46.55582" lon="5.84172">
        <ele>925</ele>
        <time>2020-07-29T20:29:36Z</time>
      </trkpt>
      <trkpt lat="46.55607" lon="5.84162">
        <ele>920</ele>
        <time>2020-07-29T20:29:41Z</time>
      </trkpt>
      <trkpt lat="46.55634" lon="5.84158">
        <ele>916</ele>
        <time>2020-07-29T20:29:46Z</time>
      </trkpt>
      <trkpt lat="46.55648" lon="5.84163">
        <ele>914</ele>
        <time>2020-07-29T20:29:48Z</time>
      </trkpt>
      <trkpt lat="46.55672" lon="5.84174">
        <ele>912</ele>
        <time>2020-07-29T20:29:53Z</time>
      </trkpt>
      <trkpt lat="46.55729" lon="5.84209">
        <ele>907</ele>
        <time>2020-07-29T20:30:04Z</time>
      </trkpt>
      <trkpt lat="46.55755" lon="5.84221">
        <ele>906</ele>
        <time>2020-07-29T20:30:09Z</time>
      </trkpt>
      <trkpt lat="46.55818" lon="5.8424">
        <ele>899</ele>
        <time>2020-07-29T20:30:20Z</time>
      </trkpt>
      <trkpt lat="46.55842" lon="5.84254">
        <ele>898</ele>
        <time>2020-07-29T20:30:25Z</time>
      </trkpt>
      <trkpt lat="46.55877" lon="5.84296">
        <ele>904</ele>
        <time>2020-07-29T20:30:33Z</time>
      </trkpt>
      <trkpt lat="46.55891" lon="5.84309">
        <ele>905</ele>
        <time>2020-07-29T20:30:36Z</time>
      </trkpt>
      <trkpt lat="46.5591" lon="5.84313">
        <ele>901</ele>
        <time>2020-07-29T20:30:39Z</time>
      </trkpt>
      <trkpt lat="46.5596" lon="5.8433">
        <ele>899</ele>
        <time>2020-07-29T20:30:48Z</time>
      </trkpt>
      <trkpt lat="46.55985" lon="5.84329">
        <ele>896</ele>
        <time>2020-07-29T20:30:53Z</time>
      </trkpt>
      <trkpt lat="46.56056" lon="5.8431">
        <ele>889</ele>
        <time>2020-07-29T20:31:06Z</time>
      </trkpt>
      <trkpt lat="46.5609" lon="5.84283">
        <ele>883</ele>
        <time>2020-07-29T20:31:13Z</time>
      </trkpt>
      <trkpt lat="46.56124" lon="5.84272">
        <ele>883</ele>
        <time>2020-07-29T20:31:19Z</time>
      </trkpt>
      <trkpt lat="46.56133" lon="5.84264">
        <ele>882</ele>
        <time>2020-07-29T20:31:21Z</time>
      </trkpt>
      <trkpt lat="46.5614" lon="5.84254">
        <ele>880</ele>
        <time>2020-07-29T20:31:22Z</time>
      </trkpt>
      <trkpt lat="46.56146" lon="5.84243">
        <ele>879</ele>
        <time>2020-07-29T20:31:24Z</time>
      </trkpt>
      <trkpt lat="46.56148" lon="5.84229">
        <ele>879</ele>
        <time>2020-07-29T20:31:26Z</time>
      </trkpt>
      <trkpt lat="46.56146" lon="5.84212">
        <ele>878</ele>
        <time>2020-07-29T20:31:28Z</time>
      </trkpt>
      <trkpt lat="46.56142" lon="5.84194">
        <ele>877</ele>
        <time>2020-07-29T20:31:30Z</time>
      </trkpt>
      <trkpt lat="46.56128" lon="5.84176">
        <ele>875</ele>
        <time>2020-07-29T20:31:34Z</time>
      </trkpt>
      <trkpt lat="46.5606" lon="5.84098">
        <ele>868</ele>
        <time>2020-07-29T20:31:49Z</time>
      </trkpt>
      <trkpt lat="46.55952" lon="5.83985">
        <ele>862</ele>
        <time>2020-07-29T20:32:13Z</time>
      </trkpt>
      <trkpt lat="46.55934" lon="5.83976">
        <ele>859</ele>
        <time>2020-07-29T20:32:16Z</time>
      </trkpt>
      <trkpt lat="46.55924" lon="5.83974">
        <ele>858</ele>
        <time>2020-07-29T20:32:18Z</time>
      </trkpt>
      <trkpt lat="46.55876" lon="5.83973">
        <ele>856</ele>
        <time>2020-07-29T20:32:26Z</time>
      </trkpt>
      <trkpt lat="46.55799" lon="5.83977">
        <ele>855</ele>
        <time>2020-07-29T20:32:40Z</time>
      </trkpt>
      <trkpt lat="46.55763" lon="5.83977">
        <ele>855</ele>
        <time>2020-07-29T20:32:47Z</time>
      </trkpt>
      <trkpt lat="46.55752" lon="5.83975">
        <ele>855</ele>
        <time>2020-07-29T20:32:48Z</time>
      </trkpt>
      <trkpt lat="46.55727" lon="5.8396">
        <ele>858</ele>
        <time>2020-07-29T20:32:53Z</time>
      </trkpt>
      <trkpt lat="46.55715" lon="5.83949">
        <ele>859</ele>
        <time>2020-07-29T20:32:56Z</time>
      </trkpt>
      <trkpt lat="46.55708" lon="5.83939">
        <ele>859</ele>
        <time>2020-07-29T20:32:58Z</time>
      </trkpt>
      <trkpt lat="46.55697" lon="5.83916">
        <ele>857</ele>
        <time>2020-07-29T20:33:01Z</time>
      </trkpt>
      <trkpt lat="46.55691" lon="5.83892">
        <ele>856</ele>
        <time>2020-07-29T20:33:04Z</time>
      </trkpt>
      <trkpt lat="46.55692" lon="5.8387">
        <ele>855</ele>
        <time>2020-07-29T20:33:07Z</time>
      </trkpt>
      <trkpt lat="46.55696" lon="5.83857">
        <ele>854</ele>
        <time>2020-07-29T20:33:09Z</time>
      </trkpt>
      <trkpt lat="46.5571" lon="5.8383">
        <ele>852</ele>
        <time>2020-07-29T20:33:13Z</time>
      </trkpt>
      <trkpt lat="46.55819" lon="5.83711">
        <ele>853</ele>
        <time>2020-07-29T20:33:37Z</time>
      </trkpt>
      <trkpt lat="46.55837" lon="5.83697">
        <ele>854</ele>
        <time>2020-07-29T20:33:41Z</time>
      </trkpt>
      <trkpt lat="46.55857" lon="5.8369">
        <ele>853</ele>
        <time>2020-07-29T20:33:44Z</time>
      </trkpt>
      <trkpt lat="46.55868" lon="5.83688">
        <ele>853</ele>
        <time>2020-07-29T20:33:46Z</time>
      </trkpt>
      <trkpt lat="46.55983" lon="5.8369">
        <ele>852</ele>
        <time>2020-07-29T20:34:07Z</time>
      </trkpt>
      <trkpt lat="46.55998" lon="5.83684">
        <ele>850</ele>
        <time>2020-07-29T20:34:09Z</time>
      </trkpt>
      <trkpt lat="46.56017" lon="5.83672">
        <ele>847</ele>
        <time>2020-07-29T20:34:13Z</time>
      </trkpt>
      <trkpt lat="46.56069" lon="5.83622">
        <ele>841</ele>
        <time>2020-07-29T20:34:24Z</time>
      </trkpt>
      <trkpt lat="46.56078" lon="5.83617">
        <ele>840</ele>
        <time>2020-07-29T20:34:26Z</time>
      </trkpt>
      <trkpt lat="46.56087" lon="5.83615">
        <ele>840</ele>
        <time>2020-07-29T20:34:28Z</time>
      </trkpt>
      <trkpt lat="46.56108" lon="5.83618">
        <ele>840</ele>
        <time>2020-07-29T20:34:31Z</time>
      </trkpt>
      <trkpt lat="46.5619" lon="5.83657">
        <ele>838</ele>
        <time>2020-07-29T20:34:47Z</time>
      </trkpt>
      <trkpt lat="46.56205" lon="5.83661">
        <ele>835</ele>
        <time>2020-07-29T20:34:49Z</time>
      </trkpt>
      <trkpt lat="46.56226" lon="5.8366">
        <ele>833</ele>
        <time>2020-07-29T20:34:53Z</time>
      </trkpt>
      <trkpt lat="46.56352" lon="5.83599">
        <ele>822</ele>
        <time>2020-07-29T20:35:17Z</time>
      </trkpt>
      <trkpt lat="46.56419" lon="5.83556">
        <ele>813</ele>
        <time>2020-07-29T20:35:30Z</time>
      </trkpt>
      <trkpt lat="46.56466" lon="5.83522">
        <ele>811</ele>
        <time>2020-07-29T20:35:39Z</time>
      </trkpt>
      <trkpt lat="46.56552" lon="5.83423">
        <ele>809</ele>
        <time>2020-07-29T20:35:59Z</time>
      </trkpt>
      <trkpt lat="46.56641" lon="5.83348">
        <ele>806</ele>
        <time>2020-07-29T20:36:17Z</time>
      </trkpt>
      <trkpt lat="46.56692" lon="5.83311">
        <ele>803</ele>
        <time>2020-07-29T20:36:27Z</time>
      </trkpt>
      <trkpt lat="46.56731" lon="5.83287">
        <ele>800</ele>
        <time>2020-07-29T20:36:35Z</time>
      </trkpt>
      <trkpt lat="46.56746" lon="5.83279">
        <ele>799</ele>
        <time>2020-07-29T20:36:37Z</time>
      </trkpt>
      <trkpt lat="46.56771" lon="5.83272">
        <ele>799</ele>
        <time>2020-07-29T20:36:42Z</time>
      </trkpt>
      <trkpt lat="46.56883" lon="5.83252">
        <ele>795</ele>
        <time>2020-07-29T20:37:02Z</time>
      </trkpt>
      <trkpt lat="46.56913" lon="5.83233">
        <ele>792</ele>
        <time>2020-07-29T20:37:08Z</time>
      </trkpt>
      <trkpt lat="46.5695" lon="5.83216">
        <ele>790</ele>
        <time>2020-07-29T20:37:15Z</time>
      </trkpt>
      <trkpt lat="46.56978" lon="5.83201">
        <ele>788</ele>
        <time>2020-07-29T20:37:20Z</time>
      </trkpt>
      <trkpt lat="46.56997" lon="5.83178">
        <ele>785</ele>
        <time>2020-07-29T20:37:24Z</time>
      </trkpt>
      <trkpt lat="46.5702" lon="5.83146">
        <ele>782</ele>
        <time>2020-07-29T20:37:30Z</time>
      </trkpt>
      <trkpt lat="46.57033" lon="5.83123">
        <ele>781</ele>
        <time>2020-07-29T20:37:34Z</time>
      </trkpt>
      <trkpt lat="46.57048" lon="5.83106">
        <ele>779</ele>
        <time>2020-07-29T20:37:37Z</time>
      </trkpt>
      <trkpt lat="46.57057" lon="5.83087">
        <ele>777</ele>
        <time>2020-07-29T20:37:40Z</time>
      </trkpt>
      <trkpt lat="46.57098" lon="5.83041">
        <ele>775</ele>
        <time>2020-07-29T20:37:49Z</time>
      </trkpt>
      <trkpt lat="46.57108" lon="5.83026">
        <ele>774</ele>
        <time>2020-07-29T20:37:52Z</time>
      </trkpt>
      <trkpt lat="46.57111" lon="5.83018">
        <ele>774</ele>
        <time>2020-07-29T20:37:53Z</time>
      </trkpt>
      <trkpt lat="46.57114" lon="5.8301">
        <ele>773</ele>
        <time>2020-07-29T20:37:54Z</time>
      </trkpt>
      <trkpt lat="46.57117" lon="5.82989">
        <ele>772</ele>
        <time>2020-07-29T20:37:57Z</time>
      </trkpt>
      <trkpt lat="46.57121" lon="5.82968">
        <ele>770</ele>
        <time>2020-07-29T20:37:59Z</time>
      </trkpt>
      <trkpt lat="46.57126" lon="5.82945">
        <ele>769</ele>
        <time>2020-07-29T20:38:02Z</time>
      </trkpt>
      <trkpt lat="46.57127" lon="5.82927">
        <ele>767</ele>
        <time>2020-07-29T20:38:04Z</time>
      </trkpt>
      <trkpt lat="46.5718" lon="5.82915">
        <ele>766</ele>
        <time>2020-07-29T20:38:14Z</time>
      </trkpt>
      <trkpt lat="46.57181" lon="5.82896">
        <ele>765</ele>
        <time>2020-07-29T20:38:16Z</time>
      </trkpt>
      <trkpt lat="46.57181" lon="5.82872">
        <ele>764</ele>
        <time>2020-07-29T20:38:19Z</time>
      </trkpt>
      <trkpt lat="46.57189" lon="5.82865">
        <ele>764</ele>
        <time>2020-07-29T20:38:21Z</time>
      </trkpt>
      <trkpt lat="46.57199" lon="5.8286">
        <ele>764</ele>
        <time>2020-07-29T20:38:23Z</time>
      </trkpt>
      <trkpt lat="46.57281" lon="5.8286">
        <ele>764</ele>
        <time>2020-07-29T20:38:37Z</time>
      </trkpt>
      <trkpt lat="46.57299" lon="5.82843">
        <ele>763</ele>
        <time>2020-07-29T20:38:41Z</time>
      </trkpt>
      <trkpt lat="46.57317" lon="5.82816">
        <ele>762</ele>
        <time>2020-07-29T20:38:46Z</time>
      </trkpt>
      <trkpt lat="46.57355" lon="5.82749">
        <ele>760</ele>
        <time>2020-07-29T20:38:56Z</time>
      </trkpt>
      <trkpt lat="46.57378" lon="5.82707">
        <ele>759</ele>
        <time>2020-07-29T20:39:03Z</time>
      </trkpt>
      <trkpt lat="46.57437" lon="5.82558">
        <ele>756</ele>
        <time>2020-07-29T20:39:24Z</time>
      </trkpt>
      <trkpt lat="46.57445" lon="5.82546">
        <ele>756</ele>
        <time>2020-07-29T20:39:26Z</time>
      </trkpt>
      <trkpt lat="46.57456" lon="5.82533">
        <ele>757</ele>
        <time>2020-07-29T20:39:29Z</time>
      </trkpt>
      <trkpt lat="46.57499" lon="5.82499">
        <ele>757</ele>
        <time>2020-07-29T20:39:37Z</time>
      </trkpt>
      <trkpt lat="46.57543" lon="5.8246">
        <ele>757</ele>
        <time>2020-07-29T20:39:46Z</time>
      </trkpt>
      <trkpt lat="46.57551" lon="5.82448">
        <ele>757</ele>
        <time>2020-07-29T20:39:49Z</time>
      </trkpt>
      <trkpt lat="46.57563" lon="5.82424">
        <ele>757</ele>
        <time>2020-07-29T20:39:52Z</time>
      </trkpt>
      <trkpt lat="46.57574" lon="5.82406">
        <ele>757</ele>
        <time>2020-07-29T20:39:55Z</time>
      </trkpt>
      <trkpt lat="46.57582" lon="5.82398">
        <ele>757</ele>
        <time>2020-07-29T20:39:57Z</time>
      </trkpt>
      <trkpt lat="46.57591" lon="5.82391">
        <ele>757</ele>
        <time>2020-07-29T20:39:59Z</time>
      </trkpt>
      <trkpt lat="46.57618" lon="5.82384">
        <ele>758</ele>
        <time>2020-07-29T20:40:04Z</time>
      </trkpt>
      <trkpt lat="46.57631" lon="5.82377">
        <ele>759</ele>
        <time>2020-07-29T20:40:06Z</time>
      </trkpt>
      <trkpt lat="46.57673" lon="5.82348">
        <ele>762</ele>
        <time>2020-07-29T20:40:14Z</time>
      </trkpt>
      <trkpt lat="46.57687" lon="5.82336">
        <ele>763</ele>
        <time>2020-07-29T20:40:17Z</time>
      </trkpt>
      <trkpt lat="46.57712" lon="5.82301">
        <ele>764</ele>
        <time>2020-07-29T20:40:23Z</time>
      </trkpt>
      <trkpt lat="46.57734" lon="5.8225">
        <ele>764</ele>
        <time>2020-07-29T20:40:31Z</time>
      </trkpt>
      <trkpt lat="46.5774" lon="5.82243">
        <ele>764</ele>
        <time>2020-07-29T20:40:32Z</time>
      </trkpt>
      <trkpt lat="46.57764" lon="5.82224">
        <ele>765</ele>
        <time>2020-07-29T20:40:37Z</time>
      </trkpt>
      <trkpt lat="46.57786" lon="5.82199">
        <ele>765</ele>
        <time>2020-07-29T20:40:42Z</time>
      </trkpt>
      <trkpt lat="46.57793" lon="5.82193">
        <ele>765</ele>
        <time>2020-07-29T20:40:43Z</time>
      </trkpt>
      <trkpt lat="46.57806" lon="5.82192">
        <ele>766</ele>
        <time>2020-07-29T20:40:46Z</time>
      </trkpt>
      <trkpt lat="46.57819" lon="5.82202">
        <ele>767</ele>
        <time>2020-07-29T20:40:48Z</time>
      </trkpt>
      <trkpt lat="46.57831" lon="5.82226">
        <ele>769</ele>
        <time>2020-07-29T20:40:52Z</time>
      </trkpt>
      <trkpt lat="46.57842" lon="5.82243">
        <ele>771</ele>
        <time>2020-07-29T20:40:55Z</time>
      </trkpt>
      <trkpt lat="46.5786" lon="5.82254">
        <ele>772</ele>
        <time>2020-07-29T20:40:58Z</time>
      </trkpt>
      <trkpt lat="46.57868" lon="5.82255">
        <ele>773</ele>
        <time>2020-07-29T20:41:00Z</time>
      </trkpt>
      <trkpt lat="46.57942" lon="5.82239">
        <ele>773</ele>
        <time>2020-07-29T20:41:13Z</time>
      </trkpt>
      <trkpt lat="46.57963" lon="5.82238">
        <ele>771</ele>
        <time>2020-07-29T20:41:17Z</time>
      </trkpt>
      <trkpt lat="46.57969" lon="5.82242">
        <ele>770</ele>
        <time>2020-07-29T20:41:18Z</time>
      </trkpt>
      <trkpt lat="46.57981" lon="5.82254">
        <ele>768</ele>
        <time>2020-07-29T20:41:20Z</time>
      </trkpt>
      <trkpt lat="46.57986" lon="5.82273">
        <ele>767</ele>
        <time>2020-07-29T20:41:23Z</time>
      </trkpt>
      <trkpt lat="46.57988" lon="5.82287">
        <ele>766</ele>
        <time>2020-07-29T20:41:25Z</time>
      </trkpt>
      <trkpt lat="46.57988" lon="5.82323">
        <ele>765</ele>
        <time>2020-07-29T20:41:29Z</time>
      </trkpt>
      <trkpt lat="46.57984" lon="5.82352">
        <ele>764</ele>
        <time>2020-07-29T20:41:33Z</time>
      </trkpt>
      <trkpt lat="46.57979" lon="5.82371">
        <ele>764</ele>
        <time>2020-07-29T20:41:35Z</time>
      </trkpt>
      <trkpt lat="46.57957" lon="5.82424">
        <ele>767</ele>
        <time>2020-07-29T20:41:43Z</time>
      </trkpt>
      <trkpt lat="46.57946" lon="5.82468">
        <ele>767</ele>
        <time>2020-07-29T20:41:49Z</time>
      </trkpt>
      <trkpt lat="46.57927" lon="5.82576">
        <ele>765</ele>
        <time>2020-07-29T20:42:02Z</time>
      </trkpt>
      <trkpt lat="46.57927" lon="5.82606">
        <ele>764</ele>
        <time>2020-07-29T20:42:06Z</time>
      </trkpt>
      <trkpt lat="46.57931" lon="5.82627">
        <ele>763</ele>
        <time>2020-07-29T20:42:08Z</time>
      </trkpt>
      <trkpt lat="46.57942" lon="5.82664">
        <ele>760</ele>
        <time>2020-07-29T20:42:13Z</time>
      </trkpt>
      <trkpt lat="46.57969" lon="5.82741">
        <ele>756</ele>
        <time>2020-07-29T20:42:24Z</time>
      </trkpt>
      <trkpt lat="46.58011" lon="5.82801">
        <ele>756</ele>
        <time>2020-07-29T20:42:34Z</time>
      </trkpt>
      <trkpt lat="46.58017" lon="5.8282">
        <ele>757</ele>
        <time>2020-07-29T20:42:37Z</time>
      </trkpt>
      <trkpt lat="46.58017" lon="5.8284">
        <ele>757</ele>
        <time>2020-07-29T20:42:39Z</time>
      </trkpt>
      <trkpt lat="46.58015" lon="5.8285">
        <ele>757</ele>
        <time>2020-07-29T20:42:41Z</time>
      </trkpt>
      <trkpt lat="46.5799" lon="5.82907">
        <ele>760</ele>
        <time>2020-07-29T20:42:49Z</time>
      </trkpt>
      <trkpt lat="46.57987" lon="5.82927">
        <ele>760</ele>
        <time>2020-07-29T20:42:51Z</time>
      </trkpt>
      <trkpt lat="46.5799" lon="5.82963">
        <ele>759</ele>
        <time>2020-07-29T20:42:56Z</time>
      </trkpt>
      <trkpt lat="46.58002" lon="5.83014">
        <ele>757</ele>
        <time>2020-07-29T20:43:03Z</time>
      </trkpt>
      <trkpt lat="46.58004" lon="5.83027">
        <ele>757</ele>
        <time>2020-07-29T20:43:04Z</time>
      </trkpt>
      <trkpt lat="46.58019" lon="5.83031">
        <ele>756</ele>
        <time>2020-07-29T20:43:07Z</time>
      </trkpt>
      <trkpt lat="46.58027" lon="5.83029">
        <ele>755</ele>
        <time>2020-07-29T20:43:08Z</time>
      </trkpt>
      <trkpt lat="46.58039" lon="5.83019">
        <ele>754</ele>
        <time>2020-07-29T20:43:11Z</time>
      </trkpt>
      <trkpt lat="46.5806" lon="5.82996">
        <ele>752</ele>
        <time>2020-07-29T20:43:15Z</time>
      </trkpt>
      <trkpt lat="46.58078" lon="5.82969">
        <ele>751</ele>
        <time>2020-07-29T20:43:20Z</time>
      </trkpt>
      <trkpt lat="46.58116" lon="5.82895">
        <ele>751</ele>
        <time>2020-07-29T20:43:31Z</time>
      </trkpt>
      <trkpt lat="46.58123" lon="5.82887">
        <ele>751</ele>
        <time>2020-07-29T20:43:33Z</time>
      </trkpt>
      <trkpt lat="46.58142" lon="5.82875">
        <ele>750</ele>
        <time>2020-07-29T20:43:37Z</time>
      </trkpt>
      <trkpt lat="46.58156" lon="5.82871">
        <ele>750</ele>
        <time>2020-07-29T20:43:39Z</time>
      </trkpt>
      <trkpt lat="46.58182" lon="5.82854">
        <ele>749</ele>
        <time>2020-07-29T20:43:44Z</time>
      </trkpt>
      <trkpt lat="46.58266" lon="5.82772">
        <ele>747</ele>
        <time>2020-07-29T20:44:02Z</time>
      </trkpt>
      <trkpt lat="46.58292" lon="5.8274">
        <ele>744</ele>
        <time>2020-07-29T20:44:08Z</time>
      </trkpt>
      <trkpt lat="46.58336" lon="5.82657">
        <ele>741</ele>
        <time>2020-07-29T20:44:21Z</time>
      </trkpt>
      <trkpt lat="46.58362" lon="5.82611">
        <ele>736</ele>
        <time>2020-07-29T20:44:28Z</time>
      </trkpt>
      <trkpt lat="46.58379" lon="5.82592">
        <ele>733</ele>
        <time>2020-07-29T20:44:32Z</time>
      </trkpt>
      <trkpt lat="46.58404" lon="5.82576">
        <ele>730</ele>
        <time>2020-07-29T20:44:37Z</time>
      </trkpt>
      <trkpt lat="46.58411" lon="5.82577">
        <ele>729</ele>
        <time>2020-07-29T20:44:38Z</time>
      </trkpt>
      <trkpt lat="46.58418" lon="5.8258">
        <ele>727</ele>
        <time>2020-07-29T20:44:40Z</time>
      </trkpt>
      <trkpt lat="46.58422" lon="5.82586">
        <ele>725</ele>
        <time>2020-07-29T20:44:41Z</time>
      </trkpt>
      <trkpt lat="46.58424" lon="5.82594">
        <ele>724</ele>
        <time>2020-07-29T20:44:42Z</time>
      </trkpt>
      <trkpt lat="46.58424" lon="5.82608">
        <ele>723</ele>
        <time>2020-07-29T20:44:43Z</time>
      </trkpt>
      <trkpt lat="46.58407" lon="5.82718">
        <ele>721</ele>
        <time>2020-07-29T20:44:57Z</time>
      </trkpt>
      <trkpt lat="46.58406" lon="5.82742">
        <ele>720</ele>
        <time>2020-07-29T20:45:00Z</time>
      </trkpt>
      <trkpt lat="46.58411" lon="5.82773">
        <ele>717</ele>
        <time>2020-07-29T20:45:04Z</time>
      </trkpt>
      <trkpt lat="46.58411" lon="5.82796">
        <ele>715</ele>
        <time>2020-07-29T20:45:07Z</time>
      </trkpt>
      <trkpt lat="46.58408" lon="5.82817">
        <ele>714</ele>
        <time>2020-07-29T20:45:09Z</time>
      </trkpt>
      <trkpt lat="46.584" lon="5.82849">
        <ele>714</ele>
        <time>2020-07-29T20:45:14Z</time>
      </trkpt>
      <trkpt lat="46.58398" lon="5.82864">
        <ele>713</ele>
        <time>2020-07-29T20:45:15Z</time>
      </trkpt>
      <trkpt lat="46.58399" lon="5.8288">
        <ele>711</ele>
        <time>2020-07-29T20:45:17Z</time>
      </trkpt>
      <trkpt lat="46.58409" lon="5.82947">
        <ele>706</ele>
        <time>2020-07-29T20:45:26Z</time>
      </trkpt>
      <trkpt lat="46.58433" lon="5.83037">
        <ele>701</ele>
        <time>2020-07-29T20:45:38Z</time>
      </trkpt>
      <trkpt lat="46.58437" lon="5.83057">
        <ele>701</ele>
        <time>2020-07-29T20:45:40Z</time>
      </trkpt>
      <trkpt lat="46.5844" lon="5.83088">
        <ele>702</ele>
        <time>2020-07-29T20:45:44Z</time>
      </trkpt>
      <trkpt lat="46.58435" lon="5.83152">
        <ele>704</ele>
        <time>2020-07-29T20:45:52Z</time>
      </trkpt>
      <trkpt lat="46.58437" lon="5.83164">
        <ele>704</ele>
        <time>2020-07-29T20:45:53Z</time>
      </trkpt>
      <trkpt lat="46.58446" lon="5.83174">
        <ele>703</ele>
        <time>2020-07-29T20:45:55Z</time>
      </trkpt>
      <trkpt lat="46.58446" lon="5.83183">
        <ele>704</ele>
        <time>2020-07-29T20:45:57Z</time>
      </trkpt>
      <trkpt lat="46.58454" lon="5.83214">
        <ele>704</ele>
        <time>2020-07-29T20:46:01Z</time>
      </trkpt>
      <trkpt lat="46.58462" lon="5.83235">
        <ele>704</ele>
        <time>2020-07-29T20:46:03Z</time>
      </trkpt>
      <trkpt lat="46.58469" lon="5.83248">
        <ele>704</ele>
        <time>2020-07-29T20:46:06Z</time>
      </trkpt>
      <trkpt lat="46.58478" lon="5.83258">
        <ele>703</ele>
        <time>2020-07-29T20:46:08Z</time>
      </trkpt>
      <trkpt lat="46.58485" lon="5.83263">
        <ele>703</ele>
        <time>2020-07-29T20:46:09Z</time>
      </trkpt>
      <trkpt lat="46.58503" lon="5.83266">
        <ele>700</ele>
        <time>2020-07-29T20:46:12Z</time>
      </trkpt>
      <trkpt lat="46.58513" lon="5.83264">
        <ele>701</ele>
        <time>2020-07-29T20:46:14Z</time>
      </trkpt>
      <trkpt lat="46.5856" lon="5.8324">
        <ele>702</ele>
        <time>2020-07-29T20:46:23Z</time>
      </trkpt>
      <trkpt lat="46.58597" lon="5.83184">
        <ele>699</ele>
        <time>2020-07-29T20:46:32Z</time>
      </trkpt>
      <trkpt lat="46.58642" lon="5.83102">
        <ele>699</ele>
        <time>2020-07-29T20:46:45Z</time>
      </trkpt>
      <trkpt lat="46.58654" lon="5.83094">
        <ele>701</ele>
        <time>2020-07-29T20:46:47Z</time>
      </trkpt>
      <trkpt lat="46.58657" lon="5.83088">
        <ele>701</ele>
        <time>2020-07-29T20:46:48Z</time>
      </trkpt>
      <trkpt lat="46.58667" lon="5.83057">
        <ele>700</ele>
        <time>2020-07-29T20:46:53Z</time>
      </trkpt>
      <trkpt lat="46.58671" lon="5.83053">
        <ele>701</ele>
        <time>2020-07-29T20:46:53Z</time>
      </trkpt>
      <trkpt lat="46.58687" lon="5.83033">
        <ele>702</ele>
        <time>2020-07-29T20:46:57Z</time>
      </trkpt>
      <trkpt lat="46.58693" lon="5.83004">
        <ele>702</ele>
        <time>2020-07-29T20:47:01Z</time>
      </trkpt>
      <trkpt lat="46.58696" lon="5.82947">
        <ele>696</ele>
        <time>2020-07-29T20:47:08Z</time>
      </trkpt>
      <trkpt lat="46.58716" lon="5.82894">
        <ele>694</ele>
        <time>2020-07-29T20:47:15Z</time>
      </trkpt>
      <trkpt lat="46.5876" lon="5.82817">
        <ele>691</ele>
        <time>2020-07-29T20:47:28Z</time>
      </trkpt>
      <trkpt lat="46.588" lon="5.82776">
        <ele>691</ele>
        <time>2020-07-29T20:47:36Z</time>
      </trkpt>
      <trkpt lat="46.58837" lon="5.82764">
        <ele>693</ele>
        <time>2020-07-29T20:47:43Z</time>
      </trkpt>
      <trkpt lat="46.58849" lon="5.82748">
        <ele>692</ele>
        <time>2020-07-29T20:47:46Z</time>
      </trkpt>
      <trkpt lat="46.5888" lon="5.82713">
        <ele>692</ele>
        <time>2020-07-29T20:47:53Z</time>
      </trkpt>
      <trkpt lat="46.58898" lon="5.8266">
        <ele>684</ele>
        <time>2020-07-29T20:48:00Z</time>
      </trkpt>
      <trkpt lat="46.58922" lon="5.82579">
        <ele>679</ele>
        <time>2020-07-29T20:48:11Z</time>
      </trkpt>
      <trkpt lat="46.58944" lon="5.82545">
        <ele>680</ele>
        <time>2020-07-29T20:48:17Z</time>
      </trkpt>
      <trkpt lat="46.58955" lon="5.82538">
        <ele>680</ele>
        <time>2020-07-29T20:48:19Z</time>
      </trkpt>
      <trkpt lat="46.5898" lon="5.82513">
        <ele>680</ele>
        <time>2020-07-29T20:48:24Z</time>
      </trkpt>
      <trkpt lat="46.58987" lon="5.82505">
        <ele>679</ele>
        <time>2020-07-29T20:48:26Z</time>
      </trkpt>
      <trkpt lat="46.5899" lon="5.82501">
        <ele>679</ele>
        <time>2020-07-29T20:48:26Z</time>
      </trkpt>
      <trkpt lat="46.58997" lon="5.82491">
        <ele>678</ele>
        <time>2020-07-29T20:48:28Z</time>
      </trkpt>
      <trkpt lat="46.59036" lon="5.82438">
        <ele>679</ele>
        <time>2020-07-29T20:48:38Z</time>
      </trkpt>
      <trkpt lat="46.59081" lon="5.82413">
        <ele>679</ele>
        <time>2020-07-29T20:48:46Z</time>
      </trkpt>
      <trkpt lat="46.59116" lon="5.82389">
        <ele>679</ele>
        <time>2020-07-29T20:48:53Z</time>
      </trkpt>
      <trkpt lat="46.59127" lon="5.82385">
        <ele>679</ele>
        <time>2020-07-29T20:48:55Z</time>
      </trkpt>
      <trkpt lat="46.59131" lon="5.82386">
        <ele>679</ele>
        <time>2020-07-29T20:48:56Z</time>
      </trkpt>
      <trkpt lat="46.59162" lon="5.824">
        <ele>682</ele>
        <time>2020-07-29T20:49:02Z</time>
      </trkpt>
      <trkpt lat="46.5918" lon="5.82405">
        <ele>683</ele>
        <time>2020-07-29T20:49:05Z</time>
      </trkpt>
      <trkpt lat="46.59201" lon="5.82407">
        <ele>683</ele>
        <time>2020-07-29T20:49:09Z</time>
      </trkpt>
      <trkpt lat="46.59272" lon="5.82412">
        <ele>684</ele>
        <time>2020-07-29T20:49:21Z</time>
      </trkpt>
      <trkpt lat="46.59283" lon="5.8241">
        <ele>684</ele>
        <time>2020-07-29T20:49:23Z</time>
      </trkpt>
      <trkpt lat="46.59307" lon="5.82405">
        <ele>685</ele>
        <time>2020-07-29T20:49:28Z</time>
      </trkpt>
      <trkpt lat="46.59335" lon="5.82403">
        <ele>686</ele>
        <time>2020-07-29T20:49:33Z</time>
      </trkpt>
      <trkpt lat="46.59385" lon="5.82406">
        <ele>685</ele>
        <time>2020-07-29T20:49:41Z</time>
      </trkpt>
      <trkpt lat="46.59422" lon="5.82405">
        <ele>684</ele>
        <time>2020-07-29T20:49:48Z</time>
      </trkpt>
      <trkpt lat="46.59449" lon="5.82404">
        <ele>683</ele>
        <time>2020-07-29T20:49:53Z</time>
      </trkpt>
      <trkpt lat="46.59482" lon="5.82394">
        <ele>682</ele>
        <time>2020-07-29T20:49:59Z</time>
      </trkpt>
      <trkpt lat="46.59494" lon="5.82387">
        <ele>681</ele>
        <time>2020-07-29T20:50:01Z</time>
      </trkpt>
      <trkpt lat="46.59505" lon="5.82376">
        <ele>679</ele>
        <time>2020-07-29T20:50:04Z</time>
      </trkpt>
      <trkpt lat="46.59524" lon="5.82341">
        <ele>675</ele>
        <time>2020-07-29T20:50:09Z</time>
      </trkpt>
      <trkpt lat="46.59537" lon="5.82328">
        <ele>673</ele>
        <time>2020-07-29T20:50:12Z</time>
      </trkpt>
      <trkpt lat="46.59544" lon="5.82326">
        <ele>673</ele>
        <time>2020-07-29T20:50:13Z</time>
      </trkpt>
      <trkpt lat="46.59548" lon="5.82327">
        <ele>673</ele>
        <time>2020-07-29T20:50:14Z</time>
      </trkpt>
      <trkpt lat="46.59559" lon="5.82334">
        <ele>672</ele>
        <time>2020-07-29T20:50:16Z</time>
      </trkpt>
      <trkpt lat="46.59565" lon="5.82344">
        <ele>672</ele>
        <time>2020-07-29T20:50:18Z</time>
      </trkpt>
      <trkpt lat="46.59576" lon="5.82367">
        <ele>672</ele>
        <time>2020-07-29T20:50:21Z</time>
      </trkpt>
      <trkpt lat="46.59586" lon="5.82397">
        <ele>671</ele>
        <time>2020-07-29T20:50:25Z</time>
      </trkpt>
      <trkpt lat="46.5959" lon="5.82416">
        <ele>671</ele>
        <time>2020-07-29T20:50:27Z</time>
      </trkpt>
      <trkpt lat="46.59593" lon="5.82439">
        <ele>670</ele>
        <time>2020-07-29T20:50:30Z</time>
      </trkpt>
      <trkpt lat="46.596" lon="5.82606">
        <ele>670</ele>
        <time>2020-07-29T20:50:51Z</time>
      </trkpt>
      <trkpt lat="46.59603" lon="5.82627">
        <ele>669</ele>
        <time>2020-07-29T20:50:53Z</time>
      </trkpt>
      <trkpt lat="46.59611" lon="5.8267">
        <ele>668</ele>
        <time>2020-07-29T20:50:59Z</time>
      </trkpt>
      <trkpt lat="46.5962" lon="5.8271">
        <ele>668</ele>
        <time>2020-07-29T20:51:04Z</time>
      </trkpt>
      <trkpt lat="46.59634" lon="5.82754">
        <ele>667</ele>
        <time>2020-07-29T20:51:10Z</time>
      </trkpt>
      <trkpt lat="46.59649" lon="5.82789">
        <ele>665</ele>
        <time>2020-07-29T20:51:15Z</time>
      </trkpt>
      <trkpt lat="46.59674" lon="5.82833">
        <ele>662</ele>
        <time>2020-07-29T20:51:22Z</time>
      </trkpt>
      <trkpt lat="46.59686" lon="5.8286">
        <ele>661</ele>
        <time>2020-07-29T20:51:26Z</time>
      </trkpt>
      <trkpt lat="46.59692" lon="5.82881">
        <ele>660</ele>
        <time>2020-07-29T20:51:29Z</time>
      </trkpt>
      <trkpt lat="46.59698" lon="5.82909">
        <ele>659</ele>
        <time>2020-07-29T20:51:32Z</time>
      </trkpt>
      <trkpt lat="46.59708" lon="5.82992">
        <ele>658</ele>
        <time>2020-07-29T20:51:43Z</time>
      </trkpt>
      <trkpt lat="46.59722" lon="5.83057">
        <ele>656</ele>
        <time>2020-07-29T20:51:51Z</time>
      </trkpt>
      <trkpt lat="46.59724" lon="5.83062">
        <ele>656</ele>
        <time>2020-07-29T20:51:52Z</time>
      </trkpt>
      <trkpt lat="46.59728" lon="5.83073">
        <ele>656</ele>
        <time>2020-07-29T20:51:53Z</time>
      </trkpt>
      <trkpt lat="46.59734" lon="5.83085">
        <ele>655</ele>
        <time>2020-07-29T20:51:55Z</time>
      </trkpt>
      <trkpt lat="46.59741" lon="5.83092">
        <ele>655</ele>
        <time>2020-07-29T20:51:56Z</time>
      </trkpt>
      <trkpt lat="46.59748" lon="5.83095">
        <ele>654</ele>
        <time>2020-07-29T20:51:58Z</time>
      </trkpt>
      <trkpt lat="46.59752" lon="5.83097">
        <ele>654</ele>
        <time>2020-07-29T20:51:58Z</time>
      </trkpt>
      <trkpt lat="46.59764" lon="5.83099">
        <ele>655</ele>
        <time>2020-07-29T20:52:01Z</time>
      </trkpt>
      <trkpt lat="46.59804" lon="5.8309">
        <ele>655</ele>
        <time>2020-07-29T20:52:08Z</time>
      </trkpt>
      <trkpt lat="46.59825" lon="5.83077">
        <ele>655</ele>
        <time>2020-07-29T20:52:12Z</time>
      </trkpt>
      <trkpt lat="46.59832" lon="5.83068">
        <ele>655</ele>
        <time>2020-07-29T20:52:14Z</time>
      </trkpt>
      <trkpt lat="46.59843" lon="5.83045">
        <ele>656</ele>
        <time>2020-07-29T20:52:17Z</time>
      </trkpt>
      <trkpt lat="46.59883" lon="5.82918">
        <ele>661</ele>
        <time>2020-07-29T20:52:34Z</time>
      </trkpt>
      <trkpt lat="46.59895" lon="5.82892">
        <ele>662</ele>
        <time>2020-07-29T20:52:38Z</time>
      </trkpt>
      <trkpt lat="46.59896" lon="5.82889">
        <ele>662</ele>
        <time>2020-07-29T20:52:38Z</time>
      </trkpt>
      <trkpt lat="46.59902" lon="5.82878">
        <ele>663</ele>
        <time>2020-07-29T20:52:40Z</time>
      </trkpt>
      <trkpt lat="46.59906" lon="5.82872">
        <ele>664</ele>
        <time>2020-07-29T20:52:41Z</time>
      </trkpt>
      <trkpt lat="46.59911" lon="5.82867">
        <ele>664</ele>
        <time>2020-07-29T20:52:42Z</time>
      </trkpt>
      <trkpt lat="46.59931" lon="5.8283">
        <ele>666</ele>
        <time>2020-07-29T20:52:48Z</time>
      </trkpt>
      <trkpt lat="46.59957" lon="5.82764">
        <ele>666</ele>
        <time>2020-07-29T20:52:57Z</time>
      </trkpt>
      <trkpt lat="46.59971" lon="5.82734">
        <ele>667</ele>
        <time>2020-07-29T20:53:02Z</time>
      </trkpt>
      <trkpt lat="46.59975" lon="5.82729">
        <ele>667</ele>
        <time>2020-07-29T20:53:03Z</time>
      </trkpt>
      <trkpt lat="46.59983" lon="5.82725">
        <ele>668</ele>
        <time>2020-07-29T20:53:04Z</time>
      </trkpt>
      <trkpt lat="46.59986" lon="5.82725">
        <ele>668</ele>
        <time>2020-07-29T20:53:05Z</time>
      </trkpt>
      <trkpt lat="46.59991" lon="5.82726">
        <ele>669</ele>
        <time>2020-07-29T20:53:05Z</time>
      </trkpt>
      <trkpt lat="46.60005" lon="5.82735">
        <ele>669</ele>
        <time>2020-07-29T20:53:08Z</time>
      </trkpt>
      <trkpt lat="46.60024" lon="5.82751">
        <ele>670</ele>
        <time>2020-07-29T20:53:12Z</time>
      </trkpt>
      <trkpt lat="46.60047" lon="5.8278">
        <ele>671</ele>
        <time>2020-07-29T20:53:18Z</time>
      </trkpt>
      <trkpt lat="46.60052" lon="5.82786">
        <ele>671</ele>
        <time>2020-07-29T20:53:19Z</time>
      </trkpt>
      <trkpt lat="46.60088" lon="5.8282">
        <ele>674</ele>
        <time>2020-07-29T20:53:26Z</time>
      </trkpt>
      <trkpt lat="46.60144" lon="5.82857">
        <ele>676</ele>
        <time>2020-07-29T20:53:37Z</time>
      </trkpt>
      <trkpt lat="46.60174" lon="5.82892">
        <ele>678</ele>
        <time>2020-07-29T20:53:44Z</time>
      </trkpt>
      <trkpt lat="46.60181" lon="5.82904">
        <ele>679</ele>
        <time>2020-07-29T20:53:46Z</time>
      </trkpt>
      <trkpt lat="46.60198" lon="5.82895">
        <ele>682</ele>
        <time>2020-07-29T20:53:49Z</time>
      </trkpt>
      <trkpt lat="46.60205" lon="5.82886">
        <ele>683</ele>
        <time>2020-07-29T20:53:51Z</time>
      </trkpt>
      <trkpt lat="46.60221" lon="5.82861">
        <ele>684</ele>
        <time>2020-07-29T20:53:55Z</time>
      </trkpt>
      <trkpt lat="46.60238" lon="5.82823">
        <ele>684</ele>
        <time>2020-07-29T20:54:01Z</time>
      </trkpt>
      <trkpt lat="46.60268" lon="5.82778">
        <ele>685</ele>
        <time>2020-07-29T20:54:08Z</time>
      </trkpt>
      <trkpt lat="46.60304" lon="5.82743">
        <ele>685</ele>
        <time>2020-07-29T20:54:16Z</time>
      </trkpt>
      <trkpt lat="46.60354" lon="5.82713">
        <ele>688</ele>
        <time>2020-07-29T20:54:26Z</time>
      </trkpt>
      <trkpt lat="46.60395" lon="5.82675">
        <ele>685</ele>
        <time>2020-07-29T20:54:34Z</time>
      </trkpt>
      <trkpt lat="46.60422" lon="5.82625">
        <ele>681</ele>
        <time>2020-07-29T20:54:42Z</time>
      </trkpt>
      <trkpt lat="46.60448" lon="5.82566">
        <ele>676</ele>
        <time>2020-07-29T20:54:51Z</time>
      </trkpt>
      <trkpt lat="46.6047" lon="5.82478">
        <ele>673</ele>
        <time>2020-07-29T20:55:02Z</time>
      </trkpt>
      <trkpt lat="46.60485" lon="5.8239">
        <ele>672</ele>
        <time>2020-07-29T20:55:13Z</time>
      </trkpt>
      <trkpt lat="46.60494" lon="5.82315">
        <ele>672</ele>
        <time>2020-07-29T20:55:22Z</time>
      </trkpt>
      <trkpt lat="46.60495" lon="5.82295">
        <ele>672</ele>
        <time>2020-07-29T20:55:25Z</time>
      </trkpt>
      <trkpt lat="46.60494" lon="5.82275">
        <ele>671</ele>
        <time>2020-07-29T20:55:27Z</time>
      </trkpt>
      <trkpt lat="46.6049" lon="5.82256">
        <ele>671</ele>
        <time>2020-07-29T20:55:30Z</time>
      </trkpt>
      <trkpt lat="46.60468" lon="5.82204">
        <ele>668</ele>
        <time>2020-07-29T20:55:37Z</time>
      </trkpt>
      <trkpt lat="46.60462" lon="5.82186">
        <ele>667</ele>
        <time>2020-07-29T20:55:40Z</time>
      </trkpt>
      <trkpt lat="46.60458" lon="5.82167">
        <ele>666</ele>
        <time>2020-07-29T20:55:42Z</time>
      </trkpt>
      <trkpt lat="46.60457" lon="5.82136">
        <ele>665</ele>
        <time>2020-07-29T20:55:46Z</time>
      </trkpt>
      <trkpt lat="46.60467" lon="5.82057">
        <ele>663</ele>
        <time>2020-07-29T20:55:56Z</time>
      </trkpt>
      <trkpt lat="46.60466" lon="5.82016">
        <ele>663</ele>
        <time>2020-07-29T20:56:01Z</time>
      </trkpt>
      <trkpt lat="46.60459" lon="5.81977">
        <ele>662</ele>
        <time>2020-07-29T20:56:06Z</time>
      </trkpt>
      <trkpt lat="46.6044" lon="5.81901">
        <ele>659</ele>
        <time>2020-07-29T20:56:16Z</time>
      </trkpt>
      <trkpt lat="46.60434" lon="5.81867">
        <ele>659</ele>
        <time>2020-07-29T20:56:20Z</time>
      </trkpt>
      <trkpt lat="46.60437" lon="5.81821">
        <ele>659</ele>
        <time>2020-07-29T20:56:25Z</time>
      </trkpt>
      <trkpt lat="46.60456" lon="5.81712">
        <ele>659</ele>
        <time>2020-07-29T20:56:39Z</time>
      </trkpt>
      <trkpt lat="46.60462" lon="5.81688">
        <ele>659</ele>
        <time>2020-07-29T20:56:42Z</time>
      </trkpt>
      <trkpt lat="46.60468" lon="5.81673">
        <ele>659</ele>
        <time>2020-07-29T20:56:44Z</time>
      </trkpt>
      <trkpt lat="46.60473" lon="5.81666">
        <ele>660</ele>
        <time>2020-07-29T20:56:46Z</time>
      </trkpt>
      <trkpt lat="46.60527" lon="5.81618">
        <ele>661</ele>
        <time>2020-07-29T20:56:57Z</time>
      </trkpt>
      <trkpt lat="46.60578" lon="5.81579">
        <ele>661</ele>
        <time>2020-07-29T20:57:07Z</time>
      </trkpt>
      <trkpt lat="46.60594" lon="5.81561">
        <ele>660</ele>
        <time>2020-07-29T20:57:11Z</time>
      </trkpt>
      <trkpt lat="46.60609" lon="5.81539">
        <ele>659</ele>
        <time>2020-07-29T20:57:15Z</time>
      </trkpt>
      <trkpt lat="46.60619" lon="5.81512">
        <ele>658</ele>
        <time>2020-07-29T20:57:18Z</time>
      </trkpt>
      <trkpt lat="46.60665" lon="5.81342">
        <ele>657</ele>
        <time>2020-07-29T20:57:41Z</time>
      </trkpt>
      <trkpt lat="46.60678" lon="5.81274">
        <ele>655</ele>
        <time>2020-07-29T20:57:49Z</time>
      </trkpt>
      <trkpt lat="46.60684" lon="5.81255">
        <ele>654</ele>
        <time>2020-07-29T20:57:52Z</time>
      </trkpt>
      <trkpt lat="46.6069" lon="5.81243">
        <ele>653</ele>
        <time>2020-07-29T20:57:54Z</time>
      </trkpt>
      <trkpt lat="46.60711" lon="5.81223">
        <ele>652</ele>
        <time>2020-07-29T20:57:58Z</time>
      </trkpt>
      <trkpt lat="46.60875" lon="5.81109">
        <ele>649</ele>
        <time>2020-07-29T20:58:30Z</time>
      </trkpt>
      <trkpt lat="46.60888" lon="5.81102">
        <ele>649</ele>
        <time>2020-07-29T20:58:33Z</time>
      </trkpt>
      <trkpt lat="46.60902" lon="5.811">
        <ele>648</ele>
        <time>2020-07-29T20:58:35Z</time>
      </trkpt>
      <trkpt lat="46.60944" lon="5.81098">
        <ele>646</ele>
        <time>2020-07-29T20:58:43Z</time>
      </trkpt>
      <trkpt lat="46.60958" lon="5.81096">
        <ele>645</ele>
        <time>2020-07-29T20:58:45Z</time>
      </trkpt>
      <trkpt lat="46.60971" lon="5.81091">
        <ele>645</ele>
        <time>2020-07-29T20:58:48Z</time>
      </trkpt>
      <trkpt lat="46.6099" lon="5.81081">
        <ele>645</ele>
        <time>2020-07-29T20:58:51Z</time>
      </trkpt>
      <trkpt lat="46.61014" lon="5.8106">
        <ele>643</ele>
        <time>2020-07-29T20:58:56Z</time>
      </trkpt>
      <trkpt lat="46.6103" lon="5.81042">
        <ele>641</ele>
        <time>2020-07-29T20:59:00Z</time>
      </trkpt>
      <trkpt lat="46.6104" lon="5.81027">
        <ele>641</ele>
        <time>2020-07-29T20:59:03Z</time>
      </trkpt>
      <trkpt lat="46.61056" lon="5.80994">
        <ele>640</ele>
        <time>2020-07-29T20:59:08Z</time>
      </trkpt>
      <trkpt lat="46.61062" lon="5.80976">
        <ele>639</ele>
        <time>2020-07-29T20:59:10Z</time>
      </trkpt>
      <trkpt lat="46.61064" lon="5.80956">
        <ele>639</ele>
        <time>2020-07-29T20:59:12Z</time>
      </trkpt>
      <trkpt lat="46.61062" lon="5.80937">
        <ele>640</ele>
        <time>2020-07-29T20:59:15Z</time>
      </trkpt>
      <trkpt lat="46.61056" lon="5.80918">
        <ele>640</ele>
        <time>2020-07-29T20:59:17Z</time>
      </trkpt>
      <trkpt lat="46.61048" lon="5.80902">
        <ele>640</ele>
        <time>2020-07-29T20:59:20Z</time>
      </trkpt>
      <trkpt lat="46.60975" lon="5.80781">
        <ele>636</ele>
        <time>2020-07-29T20:59:39Z</time>
      </trkpt>
      <trkpt lat="46.60975" lon="5.80775">
        <ele>636</ele>
        <time>2020-07-29T20:59:40Z</time>
      </trkpt>
      <trkpt lat="46.60978" lon="5.80764">
        <ele>635</ele>
        <time>2020-07-29T20:59:42Z</time>
      </trkpt>
      <trkpt lat="46.60983" lon="5.80756">
        <ele>634</ele>
        <time>2020-07-29T20:59:43Z</time>
      </trkpt>
      <trkpt lat="46.60987" lon="5.80754">
        <ele>634</ele>
        <time>2020-07-29T20:59:44Z</time>
      </trkpt>
      <trkpt lat="46.61005" lon="5.8076">
        <ele>633</ele>
        <time>2020-07-29T20:59:47Z</time>
      </trkpt>
      <trkpt lat="46.61055" lon="5.80782">
        <ele>631</ele>
        <time>2020-07-29T20:59:56Z</time>
      </trkpt>
      <trkpt lat="46.61076" lon="5.80788">
        <ele>630</ele>
        <time>2020-07-29T21:00:00Z</time>
      </trkpt>
      <trkpt lat="46.61084" lon="5.80789">
        <ele>630</ele>
        <time>2020-07-29T21:00:01Z</time>
      </trkpt>
      <trkpt lat="46.61088" lon="5.8079">
        <ele>630</ele>
        <time>2020-07-29T21:00:02Z</time>
      </trkpt>
      <trkpt lat="46.61106" lon="5.80791">
        <ele>629</ele>
        <time>2020-07-29T21:00:05Z</time>
      </trkpt>
      <trkpt lat="46.61124" lon="5.80793">
        <ele>629</ele>
        <time>2020-07-29T21:00:09Z</time>
      </trkpt>
      <trkpt lat="46.61135" lon="5.80794">
        <ele>629</ele>
        <time>2020-07-29T21:00:11Z</time>
      </trkpt>
      <trkpt lat="46.61144" lon="5.80793">
        <ele>628</ele>
        <time>2020-07-29T21:00:12Z</time>
      </trkpt>
      <trkpt lat="46.61155" lon="5.80787">
        <ele>628</ele>
        <time>2020-07-29T21:00:14Z</time>
      </trkpt>
      <trkpt lat="46.61169" lon="5.8077">
        <ele>626</ele>
        <time>2020-07-29T21:00:18Z</time>
      </trkpt>
      <trkpt lat="46.61176" lon="5.80765">
        <ele>626</ele>
        <time>2020-07-29T21:00:19Z</time>
      </trkpt>
      <trkpt lat="46.61181" lon="5.80763">
        <ele>626</ele>
        <time>2020-07-29T21:00:20Z</time>
      </trkpt>
      <trkpt lat="46.61191" lon="5.80763">
        <ele>626</ele>
        <time>2020-07-29T21:00:22Z</time>
      </trkpt>
      <trkpt lat="46.61201" lon="5.80767">
        <ele>627</ele>
        <time>2020-07-29T21:00:23Z</time>
      </trkpt>
      <trkpt lat="46.61224" lon="5.80783">
        <ele>627</ele>
        <time>2020-07-29T21:00:28Z</time>
      </trkpt>
      <trkpt lat="46.61239" lon="5.80797">
        <ele>628</ele>
        <time>2020-07-29T21:00:31Z</time>
      </trkpt>
      <trkpt lat="46.61267" lon="5.80825">
        <ele>629</ele>
        <time>2020-07-29T21:00:37Z</time>
      </trkpt>
      <trkpt lat="46.61274" lon="5.80831">
        <ele>629</ele>
        <time>2020-07-29T21:00:39Z</time>
      </trkpt>
      <trkpt lat="46.61285" lon="5.80839">
        <ele>629</ele>
        <time>2020-07-29T21:00:41Z</time>
      </trkpt>
      <trkpt lat="46.61304" lon="5.8085">
        <ele>631</ele>
        <time>2020-07-29T21:00:44Z</time>
      </trkpt>
      <trkpt lat="46.61313" lon="5.80854">
        <ele>631</ele>
        <time>2020-07-29T21:00:46Z</time>
      </trkpt>
      <trkpt lat="46.61328" lon="5.8086">
        <ele>632</ele>
        <time>2020-07-29T21:00:49Z</time>
      </trkpt>
      <trkpt lat="46.61349" lon="5.80866">
        <ele>633</ele>
        <time>2020-07-29T21:00:53Z</time>
      </trkpt>
      <trkpt lat="46.61405" lon="5.80879">
        <ele>634</ele>
        <time>2020-07-29T21:01:03Z</time>
      </trkpt>
      <trkpt lat="46.61426" lon="5.80888">
        <ele>635</ele>
        <time>2020-07-29T21:01:07Z</time>
      </trkpt>
      <trkpt lat="46.61443" lon="5.80896">
        <ele>635</ele>
        <time>2020-07-29T21:01:10Z</time>
      </trkpt>
      <trkpt lat="46.6145" lon="5.809">
        <ele>636</ele>
        <time>2020-07-29T21:01:11Z</time>
      </trkpt>
      <trkpt lat="46.61458" lon="5.80905">
        <ele>636</ele>
        <time>2020-07-29T21:01:13Z</time>
      </trkpt>
      <trkpt lat="46.61477" lon="5.80912">
        <ele>636</ele>
        <time>2020-07-29T21:01:16Z</time>
      </trkpt>
      <trkpt lat="46.61485" lon="5.80912">
        <ele>637</ele>
        <time>2020-07-29T21:01:18Z</time>
      </trkpt>
      <trkpt lat="46.61492" lon="5.8091">
        <ele>637</ele>
        <time>2020-07-29T21:01:19Z</time>
      </trkpt>
      <trkpt lat="46.61504" lon="5.80901">
        <ele>637</ele>
        <time>2020-07-29T21:01:21Z</time>
      </trkpt>
      <trkpt lat="46.61509" lon="5.80897">
        <ele>637</ele>
        <time>2020-07-29T21:01:22Z</time>
      </trkpt>
      <trkpt lat="46.61514" lon="5.8089">
        <ele>637</ele>
        <time>2020-07-29T21:01:24Z</time>
      </trkpt>
      <trkpt lat="46.61528" lon="5.80879">
        <ele>636</ele>
        <time>2020-07-29T21:01:26Z</time>
      </trkpt>
      <trkpt lat="46.61548" lon="5.80869">
        <ele>636</ele>
        <time>2020-07-29T21:01:30Z</time>
      </trkpt>
      <trkpt lat="46.61589" lon="5.80872">
        <ele>636</ele>
        <time>2020-07-29T21:01:38Z</time>
      </trkpt>
      <trkpt lat="46.61603" lon="5.80868">
        <ele>636</ele>
        <time>2020-07-29T21:01:40Z</time>
      </trkpt>
      <trkpt lat="46.61609" lon="5.80863">
        <ele>637</ele>
        <time>2020-07-29T21:01:41Z</time>
      </trkpt>
      <trkpt lat="46.61619" lon="5.80851">
        <ele>637</ele>
        <time>2020-07-29T21:01:44Z</time>
      </trkpt>
      <trkpt lat="46.61626" lon="5.80838">
        <ele>637</ele>
        <time>2020-07-29T21:01:46Z</time>
      </trkpt>
      <trkpt lat="46.61629" lon="5.8083">
        <ele>636</ele>
        <time>2020-07-29T21:01:47Z</time>
      </trkpt>
      <trkpt lat="46.61656" lon="5.80746">
        <ele>634</ele>
        <time>2020-07-29T21:01:58Z</time>
      </trkpt>
      <trkpt lat="46.61664" lon="5.80714">
        <ele>635</ele>
        <time>2020-07-29T21:02:02Z</time>
      </trkpt>
      <trkpt lat="46.61688" lon="5.80601">
        <ele>639</ele>
        <time>2020-07-29T21:02:17Z</time>
      </trkpt>
      <trkpt lat="46.61697" lon="5.80568">
        <ele>640</ele>
        <time>2020-07-29T21:02:21Z</time>
      </trkpt>
      <trkpt lat="46.61703" lon="5.80552">
        <ele>640</ele>
        <time>2020-07-29T21:02:23Z</time>
      </trkpt>
      <trkpt lat="46.61712" lon="5.80531">
        <ele>641</ele>
        <time>2020-07-29T21:02:26Z</time>
      </trkpt>
      <trkpt lat="46.61728" lon="5.80492">
        <ele>642</ele>
        <time>2020-07-29T21:02:32Z</time>
      </trkpt>
      <trkpt lat="46.61732" lon="5.8048">
        <ele>642</ele>
        <time>2020-07-29T21:02:33Z</time>
      </trkpt>
      <trkpt lat="46.61736" lon="5.80465">
        <ele>642</ele>
        <time>2020-07-29T21:02:35Z</time>
      </trkpt>
      <trkpt lat="46.61766" lon="5.80361">
        <ele>642</ele>
        <time>2020-07-29T21:02:49Z</time>
      </trkpt>
      <trkpt lat="46.61772" lon="5.80341">
        <ele>642</ele>
        <time>2020-07-29T21:02:52Z</time>
      </trkpt>
      <trkpt lat="46.61776" lon="5.8033">
        <ele>642</ele>
        <time>2020-07-29T21:02:53Z</time>
      </trkpt>
      <trkpt lat="46.61778" lon="5.80321">
        <ele>642</ele>
        <time>2020-07-29T21:02:55Z</time>
      </trkpt>
      <trkpt lat="46.6178" lon="5.80309">
        <ele>641</ele>
        <time>2020-07-29T21:02:56Z</time>
      </trkpt>
      <trkpt lat="46.6178" lon="5.80237">
        <ele>640</ele>
        <time>2020-07-29T21:03:05Z</time>
      </trkpt>
      <trkpt lat="46.6179" lon="5.80161">
        <ele>639</ele>
        <time>2020-07-29T21:03:14Z</time>
      </trkpt>
      <trkpt lat="46.61817" lon="5.80097">
        <ele>636</ele>
        <time>2020-07-29T21:03:23Z</time>
      </trkpt>
      <trkpt lat="46.61884" lon="5.79976">
        <ele>628</ele>
        <time>2020-07-29T21:03:42Z</time>
      </trkpt>
      <trkpt lat="46.61974" lon="5.79896">
        <ele>620</ele>
        <time>2020-07-29T21:04:01Z</time>
      </trkpt>
      <trkpt lat="46.61992" lon="5.79885">
        <ele>619</ele>
        <time>2020-07-29T21:04:05Z</time>
      </trkpt>
      <trkpt lat="46.62071" lon="5.79834">
        <ele>616</ele>
        <time>2020-07-29T21:04:20Z</time>
      </trkpt>
      <trkpt lat="46.62266" lon="5.79731">
        <ele>610</ele>
        <time>2020-07-29T21:04:57Z</time>
      </trkpt>
      <trkpt lat="46.62297" lon="5.79694">
        <ele>609</ele>
        <time>2020-07-29T21:05:04Z</time>
      </trkpt>
      <trkpt lat="46.6236" lon="5.79599">
        <ele>605</ele>
        <time>2020-07-29T21:05:20Z</time>
      </trkpt>
      <trkpt lat="46.62382" lon="5.79567">
        <ele>604</ele>
        <time>2020-07-29T21:05:26Z</time>
      </trkpt>
      <trkpt lat="46.62396" lon="5.79525">
        <ele>604</ele>
        <time>2020-07-29T21:05:32Z</time>
      </trkpt>
      <trkpt lat="46.62407" lon="5.79464">
        <ele>603</ele>
        <time>2020-07-29T21:05:39Z</time>
      </trkpt>
      <trkpt lat="46.6244" lon="5.79375">
        <ele>602</ele>
        <time>2020-07-29T21:05:52Z</time>
      </trkpt>
      <trkpt lat="46.625" lon="5.79239">
        <ele>604</ele>
        <time>2020-07-29T21:06:11Z</time>
      </trkpt>
      <trkpt lat="46.62518" lon="5.79186">
        <ele>605</ele>
        <time>2020-07-29T21:06:19Z</time>
      </trkpt>
      <trkpt lat="46.62522" lon="5.79162">
        <ele>606</ele>
        <time>2020-07-29T21:06:22Z</time>
      </trkpt>
      <trkpt lat="46.62524" lon="5.79146">
        <ele>606</ele>
        <time>2020-07-29T21:06:24Z</time>
      </trkpt>
      <trkpt lat="46.62541" lon="5.79108">
        <ele>607</ele>
        <time>2020-07-29T21:06:29Z</time>
      </trkpt>
      <trkpt lat="46.6262" lon="5.78974">
        <ele>609</ele>
        <time>2020-07-29T21:06:51Z</time>
      </trkpt>
      <trkpt lat="46.6267" lon="5.78874">
        <ele>612</ele>
        <time>2020-07-29T21:07:06Z</time>
      </trkpt>
      <trkpt lat="46.62748" lon="5.78708">
        <ele>613</ele>
        <time>2020-07-29T21:07:30Z</time>
      </trkpt>
      <trkpt lat="46.62782" lon="5.78597">
        <ele>615</ele>
        <time>2020-07-29T21:07:45Z</time>
      </trkpt>
      <trkpt lat="46.62802" lon="5.78571">
        <ele>615</ele>
        <time>2020-07-29T21:07:50Z</time>
      </trkpt>
      <trkpt lat="46.62835" lon="5.78541">
        <ele>611</ele>
        <time>2020-07-29T21:07:57Z</time>
      </trkpt>
      <trkpt lat="46.62847" lon="5.78527">
        <ele>611</ele>
        <time>2020-07-29T21:08:00Z</time>
      </trkpt>
      <trkpt lat="46.6286" lon="5.78505">
        <ele>610</ele>
        <time>2020-07-29T21:08:03Z</time>
      </trkpt>
      <trkpt lat="46.62905" lon="5.78448">
        <ele>608</ele>
        <time>2020-07-29T21:08:14Z</time>
      </trkpt>
      <trkpt lat="46.62928" lon="5.78413">
        <ele>606</ele>
        <time>2020-07-29T21:08:20Z</time>
      </trkpt>
      <trkpt lat="46.62954" lon="5.78341">
        <ele>607</ele>
        <time>2020-07-29T21:08:30Z</time>
      </trkpt>
      <trkpt lat="46.62965" lon="5.78303">
        <ele>606</ele>
        <time>2020-07-29T21:08:35Z</time>
      </trkpt>
      <trkpt lat="46.62985" lon="5.78252">
        <ele>605</ele>
        <time>2020-07-29T21:08:42Z</time>
      </trkpt>
      <trkpt lat="46.63011" lon="5.782">
        <ele>605</ele>
        <time>2020-07-29T21:08:50Z</time>
      </trkpt>
      <trkpt lat="46.63023" lon="5.78183">
        <ele>605</ele>
        <time>2020-07-29T21:08:53Z</time>
      </trkpt>
      <trkpt lat="46.63038" lon="5.78169">
        <ele>605</ele>
        <time>2020-07-29T21:08:56Z</time>
      </trkpt>
      <trkpt lat="46.63079" lon="5.78142">
        <ele>605</ele>
        <time>2020-07-29T21:09:04Z</time>
      </trkpt>
      <trkpt lat="46.63117" lon="5.78114">
        <ele>604</ele>
        <time>2020-07-29T21:09:11Z</time>
      </trkpt>
      <trkpt lat="46.63171" lon="5.78089">
        <ele>604</ele>
        <time>2020-07-29T21:09:22Z</time>
      </trkpt>
      <trkpt lat="46.63228" lon="5.7804">
        <ele>606</ele>
        <time>2020-07-29T21:09:33Z</time>
      </trkpt>
      <trkpt lat="46.63254" lon="5.78027">
        <ele>606</ele>
        <time>2020-07-29T21:09:38Z</time>
      </trkpt>
      <trkpt lat="46.63269" lon="5.78022">
        <ele>607</ele>
        <time>2020-07-29T21:09:41Z</time>
      </trkpt>
      <trkpt lat="46.63286" lon="5.78021">
        <ele>607</ele>
        <time>2020-07-29T21:09:44Z</time>
      </trkpt>
      <trkpt lat="46.63337" lon="5.78025">
        <ele>609</ele>
        <time>2020-07-29T21:09:53Z</time>
      </trkpt>
      <trkpt lat="46.63448" lon="5.77987">
        <ele>607</ele>
        <time>2020-07-29T21:10:13Z</time>
      </trkpt>
      <trkpt lat="46.6357" lon="5.77965">
        <ele>605</ele>
        <time>2020-07-29T21:10:35Z</time>
      </trkpt>
      <trkpt lat="46.6358" lon="5.77963">
        <ele>605</ele>
        <time>2020-07-29T21:10:37Z</time>
      </trkpt>
      <trkpt lat="46.63616" lon="5.77948">
        <ele>604</ele>
        <time>2020-07-29T21:10:44Z</time>
      </trkpt>
      <trkpt lat="46.63671" lon="5.77931">
        <ele>602</ele>
        <time>2020-07-29T21:10:54Z</time>
      </trkpt>
      <trkpt lat="46.63776" lon="5.77882">
        <ele>601</ele>
        <time>2020-07-29T21:11:13Z</time>
      </trkpt>
      <trkpt lat="46.63843" lon="5.77814">
        <ele>603</ele>
        <time>2020-07-29T21:11:28Z</time>
      </trkpt>
      <trkpt lat="46.63864" lon="5.77798">
        <ele>603</ele>
        <time>2020-07-29T21:11:32Z</time>
      </trkpt>
      <trkpt lat="46.63894" lon="5.7777">
        <ele>604</ele>
        <time>2020-07-29T21:11:38Z</time>
      </trkpt>
      <trkpt lat="46.63913" lon="5.7772">
        <ele>605</ele>
        <time>2020-07-29T21:11:45Z</time>
      </trkpt>
      <trkpt lat="46.63933" lon="5.77683">
        <ele>605</ele>
        <time>2020-07-29T21:11:51Z</time>
      </trkpt>
      <trkpt lat="46.63957" lon="5.7761">
        <ele>606</ele>
        <time>2020-07-29T21:12:01Z</time>
      </trkpt>
      <trkpt lat="46.63964" lon="5.77589">
        <ele>606</ele>
        <time>2020-07-29T21:12:04Z</time>
      </trkpt>
      <trkpt lat="46.63975" lon="5.77566">
        <ele>606</ele>
        <time>2020-07-29T21:12:07Z</time>
      </trkpt>
      <trkpt lat="46.64009" lon="5.77516">
        <ele>603</ele>
        <time>2020-07-29T21:12:16Z</time>
      </trkpt>
      <trkpt lat="46.64026" lon="5.77485">
        <ele>603</ele>
        <time>2020-07-29T21:12:21Z</time>
      </trkpt>
      <trkpt lat="46.64063" lon="5.77423">
        <ele>601</ele>
        <time>2020-07-29T21:12:31Z</time>
      </trkpt>
      <trkpt lat="46.64068" lon="5.77409">
        <ele>600</ele>
        <time>2020-07-29T21:12:33Z</time>
      </trkpt>
      <trkpt lat="46.64076" lon="5.77359">
        <ele>599</ele>
        <time>2020-07-29T21:12:39Z</time>
      </trkpt>
      <trkpt lat="46.64101" lon="5.77289">
        <ele>598</ele>
        <time>2020-07-29T21:12:49Z</time>
      </trkpt>
      <trkpt lat="46.64109" lon="5.77241">
        <ele>597</ele>
        <time>2020-07-29T21:12:55Z</time>
      </trkpt>
      <trkpt lat="46.64112" lon="5.7723">
        <ele>597</ele>
        <time>2020-07-29T21:12:56Z</time>
      </trkpt>
      <trkpt lat="46.64117" lon="5.77217">
        <ele>596</ele>
        <time>2020-07-29T21:12:58Z</time>
      </trkpt>
      <trkpt lat="46.64124" lon="5.77205">
        <ele>596</ele>
        <time>2020-07-29T21:13:00Z</time>
      </trkpt>
      <trkpt lat="46.64138" lon="5.77191">
        <ele>595</ele>
        <time>2020-07-29T21:13:03Z</time>
      </trkpt>
      <trkpt lat="46.64151" lon="5.77186">
        <ele>594</ele>
        <time>2020-07-29T21:13:05Z</time>
      </trkpt>
      <trkpt lat="46.6416" lon="5.77186">
        <ele>593</ele>
        <time>2020-07-29T21:13:07Z</time>
      </trkpt>
      <trkpt lat="46.64194" lon="5.77196">
        <ele>590</ele>
        <time>2020-07-29T21:13:13Z</time>
      </trkpt>
      <trkpt lat="46.6426" lon="5.77221">
        <ele>585</ele>
        <time>2020-07-29T21:13:25Z</time>
      </trkpt>
      <trkpt lat="46.64277" lon="5.77221">
        <ele>585</ele>
        <time>2020-07-29T21:13:28Z</time>
      </trkpt>
      <trkpt lat="46.64294" lon="5.77215">
        <ele>585</ele>
        <time>2020-07-29T21:13:31Z</time>
      </trkpt>
      <trkpt lat="46.64323" lon="5.77197">
        <ele>584</ele>
        <time>2020-07-29T21:13:37Z</time>
      </trkpt>
      <trkpt lat="46.64375" lon="5.77155">
        <ele>582</ele>
        <time>2020-07-29T21:13:48Z</time>
      </trkpt>
      <trkpt lat="46.64395" lon="5.77142">
        <ele>581</ele>
        <time>2020-07-29T21:13:51Z</time>
      </trkpt>
      <trkpt lat="46.64422" lon="5.77121">
        <ele>579</ele>
        <time>2020-07-29T21:13:57Z</time>
      </trkpt>
      <trkpt lat="46.64431" lon="5.77113">
        <ele>579</ele>
        <time>2020-07-29T21:13:59Z</time>
      </trkpt>
      <trkpt lat="46.64445" lon="5.77094">
        <ele>579</ele>
        <time>2020-07-29T21:14:02Z</time>
      </trkpt>
      <trkpt lat="46.64472" lon="5.7705">
        <ele>579</ele>
        <time>2020-07-29T21:14:09Z</time>
      </trkpt>
      <trkpt lat="46.64484" lon="5.77036">
        <ele>579</ele>
        <time>2020-07-29T21:14:12Z</time>
      </trkpt>
      <trkpt lat="46.64499" lon="5.77023">
        <ele>578</ele>
        <time>2020-07-29T21:14:15Z</time>
      </trkpt>
      <trkpt lat="46.64532" lon="5.77004">
        <ele>577</ele>
        <time>2020-07-29T21:14:21Z</time>
      </trkpt>
      <trkpt lat="46.64559" lon="5.76981">
        <ele>575</ele>
        <time>2020-07-29T21:14:27Z</time>
      </trkpt>
      <trkpt lat="46.64595" lon="5.76931">
        <ele>570</ele>
        <time>2020-07-29T21:14:36Z</time>
      </trkpt>
      <trkpt lat="46.6461" lon="5.76915">
        <ele>569</ele>
        <time>2020-07-29T21:14:39Z</time>
      </trkpt>
      <trkpt lat="46.64623" lon="5.76909">
        <ele>570</ele>
        <time>2020-07-29T21:14:42Z</time>
      </trkpt>
      <trkpt lat="46.64631" lon="5.76907">
        <ele>570</ele>
        <time>2020-07-29T21:14:43Z</time>
      </trkpt>
      <trkpt lat="46.64663" lon="5.76909">
        <ele>571</ele>
        <time>2020-07-29T21:14:49Z</time>
      </trkpt>
      <trkpt lat="46.64671" lon="5.76911">
        <ele>570</ele>
        <time>2020-07-29T21:14:50Z</time>
      </trkpt>
      <trkpt lat="46.64685" lon="5.76918">
        <ele>567</ele>
        <time>2020-07-29T21:14:53Z</time>
      </trkpt>
      <trkpt lat="46.647" lon="5.76935">
        <ele>564</ele>
        <time>2020-07-29T21:14:56Z</time>
      </trkpt>
      <trkpt lat="46.64704" lon="5.76944">
        <ele>564</ele>
        <time>2020-07-29T21:14:58Z</time>
      </trkpt>
      <trkpt lat="46.64708" lon="5.76959">
        <ele>565</ele>
        <time>2020-07-29T21:15:00Z</time>
      </trkpt>
      <trkpt lat="46.64715" lon="5.77006">
        <ele>569</ele>
        <time>2020-07-29T21:15:05Z</time>
      </trkpt>
      <trkpt lat="46.64766" lon="5.77037">
        <ele>563</ele>
        <time>2020-07-29T21:15:15Z</time>
      </trkpt>
      <trkpt lat="46.64771" lon="5.77038">
        <ele>561</ele>
        <time>2020-07-29T21:15:16Z</time>
      </trkpt>
      <trkpt lat="46.64774" lon="5.7703">
        <ele>559</ele>
        <time>2020-07-29T21:15:17Z</time>
      </trkpt>
      <trkpt lat="46.64774" lon="5.77022">
        <ele>558</ele>
        <time>2020-07-29T21:15:18Z</time>
      </trkpt>
      <trkpt lat="46.64771" lon="5.77015">
        <ele>558</ele>
        <time>2020-07-29T21:15:19Z</time>
      </trkpt>
      <trkpt lat="46.64736" lon="5.76996">
        <ele>563</ele>
        <time>2020-07-29T21:15:26Z</time>
      </trkpt>
      <trkpt lat="46.64728" lon="5.76983">
        <ele>563</ele>
        <time>2020-07-29T21:15:28Z</time>
      </trkpt>
      <trkpt lat="46.64724" lon="5.76957">
        <ele>561</ele>
        <time>2020-07-29T21:15:31Z</time>
      </trkpt>
      <trkpt lat="46.64726" lon="5.76851">
        <ele>555</ele>
        <time>2020-07-29T21:15:44Z</time>
      </trkpt>
      <trkpt lat="46.6472" lon="5.7681">
        <ele>555</ele>
        <time>2020-07-29T21:15:49Z</time>
      </trkpt>
      <trkpt lat="46.64708" lon="5.76773">
        <ele>557</ele>
        <time>2020-07-29T21:15:54Z</time>
      </trkpt>
      <trkpt lat="46.64702" lon="5.76747">
        <ele>557</ele>
        <time>2020-07-29T21:15:58Z</time>
      </trkpt>
      <trkpt lat="46.64705" lon="5.76736">
        <ele>555</ele>
        <time>2020-07-29T21:15:59Z</time>
      </trkpt>
      <trkpt lat="46.64714" lon="5.76734">
        <ele>552</ele>
        <time>2020-07-29T21:16:01Z</time>
      </trkpt>
      <trkpt lat="46.64726" lon="5.76751">
        <ele>550</ele>
        <time>2020-07-29T21:16:04Z</time>
      </trkpt>
      <trkpt lat="46.64742" lon="5.76781">
        <ele>547</ele>
        <time>2020-07-29T21:16:08Z</time>
      </trkpt>
      <trkpt lat="46.64752" lon="5.76791">
        <ele>545</ele>
        <time>2020-07-29T21:16:11Z</time>
      </trkpt>
      <trkpt lat="46.64769" lon="5.7679">
        <ele>543</ele>
        <time>2020-07-29T21:16:14Z</time>
      </trkpt>
      <trkpt lat="46.64788" lon="5.76784">
        <ele>541</ele>
        <time>2020-07-29T21:16:17Z</time>
      </trkpt>
      <trkpt lat="46.64781" lon="5.76748">
        <ele>540</ele>
        <time>2020-07-29T21:16:22Z</time>
      </trkpt>
      <trkpt lat="46.64755" lon="5.76673">
        <ele>537</ele>
        <time>2020-07-29T21:16:32Z</time>
      </trkpt>
      <trkpt lat="46.64733" lon="5.766">
        <ele>539</ele>
        <time>2020-07-29T21:16:42Z</time>
      </trkpt>
      <trkpt lat="46.64723" lon="5.76547">
        <ele>542</ele>
        <time>2020-07-29T21:16:48Z</time>
      </trkpt>
      <trkpt lat="46.6472" lon="5.7648">
        <ele>542</ele>
        <time>2020-07-29T21:16:56Z</time>
      </trkpt>
      <trkpt lat="46.64723" lon="5.76417">
        <ele>541</ele>
        <time>2020-07-29T21:17:04Z</time>
      </trkpt>
      <trkpt lat="46.64776" lon="5.76145">
        <ele>523</ele>
        <time>2020-07-29T21:17:39Z</time>
      </trkpt>
      <trkpt lat="46.64778" lon="5.76115">
        <ele>523</ele>
        <time>2020-07-29T21:17:42Z</time>
      </trkpt>
      <trkpt lat="46.64775" lon="5.76092">
        <ele>523</ele>
        <time>2020-07-29T21:17:45Z</time>
      </trkpt>
      <trkpt lat="46.64768" lon="5.76062">
        <ele>523</ele>
        <time>2020-07-29T21:17:49Z</time>
      </trkpt>
      <trkpt lat="46.6476" lon="5.76035">
        <ele>522</ele>
        <time>2020-07-29T21:17:53Z</time>
      </trkpt>
      <trkpt lat="46.6472" lon="5.75941">
        <ele>520</ele>
        <time>2020-07-29T21:18:06Z</time>
      </trkpt>
      <trkpt lat="46.64696" lon="5.75905">
        <ele>521</ele>
        <time>2020-07-29T21:18:12Z</time>
      </trkpt>
      <trkpt lat="46.64682" lon="5.75886">
        <ele>521</ele>
        <time>2020-07-29T21:18:16Z</time>
      </trkpt>
      <trkpt lat="46.64639" lon="5.75816">
        <ele>522</ele>
        <time>2020-07-29T21:18:27Z</time>
      </trkpt>
      <trkpt lat="46.64607" lon="5.75771">
        <ele>521</ele>
        <time>2020-07-29T21:18:35Z</time>
      </trkpt>
      <trkpt lat="46.64593" lon="5.75745">
        <ele>520</ele>
        <time>2020-07-29T21:18:39Z</time>
      </trkpt>
      <trkpt lat="46.64572" lon="5.75685">
        <ele>517</ele>
        <time>2020-07-29T21:18:47Z</time>
      </trkpt>
      <trkpt lat="46.64576" lon="5.75681">
        <ele>516</ele>
        <time>2020-07-29T21:18:48Z</time>
      </trkpt>
      <trkpt lat="46.64578" lon="5.75673">
        <ele>515</ele>
        <time>2020-07-29T21:18:49Z</time>
      </trkpt>
      <trkpt lat="46.64579" lon="5.75663">
        <ele>514</ele>
        <time>2020-07-29T21:18:51Z</time>
      </trkpt>
      <trkpt lat="46.64575" lon="5.75646">
        <ele>513</ele>
        <time>2020-07-29T21:18:53Z</time>
      </trkpt>
      <trkpt lat="46.64573" lon="5.75642">
        <ele>512</ele>
        <time>2020-07-29T21:18:53Z</time>
      </trkpt>
      <trkpt lat="46.64571" lon="5.75638">
        <ele>512</ele>
        <time>2020-07-29T21:18:54Z</time>
      </trkpt>
      <trkpt lat="46.6456" lon="5.75622">
        <ele>511</ele>
        <time>2020-07-29T21:18:57Z</time>
      </trkpt>
      <trkpt lat="46.64547" lon="5.75612">
        <ele>511</ele>
        <time>2020-07-29T21:18:59Z</time>
      </trkpt>
      <trkpt lat="46.64532" lon="5.7561">
        <ele>512</ele>
        <time>2020-07-29T21:19:02Z</time>
      </trkpt>
      <trkpt lat="46.64512" lon="5.75616">
        <ele>514</ele>
        <time>2020-07-29T21:19:06Z</time>
      </trkpt>
      <trkpt lat="46.64507" lon="5.75617">
        <ele>515</ele>
        <time>2020-07-29T21:19:07Z</time>
      </trkpt>
      <trkpt lat="46.64499" lon="5.75617">
        <ele>515</ele>
        <time>2020-07-29T21:19:08Z</time>
      </trkpt>
      <trkpt lat="46.64478" lon="5.75608">
        <ele>518</ele>
        <time>2020-07-29T21:19:12Z</time>
      </trkpt>
      <trkpt lat="46.64461" lon="5.75591">
        <ele>517</ele>
        <time>2020-07-29T21:19:16Z</time>
      </trkpt>
      <trkpt lat="46.64433" lon="5.75546">
        <ele>513</ele>
        <time>2020-07-29T21:19:23Z</time>
      </trkpt>
      <trkpt lat="46.64347" lon="5.75418">
        <ele>501</ele>
        <time>2020-07-29T21:19:45Z</time>
      </trkpt>
      <trkpt lat="46.64324" lon="5.75393">
        <ele>500</ele>
        <time>2020-07-29T21:19:50Z</time>
      </trkpt>
      <trkpt lat="46.64298" lon="5.75373">
        <ele>500</ele>
        <time>2020-07-29T21:19:55Z</time>
      </trkpt>
      <trkpt lat="46.64291" lon="5.75365">
        <ele>499</ele>
        <time>2020-07-29T21:19:57Z</time>
      </trkpt>
      <trkpt lat="46.64288" lon="5.7536">
        <ele>498</ele>
        <time>2020-07-29T21:19:58Z</time>
      </trkpt>
      <trkpt lat="46.64285" lon="5.75353">
        <ele>497</ele>
        <time>2020-07-29T21:19:59Z</time>
      </trkpt>
      <trkpt lat="46.64283" lon="5.75339">
        <ele>494</ele>
        <time>2020-07-29T21:20:00Z</time>
      </trkpt>
      <trkpt lat="46.64284" lon="5.75333">
        <ele>493</ele>
        <time>2020-07-29T21:20:01Z</time>
      </trkpt>
      <trkpt lat="46.64285" lon="5.7533">
        <ele>492</ele>
        <time>2020-07-29T21:20:02Z</time>
      </trkpt>
      <trkpt lat="46.64286" lon="5.75326">
        <ele>492</ele>
        <time>2020-07-29T21:20:02Z</time>
      </trkpt>
      <trkpt lat="46.64291" lon="5.75313">
        <ele>490</ele>
        <time>2020-07-29T21:20:04Z</time>
      </trkpt>
      <trkpt lat="46.64311" lon="5.75283">
        <ele>487</ele>
        <time>2020-07-29T21:20:09Z</time>
      </trkpt>
      <trkpt lat="46.64331" lon="5.7525">
        <ele>485</ele>
        <time>2020-07-29T21:20:14Z</time>
      </trkpt>
      <trkpt lat="46.64357" lon="5.7521">
        <ele>485</ele>
        <time>2020-07-29T21:20:21Z</time>
      </trkpt>
      <trkpt lat="46.64401" lon="5.75144">
        <ele>485</ele>
        <time>2020-07-29T21:20:32Z</time>
      </trkpt>
      <trkpt lat="46.64423" lon="5.75105">
        <ele>485</ele>
        <time>2020-07-29T21:20:38Z</time>
      </trkpt>
      <trkpt lat="46.64436" lon="5.75079">
        <ele>484</ele>
        <time>2020-07-29T21:20:42Z</time>
      </trkpt>
      <trkpt lat="46.64455" lon="5.75035">
        <ele>483</ele>
        <time>2020-07-29T21:20:49Z</time>
      </trkpt>
      <trkpt lat="46.64458" lon="5.75032">
        <ele>483</ele>
        <time>2020-07-29T21:20:49Z</time>
      </trkpt>
      <trkpt lat="46.64461" lon="5.7503">
        <ele>483</ele>
        <time>2020-07-29T21:20:50Z</time>
      </trkpt>
      <trkpt lat="46.6448" lon="5.75026">
        <ele>483</ele>
        <time>2020-07-29T21:20:53Z</time>
      </trkpt>
      <trkpt lat="46.6452" lon="5.75026">
        <ele>484</ele>
        <time>2020-07-29T21:21:01Z</time>
      </trkpt>
      <trkpt lat="46.64529" lon="5.75027">
        <ele>484</ele>
        <time>2020-07-29T21:21:02Z</time>
      </trkpt>
      <trkpt lat="46.64535" lon="5.75026">
        <ele>484</ele>
        <time>2020-07-29T21:21:03Z</time>
      </trkpt>
      <trkpt lat="46.64618" lon="5.75017">
        <ele>484</ele>
        <time>2020-07-29T21:21:18Z</time>
      </trkpt>
      <trkpt lat="46.64669" lon="5.75014">
        <ele>485</ele>
        <time>2020-07-29T21:21:27Z</time>
      </trkpt>
      <trkpt lat="46.64691" lon="5.75016">
        <ele>485</ele>
        <time>2020-07-29T21:21:31Z</time>
      </trkpt>
      <trkpt lat="46.64702" lon="5.75012">
        <ele>485</ele>
        <time>2020-07-29T21:21:33Z</time>
      </trkpt>
      <trkpt lat="46.64737" lon="5.74988">
        <ele>485</ele>
        <time>2020-07-29T21:21:40Z</time>
      </trkpt>
      <trkpt lat="46.64749" lon="5.74976">
        <ele>484</ele>
        <time>2020-07-29T21:21:42Z</time>
      </trkpt>
      <trkpt lat="46.64756" lon="5.74963">
        <ele>483</ele>
        <time>2020-07-29T21:21:45Z</time>
      </trkpt>
      <trkpt lat="46.64771" lon="5.74926">
        <ele>480</ele>
        <time>2020-07-29T21:21:50Z</time>
      </trkpt>
      <trkpt lat="46.64777" lon="5.74919">
        <ele>479</ele>
        <time>2020-07-29T21:21:51Z</time>
      </trkpt>
      <trkpt lat="46.64783" lon="5.74915">
        <ele>478</ele>
        <time>2020-07-29T21:21:52Z</time>
      </trkpt>
      <trkpt lat="46.64791" lon="5.74914">
        <ele>477</ele>
        <time>2020-07-29T21:21:54Z</time>
      </trkpt>
      <trkpt lat="46.64797" lon="5.74916">
        <ele>476</ele>
        <time>2020-07-29T21:21:55Z</time>
      </trkpt>
      <trkpt lat="46.64803" lon="5.74921">
        <ele>476</ele>
        <time>2020-07-29T21:21:56Z</time>
      </trkpt>
      <trkpt lat="46.6481" lon="5.74931">
        <ele>475</ele>
        <time>2020-07-29T21:21:58Z</time>
      </trkpt>
      <trkpt lat="46.64823" lon="5.74958">
        <ele>475</ele>
        <time>2020-07-29T21:22:02Z</time>
      </trkpt>
      <trkpt lat="46.64829" lon="5.74967">
        <ele>475</ele>
        <time>2020-07-29T21:22:03Z</time>
      </trkpt>
      <trkpt lat="46.64837" lon="5.74975">
        <ele>475</ele>
        <time>2020-07-29T21:22:05Z</time>
      </trkpt>
      <trkpt lat="46.64879" lon="5.75">
        <ele>472</ele>
        <time>2020-07-29T21:22:13Z</time>
      </trkpt>
      <trkpt lat="46.64887" lon="5.75007">
        <ele>472</ele>
        <time>2020-07-29T21:22:15Z</time>
      </trkpt>
      <trkpt lat="46.64894" lon="5.75016">
        <ele>471</ele>
        <time>2020-07-29T21:22:16Z</time>
      </trkpt>
      <trkpt lat="46.64916" lon="5.75055">
        <ele>471</ele>
        <time>2020-07-29T21:22:23Z</time>
      </trkpt>
      <trkpt lat="46.64923" lon="5.75063">
        <ele>471</ele>
        <time>2020-07-29T21:22:24Z</time>
      </trkpt>
      <trkpt lat="46.64937" lon="5.75074">
        <ele>471</ele>
        <time>2020-07-29T21:22:27Z</time>
      </trkpt>
      <trkpt lat="46.64943" lon="5.75074">
        <ele>470</ele>
        <time>2020-07-29T21:22:28Z</time>
      </trkpt>
      <trkpt lat="46.64948" lon="5.7507">
        <ele>469</ele>
        <time>2020-07-29T21:22:29Z</time>
      </trkpt>
      <trkpt lat="46.64952" lon="5.75064">
        <ele>469</ele>
        <time>2020-07-29T21:22:30Z</time>
      </trkpt>
      <trkpt lat="46.64955" lon="5.75053">
        <ele>468</ele>
        <time>2020-07-29T21:22:32Z</time>
      </trkpt>
      <trkpt lat="46.64957" lon="5.75037">
        <ele>467</ele>
        <time>2020-07-29T21:22:34Z</time>
      </trkpt>
      <trkpt lat="46.64961" lon="5.75013">
        <ele>466</ele>
        <time>2020-07-29T21:22:37Z</time>
      </trkpt>
      <trkpt lat="46.64967" lon="5.74995">
        <ele>466</ele>
        <time>2020-07-29T21:22:39Z</time>
      </trkpt>
      <trkpt lat="46.64977" lon="5.74974">
        <ele>465</ele>
        <time>2020-07-29T21:22:42Z</time>
      </trkpt>
      <trkpt lat="46.65006" lon="5.74935">
        <ele>465</ele>
        <time>2020-07-29T21:22:49Z</time>
      </trkpt>
      <trkpt lat="46.65034" lon="5.74904">
        <ele>467</ele>
        <time>2020-07-29T21:22:55Z</time>
      </trkpt>
      <trkpt lat="46.65043" lon="5.74892">
        <ele>467</ele>
        <time>2020-07-29T21:22:58Z</time>
      </trkpt>
      <trkpt lat="46.6505" lon="5.74879">
        <ele>467</ele>
        <time>2020-07-29T21:23:00Z</time>
      </trkpt>
      <trkpt lat="46.65059" lon="5.7485">
        <ele>467</ele>
        <time>2020-07-29T21:23:04Z</time>
      </trkpt>
      <trkpt lat="46.65063" lon="5.74825">
        <ele>467</ele>
        <time>2020-07-29T21:23:07Z</time>
      </trkpt>
      <trkpt lat="46.65086" lon="5.74632">
        <ele>471</ele>
        <time>2020-07-29T21:23:31Z</time>
      </trkpt>
      <trkpt lat="46.65084" lon="5.74594">
        <ele>472</ele>
        <time>2020-07-29T21:23:35Z</time>
      </trkpt>
      <trkpt lat="46.65069" lon="5.74529">
        <ele>472</ele>
        <time>2020-07-29T21:23:44Z</time>
      </trkpt>
      <trkpt lat="46.65068" lon="5.74514">
        <ele>473</ele>
        <time>2020-07-29T21:23:45Z</time>
      </trkpt>
      <trkpt lat="46.65071" lon="5.74483">
        <ele>474</ele>
        <time>2020-07-29T21:23:49Z</time>
      </trkpt>
      <trkpt lat="46.65085" lon="5.74435">
        <ele>476</ele>
        <time>2020-07-29T21:23:56Z</time>
      </trkpt>
      <trkpt lat="46.65125" lon="5.74301">
        <ele>479</ele>
        <time>2020-07-29T21:24:14Z</time>
      </trkpt>
      <trkpt lat="46.65133" lon="5.7428">
        <ele>479</ele>
        <time>2020-07-29T21:24:16Z</time>
      </trkpt>
      <trkpt lat="46.65154" lon="5.74246">
        <ele>480</ele>
        <time>2020-07-29T21:24:22Z</time>
      </trkpt>
      <trkpt lat="46.65164" lon="5.74235">
        <ele>480</ele>
        <time>2020-07-29T21:24:24Z</time>
      </trkpt>
      <trkpt lat="46.65173" lon="5.74223">
        <ele>479</ele>
        <time>2020-07-29T21:24:26Z</time>
      </trkpt>
      <trkpt lat="46.65187" lon="5.74211">
        <ele>479</ele>
        <time>2020-07-29T21:24:29Z</time>
      </trkpt>
      <trkpt lat="46.65201" lon="5.742">
        <ele>478</ele>
        <time>2020-07-29T21:24:32Z</time>
      </trkpt>
      <trkpt lat="46.65218" lon="5.74197">
        <ele>477</ele>
        <time>2020-07-29T21:24:35Z</time>
      </trkpt>
      <trkpt lat="46.65234" lon="5.74195">
        <ele>477</ele>
        <time>2020-07-29T21:24:38Z</time>
      </trkpt>
      <trkpt lat="46.65243" lon="5.74197">
        <ele>476</ele>
        <time>2020-07-29T21:24:40Z</time>
      </trkpt>
      <trkpt lat="46.65256" lon="5.74201">
        <ele>476</ele>
        <time>2020-07-29T21:24:42Z</time>
      </trkpt>
      <trkpt lat="46.65273" lon="5.74211">
        <ele>475</ele>
        <time>2020-07-29T21:24:45Z</time>
      </trkpt>
      <trkpt lat="46.65375" lon="5.74285">
        <ele>470</ele>
        <time>2020-07-29T21:25:06Z</time>
      </trkpt>
      <trkpt lat="46.65397" lon="5.74307">
        <ele>470</ele>
        <time>2020-07-29T21:25:10Z</time>
      </trkpt>
      <trkpt lat="46.65426" lon="5.74355">
        <ele>472</ele>
        <time>2020-07-29T21:25:18Z</time>
      </trkpt>
      <trkpt lat="46.65433" lon="5.74361">
        <ele>472</ele>
        <time>2020-07-29T21:25:20Z</time>
      </trkpt>
      <trkpt lat="46.65445" lon="5.74365">
        <ele>471</ele>
        <time>2020-07-29T21:25:22Z</time>
      </trkpt>
      <trkpt lat="46.6545" lon="5.74363">
        <ele>471</ele>
        <time>2020-07-29T21:25:23Z</time>
      </trkpt>
      <trkpt lat="46.65459" lon="5.74359">
        <ele>470</ele>
        <time>2020-07-29T21:25:24Z</time>
      </trkpt>
      <trkpt lat="46.65473" lon="5.74347">
        <ele>468</ele>
        <time>2020-07-29T21:25:27Z</time>
      </trkpt>
      <trkpt lat="46.65475" lon="5.74344">
        <ele>468</ele>
        <time>2020-07-29T21:25:28Z</time>
      </trkpt>
      <trkpt lat="46.65445" lon="5.74277">
        <ele>465</ele>
        <time>2020-07-29T21:25:38Z</time>
      </trkpt>
      <trkpt lat="46.65436" lon="5.74257">
        <ele>465</ele>
        <time>2020-07-29T21:25:40Z</time>
      </trkpt>
      <trkpt lat="46.65405" lon="5.74191">
        <ele>462</ele>
        <time>2020-07-29T21:25:50Z</time>
      </trkpt>
      <trkpt lat="46.65401" lon="5.74175">
        <ele>462</ele>
        <time>2020-07-29T21:25:52Z</time>
      </trkpt>
      <trkpt lat="46.65399" lon="5.74158">
        <ele>461</ele>
        <time>2020-07-29T21:25:54Z</time>
      </trkpt>
      <trkpt lat="46.65399" lon="5.74141">
        <ele>460</ele>
        <time>2020-07-29T21:25:56Z</time>
      </trkpt>
      <trkpt lat="46.65405" lon="5.74125">
        <ele>459</ele>
        <time>2020-07-29T21:25:59Z</time>
      </trkpt>
      <trkpt lat="46.65415" lon="5.74106">
        <ele>457</ele>
        <time>2020-07-29T21:26:02Z</time>
      </trkpt>
      <trkpt lat="46.6545" lon="5.74049">
        <ele>457</ele>
        <time>2020-07-29T21:26:11Z</time>
      </trkpt>
      <trkpt lat="46.65458" lon="5.74036">
        <ele>458</ele>
        <time>2020-07-29T21:26:13Z</time>
      </trkpt>
      <trkpt lat="46.65469" lon="5.74008">
        <ele>459</ele>
        <time>2020-07-29T21:26:17Z</time>
      </trkpt>
      <trkpt lat="46.65477" lon="5.73969">
        <ele>460</ele>
        <time>2020-07-29T21:26:22Z</time>
      </trkpt>
      <trkpt lat="46.65479" lon="5.7394">
        <ele>461</ele>
        <time>2020-07-29T21:26:26Z</time>
      </trkpt>
      <trkpt lat="46.65483" lon="5.73834">
        <ele>462</ele>
        <time>2020-07-29T21:26:39Z</time>
      </trkpt>
      <trkpt lat="46.65495" lon="5.73592">
        <ele>463</ele>
        <time>2020-07-29T21:27:08Z</time>
      </trkpt>
      <trkpt lat="46.65499" lon="5.73539">
        <ele>462</ele>
        <time>2020-07-29T21:27:15Z</time>
      </trkpt>
      <trkpt lat="46.65506" lon="5.73488">
        <ele>462</ele>
        <time>2020-07-29T21:27:21Z</time>
      </trkpt>
      <trkpt lat="46.65516" lon="5.73439">
        <ele>463</ele>
        <time>2020-07-29T21:27:27Z</time>
      </trkpt>
      <trkpt lat="46.65521" lon="5.73426">
        <ele>464</ele>
        <time>2020-07-29T21:27:29Z</time>
      </trkpt>
      <trkpt lat="46.65527" lon="5.73415">
        <ele>464</ele>
        <time>2020-07-29T21:27:31Z</time>
      </trkpt>
      <trkpt lat="46.65541" lon="5.73396">
        <ele>464</ele>
        <time>2020-07-29T21:27:34Z</time>
      </trkpt>
      <trkpt lat="46.65556" lon="5.73382">
        <ele>465</ele>
        <time>2020-07-29T21:27:37Z</time>
      </trkpt>
      <trkpt lat="46.65571" lon="5.73372">
        <ele>465</ele>
        <time>2020-07-29T21:27:40Z</time>
      </trkpt>
      <trkpt lat="46.65585" lon="5.73366">
        <ele>466</ele>
        <time>2020-07-29T21:27:43Z</time>
      </trkpt>
      <trkpt lat="46.65606" lon="5.73357">
        <ele>467</ele>
        <time>2020-07-29T21:27:47Z</time>
      </trkpt>
      <trkpt lat="46.65622" lon="5.73351">
        <ele>467</ele>
        <time>2020-07-29T21:27:50Z</time>
      </trkpt>
      <trkpt lat="46.65623" lon="5.73348">
        <ele>467</ele>
        <time>2020-07-29T21:27:50Z</time>
      </trkpt>
      <trkpt lat="46.65653" lon="5.73314">
        <ele>469</ele>
        <time>2020-07-29T21:27:57Z</time>
      </trkpt>
      <trkpt lat="46.65667" lon="5.73296">
        <ele>470</ele>
        <time>2020-07-29T21:28:00Z</time>
      </trkpt>
      <trkpt lat="46.65678" lon="5.73275">
        <ele>471</ele>
        <time>2020-07-29T21:28:03Z</time>
      </trkpt>
      <trkpt lat="46.65688" lon="5.73248">
        <ele>472</ele>
        <time>2020-07-29T21:28:07Z</time>
      </trkpt>
      <trkpt lat="46.65696" lon="5.73219">
        <ele>474</ele>
        <time>2020-07-29T21:28:11Z</time>
      </trkpt>
      <trkpt lat="46.65712" lon="5.73152">
        <ele>476</ele>
        <time>2020-07-29T21:28:20Z</time>
      </trkpt>
      <trkpt lat="46.65713" lon="5.73128">
        <ele>478</ele>
        <time>2020-07-29T21:28:23Z</time>
      </trkpt>
      <trkpt lat="46.6571" lon="5.73112">
        <ele>478</ele>
        <time>2020-07-29T21:28:25Z</time>
      </trkpt>
      <trkpt lat="46.6568" lon="5.73043">
        <ele>478</ele>
        <time>2020-07-29T21:28:35Z</time>
      </trkpt>
      <trkpt lat="46.65671" lon="5.73012">
        <ele>478</ele>
        <time>2020-07-29T21:28:39Z</time>
      </trkpt>
      <trkpt lat="46.6566" lon="5.72955">
        <ele>478</ele>
        <time>2020-07-29T21:28:46Z</time>
      </trkpt>
      <trkpt lat="46.6566" lon="5.72918">
        <ele>479</ele>
        <time>2020-07-29T21:28:50Z</time>
      </trkpt>
      <trkpt lat="46.65662" lon="5.72898">
        <ele>480</ele>
        <time>2020-07-29T21:28:53Z</time>
      </trkpt>
      <trkpt lat="46.65675" lon="5.72851">
        <ele>482</ele>
        <time>2020-07-29T21:28:59Z</time>
      </trkpt>
      <trkpt lat="46.65675" lon="5.72836">
        <ele>482</ele>
        <time>2020-07-29T21:29:01Z</time>
      </trkpt>
      <trkpt lat="46.6567" lon="5.72761">
        <ele>482</ele>
        <time>2020-07-29T21:29:10Z</time>
      </trkpt>
      <trkpt lat="46.65662" lon="5.72686">
        <ele>481</ele>
        <time>2020-07-29T21:29:19Z</time>
      </trkpt>
      <trkpt lat="46.65651" lon="5.72642">
        <ele>481</ele>
        <time>2020-07-29T21:29:25Z</time>
      </trkpt>
      <trkpt lat="46.65639" lon="5.72567">
        <ele>481</ele>
        <time>2020-07-29T21:29:35Z</time>
      </trkpt>
      <trkpt lat="46.6564" lon="5.7255">
        <ele>481</ele>
        <time>2020-07-29T21:29:37Z</time>
      </trkpt>
      <trkpt lat="46.65644" lon="5.72532">
        <ele>481</ele>
        <time>2020-07-29T21:29:39Z</time>
      </trkpt>
      <trkpt lat="46.65653" lon="5.72513">
        <ele>481</ele>
        <time>2020-07-29T21:29:42Z</time>
      </trkpt>
      <trkpt lat="46.65645" lon="5.72501">
        <ele>480</ele>
        <time>2020-07-29T21:29:44Z</time>
      </trkpt>
      <trkpt lat="46.65637" lon="5.72489">
        <ele>480</ele>
        <time>2020-07-29T21:29:46Z</time>
      </trkpt>
      <trkpt lat="46.65629" lon="5.72478">
        <ele>479</ele>
        <time>2020-07-29T21:29:48Z</time>
      </trkpt>
      <trkpt lat="46.65621" lon="5.72469">
        <ele>479</ele>
        <time>2020-07-29T21:29:50Z</time>
      </trkpt>
      <trkpt lat="46.65603" lon="5.72448">
        <ele>478</ele>
        <time>2020-07-29T21:29:54Z</time>
      </trkpt>
      <trkpt lat="46.65587" lon="5.72433">
        <ele>477</ele>
        <time>2020-07-29T21:29:57Z</time>
      </trkpt>
      <trkpt lat="46.65526" lon="5.72386">
        <ele>474</ele>
        <time>2020-07-29T21:30:09Z</time>
      </trkpt>
      <trkpt lat="46.65467" lon="5.72324">
        <ele>471</ele>
        <time>2020-07-29T21:30:22Z</time>
      </trkpt>
      <trkpt lat="46.65375" lon="5.7224">
        <ele>469</ele>
        <time>2020-07-29T21:30:42Z</time>
      </trkpt>
      <trkpt lat="46.65318" lon="5.72177">
        <ele>471</ele>
        <time>2020-07-29T21:30:54Z</time>
      </trkpt>
      <trkpt lat="46.6527" lon="5.72128">
        <ele>472</ele>
        <time>2020-07-29T21:31:05Z</time>
      </trkpt>
      <trkpt lat="46.65257" lon="5.72114">
        <ele>472</ele>
        <time>2020-07-29T21:31:08Z</time>
      </trkpt>
      <trkpt lat="46.65234" lon="5.72084">
        <ele>473</ele>
        <time>2020-07-29T21:31:13Z</time>
      </trkpt>
      <trkpt lat="46.65216" lon="5.72056">
        <ele>472</ele>
        <time>2020-07-29T21:31:18Z</time>
      </trkpt>
      <trkpt lat="46.65206" lon="5.72037">
        <ele>471</ele>
        <time>2020-07-29T21:31:21Z</time>
      </trkpt>
      <trkpt lat="46.65193" lon="5.72005">
        <ele>470</ele>
        <time>2020-07-29T21:31:25Z</time>
      </trkpt>
      <trkpt lat="46.65188" lon="5.71991">
        <ele>469</ele>
        <time>2020-07-29T21:31:27Z</time>
      </trkpt>
      <trkpt lat="46.6518" lon="5.71954">
        <ele>470</ele>
        <time>2020-07-29T21:31:32Z</time>
      </trkpt>
      <trkpt lat="46.6517" lon="5.71924">
        <ele>470</ele>
        <time>2020-07-29T21:31:36Z</time>
      </trkpt>
      <trkpt lat="46.65143" lon="5.71881">
        <ele>470</ele>
        <time>2020-07-29T21:31:43Z</time>
      </trkpt>
      <trkpt lat="46.65133" lon="5.71863">
        <ele>470</ele>
        <time>2020-07-29T21:31:46Z</time>
      </trkpt>
      <trkpt lat="46.65119" lon="5.71823">
        <ele>471</ele>
        <time>2020-07-29T21:31:52Z</time>
      </trkpt>
      <trkpt lat="46.65111" lon="5.71786">
        <ele>473</ele>
        <time>2020-07-29T21:31:56Z</time>
      </trkpt>
      <trkpt lat="46.65107" lon="5.71757">
        <ele>475</ele>
        <time>2020-07-29T21:32:00Z</time>
      </trkpt>
      <trkpt lat="46.65104" lon="5.71734">
        <ele>477</ele>
        <time>2020-07-29T21:32:03Z</time>
      </trkpt>
      <trkpt lat="46.65101" lon="5.71677">
        <ele>483</ele>
        <time>2020-07-29T21:32:10Z</time>
      </trkpt>
      <trkpt lat="46.65093" lon="5.71642">
        <ele>486</ele>
        <time>2020-07-29T21:32:14Z</time>
      </trkpt>
      <trkpt lat="46.65085" lon="5.7162">
        <ele>487</ele>
        <time>2020-07-29T21:32:17Z</time>
      </trkpt>
      <trkpt lat="46.65063" lon="5.71572">
        <ele>489</ele>
        <time>2020-07-29T21:32:24Z</time>
      </trkpt>
      <trkpt lat="46.65045" lon="5.71542">
        <ele>489</ele>
        <time>2020-07-29T21:32:29Z</time>
      </trkpt>
      <trkpt lat="46.64988" lon="5.71464">
        <ele>488</ele>
        <time>2020-07-29T21:32:43Z</time>
      </trkpt>
      <trkpt lat="46.64912" lon="5.71361">
        <ele>487</ele>
        <time>2020-07-29T21:33:02Z</time>
      </trkpt>
      <trkpt lat="46.64853" lon="5.71282">
        <ele>491</ele>
        <time>2020-07-29T21:33:16Z</time>
      </trkpt>
      <trkpt lat="46.64788" lon="5.71195">
        <ele>497</ele>
        <time>2020-07-29T21:33:32Z</time>
      </trkpt>
      <trkpt lat="46.64762" lon="5.71173">
        <ele>498</ele>
        <time>2020-07-29T21:33:37Z</time>
      </trkpt>
      <trkpt lat="46.64737" lon="5.71162">
        <ele>498</ele>
        <time>2020-07-29T21:33:42Z</time>
      </trkpt>
      <trkpt lat="46.64649" lon="5.71124">
        <ele>499</ele>
        <time>2020-07-29T21:33:58Z</time>
      </trkpt>
      <trkpt lat="46.64494" lon="5.71057">
        <ele>504</ele>
        <time>2020-07-29T21:34:27Z</time>
      </trkpt>
      <trkpt lat="46.64475" lon="5.7105">
        <ele>506</ele>
        <time>2020-07-29T21:34:30Z</time>
      </trkpt>
      <trkpt lat="46.64449" lon="5.71049">
        <ele>509</ele>
        <time>2020-07-29T21:34:35Z</time>
      </trkpt>
      <trkpt lat="46.64438" lon="5.71054">
        <ele>510</ele>
        <time>2020-07-29T21:34:37Z</time>
      </trkpt>
      <trkpt lat="46.64427" lon="5.71062">
        <ele>511</ele>
        <time>2020-07-29T21:34:39Z</time>
      </trkpt>
      <trkpt lat="46.64418" lon="5.71074">
        <ele>513</ele>
        <time>2020-07-29T21:34:41Z</time>
      </trkpt>
      <trkpt lat="46.6441" lon="5.71091">
        <ele>513</ele>
        <time>2020-07-29T21:34:44Z</time>
      </trkpt>
      <trkpt lat="46.64406" lon="5.71107">
        <ele>514</ele>
        <time>2020-07-29T21:34:46Z</time>
      </trkpt>
      <trkpt lat="46.64398" lon="5.71171">
        <ele>515</ele>
        <time>2020-07-29T21:34:54Z</time>
      </trkpt>
      <trkpt lat="46.64385" lon="5.71237">
        <ele>518</ele>
        <time>2020-07-29T21:35:02Z</time>
      </trkpt>
      <trkpt lat="46.6438" lon="5.71271">
        <ele>520</ele>
        <time>2020-07-29T21:35:06Z</time>
      </trkpt>
      <trkpt lat="46.64362" lon="5.71351">
        <ele>524</ele>
        <time>2020-07-29T21:35:17Z</time>
      </trkpt>
      <trkpt lat="46.64353" lon="5.71379">
        <ele>524</ele>
        <time>2020-07-29T21:35:20Z</time>
      </trkpt>
      <trkpt lat="46.64323" lon="5.71453">
        <ele>527</ele>
        <time>2020-07-29T21:35:31Z</time>
      </trkpt>
      <trkpt lat="46.64318" lon="5.71471">
        <ele>527</ele>
        <time>2020-07-29T21:35:33Z</time>
      </trkpt>
      <trkpt lat="46.64315" lon="5.7149">
        <ele>526</ele>
        <time>2020-07-29T21:35:36Z</time>
      </trkpt>
      <trkpt lat="46.64315" lon="5.71542">
        <ele>524</ele>
        <time>2020-07-29T21:35:42Z</time>
      </trkpt>
      <trkpt lat="46.64314" lon="5.71561">
        <ele>524</ele>
        <time>2020-07-29T21:35:44Z</time>
      </trkpt>
      <trkpt lat="46.6431" lon="5.71587">
        <ele>524</ele>
        <time>2020-07-29T21:35:48Z</time>
      </trkpt>
      <trkpt lat="46.64304" lon="5.71603">
        <ele>524</ele>
        <time>2020-07-29T21:35:50Z</time>
      </trkpt>
      <trkpt lat="46.64291" lon="5.71628">
        <ele>525</ele>
        <time>2020-07-29T21:35:54Z</time>
      </trkpt>
      <trkpt lat="46.6426" lon="5.71675">
        <ele>525</ele>
        <time>2020-07-29T21:36:02Z</time>
      </trkpt>
      <trkpt lat="46.6423" lon="5.7171">
        <ele>525</ele>
        <time>2020-07-29T21:36:08Z</time>
      </trkpt>
      <trkpt lat="46.6421" lon="5.71725">
        <ele>524</ele>
        <time>2020-07-29T21:36:12Z</time>
      </trkpt>
      <trkpt lat="46.64189" lon="5.71736">
        <ele>522</ele>
        <time>2020-07-29T21:36:16Z</time>
      </trkpt>
      <trkpt lat="46.6417" lon="5.71741">
        <ele>521</ele>
        <time>2020-07-29T21:36:20Z</time>
      </trkpt>
      <trkpt lat="46.64148" lon="5.71742">
        <ele>521</ele>
        <time>2020-07-29T21:36:24Z</time>
      </trkpt>
      <trkpt lat="46.64133" lon="5.7174">
        <ele>522</ele>
        <time>2020-07-29T21:36:26Z</time>
      </trkpt>
      <trkpt lat="46.64107" lon="5.71732">
        <ele>523</ele>
        <time>2020-07-29T21:36:31Z</time>
      </trkpt>
      <trkpt lat="46.64082" lon="5.71718">
        <ele>524</ele>
        <time>2020-07-29T21:36:36Z</time>
      </trkpt>
      <trkpt lat="46.64059" lon="5.71701">
        <ele>524</ele>
        <time>2020-07-29T21:36:41Z</time>
      </trkpt>
      <trkpt lat="46.64041" lon="5.71682">
        <ele>523</ele>
        <time>2020-07-29T21:36:44Z</time>
      </trkpt>
      <trkpt lat="46.64001" lon="5.71626">
        <ele>523</ele>
        <time>2020-07-29T21:36:54Z</time>
      </trkpt>
      <trkpt lat="46.63991" lon="5.71614">
        <ele>523</ele>
        <time>2020-07-29T21:36:57Z</time>
      </trkpt>
      <trkpt lat="46.63985" lon="5.71607">
        <ele>523</ele>
        <time>2020-07-29T21:36:58Z</time>
      </trkpt>
      <trkpt lat="46.63822" lon="5.71452">
        <ele>516</ele>
        <time>2020-07-29T21:37:33Z</time>
      </trkpt>
      <trkpt lat="46.63787" lon="5.71422">
        <ele>512</ele>
        <time>2020-07-29T21:37:40Z</time>
      </trkpt>
      <trkpt lat="46.63741" lon="5.71391">
        <ele>507</ele>
        <time>2020-07-29T21:37:49Z</time>
      </trkpt>
      <trkpt lat="46.63695" lon="5.71364">
        <ele>505</ele>
        <time>2020-07-29T21:37:58Z</time>
      </trkpt>
      <trkpt lat="46.63684" lon="5.71355">
        <ele>504</ele>
        <time>2020-07-29T21:38:00Z</time>
      </trkpt>
      <trkpt lat="46.63676" lon="5.71344">
        <ele>504</ele>
        <time>2020-07-29T21:38:02Z</time>
      </trkpt>
      <trkpt lat="46.63672" lon="5.71337">
        <ele>504</ele>
        <time>2020-07-29T21:38:03Z</time>
      </trkpt>
      <trkpt lat="46.63665" lon="5.71326">
        <ele>504</ele>
        <time>2020-07-29T21:38:05Z</time>
      </trkpt>
      <trkpt lat="46.63622" lon="5.71214">
        <ele>506</ele>
        <time>2020-07-29T21:38:21Z</time>
      </trkpt>
      <trkpt lat="46.63611" lon="5.71195">
        <ele>507</ele>
        <time>2020-07-29T21:38:24Z</time>
      </trkpt>
      <trkpt lat="46.63598" lon="5.71182">
        <ele>507</ele>
        <time>2020-07-29T21:38:26Z</time>
      </trkpt>
      <trkpt lat="46.63588" lon="5.71175">
        <ele>507</ele>
        <time>2020-07-29T21:38:28Z</time>
      </trkpt>
      <trkpt lat="46.63548" lon="5.71161">
        <ele>505</ele>
        <time>2020-07-29T21:38:36Z</time>
      </trkpt>
      <trkpt lat="46.63414" lon="5.71133">
        <ele>502</ele>
        <time>2020-07-29T21:39:00Z</time>
      </trkpt>
      <trkpt lat="46.63303" lon="5.71133">
        <ele>496</ele>
        <time>2020-07-29T21:39:20Z</time>
      </trkpt>
      <trkpt lat="46.63269" lon="5.7113">
        <ele>493</ele>
        <time>2020-07-29T21:39:26Z</time>
      </trkpt>
      <trkpt lat="46.63245" lon="5.71126">
        <ele>491</ele>
        <time>2020-07-29T21:39:30Z</time>
      </trkpt>
      <trkpt lat="46.6323" lon="5.71121">
        <ele>490</ele>
        <time>2020-07-29T21:39:33Z</time>
      </trkpt>
      <trkpt lat="46.63216" lon="5.71112">
        <ele>490</ele>
        <time>2020-07-29T21:39:35Z</time>
      </trkpt>
      <trkpt lat="46.63205" lon="5.71101">
        <ele>489</ele>
        <time>2020-07-29T21:39:38Z</time>
      </trkpt>
      <trkpt lat="46.63192" lon="5.7108">
        <ele>488</ele>
        <time>2020-07-29T21:39:41Z</time>
      </trkpt>
      <trkpt lat="46.6318" lon="5.71055">
        <ele>487</ele>
        <time>2020-07-29T21:39:45Z</time>
      </trkpt>
      <trkpt lat="46.63175" lon="5.71041">
        <ele>486</ele>
        <time>2020-07-29T21:39:47Z</time>
      </trkpt>
      <trkpt lat="46.63158" lon="5.70995">
        <ele>484</ele>
        <time>2020-07-29T21:39:53Z</time>
      </trkpt>
      <trkpt lat="46.63141" lon="5.70952">
        <ele>483</ele>
        <time>2020-07-29T21:39:59Z</time>
      </trkpt>
      <trkpt lat="46.63123" lon="5.70911">
        <ele>481</ele>
        <time>2020-07-29T21:40:05Z</time>
      </trkpt>
      <trkpt lat="46.63107" lon="5.70885">
        <ele>480</ele>
        <time>2020-07-29T21:40:09Z</time>
      </trkpt>
      <trkpt lat="46.63087" lon="5.70862">
        <ele>478</ele>
        <time>2020-07-29T21:40:14Z</time>
      </trkpt>
      <trkpt lat="46.6307" lon="5.70848">
        <ele>477</ele>
        <time>2020-07-29T21:40:17Z</time>
      </trkpt>
      <trkpt lat="46.6305" lon="5.70838">
        <ele>475</ele>
        <time>2020-07-29T21:40:21Z</time>
      </trkpt>
      <trkpt lat="46.6297" lon="5.70804">
        <ele>471</ele>
        <time>2020-07-29T21:40:36Z</time>
      </trkpt>
      <trkpt lat="46.62908" lon="5.70776">
        <ele>468</ele>
        <time>2020-07-29T21:40:48Z</time>
      </trkpt>
      <trkpt lat="46.62826" lon="5.70738">
        <ele>466</ele>
        <time>2020-07-29T21:41:03Z</time>
      </trkpt>
      <trkpt lat="46.62745" lon="5.70712">
        <ele>468</ele>
        <time>2020-07-29T21:41:18Z</time>
      </trkpt>
      <trkpt lat="46.62702" lon="5.70693">
        <ele>470</ele>
        <time>2020-07-29T21:41:26Z</time>
      </trkpt>
      <trkpt lat="46.6264" lon="5.70661">
        <ele>470</ele>
        <time>2020-07-29T21:41:37Z</time>
      </trkpt>
      <trkpt lat="46.6258" lon="5.70612">
        <ele>470</ele>
        <time>2020-07-29T21:41:50Z</time>
      </trkpt>
      <trkpt lat="46.62521" lon="5.70573">
        <ele>471</ele>
        <time>2020-07-29T21:42:01Z</time>
      </trkpt>
      <trkpt lat="46.62504" lon="5.70559">
        <ele>471</ele>
        <time>2020-07-29T21:42:05Z</time>
      </trkpt>
      <trkpt lat="46.62486" lon="5.70541">
        <ele>471</ele>
        <time>2020-07-29T21:42:09Z</time>
      </trkpt>
      <trkpt lat="46.62462" lon="5.7051">
        <ele>471</ele>
        <time>2020-07-29T21:42:14Z</time>
      </trkpt>
      <trkpt lat="46.62437" lon="5.70487">
        <ele>470</ele>
        <time>2020-07-29T21:42:19Z</time>
      </trkpt>
      <trkpt lat="46.62429" lon="5.70478">
        <ele>470</ele>
        <time>2020-07-29T21:42:21Z</time>
      </trkpt>
      <trkpt lat="46.62417" lon="5.70459">
        <ele>471</ele>
        <time>2020-07-29T21:42:24Z</time>
      </trkpt>
      <trkpt lat="46.6241" lon="5.70451">
        <ele>471</ele>
        <time>2020-07-29T21:42:26Z</time>
      </trkpt>
      <trkpt lat="46.62403" lon="5.70444">
        <ele>472</ele>
        <time>2020-07-29T21:42:28Z</time>
      </trkpt>
      <trkpt lat="46.62392" lon="5.70438">
        <ele>472</ele>
        <time>2020-07-29T21:42:30Z</time>
      </trkpt>
      <trkpt lat="46.62362" lon="5.70437">
        <ele>473</ele>
        <time>2020-07-29T21:42:35Z</time>
      </trkpt>
      <trkpt lat="46.62353" lon="5.70436">
        <ele>473</ele>
        <time>2020-07-29T21:42:37Z</time>
      </trkpt>
      <trkpt lat="46.62316" lon="5.70426">
        <ele>474</ele>
        <time>2020-07-29T21:42:43Z</time>
      </trkpt>
      <trkpt lat="46.62297" lon="5.7042">
        <ele>474</ele>
        <time>2020-07-29T21:42:47Z</time>
      </trkpt>
      <trkpt lat="46.6229" lon="5.70413">
        <ele>474</ele>
        <time>2020-07-29T21:42:48Z</time>
      </trkpt>
      <trkpt lat="46.62285" lon="5.70402">
        <ele>474</ele>
        <time>2020-07-29T21:42:50Z</time>
      </trkpt>
      <trkpt lat="46.62285" lon="5.70371">
        <ele>474</ele>
        <time>2020-07-29T21:42:54Z</time>
      </trkpt>
      <trkpt lat="46.62283" lon="5.70361">
        <ele>473</ele>
        <time>2020-07-29T21:42:55Z</time>
      </trkpt>
      <trkpt lat="46.62279" lon="5.70352">
        <ele>473</ele>
        <time>2020-07-29T21:42:56Z</time>
      </trkpt>
      <trkpt lat="46.62271" lon="5.70346">
        <ele>474</ele>
        <time>2020-07-29T21:42:58Z</time>
      </trkpt>
      <trkpt lat="46.62232" lon="5.70331">
        <ele>474</ele>
        <time>2020-07-29T21:43:05Z</time>
      </trkpt>
      <trkpt lat="46.62177" lon="5.70318">
        <ele>473</ele>
        <time>2020-07-29T21:43:15Z</time>
      </trkpt>
      <trkpt lat="46.62158" lon="5.70299">
        <ele>473</ele>
        <time>2020-07-29T21:43:19Z</time>
      </trkpt>
      <trkpt lat="46.62109" lon="5.70271">
        <ele>474</ele>
        <time>2020-07-29T21:43:28Z</time>
      </trkpt>
      <trkpt lat="46.62078" lon="5.70259">
        <ele>475</ele>
        <time>2020-07-29T21:43:34Z</time>
      </trkpt>
      <trkpt lat="46.62058" lon="5.70252">
        <ele>474</ele>
        <time>2020-07-29T21:43:38Z</time>
      </trkpt>
      <trkpt lat="46.62008" lon="5.70234">
        <ele>473</ele>
        <time>2020-07-29T21:43:47Z</time>
      </trkpt>
      <trkpt lat="46.61892" lon="5.70187">
        <ele>470</ele>
        <time>2020-07-29T21:44:08Z</time>
      </trkpt>
      <trkpt lat="46.61856" lon="5.70169">
        <ele>470</ele>
        <time>2020-07-29T21:44:15Z</time>
      </trkpt>
      <trkpt lat="46.61797" lon="5.70153">
        <ele>470</ele>
        <time>2020-07-29T21:44:26Z</time>
      </trkpt>
      <trkpt lat="46.61778" lon="5.70147">
        <ele>470</ele>
        <time>2020-07-29T21:44:29Z</time>
      </trkpt>
      <trkpt lat="46.6174" lon="5.70136">
        <ele>470</ele>
        <time>2020-07-29T21:44:36Z</time>
      </trkpt>
      <trkpt lat="46.61714" lon="5.70133">
        <ele>469</ele>
        <time>2020-07-29T21:44:41Z</time>
      </trkpt>
      <trkpt lat="46.6165" lon="5.70147">
        <ele>468</ele>
        <time>2020-07-29T21:44:52Z</time>
      </trkpt>
      <trkpt lat="46.61608" lon="5.70151">
        <ele>467</ele>
        <time>2020-07-29T21:45:00Z</time>
      </trkpt>
      <trkpt lat="46.61595" lon="5.7015">
        <ele>467</ele>
        <time>2020-07-29T21:45:02Z</time>
      </trkpt>
      <trkpt lat="46.6157" lon="5.70144">
        <ele>466</ele>
        <time>2020-07-29T21:45:07Z</time>
      </trkpt>
      <trkpt lat="46.61479" lon="5.70099">
        <ele>468</ele>
        <time>2020-07-29T21:45:24Z</time>
      </trkpt>
      <trkpt lat="46.61417" lon="5.70072">
        <ele>467</ele>
        <time>2020-07-29T21:45:35Z</time>
      </trkpt>
      <trkpt lat="46.61383" lon="5.70052">
        <ele>467</ele>
        <time>2020-07-29T21:45:42Z</time>
      </trkpt>
      <trkpt lat="46.6134" lon="5.70018">
        <ele>465</ele>
        <time>2020-07-29T21:45:50Z</time>
      </trkpt>
      <trkpt lat="46.61302" lon="5.69986">
        <ele>465</ele>
        <time>2020-07-29T21:45:58Z</time>
      </trkpt>
      <trkpt lat="46.61279" lon="5.69966">
        <ele>466</ele>
        <time>2020-07-29T21:46:03Z</time>
      </trkpt>
      <trkpt lat="46.61269" lon="5.69953">
        <ele>466</ele>
        <time>2020-07-29T21:46:05Z</time>
      </trkpt>
      <trkpt lat="46.61264" lon="5.69941">
        <ele>466</ele>
        <time>2020-07-29T21:46:07Z</time>
      </trkpt>
      <trkpt lat="46.61254" lon="5.69923">
        <ele>467</ele>
        <time>2020-07-29T21:46:10Z</time>
      </trkpt>
      <trkpt lat="46.6118" lon="5.69721">
        <ele>467</ele>
        <time>2020-07-29T21:46:38Z</time>
      </trkpt>
      <trkpt lat="46.61147" lon="5.69653">
        <ele>465</ele>
        <time>2020-07-29T21:46:48Z</time>
      </trkpt>
      <trkpt lat="46.61126" lon="5.69622">
        <ele>463</ele>
        <time>2020-07-29T21:46:53Z</time>
      </trkpt>
      <trkpt lat="46.61115" lon="5.6961">
        <ele>462</ele>
        <time>2020-07-29T21:46:56Z</time>
      </trkpt>
      <trkpt lat="46.61053" lon="5.69568">
        <ele>459</ele>
        <time>2020-07-29T21:47:08Z</time>
      </trkpt>
      <trkpt lat="46.6104" lon="5.69557">
        <ele>459</ele>
        <time>2020-07-29T21:47:11Z</time>
      </trkpt>
      <trkpt lat="46.60896" lon="5.6941">
        <ele>463</ele>
        <time>2020-07-29T21:47:42Z</time>
      </trkpt>
      <trkpt lat="46.60778" lon="5.69278">
        <ele>469</ele>
        <time>2020-07-29T21:48:09Z</time>
      </trkpt>
      <trkpt lat="46.60732" lon="5.69231">
        <ele>470</ele>
        <time>2020-07-29T21:48:19Z</time>
      </trkpt>
      <trkpt lat="46.60641" lon="5.69141">
        <ele>472</ele>
        <time>2020-07-29T21:48:38Z</time>
      </trkpt>
      <trkpt lat="46.60628" lon="5.69126">
        <ele>472</ele>
        <time>2020-07-29T21:48:41Z</time>
      </trkpt>
      <trkpt lat="46.60565" lon="5.69028">
        <ele>470</ele>
        <time>2020-07-29T21:48:57Z</time>
      </trkpt>
      <trkpt lat="46.60536" lon="5.68995">
        <ele>468</ele>
        <time>2020-07-29T21:49:04Z</time>
      </trkpt>
      <trkpt lat="46.6047" lon="5.68933">
        <ele>468</ele>
        <time>2020-07-29T21:49:18Z</time>
      </trkpt>
      <trkpt lat="46.60425" lon="5.68897">
        <ele>469</ele>
        <time>2020-07-29T21:49:27Z</time>
      </trkpt>
      <trkpt lat="46.60411" lon="5.68891">
        <ele>469</ele>
        <time>2020-07-29T21:49:30Z</time>
      </trkpt>
      <trkpt lat="46.60402" lon="5.68891">
        <ele>469</ele>
        <time>2020-07-29T21:49:31Z</time>
      </trkpt>
      <trkpt lat="46.60388" lon="5.68896">
        <ele>469</ele>
        <time>2020-07-29T21:49:34Z</time>
      </trkpt>
      <trkpt lat="46.60378" lon="5.68904">
        <ele>469</ele>
        <time>2020-07-29T21:49:36Z</time>
      </trkpt>
      <trkpt lat="46.60346" lon="5.68945">
        <ele>470</ele>
        <time>2020-07-29T21:49:43Z</time>
      </trkpt>
      <trkpt lat="46.60335" lon="5.68955">
        <ele>470</ele>
        <time>2020-07-29T21:49:46Z</time>
      </trkpt>
      <trkpt lat="46.6033" lon="5.68959">
        <ele>471</ele>
        <time>2020-07-29T21:49:47Z</time>
      </trkpt>
      <trkpt lat="46.60314" lon="5.68961">
        <ele>471</ele>
        <time>2020-07-29T21:49:50Z</time>
      </trkpt>
      <trkpt lat="46.60283" lon="5.68951">
        <ele>470</ele>
        <time>2020-07-29T21:49:55Z</time>
      </trkpt>
      <trkpt lat="46.60218" lon="5.68931">
        <ele>470</ele>
        <time>2020-07-29T21:50:07Z</time>
      </trkpt>
      <trkpt lat="46.60189" lon="5.68922">
        <ele>470</ele>
        <time>2020-07-29T21:50:12Z</time>
      </trkpt>
      <trkpt lat="46.6016" lon="5.68913">
        <ele>470</ele>
        <time>2020-07-29T21:50:18Z</time>
      </trkpt>
      <trkpt lat="46.60139" lon="5.68905">
        <ele>470</ele>
        <time>2020-07-29T21:50:22Z</time>
      </trkpt>
      <trkpt lat="46.60126" lon="5.68901">
        <ele>470</ele>
        <time>2020-07-29T21:50:24Z</time>
      </trkpt>
      <trkpt lat="46.6011" lon="5.68894">
        <ele>470</ele>
        <time>2020-07-29T21:50:27Z</time>
      </trkpt>
      <trkpt lat="46.60096" lon="5.68888">
        <ele>470</ele>
        <time>2020-07-29T21:50:29Z</time>
      </trkpt>
      <trkpt lat="46.60063" lon="5.68874">
        <ele>469</ele>
        <time>2020-07-29T21:50:36Z</time>
      </trkpt>
      <trkpt lat="46.60019" lon="5.68866">
        <ele>465</ele>
        <time>2020-07-29T21:50:43Z</time>
      </trkpt>
      <trkpt lat="46.60006" lon="5.68861">
        <ele>464</ele>
        <time>2020-07-29T21:50:46Z</time>
      </trkpt>
      <trkpt lat="46.59985" lon="5.68846">
        <ele>463</ele>
        <time>2020-07-29T21:50:50Z</time>
      </trkpt>
      <trkpt lat="46.59962" lon="5.68828">
        <ele>460</ele>
        <time>2020-07-29T21:50:55Z</time>
      </trkpt>
      <trkpt lat="46.5995" lon="5.68823">
        <ele>459</ele>
        <time>2020-07-29T21:50:57Z</time>
      </trkpt>
      <trkpt lat="46.5994" lon="5.68819">
        <ele>458</ele>
        <time>2020-07-29T21:50:59Z</time>
      </trkpt>
      <trkpt lat="46.59933" lon="5.68824">
        <ele>457</ele>
        <time>2020-07-29T21:51:00Z</time>
      </trkpt>
      <trkpt lat="46.5991" lon="5.68831">
        <ele>455</ele>
        <time>2020-07-29T21:51:04Z</time>
      </trkpt>
      <trkpt lat="46.59907" lon="5.68832">
        <ele>455</ele>
        <time>2020-07-29T21:51:05Z</time>
      </trkpt>
      <trkpt lat="46.59828" lon="5.68838">
        <ele>448</ele>
        <time>2020-07-29T21:51:19Z</time>
      </trkpt>
      <trkpt lat="46.59747" lon="5.68863">
        <ele>444</ele>
        <time>2020-07-29T21:51:34Z</time>
      </trkpt>
      <trkpt lat="46.59716" lon="5.68874">
        <ele>445</ele>
        <time>2020-07-29T21:51:39Z</time>
      </trkpt>
      <trkpt lat="46.59666" lon="5.68896">
        <ele>445</ele>
        <time>2020-07-29T21:51:49Z</time>
      </trkpt>
      <trkpt lat="46.5966" lon="5.68898">
        <ele>445</ele>
        <time>2020-07-29T21:51:50Z</time>
      </trkpt>
      <trkpt lat="46.59612" lon="5.68918">
        <ele>446</ele>
        <time>2020-07-29T21:51:59Z</time>
      </trkpt>
      <trkpt lat="46.59582" lon="5.68928">
        <ele>446</ele>
        <time>2020-07-29T21:52:04Z</time>
      </trkpt>
      <trkpt lat="46.59478" lon="5.68943">
        <ele>442</ele>
        <time>2020-07-29T21:52:23Z</time>
      </trkpt>
      <trkpt lat="46.59469" lon="5.68947">
        <ele>442</ele>
        <time>2020-07-29T21:52:24Z</time>
      </trkpt>
      <trkpt lat="46.5946" lon="5.68955">
        <ele>441</ele>
        <time>2020-07-29T21:52:26Z</time>
      </trkpt>
      <trkpt lat="46.59436" lon="5.68979">
        <ele>440</ele>
        <time>2020-07-29T21:52:31Z</time>
      </trkpt>
      <trkpt lat="46.59429" lon="5.68984">
        <ele>439</ele>
        <time>2020-07-29T21:52:33Z</time>
      </trkpt>
      <trkpt lat="46.59422" lon="5.68986">
        <ele>439</ele>
        <time>2020-07-29T21:52:34Z</time>
      </trkpt>
      <trkpt lat="46.59316" lon="5.68984">
        <ele>439</ele>
        <time>2020-07-29T21:52:53Z</time>
      </trkpt>
      <trkpt lat="46.59278" lon="5.68981">
        <ele>438</ele>
        <time>2020-07-29T21:53:00Z</time>
      </trkpt>
      <trkpt lat="46.59253" lon="5.68985">
        <ele>438</ele>
        <time>2020-07-29T21:53:04Z</time>
      </trkpt>
      <trkpt lat="46.59232" lon="5.68997">
        <ele>436</ele>
        <time>2020-07-29T21:53:08Z</time>
      </trkpt>
      <trkpt lat="46.5919" lon="5.69035">
        <ele>435</ele>
        <time>2020-07-29T21:53:17Z</time>
      </trkpt>
      <trkpt lat="46.59159" lon="5.69051">
        <ele>435</ele>
        <time>2020-07-29T21:53:23Z</time>
      </trkpt>
      <trkpt lat="46.59096" lon="5.69081">
        <ele>436</ele>
        <time>2020-07-29T21:53:35Z</time>
      </trkpt>
      <trkpt lat="46.59078" lon="5.69088">
        <ele>436</ele>
        <time>2020-07-29T21:53:38Z</time>
      </trkpt>
      <trkpt lat="46.59043" lon="5.69098">
        <ele>435</ele>
        <time>2020-07-29T21:53:44Z</time>
      </trkpt>
      <trkpt lat="46.58995" lon="5.69106">
        <ele>434</ele>
        <time>2020-07-29T21:53:53Z</time>
      </trkpt>
      <trkpt lat="46.58967" lon="5.69119">
        <ele>435</ele>
        <time>2020-07-29T21:53:58Z</time>
      </trkpt>
      <trkpt lat="46.58952" lon="5.69129">
        <ele>436</ele>
        <time>2020-07-29T21:54:01Z</time>
      </trkpt>
      <trkpt lat="46.58946" lon="5.69135">
        <ele>436</ele>
        <time>2020-07-29T21:54:02Z</time>
      </trkpt>
      <trkpt lat="46.5892" lon="5.69161">
        <ele>437</ele>
        <time>2020-07-29T21:54:08Z</time>
      </trkpt>
      <trkpt lat="46.58886" lon="5.69202">
        <ele>436</ele>
        <time>2020-07-29T21:54:16Z</time>
      </trkpt>
      <trkpt lat="46.58862" lon="5.69225">
        <ele>436</ele>
        <time>2020-07-29T21:54:21Z</time>
      </trkpt>
      <trkpt lat="46.58846" lon="5.69233">
        <ele>437</ele>
        <time>2020-07-29T21:54:24Z</time>
      </trkpt>
      <trkpt lat="46.58825" lon="5.69231">
        <ele>437</ele>
        <time>2020-07-29T21:54:28Z</time>
      </trkpt>
      <trkpt lat="46.58811" lon="5.69228">
        <ele>438</ele>
        <time>2020-07-29T21:54:30Z</time>
      </trkpt>
      <trkpt lat="46.58791" lon="5.69222">
        <ele>439</ele>
        <time>2020-07-29T21:54:34Z</time>
      </trkpt>
      <trkpt lat="46.58737" lon="5.69207">
        <ele>441</ele>
        <time>2020-07-29T21:54:44Z</time>
      </trkpt>
      <trkpt lat="46.58729" lon="5.69203">
        <ele>441</ele>
        <time>2020-07-29T21:54:45Z</time>
      </trkpt>
      <trkpt lat="46.58722" lon="5.692">
        <ele>441</ele>
        <time>2020-07-29T21:54:46Z</time>
      </trkpt>
      <trkpt lat="46.58719" lon="5.69198">
        <ele>441</ele>
        <time>2020-07-29T21:54:47Z</time>
      </trkpt>
      <trkpt lat="46.58702" lon="5.69254">
        <ele>442</ele>
        <time>2020-07-29T21:54:55Z</time>
      </trkpt>
      <trkpt lat="46.58682" lon="5.69321">
        <ele>441</ele>
        <time>2020-07-29T21:55:03Z</time>
      </trkpt>
      <trkpt lat="46.58674" lon="5.69346">
        <ele>441</ele>
        <time>2020-07-29T21:55:07Z</time>
      </trkpt>
      <trkpt lat="46.58661" lon="5.6939">
        <ele>441</ele>
        <time>2020-07-29T21:55:13Z</time>
      </trkpt>
      <trkpt lat="46.58641" lon="5.69457">
        <ele>441</ele>
        <time>2020-07-29T21:55:22Z</time>
      </trkpt>
      <trkpt lat="46.58637" lon="5.69469">
        <ele>441</ele>
        <time>2020-07-29T21:55:23Z</time>
      </trkpt>
      <trkpt lat="46.58636" lon="5.69474">
        <ele>440</ele>
        <time>2020-07-29T21:55:24Z</time>
      </trkpt>
      <trkpt lat="46.58631" lon="5.69491">
        <ele>440</ele>
        <time>2020-07-29T21:55:26Z</time>
      </trkpt>
      <trkpt lat="46.58617" lon="5.69537">
        <ele>440</ele>
        <time>2020-07-29T21:55:32Z</time>
      </trkpt>
      <trkpt lat="46.58606" lon="5.69574">
        <ele>440</ele>
        <time>2020-07-29T21:55:37Z</time>
      </trkpt>
      <trkpt lat="46.58599" lon="5.69598">
        <ele>439</ele>
        <time>2020-07-29T21:55:40Z</time>
      </trkpt>
      <trkpt lat="46.58597" lon="5.69605">
        <ele>439</ele>
        <time>2020-07-29T21:55:41Z</time>
      </trkpt>
      <trkpt lat="46.58592" lon="5.69623">
        <ele>439</ele>
        <time>2020-07-29T21:55:44Z</time>
      </trkpt>
      <trkpt lat="46.5859" lon="5.69629">
        <ele>439</ele>
        <time>2020-07-29T21:55:45Z</time>
      </trkpt>
      <trkpt lat="46.58589" lon="5.69634">
        <ele>439</ele>
        <time>2020-07-29T21:55:45Z</time>
      </trkpt>
      <trkpt lat="46.58586" lon="5.69642">
        <ele>439</ele>
        <time>2020-07-29T21:55:46Z</time>
      </trkpt>
      <trkpt lat="46.58585" lon="5.69644">
        <ele>439</ele>
        <time>2020-07-29T21:55:47Z</time>
      </trkpt>
      <trkpt lat="46.58583" lon="5.69653">
        <ele>439</ele>
        <time>2020-07-29T21:55:48Z</time>
      </trkpt>
      <trkpt lat="46.58581" lon="5.6966">
        <ele>439</ele>
        <time>2020-07-29T21:55:49Z</time>
      </trkpt>
      <trkpt lat="46.58578" lon="5.6967">
        <ele>439</ele>
        <time>2020-07-29T21:55:50Z</time>
      </trkpt>
      <trkpt lat="46.58568" lon="5.69702">
        <ele>439</ele>
        <time>2020-07-29T21:55:54Z</time>
      </trkpt>
      <trkpt lat="46.58561" lon="5.69725">
        <ele>440</ele>
        <time>2020-07-29T21:55:57Z</time>
      </trkpt>
      <trkpt lat="46.58549" lon="5.69766">
        <ele>440</ele>
        <time>2020-07-29T21:56:03Z</time>
      </trkpt>
      <trkpt lat="46.58546" lon="5.69776">
        <ele>439</ele>
        <time>2020-07-29T21:56:04Z</time>
      </trkpt>
      <trkpt lat="46.58536" lon="5.69809">
        <ele>439</ele>
        <time>2020-07-29T21:56:09Z</time>
      </trkpt>
      <trkpt lat="46.58526" lon="5.69843">
        <ele>439</ele>
        <time>2020-07-29T21:56:13Z</time>
      </trkpt>
      <trkpt lat="46.58523" lon="5.69855">
        <ele>438</ele>
        <time>2020-07-29T21:56:15Z</time>
      </trkpt>
      <trkpt lat="46.58517" lon="5.69873">
        <ele>438</ele>
        <time>2020-07-29T21:56:17Z</time>
      </trkpt>
      <trkpt lat="46.58516" lon="5.69876">
        <ele>438</ele>
        <time>2020-07-29T21:56:18Z</time>
      </trkpt>
      <trkpt lat="46.58506" lon="5.69908">
        <ele>438</ele>
        <time>2020-07-29T21:56:22Z</time>
      </trkpt>
      <trkpt lat="46.58497" lon="5.6994">
        <ele>438</ele>
        <time>2020-07-29T21:56:26Z</time>
      </trkpt>
      <trkpt lat="46.58496" lon="5.69952">
        <ele>438</ele>
        <time>2020-07-29T21:56:28Z</time>
      </trkpt>
      <trkpt lat="46.58497" lon="5.6998">
        <ele>437</ele>
        <time>2020-07-29T21:56:31Z</time>
      </trkpt>
      <trkpt lat="46.58498" lon="5.69987">
        <ele>437</ele>
        <time>2020-07-29T21:56:32Z</time>
      </trkpt>
      <trkpt lat="46.585" lon="5.70016">
        <ele>437</ele>
        <time>2020-07-29T21:56:35Z</time>
      </trkpt>
      <trkpt lat="46.58509" lon="5.70111">
        <ele>440</ele>
        <time>2020-07-29T21:56:47Z</time>
      </trkpt>
      <trkpt lat="46.5851" lon="5.70114">
        <ele>440</ele>
        <time>2020-07-29T21:56:48Z</time>
      </trkpt>
      <trkpt lat="46.58517" lon="5.70154">
        <ele>442</ele>
        <time>2020-07-29T21:56:53Z</time>
      </trkpt>
      <trkpt lat="46.58519" lon="5.7016">
        <ele>442</ele>
        <time>2020-07-29T21:56:53Z</time>
      </trkpt>
      <trkpt lat="46.58515" lon="5.7016">
        <ele>442</ele>
        <time>2020-07-29T21:56:54Z</time>
      </trkpt>
      <trkpt lat="46.58514" lon="5.7016">
        <ele>442</ele>
        <time>2020-07-29T21:56:54Z</time>
      </trkpt>
      <trkpt lat="46.58475" lon="5.70162">
        <ele>441</ele>
        <time>2020-07-29T21:57:01Z</time>
      </trkpt>
      <trkpt lat="46.58454" lon="5.70163">
        <ele>440</ele>
        <time>2020-07-29T21:57:05Z</time>
      </trkpt>
      <trkpt lat="46.5843" lon="5.70169">
        <ele>439</ele>
        <time>2020-07-29T21:57:09Z</time>
      </trkpt>
      <trkpt lat="46.58421" lon="5.70172">
        <ele>439</ele>
        <time>2020-07-29T21:57:11Z</time>
      </trkpt>
      <trkpt lat="46.58411" lon="5.70176">
        <ele>439</ele>
        <time>2020-07-29T21:57:13Z</time>
      </trkpt>
      <trkpt lat="46.58386" lon="5.7019">
        <ele>439</ele>
        <time>2020-07-29T21:57:18Z</time>
      </trkpt>
      <trkpt lat="46.58358" lon="5.70208">
        <ele>438</ele>
        <time>2020-07-29T21:57:23Z</time>
      </trkpt>
      <trkpt lat="46.58283" lon="5.70266">
        <ele>437</ele>
        <time>2020-07-29T21:57:38Z</time>
      </trkpt>
      <trkpt lat="46.58161" lon="5.7036">
        <ele>438</ele>
        <time>2020-07-29T21:58:03Z</time>
      </trkpt>
      <trkpt lat="46.58145" lon="5.70373">
        <ele>438</ele>
        <time>2020-07-29T21:58:06Z</time>
      </trkpt>
      <trkpt lat="46.58132" lon="5.70384">
        <ele>439</ele>
        <time>2020-07-29T21:58:09Z</time>
      </trkpt>
      <trkpt lat="46.58098" lon="5.70402">
        <ele>439</ele>
        <time>2020-07-29T21:58:15Z</time>
      </trkpt>
      <trkpt lat="46.58091" lon="5.70404">
        <ele>438</ele>
        <time>2020-07-29T21:58:16Z</time>
      </trkpt>
      <trkpt lat="46.58069" lon="5.70406">
        <ele>439</ele>
        <time>2020-07-29T21:58:20Z</time>
      </trkpt>
      <trkpt lat="46.58068" lon="5.70407">
        <ele>439</ele>
        <time>2020-07-29T21:58:20Z</time>
      </trkpt>
      <trkpt lat="46.58062" lon="5.70408">
        <ele>439</ele>
        <time>2020-07-29T21:58:22Z</time>
      </trkpt>
      <trkpt lat="46.58055" lon="5.70408">
        <ele>440</ele>
        <time>2020-07-29T21:58:23Z</time>
      </trkpt>
      <trkpt lat="46.58017" lon="5.70413">
        <ele>442</ele>
        <time>2020-07-29T21:58:30Z</time>
      </trkpt>
      <trkpt lat="46.57929" lon="5.70425">
        <ele>448</ele>
        <time>2020-07-29T21:58:45Z</time>
      </trkpt>
      <trkpt lat="46.57915" lon="5.70431">
        <ele>449</ele>
        <time>2020-07-29T21:58:48Z</time>
      </trkpt>
      <trkpt lat="46.57892" lon="5.70448">
        <ele>451</ele>
        <time>2020-07-29T21:58:52Z</time>
      </trkpt>
      <trkpt lat="46.57845" lon="5.70477">
        <ele>452</ele>
        <time>2020-07-29T21:59:02Z</time>
      </trkpt>
      <trkpt lat="46.57822" lon="5.70487">
        <ele>453</ele>
        <time>2020-07-29T21:59:06Z</time>
      </trkpt>
      <trkpt lat="46.57802" lon="5.70489">
        <ele>454</ele>
        <time>2020-07-29T21:59:09Z</time>
      </trkpt>
      <trkpt lat="46.57769" lon="5.70487">
        <ele>454</ele>
        <time>2020-07-29T21:59:15Z</time>
      </trkpt>
      <trkpt lat="46.57756" lon="5.7049">
        <ele>455</ele>
        <time>2020-07-29T21:59:18Z</time>
      </trkpt>
      <trkpt lat="46.57732" lon="5.70508">
        <ele>456</ele>
        <time>2020-07-29T21:59:22Z</time>
      </trkpt>
      <trkpt lat="46.57569" lon="5.70675">
        <ele>467</ele>
        <time>2020-07-29T21:59:58Z</time>
      </trkpt>
      <trkpt lat="46.57541" lon="5.70689">
        <ele>468</ele>
        <time>2020-07-29T22:00:03Z</time>
      </trkpt>
      <trkpt lat="46.57511" lon="5.70699">
        <ele>469</ele>
        <time>2020-07-29T22:00:09Z</time>
      </trkpt>
      <trkpt lat="46.57476" lon="5.70724">
        <ele>472</ele>
        <time>2020-07-29T22:00:16Z</time>
      </trkpt>
      <trkpt lat="46.57436" lon="5.70757">
        <ele>474</ele>
        <time>2020-07-29T22:00:24Z</time>
      </trkpt>
      <trkpt lat="46.57396" lon="5.70792">
        <ele>476</ele>
        <time>2020-07-29T22:00:32Z</time>
      </trkpt>
      <trkpt lat="46.5724" lon="5.70912">
        <ele>481</ele>
        <time>2020-07-29T22:01:03Z</time>
      </trkpt>
      <trkpt lat="46.57175" lon="5.70948">
        <ele>482</ele>
        <time>2020-07-29T22:01:16Z</time>
      </trkpt>
      <trkpt lat="46.57108" lon="5.7098">
        <ele>484</ele>
        <time>2020-07-29T22:01:28Z</time>
      </trkpt>
      <trkpt lat="46.57105" lon="5.70982">
        <ele>484</ele>
        <time>2020-07-29T22:01:29Z</time>
      </trkpt>
      <trkpt lat="46.57099" lon="5.70985">
        <ele>484</ele>
        <time>2020-07-29T22:01:30Z</time>
      </trkpt>
      <trkpt lat="46.57094" lon="5.70987">
        <ele>485</ele>
        <time>2020-07-29T22:01:31Z</time>
      </trkpt>
      <trkpt lat="46.57085" lon="5.70992">
        <ele>485</ele>
        <time>2020-07-29T22:01:33Z</time>
      </trkpt>
      <trkpt lat="46.57049" lon="5.71006">
        <ele>485</ele>
        <time>2020-07-29T22:01:39Z</time>
      </trkpt>
      <trkpt lat="46.57028" lon="5.71014">
        <ele>484</ele>
        <time>2020-07-29T22:01:43Z</time>
      </trkpt>
      <trkpt lat="46.57003" lon="5.71023">
        <ele>484</ele>
        <time>2020-07-29T22:01:48Z</time>
      </trkpt>
      <trkpt lat="46.56995" lon="5.71029">
        <ele>483</ele>
        <time>2020-07-29T22:01:49Z</time>
      </trkpt>
      <trkpt lat="46.56988" lon="5.71038">
        <ele>482</ele>
        <time>2020-07-29T22:01:51Z</time>
      </trkpt>
      <trkpt lat="46.56984" lon="5.7105">
        <ele>481</ele>
        <time>2020-07-29T22:01:53Z</time>
      </trkpt>
      <trkpt lat="46.56981" lon="5.71064">
        <ele>480</ele>
        <time>2020-07-29T22:01:54Z</time>
      </trkpt>
      <trkpt lat="46.5698" lon="5.71093">
        <ele>480</ele>
        <time>2020-07-29T22:01:58Z</time>
      </trkpt>
      <trkpt lat="46.56979" lon="5.71141">
        <ele>480</ele>
        <time>2020-07-29T22:02:04Z</time>
      </trkpt>
      <trkpt lat="46.56978" lon="5.71164">
        <ele>480</ele>
        <time>2020-07-29T22:02:07Z</time>
      </trkpt>
      <trkpt lat="46.56973" lon="5.71256">
        <ele>480</ele>
        <time>2020-07-29T22:02:18Z</time>
      </trkpt>
      <trkpt lat="46.56965" lon="5.71362">
        <ele>481</ele>
        <time>2020-07-29T22:02:31Z</time>
      </trkpt>
      <trkpt lat="46.56958" lon="5.714">
        <ele>482</ele>
        <time>2020-07-29T22:02:36Z</time>
      </trkpt>
      <trkpt lat="46.56947" lon="5.71439">
        <ele>482</ele>
        <time>2020-07-29T22:02:41Z</time>
      </trkpt>
      <trkpt lat="46.56893" lon="5.71563">
        <ele>482</ele>
        <time>2020-07-29T22:02:59Z</time>
      </trkpt>
      <trkpt lat="46.56688" lon="5.72012">
        <ele>482</ele>
        <time>2020-07-29T22:04:05Z</time>
      </trkpt>
      <trkpt lat="46.5667" lon="5.72047">
        <ele>482</ele>
        <time>2020-07-29T22:04:10Z</time>
      </trkpt>
      <trkpt lat="46.5665" lon="5.72084">
        <ele>483</ele>
        <time>2020-07-29T22:04:16Z</time>
      </trkpt>
      <trkpt lat="46.56629" lon="5.72117">
        <ele>483</ele>
        <time>2020-07-29T22:04:22Z</time>
      </trkpt>
      <trkpt lat="46.56608" lon="5.72147">
        <ele>483</ele>
        <time>2020-07-29T22:04:27Z</time>
      </trkpt>
      <trkpt lat="46.56577" lon="5.72185">
        <ele>482</ele>
        <time>2020-07-29T22:04:34Z</time>
      </trkpt>
      <trkpt lat="46.56543" lon="5.72221">
        <ele>482</ele>
        <time>2020-07-29T22:04:41Z</time>
      </trkpt>
      <trkpt lat="46.56466" lon="5.72276">
        <ele>482</ele>
        <time>2020-07-29T22:04:57Z</time>
      </trkpt>
      <trkpt lat="46.56262" lon="5.72412">
        <ele>483</ele>
        <time>2020-07-29T22:05:37Z</time>
      </trkpt>
      <trkpt lat="46.55961" lon="5.72612">
        <ele>489</ele>
        <time>2020-07-29T22:06:36Z</time>
      </trkpt>
      <trkpt lat="46.55955" lon="5.72617">
        <ele>490</ele>
        <time>2020-07-29T22:06:37Z</time>
      </trkpt>
      <trkpt lat="46.5595" lon="5.7262">
        <ele>490</ele>
        <time>2020-07-29T22:06:38Z</time>
      </trkpt>
      <trkpt lat="46.55947" lon="5.72622">
        <ele>490</ele>
        <time>2020-07-29T22:06:38Z</time>
      </trkpt>
      <trkpt lat="46.55913" lon="5.72644">
        <ele>492</ele>
        <time>2020-07-29T22:06:45Z</time>
      </trkpt>
      <trkpt lat="46.5571" lon="5.72778">
        <ele>496</ele>
        <time>2020-07-29T22:07:25Z</time>
      </trkpt>
      <trkpt lat="46.55686" lon="5.72802">
        <ele>496</ele>
        <time>2020-07-29T22:07:30Z</time>
      </trkpt>
      <trkpt lat="46.55665" lon="5.72828">
        <ele>496</ele>
        <time>2020-07-29T22:07:35Z</time>
      </trkpt>
      <trkpt lat="46.55655" lon="5.72844">
        <ele>496</ele>
        <time>2020-07-29T22:07:37Z</time>
      </trkpt>
      <trkpt lat="46.55646" lon="5.72856">
        <ele>496</ele>
        <time>2020-07-29T22:07:40Z</time>
      </trkpt>
      <trkpt lat="46.55577" lon="5.72954">
        <ele>498</ele>
        <time>2020-07-29T22:07:57Z</time>
      </trkpt>
      <trkpt lat="46.55541" lon="5.73015">
        <ele>500</ele>
        <time>2020-07-29T22:08:07Z</time>
      </trkpt>
      <trkpt lat="46.55511" lon="5.73059">
        <ele>501</ele>
        <time>2020-07-29T22:08:14Z</time>
      </trkpt>
      <trkpt lat="46.55497" lon="5.73075">
        <ele>502</ele>
        <time>2020-07-29T22:08:17Z</time>
      </trkpt>
      <trkpt lat="46.55474" lon="5.73091">
        <ele>502</ele>
        <time>2020-07-29T22:08:22Z</time>
      </trkpt>
      <trkpt lat="46.55467" lon="5.73093">
        <ele>502</ele>
        <time>2020-07-29T22:08:23Z</time>
      </trkpt>
      <trkpt lat="46.55454" lon="5.73097">
        <ele>502</ele>
        <time>2020-07-29T22:08:25Z</time>
      </trkpt>
      <trkpt lat="46.55442" lon="5.73101">
        <ele>502</ele>
        <time>2020-07-29T22:08:28Z</time>
      </trkpt>
      <trkpt lat="46.55429" lon="5.73109">
        <ele>501</ele>
        <time>2020-07-29T22:08:30Z</time>
      </trkpt>
      <trkpt lat="46.55407" lon="5.73147">
        <ele>502</ele>
        <time>2020-07-29T22:08:36Z</time>
      </trkpt>
      <trkpt lat="46.55396" lon="5.73155">
        <ele>502</ele>
        <time>2020-07-29T22:08:38Z</time>
      </trkpt>
      <trkpt lat="46.55386" lon="5.73157">
        <ele>503</ele>
        <time>2020-07-29T22:08:40Z</time>
      </trkpt>
      <trkpt lat="46.55377" lon="5.73156">
        <ele>503</ele>
        <time>2020-07-29T22:08:42Z</time>
      </trkpt>
      <trkpt lat="46.5533" lon="5.7314">
        <ele>504</ele>
        <time>2020-07-29T22:08:50Z</time>
      </trkpt>
      <trkpt lat="46.5532" lon="5.73138">
        <ele>504</ele>
        <time>2020-07-29T22:08:52Z</time>
      </trkpt>
      <trkpt lat="46.55305" lon="5.73142">
        <ele>503</ele>
        <time>2020-07-29T22:08:55Z</time>
      </trkpt>
      <trkpt lat="46.55298" lon="5.73147">
        <ele>503</ele>
        <time>2020-07-29T22:08:56Z</time>
      </trkpt>
      <trkpt lat="46.55294" lon="5.73153">
        <ele>503</ele>
        <time>2020-07-29T22:08:57Z</time>
      </trkpt>
      <trkpt lat="46.55289" lon="5.73164">
        <ele>502</ele>
        <time>2020-07-29T22:08:59Z</time>
      </trkpt>
      <trkpt lat="46.55274" lon="5.7323">
        <ele>503</ele>
        <time>2020-07-29T22:09:07Z</time>
      </trkpt>
      <trkpt lat="46.55264" lon="5.73257">
        <ele>504</ele>
        <time>2020-07-29T22:09:11Z</time>
      </trkpt>
      <trkpt lat="46.5525" lon="5.73286">
        <ele>505</ele>
        <time>2020-07-29T22:09:16Z</time>
      </trkpt>
      <trkpt lat="46.55244" lon="5.733">
        <ele>505</ele>
        <time>2020-07-29T22:09:18Z</time>
      </trkpt>
      <trkpt lat="46.55241" lon="5.73311">
        <ele>505</ele>
        <time>2020-07-29T22:09:19Z</time>
      </trkpt>
      <trkpt lat="46.55239" lon="5.73351">
        <ele>507</ele>
        <time>2020-07-29T22:09:24Z</time>
      </trkpt>
      <trkpt lat="46.55249" lon="5.73495">
        <ele>513</ele>
        <time>2020-07-29T22:09:42Z</time>
      </trkpt>
      <trkpt lat="46.55243" lon="5.73541">
        <ele>513</ele>
        <time>2020-07-29T22:09:47Z</time>
      </trkpt>
      <trkpt lat="46.55227" lon="5.73629">
        <ele>517</ele>
        <time>2020-07-29T22:09:58Z</time>
      </trkpt>
      <trkpt lat="46.55225" lon="5.73662">
        <ele>519</ele>
        <time>2020-07-29T22:10:03Z</time>
      </trkpt>
      <trkpt lat="46.55235" lon="5.73733">
        <ele>523</ele>
        <time>2020-07-29T22:10:11Z</time>
      </trkpt>
      <trkpt lat="46.55236" lon="5.73752">
        <ele>525</ele>
        <time>2020-07-29T22:10:14Z</time>
      </trkpt>
      <trkpt lat="46.55233" lon="5.73809">
        <ele>530</ele>
        <time>2020-07-29T22:10:21Z</time>
      </trkpt>
      <trkpt lat="46.55236" lon="5.73909">
        <ele>537</ele>
        <time>2020-07-29T22:10:33Z</time>
      </trkpt>
      <trkpt lat="46.55243" lon="5.73939">
        <ele>539</ele>
        <time>2020-07-29T22:10:37Z</time>
      </trkpt>
      <trkpt lat="46.55249" lon="5.7396">
        <ele>540</ele>
        <time>2020-07-29T22:10:40Z</time>
      </trkpt>
      <trkpt lat="46.55265" lon="5.73998">
        <ele>546</ele>
        <time>2020-07-29T22:10:45Z</time>
      </trkpt>
      <trkpt lat="46.55271" lon="5.74026">
        <ele>547</ele>
        <time>2020-07-29T22:10:49Z</time>
      </trkpt>
      <trkpt lat="46.55272" lon="5.74045">
        <ele>548</ele>
        <time>2020-07-29T22:10:51Z</time>
      </trkpt>
      <trkpt lat="46.55293" lon="5.74131">
        <ele>551</ele>
        <time>2020-07-29T22:11:02Z</time>
      </trkpt>
      <trkpt lat="46.55294" lon="5.74146">
        <ele>550</ele>
        <time>2020-07-29T22:11:04Z</time>
      </trkpt>
      <trkpt lat="46.55292" lon="5.74168">
        <ele>550</ele>
        <time>2020-07-29T22:11:07Z</time>
      </trkpt>
      <trkpt lat="46.55285" lon="5.74203">
        <ele>550</ele>
        <time>2020-07-29T22:11:11Z</time>
      </trkpt>
      <trkpt lat="46.55284" lon="5.74224">
        <ele>550</ele>
        <time>2020-07-29T22:11:14Z</time>
      </trkpt>
      <trkpt lat="46.55286" lon="5.74244">
        <ele>551</ele>
        <time>2020-07-29T22:11:16Z</time>
      </trkpt>
      <trkpt lat="46.55291" lon="5.74262">
        <ele>551</ele>
        <time>2020-07-29T22:11:19Z</time>
      </trkpt>
      <trkpt lat="46.55306" lon="5.74298">
        <ele>552</ele>
        <time>2020-07-29T22:11:24Z</time>
      </trkpt>
      <trkpt lat="46.55352" lon="5.74398">
        <ele>548</ele>
        <time>2020-07-29T22:11:38Z</time>
      </trkpt>
      <trkpt lat="46.55377" lon="5.74457">
        <ele>549</ele>
        <time>2020-07-29T22:11:47Z</time>
      </trkpt>
      <trkpt lat="46.55385" lon="5.74471">
        <ele>550</ele>
        <time>2020-07-29T22:11:49Z</time>
      </trkpt>
      <trkpt lat="46.55394" lon="5.74482">
        <ele>550</ele>
        <time>2020-07-29T22:11:51Z</time>
      </trkpt>
      <trkpt lat="46.55408" lon="5.74494">
        <ele>551</ele>
        <time>2020-07-29T22:11:54Z</time>
      </trkpt>
      <trkpt lat="46.55421" lon="5.74501">
        <ele>551</ele>
        <time>2020-07-29T22:11:57Z</time>
      </trkpt>
      <trkpt lat="46.55441" lon="5.74506">
        <ele>552</ele>
        <time>2020-07-29T22:12:00Z</time>
      </trkpt>
      <trkpt lat="46.55457" lon="5.74505">
        <ele>552</ele>
        <time>2020-07-29T22:12:03Z</time>
      </trkpt>
      <trkpt lat="46.55464" lon="5.74503">
        <ele>552</ele>
        <time>2020-07-29T22:12:04Z</time>
      </trkpt>
      <trkpt lat="46.55577" lon="5.74453">
        <ele>549</ele>
        <time>2020-07-29T22:12:25Z</time>
      </trkpt>
      <trkpt lat="46.55593" lon="5.74453">
        <ele>549</ele>
        <time>2020-07-29T22:12:28Z</time>
      </trkpt>
      <trkpt lat="46.55603" lon="5.74459">
        <ele>549</ele>
        <time>2020-07-29T22:12:30Z</time>
      </trkpt>
      <trkpt lat="46.55607" lon="5.74483">
        <ele>551</ele>
        <time>2020-07-29T22:12:33Z</time>
      </trkpt>
      <trkpt lat="46.55644" lon="5.74481">
        <ele>550</ele>
        <time>2020-07-29T22:12:40Z</time>
      </trkpt>
      <trkpt lat="46.55808" lon="5.74494">
        <ele>547</ele>
        <time>2020-07-29T22:13:09Z</time>
      </trkpt>
      <trkpt lat="46.55858" lon="5.74495">
        <ele>547</ele>
        <time>2020-07-29T22:13:18Z</time>
      </trkpt>
      <trkpt lat="46.55879" lon="5.74492">
        <ele>547</ele>
        <time>2020-07-29T22:13:22Z</time>
      </trkpt>
      <trkpt lat="46.56241" lon="5.74385">
        <ele>540</ele>
        <time>2020-07-29T22:14:27Z</time>
      </trkpt>
      <trkpt lat="46.56264" lon="5.74381">
        <ele>540</ele>
        <time>2020-07-29T22:14:31Z</time>
      </trkpt>
      <trkpt lat="46.5629" lon="5.74379">
        <ele>540</ele>
        <time>2020-07-29T22:14:36Z</time>
      </trkpt>
      <trkpt lat="46.56336" lon="5.74383">
        <ele>539</ele>
        <time>2020-07-29T22:14:44Z</time>
      </trkpt>
      <trkpt lat="46.56694" lon="5.74435">
        <ele>538</ele>
        <time>2020-07-29T22:15:48Z</time>
      </trkpt>
      <trkpt lat="46.56771" lon="5.74449">
        <ele>540</ele>
        <time>2020-07-29T22:16:02Z</time>
      </trkpt>
      <trkpt lat="46.56897" lon="5.74487">
        <ele>537</ele>
        <time>2020-07-29T22:16:25Z</time>
      </trkpt>
      <trkpt lat="46.572" lon="5.74589">
        <ele>536</ele>
        <time>2020-07-29T22:17:20Z</time>
      </trkpt>
      <trkpt lat="46.57253" lon="5.7461">
        <ele>538</ele>
        <time>2020-07-29T22:17:30Z</time>
      </trkpt>
      <trkpt lat="46.57315" lon="5.74645">
        <ele>536</ele>
        <time>2020-07-29T22:17:42Z</time>
      </trkpt>
      <trkpt lat="46.57317" lon="5.7464">
        <ele>536</ele>
        <time>2020-07-29T22:17:43Z</time>
      </trkpt>
      <trkpt lat="46.57312" lon="5.74633">
        <ele>537</ele>
        <time>2020-07-29T22:17:44Z</time>
      </trkpt>
      <trkpt lat="46.57428" lon="5.74744">
        <ele>531</ele>
        <time>2020-07-29T18:40:07Z</time>
      </trkpt>
      <trkpt lat="46.57428" lon="5.74744">
        <ele>531</ele>
        <time>2020-07-29T18:40:07Z</time>
      </trkpt>
      <trkpt lat="46.57429" lon="5.74738">
        <ele>531</ele>
        <time>2020-07-29T18:40:08Z</time>
      </trkpt>
      <trkpt lat="46.57426" lon="5.74728">
        <ele>531</ele>
        <time>2020-07-29T18:40:09Z</time>
      </trkpt>
      <trkpt lat="46.57421" lon="5.74723">
        <ele>531</ele>
        <time>2020-07-29T18:40:10Z</time>
      </trkpt>
      <trkpt lat="46.57416" lon="5.74722">
        <ele>531</ele>
        <time>2020-07-29T18:40:11Z</time>
      </trkpt>
      <trkpt lat="46.57401" lon="5.7472">
        <ele>531</ele>
        <time>2020-07-29T18:40:14Z</time>
      </trkpt>
      <trkpt lat="46.57393" lon="5.74716">
        <ele>531</ele>
        <time>2020-07-29T18:40:15Z</time>
      </trkpt>
      <trkpt lat="46.57348" lon="5.74668">
        <ele>534</ele>
        <time>2020-07-29T18:40:25Z</time>
      </trkpt>
      <trkpt lat="46.57315" lon="5.74645">
        <ele>536</ele>
        <time>2020-07-29T18:40:32Z</time>
      </trkpt>
      <trkpt lat="46.57317" lon="5.7464">
        <ele>536</ele>
        <time>2020-07-29T18:40:32Z</time>
      </trkpt>
      <trkpt lat="46.57315" lon="5.74635">
        <ele>537</ele>
        <time>2020-07-29T18:40:33Z</time>
      </trkpt>
      <trkpt lat="46.57297" lon="5.74619">
        <ele>538</ele>
        <time>2020-07-29T18:40:37Z</time>
      </trkpt>
      <trkpt lat="46.5729" lon="5.74613">
        <ele>538</ele>
        <time>2020-07-29T18:40:38Z</time>
      </trkpt>
      <trkpt lat="46.57268" lon="5.74593">
        <ele>540</ele>
        <time>2020-07-29T18:40:43Z</time>
      </trkpt>
      <trkpt lat="46.57263" lon="5.74588">
        <ele>541</ele>
        <time>2020-07-29T18:40:44Z</time>
      </trkpt>
      <trkpt lat="46.57239" lon="5.74566">
        <ele>544</ele>
        <time>2020-07-29T18:40:49Z</time>
      </trkpt>
      <trkpt lat="46.57219" lon="5.74552">
        <ele>545</ele>
        <time>2020-07-29T18:40:53Z</time>
      </trkpt>
      <trkpt lat="46.57177" lon="5.74525">
        <ele>546</ele>
        <time>2020-07-29T18:41:01Z</time>
      </trkpt>
      <trkpt lat="46.5715" lon="5.74506">
        <ele>547</ele>
        <time>2020-07-29T18:41:07Z</time>
      </trkpt>
      <trkpt lat="46.57101" lon="5.74472">
        <ele>550</ele>
        <time>2020-07-29T18:41:16Z</time>
      </trkpt>
      <trkpt lat="46.57056" lon="5.74445">
        <ele>553</ele>
        <time>2020-07-29T18:41:25Z</time>
      </trkpt>
      <trkpt lat="46.57037" lon="5.74436">
        <ele>554</ele>
        <time>2020-07-29T18:41:28Z</time>
      </trkpt>
      <trkpt lat="46.57016" lon="5.74431">
        <ele>554</ele>
        <time>2020-07-29T18:41:32Z</time>
      </trkpt>
      <trkpt lat="46.56974" lon="5.74414">
        <ele>557</ele>
        <time>2020-07-29T18:41:40Z</time>
      </trkpt>
      <trkpt lat="46.56937" lon="5.74395">
        <ele>559</ele>
        <time>2020-07-29T18:41:47Z</time>
      </trkpt>
      <trkpt lat="46.56909" lon="5.7437">
        <ele>560</ele>
        <time>2020-07-29T18:41:53Z</time>
      </trkpt>
      <trkpt lat="46.56899" lon="5.74355">
        <ele>562</ele>
        <time>2020-07-29T18:41:55Z</time>
      </trkpt>
      <trkpt lat="46.56888" lon="5.74338">
        <ele>564</ele>
        <time>2020-07-29T18:41:58Z</time>
      </trkpt>
      <trkpt lat="46.56871" lon="5.74304">
        <ele>565</ele>
        <time>2020-07-29T18:42:03Z</time>
      </trkpt>
      <trkpt lat="46.56844" lon="5.74226">
        <ele>564</ele>
        <time>2020-07-29T18:42:14Z</time>
      </trkpt>
      <trkpt lat="46.56834" lon="5.74201">
        <ele>562</ele>
        <time>2020-07-29T18:42:18Z</time>
      </trkpt>
      <trkpt lat="46.56811" lon="5.74162">
        <ele>561</ele>
        <time>2020-07-29T18:42:24Z</time>
      </trkpt>
      <trkpt lat="46.56774" lon="5.74118">
        <ele>555</ele>
        <time>2020-07-29T18:42:32Z</time>
      </trkpt>
      <trkpt lat="46.56763" lon="5.74105">
        <ele>554</ele>
        <time>2020-07-29T18:42:35Z</time>
      </trkpt>
      <trkpt lat="46.56718" lon="5.74067">
        <ele>552</ele>
        <time>2020-07-29T18:42:44Z</time>
      </trkpt>
      <trkpt lat="46.5667" lon="5.74037">
        <ele>552</ele>
        <time>2020-07-29T18:42:53Z</time>
      </trkpt>
      <trkpt lat="46.56643" lon="5.74013">
        <ele>551</ele>
        <time>2020-07-29T18:42:59Z</time>
      </trkpt>
      <trkpt lat="46.56623" lon="5.73994">
        <ele>551</ele>
        <time>2020-07-29T18:43:03Z</time>
      </trkpt>
      <trkpt lat="46.56592" lon="5.73954">
        <ele>546</ele>
        <time>2020-07-29T18:43:11Z</time>
      </trkpt>
      <trkpt lat="46.56579" lon="5.73942">
        <ele>544</ele>
        <time>2020-07-29T18:43:13Z</time>
      </trkpt>
      <trkpt lat="46.56568" lon="5.73934">
        <ele>543</ele>
        <time>2020-07-29T18:43:16Z</time>
      </trkpt>
      <trkpt lat="46.5655" lon="5.73927">
        <ele>542</ele>
        <time>2020-07-29T18:43:19Z</time>
      </trkpt>
      <trkpt lat="46.56524" lon="5.73921">
        <ele>542</ele>
        <time>2020-07-29T18:43:24Z</time>
      </trkpt>
      <trkpt lat="46.56491" lon="5.73922">
        <ele>543</ele>
        <time>2020-07-29T18:43:29Z</time>
      </trkpt>
      <trkpt lat="46.56434" lon="5.73933">
        <ele>541</ele>
        <time>2020-07-29T18:43:40Z</time>
      </trkpt>
      <trkpt lat="46.56426" lon="5.73932">
        <ele>540</ele>
        <time>2020-07-29T18:43:41Z</time>
      </trkpt>
      <trkpt lat="46.56417" lon="5.7393">
        <ele>540</ele>
        <time>2020-07-29T18:43:43Z</time>
      </trkpt>
      <trkpt lat="46.56409" lon="5.73925">
        <ele>539</ele>
        <time>2020-07-29T18:43:44Z</time>
      </trkpt>
      <trkpt lat="46.56401" lon="5.73918">
        <ele>537</ele>
        <time>2020-07-29T18:43:46Z</time>
      </trkpt>
      <trkpt lat="46.56331" lon="5.73834">
        <ele>535</ele>
        <time>2020-07-29T18:44:02Z</time>
      </trkpt>
      <trkpt lat="46.56293" lon="5.73791">
        <ele>534</ele>
        <time>2020-07-29T18:44:11Z</time>
      </trkpt>
      <trkpt lat="46.56261" lon="5.73758">
        <ele>532</ele>
        <time>2020-07-29T18:44:18Z</time>
      </trkpt>
      <trkpt lat="46.56255" lon="5.73748">
        <ele>531</ele>
        <time>2020-07-29T18:44:19Z</time>
      </trkpt>
      <trkpt lat="46.56251" lon="5.7374">
        <ele>531</ele>
        <time>2020-07-29T18:44:20Z</time>
      </trkpt>
      <trkpt lat="46.56244" lon="5.73706">
        <ele>530</ele>
        <time>2020-07-29T18:44:25Z</time>
      </trkpt>
      <trkpt lat="46.56242" lon="5.73685">
        <ele>529</ele>
        <time>2020-07-29T18:44:27Z</time>
      </trkpt>
      <trkpt lat="46.56243" lon="5.73672">
        <ele>529</ele>
        <time>2020-07-29T18:44:29Z</time>
      </trkpt>
      <trkpt lat="46.56247" lon="5.73654">
        <ele>529</ele>
        <time>2020-07-29T18:44:31Z</time>
      </trkpt>
      <trkpt lat="46.56252" lon="5.73642">
        <ele>529</ele>
        <time>2020-07-29T18:44:33Z</time>
      </trkpt>
      <trkpt lat="46.56288" lon="5.73565">
        <ele>529</ele>
        <time>2020-07-29T18:44:44Z</time>
      </trkpt>
      <trkpt lat="46.563" lon="5.73531">
        <ele>529</ele>
        <time>2020-07-29T18:44:49Z</time>
      </trkpt>
      <trkpt lat="46.56304" lon="5.73509">
        <ele>529</ele>
        <time>2020-07-29T18:44:52Z</time>
      </trkpt>
      <trkpt lat="46.56305" lon="5.73499">
        <ele>529</ele>
        <time>2020-07-29T18:44:53Z</time>
      </trkpt>
      <trkpt lat="46.56303" lon="5.73441">
        <ele>527</ele>
        <time>2020-07-29T18:45:00Z</time>
      </trkpt>
      <trkpt lat="46.56304" lon="5.7342">
        <ele>526</ele>
        <time>2020-07-29T18:45:03Z</time>
      </trkpt>
      <trkpt lat="46.5632" lon="5.73299">
        <ele>523</ele>
        <time>2020-07-29T18:45:18Z</time>
      </trkpt>
      <trkpt lat="46.56321" lon="5.73286">
        <ele>523</ele>
        <time>2020-07-29T18:45:19Z</time>
      </trkpt>
      <trkpt lat="46.5632" lon="5.73266">
        <ele>523</ele>
        <time>2020-07-29T18:45:22Z</time>
      </trkpt>
      <trkpt lat="46.56316" lon="5.73251">
        <ele>523</ele>
        <time>2020-07-29T18:45:24Z</time>
      </trkpt>
      <trkpt lat="46.56314" lon="5.73239">
        <ele>522</ele>
        <time>2020-07-29T18:45:25Z</time>
      </trkpt>
      <trkpt lat="46.56289" lon="5.73185">
        <ele>521</ele>
        <time>2020-07-29T18:45:33Z</time>
      </trkpt>
      <trkpt lat="46.56278" lon="5.73146">
        <ele>520</ele>
        <time>2020-07-29T18:45:39Z</time>
      </trkpt>
      <trkpt lat="46.56276" lon="5.73119">
        <ele>519</ele>
        <time>2020-07-29T18:45:42Z</time>
      </trkpt>
      <trkpt lat="46.56278" lon="5.73083">
        <ele>517</ele>
        <time>2020-07-29T18:45:46Z</time>
      </trkpt>
      <trkpt lat="46.56276" lon="5.73044">
        <ele>513</ele>
        <time>2020-07-29T18:45:51Z</time>
      </trkpt>
      <trkpt lat="46.56277" lon="5.73024">
        <ele>511</ele>
        <time>2020-07-29T18:45:54Z</time>
      </trkpt>
      <trkpt lat="46.56283" lon="5.73009">
        <ele>509</ele>
        <time>2020-07-29T18:45:56Z</time>
      </trkpt>
      <trkpt lat="46.56291" lon="5.72999">
        <ele>509</ele>
        <time>2020-07-29T18:45:58Z</time>
      </trkpt>
      <trkpt lat="46.56318" lon="5.72985">
        <ele>509</ele>
        <time>2020-07-29T18:46:03Z</time>
      </trkpt>
      <trkpt lat="46.56344" lon="5.72978">
        <ele>509</ele>
        <time>2020-07-29T18:46:07Z</time>
      </trkpt>
      <trkpt lat="46.56349" lon="5.72975">
        <ele>508</ele>
        <time>2020-07-29T18:46:08Z</time>
      </trkpt>
      <trkpt lat="46.56352" lon="5.72971">
        <ele>508</ele>
        <time>2020-07-29T18:46:09Z</time>
      </trkpt>
      <trkpt lat="46.56353" lon="5.72965">
        <ele>507</ele>
        <time>2020-07-29T18:46:10Z</time>
      </trkpt>
      <trkpt lat="46.56353" lon="5.72959">
        <ele>506</ele>
        <time>2020-07-29T18:46:10Z</time>
      </trkpt>
      <trkpt lat="46.56351" lon="5.72953">
        <ele>506</ele>
        <time>2020-07-29T18:46:11Z</time>
      </trkpt>
      <trkpt lat="46.56348" lon="5.72948">
        <ele>505</ele>
        <time>2020-07-29T18:46:12Z</time>
      </trkpt>
      <trkpt lat="46.56307" lon="5.72933">
        <ele>503</ele>
        <time>2020-07-29T18:46:20Z</time>
      </trkpt>
      <trkpt lat="46.56187" lon="5.72917">
        <ele>499</ele>
        <time>2020-07-29T18:46:41Z</time>
      </trkpt>
      <trkpt lat="46.56174" lon="5.72911">
        <ele>499</ele>
        <time>2020-07-29T18:46:43Z</time>
      </trkpt>
      <trkpt lat="46.56161" lon="5.72899">
        <ele>498</ele>
        <time>2020-07-29T18:46:46Z</time>
      </trkpt>
      <trkpt lat="46.56149" lon="5.72884">
        <ele>498</ele>
        <time>2020-07-29T18:46:49Z</time>
      </trkpt>
      <trkpt lat="46.56141" lon="5.72875">
        <ele>498</ele>
        <time>2020-07-29T18:46:51Z</time>
      </trkpt>
      <trkpt lat="46.55979" lon="5.72659">
        <ele>490</ele>
        <time>2020-07-29T18:47:30Z</time>
      </trkpt>
      <trkpt lat="46.5596" lon="5.7263">
        <ele>490</ele>
        <time>2020-07-29T18:47:35Z</time>
      </trkpt>
      <trkpt lat="46.55955" lon="5.72617">
        <ele>490</ele>
        <time>2020-07-29T18:47:37Z</time>
      </trkpt>
      <trkpt lat="46.5595" lon="5.7262">
        <ele>490</ele>
        <time>2020-07-29T18:47:38Z</time>
      </trkpt>
      <trkpt lat="46.55947" lon="5.72622">
        <ele>490</ele>
        <time>2020-07-29T18:47:38Z</time>
      </trkpt>
      <trkpt lat="46.55945" lon="5.72619">
        <ele>490</ele>
        <time>2020-07-29T18:47:39Z</time>
      </trkpt>
      <trkpt lat="46.55929" lon="5.72589">
        <ele>490</ele>
        <time>2020-07-29T18:47:43Z</time>
      </trkpt>
      <trkpt lat="46.55704" lon="5.72285">
        <ele>495</ele>
        <time>2020-07-29T18:48:38Z</time>
      </trkpt>
      <trkpt lat="46.55644" lon="5.72189">
        <ele>495</ele>
        <time>2020-07-29T18:48:54Z</time>
      </trkpt>
      <trkpt lat="46.55604" lon="5.72124">
        <ele>494</ele>
        <time>2020-07-29T18:49:05Z</time>
      </trkpt>
      <trkpt lat="46.55525" lon="5.71998">
        <ele>491</ele>
        <time>2020-07-29T18:49:25Z</time>
      </trkpt>
      <trkpt lat="46.5527" lon="5.71593">
        <ele>485</ele>
        <time>2020-07-29T18:50:33Z</time>
      </trkpt>
      <trkpt lat="46.5522" lon="5.71514">
        <ele>486</ele>
        <time>2020-07-29T18:50:46Z</time>
      </trkpt>
      <trkpt lat="46.55192" lon="5.71476">
        <ele>487</ele>
        <time>2020-07-29T18:50:53Z</time>
      </trkpt>
      <trkpt lat="46.55172" lon="5.71454">
        <ele>486</ele>
        <time>2020-07-29T18:50:57Z</time>
      </trkpt>
      <trkpt lat="46.55167" lon="5.7145">
        <ele>486</ele>
        <time>2020-07-29T18:50:58Z</time>
      </trkpt>
      <trkpt lat="46.55105" lon="5.71382">
        <ele>485</ele>
        <time>2020-07-29T18:51:12Z</time>
      </trkpt>
      <trkpt lat="46.55098" lon="5.71374">
        <ele>485</ele>
        <time>2020-07-29T18:51:13Z</time>
      </trkpt>
      <trkpt lat="46.5505" lon="5.71323">
        <ele>486</ele>
        <time>2020-07-29T18:51:24Z</time>
      </trkpt>
      <trkpt lat="46.55039" lon="5.7131">
        <ele>486</ele>
        <time>2020-07-29T18:51:27Z</time>
      </trkpt>
      <trkpt lat="46.55036" lon="5.71306">
        <ele>487</ele>
        <time>2020-07-29T18:51:27Z</time>
      </trkpt>
      <trkpt lat="46.55034" lon="5.71301">
        <ele>487</ele>
        <time>2020-07-29T18:51:28Z</time>
      </trkpt>
      <trkpt lat="46.55031" lon="5.71288">
        <ele>487</ele>
        <time>2020-07-29T18:51:30Z</time>
      </trkpt>
      <trkpt lat="46.5503" lon="5.71226">
        <ele>488</ele>
        <time>2020-07-29T18:51:37Z</time>
      </trkpt>
      <trkpt lat="46.55028" lon="5.71205">
        <ele>488</ele>
        <time>2020-07-29T18:51:40Z</time>
      </trkpt>
      <trkpt lat="46.55022" lon="5.71188">
        <ele>489</ele>
        <time>2020-07-29T18:51:42Z</time>
      </trkpt>
      <trkpt lat="46.55015" lon="5.71174">
        <ele>490</ele>
        <time>2020-07-29T18:51:44Z</time>
      </trkpt>
      <trkpt lat="46.55005" lon="5.7116">
        <ele>491</ele>
        <time>2020-07-29T18:51:47Z</time>
      </trkpt>
      <trkpt lat="46.54988" lon="5.71127">
        <ele>492</ele>
        <time>2020-07-29T18:51:52Z</time>
      </trkpt>
      <trkpt lat="46.54981" lon="5.71114">
        <ele>492</ele>
        <time>2020-07-29T18:51:54Z</time>
      </trkpt>
      <trkpt lat="46.54976" lon="5.71106">
        <ele>492</ele>
        <time>2020-07-29T18:51:55Z</time>
      </trkpt>
      <trkpt lat="46.54971" lon="5.71102">
        <ele>492</ele>
        <time>2020-07-29T18:51:56Z</time>
      </trkpt>
      <trkpt lat="46.54967" lon="5.711">
        <ele>493</ele>
        <time>2020-07-29T18:51:57Z</time>
      </trkpt>
      <trkpt lat="46.54954" lon="5.7101">
        <ele>489</ele>
        <time>2020-07-29T18:52:08Z</time>
      </trkpt>
      <trkpt lat="46.54955" lon="5.7098">
        <ele>487</ele>
        <time>2020-07-29T18:52:12Z</time>
      </trkpt>
      <trkpt lat="46.54946" lon="5.70978">
        <ele>487</ele>
        <time>2020-07-29T18:52:13Z</time>
      </trkpt>
      <trkpt lat="46.54907" lon="5.70986">
        <ele>489</ele>
        <time>2020-07-29T18:52:20Z</time>
      </trkpt>
      <trkpt lat="46.54896" lon="5.70982">
        <ele>489</ele>
        <time>2020-07-29T18:52:23Z</time>
      </trkpt>
      <trkpt lat="46.54886" lon="5.70979">
        <ele>489</ele>
        <time>2020-07-29T18:52:24Z</time>
      </trkpt>
      <trkpt lat="46.54886" lon="5.70966">
        <ele>488</ele>
        <time>2020-07-29T18:52:26Z</time>
      </trkpt>
      <trkpt lat="46.54879" lon="5.70925">
        <ele>486</ele>
        <time>2020-07-29T18:52:31Z</time>
      </trkpt>
      <trkpt lat="46.54878" lon="5.70903">
        <ele>485</ele>
        <time>2020-07-29T18:52:34Z</time>
      </trkpt>
      <trkpt lat="46.54879" lon="5.70838">
        <ele>481</ele>
        <time>2020-07-29T18:52:42Z</time>
      </trkpt>
      <trkpt lat="46.54881" lon="5.70803">
        <ele>480</ele>
        <time>2020-07-29T18:52:46Z</time>
      </trkpt>
      <trkpt lat="46.54881" lon="5.70785">
        <ele>480</ele>
        <time>2020-07-29T18:52:48Z</time>
      </trkpt>
      <trkpt lat="46.54879" lon="5.7077">
        <ele>479</ele>
        <time>2020-07-29T18:52:50Z</time>
      </trkpt>
      <trkpt lat="46.54874" lon="5.70756">
        <ele>479</ele>
        <time>2020-07-29T18:52:52Z</time>
      </trkpt>
      <trkpt lat="46.54852" lon="5.70709">
        <ele>477</ele>
        <time>2020-07-29T18:52:59Z</time>
      </trkpt>
      <trkpt lat="46.54839" lon="5.70675">
        <ele>475</ele>
        <time>2020-07-29T18:53:04Z</time>
      </trkpt>
      <trkpt lat="46.54819" lon="5.70614">
        <ele>474</ele>
        <time>2020-07-29T18:53:12Z</time>
      </trkpt>
      <trkpt lat="46.54809" lon="5.70592">
        <ele>474</ele>
        <time>2020-07-29T18:53:15Z</time>
      </trkpt>
      <trkpt lat="46.54792" lon="5.70564">
        <ele>474</ele>
        <time>2020-07-29T18:53:20Z</time>
      </trkpt>
      <trkpt lat="46.54766" lon="5.70526">
        <ele>473</ele>
        <time>2020-07-29T18:53:26Z</time>
      </trkpt>
      <trkpt lat="46.54753" lon="5.70496">
        <ele>473</ele>
        <time>2020-07-29T18:53:31Z</time>
      </trkpt>
      <trkpt lat="46.54734" lon="5.7041">
        <ele>472</ele>
        <time>2020-07-29T18:53:42Z</time>
      </trkpt>
      <trkpt lat="46.54721" lon="5.70378">
        <ele>472</ele>
        <time>2020-07-29T18:53:46Z</time>
      </trkpt>
      <trkpt lat="46.54699" lon="5.70331">
        <ele>473</ele>
        <time>2020-07-29T18:53:53Z</time>
      </trkpt>
      <trkpt lat="46.54681" lon="5.70299">
        <ele>472</ele>
        <time>2020-07-29T18:53:58Z</time>
      </trkpt>
      <trkpt lat="46.54669" lon="5.70285">
        <ele>471</ele>
        <time>2020-07-29T18:54:01Z</time>
      </trkpt>
      <trkpt lat="46.54656" lon="5.70274">
        <ele>471</ele>
        <time>2020-07-29T18:54:04Z</time>
      </trkpt>
      <trkpt lat="46.5457" lon="5.70224">
        <ele>469</ele>
        <time>2020-07-29T18:54:20Z</time>
      </trkpt>
      <trkpt lat="46.54512" lon="5.70213">
        <ele>468</ele>
        <time>2020-07-29T18:54:31Z</time>
      </trkpt>
      <trkpt lat="46.54502" lon="5.70207">
        <ele>468</ele>
        <time>2020-07-29T18:54:33Z</time>
      </trkpt>
      <trkpt lat="46.54495" lon="5.70199">
        <ele>468</ele>
        <time>2020-07-29T18:54:34Z</time>
      </trkpt>
      <trkpt lat="46.54486" lon="5.7018">
        <ele>467</ele>
        <time>2020-07-29T18:54:37Z</time>
      </trkpt>
      <trkpt lat="46.54468" lon="5.70185">
        <ele>467</ele>
        <time>2020-07-29T18:54:40Z</time>
      </trkpt>
      <trkpt lat="46.5438" lon="5.70202">
        <ele>468</ele>
        <time>2020-07-29T18:54:56Z</time>
      </trkpt>
      <trkpt lat="46.54322" lon="5.70224">
        <ele>469</ele>
        <time>2020-07-29T18:55:07Z</time>
      </trkpt>
      <trkpt lat="46.54303" lon="5.70231">
        <ele>469</ele>
        <time>2020-07-29T18:55:10Z</time>
      </trkpt>
      <trkpt lat="46.54239" lon="5.7024">
        <ele>470</ele>
        <time>2020-07-29T18:55:22Z</time>
      </trkpt>
      <trkpt lat="46.54166" lon="5.70258">
        <ele>472</ele>
        <time>2020-07-29T18:55:35Z</time>
      </trkpt>
      <trkpt lat="46.54133" lon="5.70273">
        <ele>471</ele>
        <time>2020-07-29T18:55:41Z</time>
      </trkpt>
      <trkpt lat="46.5402" lon="5.70337">
        <ele>473</ele>
        <time>2020-07-29T18:56:03Z</time>
      </trkpt>
      <trkpt lat="46.5396" lon="5.70362">
        <ele>473</ele>
        <time>2020-07-29T18:56:14Z</time>
      </trkpt>
      <trkpt lat="46.53935" lon="5.70368">
        <ele>473</ele>
        <time>2020-07-29T18:56:18Z</time>
      </trkpt>
      <trkpt lat="46.53883" lon="5.70374">
        <ele>474</ele>
        <time>2020-07-29T18:56:27Z</time>
      </trkpt>
      <trkpt lat="46.53835" lon="5.70383">
        <ele>476</ele>
        <time>2020-07-29T18:56:36Z</time>
      </trkpt>
      <trkpt lat="46.53792" lon="5.70394">
        <ele>476</ele>
        <time>2020-07-29T18:56:44Z</time>
      </trkpt>
      <trkpt lat="46.5377" lon="5.70406">
        <ele>476</ele>
        <time>2020-07-29T18:56:48Z</time>
      </trkpt>
      <trkpt lat="46.53749" lon="5.70429">
        <ele>476</ele>
        <time>2020-07-29T18:56:53Z</time>
      </trkpt>
      <trkpt lat="46.53604" lon="5.7064">
        <ele>484</ele>
        <time>2020-07-29T18:57:29Z</time>
      </trkpt>
      <trkpt lat="46.53595" lon="5.70651">
        <ele>484</ele>
        <time>2020-07-29T18:57:31Z</time>
      </trkpt>
      <trkpt lat="46.53588" lon="5.70656">
        <ele>485</ele>
        <time>2020-07-29T18:57:33Z</time>
      </trkpt>
      <trkpt lat="46.53557" lon="5.7067">
        <ele>489</ele>
        <time>2020-07-29T18:57:38Z</time>
      </trkpt>
      <trkpt lat="46.5354" lon="5.70669">
        <ele>492</ele>
        <time>2020-07-29T18:57:41Z</time>
      </trkpt>
      <trkpt lat="46.53531" lon="5.70665">
        <ele>493</ele>
        <time>2020-07-29T18:57:43Z</time>
      </trkpt>
      <trkpt lat="46.53506" lon="5.70647">
        <ele>494</ele>
        <time>2020-07-29T18:57:48Z</time>
      </trkpt>
      <trkpt lat="46.53455" lon="5.70628">
        <ele>499</ele>
        <time>2020-07-29T18:57:57Z</time>
      </trkpt>
      <trkpt lat="46.53448" lon="5.70628">
        <ele>500</ele>
        <time>2020-07-29T18:57:59Z</time>
      </trkpt>
      <trkpt lat="46.53442" lon="5.7063">
        <ele>501</ele>
        <time>2020-07-29T18:58:00Z</time>
      </trkpt>
      <trkpt lat="46.53435" lon="5.70636">
        <ele>503</ele>
        <time>2020-07-29T18:58:01Z</time>
      </trkpt>
      <trkpt lat="46.53423" lon="5.70659">
        <ele>508</ele>
        <time>2020-07-29T18:58:05Z</time>
      </trkpt>
      <trkpt lat="46.53417" lon="5.70667">
        <ele>510</ele>
        <time>2020-07-29T18:58:06Z</time>
      </trkpt>
      <trkpt lat="46.53404" lon="5.70671">
        <ele>511</ele>
        <time>2020-07-29T18:58:09Z</time>
      </trkpt>
      <trkpt lat="46.53393" lon="5.70668">
        <ele>511</ele>
        <time>2020-07-29T18:58:11Z</time>
      </trkpt>
      <trkpt lat="46.53373" lon="5.70647">
        <ele>508</ele>
        <time>2020-07-29T18:58:15Z</time>
      </trkpt>
      <trkpt lat="46.5336" lon="5.70638">
        <ele>507</ele>
        <time>2020-07-29T18:58:18Z</time>
      </trkpt>
      <trkpt lat="46.53334" lon="5.70629">
        <ele>507</ele>
        <time>2020-07-29T18:58:22Z</time>
      </trkpt>
      <trkpt lat="46.53309" lon="5.70628">
        <ele>509</ele>
        <time>2020-07-29T18:58:27Z</time>
      </trkpt>
      <trkpt lat="46.53295" lon="5.70635">
        <ele>511</ele>
        <time>2020-07-29T18:58:29Z</time>
      </trkpt>
      <trkpt lat="46.53283" lon="5.7065">
        <ele>513</ele>
        <time>2020-07-29T18:58:32Z</time>
      </trkpt>
      <trkpt lat="46.5328" lon="5.70662">
        <ele>514</ele>
        <time>2020-07-29T18:58:34Z</time>
      </trkpt>
      <trkpt lat="46.53277" lon="5.7069">
        <ele>517</ele>
        <time>2020-07-29T18:58:37Z</time>
      </trkpt>
      <trkpt lat="46.53273" lon="5.70701">
        <ele>518</ele>
        <time>2020-07-29T18:58:39Z</time>
      </trkpt>
      <trkpt lat="46.53257" lon="5.70734">
        <ele>523</ele>
        <time>2020-07-29T18:58:44Z</time>
      </trkpt>
      <trkpt lat="46.53253" lon="5.70752">
        <ele>525</ele>
        <time>2020-07-29T18:58:46Z</time>
      </trkpt>
      <trkpt lat="46.53256" lon="5.70797">
        <ele>527</ele>
        <time>2020-07-29T18:58:52Z</time>
      </trkpt>
      <trkpt lat="46.5326" lon="5.70854">
        <ele>529</ele>
        <time>2020-07-29T18:58:59Z</time>
      </trkpt>
      <trkpt lat="46.5326" lon="5.70897">
        <ele>531</ele>
        <time>2020-07-29T18:59:04Z</time>
      </trkpt>
      <trkpt lat="46.53256" lon="5.70978">
        <ele>535</ele>
        <time>2020-07-29T18:59:14Z</time>
      </trkpt>
      <trkpt lat="46.53265" lon="5.7108">
        <ele>539</ele>
        <time>2020-07-29T18:59:26Z</time>
      </trkpt>
      <trkpt lat="46.53269" lon="5.71134">
        <ele>538</ele>
        <time>2020-07-29T18:59:33Z</time>
      </trkpt>
      <trkpt lat="46.53265" lon="5.71146">
        <ele>538</ele>
        <time>2020-07-29T18:59:35Z</time>
      </trkpt>
      <trkpt lat="46.53257" lon="5.71159">
        <ele>538</ele>
        <time>2020-07-29T18:59:37Z</time>
      </trkpt>
      <trkpt lat="46.53246" lon="5.71199">
        <ele>539</ele>
        <time>2020-07-29T18:59:42Z</time>
      </trkpt>
      <trkpt lat="46.53245" lon="5.71213">
        <ele>538</ele>
        <time>2020-07-29T18:59:44Z</time>
      </trkpt>
      <trkpt lat="46.53245" lon="5.71269">
        <ele>538</ele>
        <time>2020-07-29T18:59:51Z</time>
      </trkpt>
      <trkpt lat="46.53231" lon="5.71274">
        <ele>538</ele>
        <time>2020-07-29T18:59:53Z</time>
      </trkpt>
      <trkpt lat="46.53205" lon="5.71297">
        <ele>538</ele>
        <time>2020-07-29T18:59:59Z</time>
      </trkpt>
      <trkpt lat="46.53202" lon="5.71302">
        <ele>538</ele>
        <time>2020-07-29T18:59:59Z</time>
      </trkpt>
      <trkpt lat="46.53146" lon="5.71479">
        <ele>542</ele>
        <time>2020-07-29T19:00:23Z</time>
      </trkpt>
      <trkpt lat="46.53135" lon="5.71526">
        <ele>543</ele>
        <time>2020-07-29T19:00:29Z</time>
      </trkpt>
      <trkpt lat="46.5313" lon="5.71569">
        <ele>544</ele>
        <time>2020-07-29T19:00:35Z</time>
      </trkpt>
      <trkpt lat="46.5313" lon="5.71594">
        <ele>544</ele>
        <time>2020-07-29T19:00:38Z</time>
      </trkpt>
      <trkpt lat="46.53135" lon="5.71634">
        <ele>545</ele>
        <time>2020-07-29T19:00:43Z</time>
      </trkpt>
      <trkpt lat="46.53162" lon="5.71781">
        <ele>550</ele>
        <time>2020-07-29T19:01:01Z</time>
      </trkpt>
      <trkpt lat="46.53164" lon="5.71811">
        <ele>552</ele>
        <time>2020-07-29T19:01:05Z</time>
      </trkpt>
      <trkpt lat="46.53164" lon="5.71833">
        <ele>553</ele>
        <time>2020-07-29T19:01:08Z</time>
      </trkpt>
      <trkpt lat="46.53161" lon="5.71857">
        <ele>553</ele>
        <time>2020-07-29T19:01:11Z</time>
      </trkpt>
      <trkpt lat="46.53149" lon="5.7193">
        <ele>553</ele>
        <time>2020-07-29T19:01:20Z</time>
      </trkpt>
      <trkpt lat="46.53149" lon="5.71964">
        <ele>552</ele>
        <time>2020-07-29T19:01:24Z</time>
      </trkpt>
      <trkpt lat="46.53152" lon="5.71985">
        <ele>552</ele>
        <time>2020-07-29T19:01:27Z</time>
      </trkpt>
      <trkpt lat="46.53178" lon="5.72101">
        <ele>551</ele>
        <time>2020-07-29T19:01:42Z</time>
      </trkpt>
      <trkpt lat="46.53207" lon="5.72214">
        <ele>551</ele>
        <time>2020-07-29T19:01:56Z</time>
      </trkpt>
      <trkpt lat="46.5323" lon="5.72317">
        <ele>553</ele>
        <time>2020-07-29T19:02:10Z</time>
      </trkpt>
      <trkpt lat="46.53235" lon="5.72353">
        <ele>553</ele>
        <time>2020-07-29T19:02:14Z</time>
      </trkpt>
      <trkpt lat="46.53238" lon="5.72432">
        <ele>553</ele>
        <time>2020-07-29T19:02:24Z</time>
      </trkpt>
      <trkpt lat="46.53241" lon="5.72477">
        <ele>553</ele>
        <time>2020-07-29T19:02:29Z</time>
      </trkpt>
      <trkpt lat="46.53246" lon="5.72514">
        <ele>553</ele>
        <time>2020-07-29T19:02:34Z</time>
      </trkpt>
      <trkpt lat="46.53261" lon="5.72595">
        <ele>554</ele>
        <time>2020-07-29T19:02:44Z</time>
      </trkpt>
      <trkpt lat="46.53267" lon="5.72618">
        <ele>555</ele>
        <time>2020-07-29T19:02:47Z</time>
      </trkpt>
      <trkpt lat="46.5336" lon="5.72831">
        <ele>559</ele>
        <time>2020-07-29T19:03:18Z</time>
      </trkpt>
      <trkpt lat="46.53389" lon="5.72881">
        <ele>561</ele>
        <time>2020-07-29T19:03:26Z</time>
      </trkpt>
      <trkpt lat="46.53454" lon="5.72947">
        <ele>564</ele>
        <time>2020-07-29T19:03:40Z</time>
      </trkpt>
      <trkpt lat="46.53468" lon="5.72964">
        <ele>565</ele>
        <time>2020-07-29T19:03:43Z</time>
      </trkpt>
      <trkpt lat="46.53479" lon="5.7298">
        <ele>565</ele>
        <time>2020-07-29T19:03:46Z</time>
      </trkpt>
      <trkpt lat="46.53487" lon="5.73001">
        <ele>566</ele>
        <time>2020-07-29T19:03:49Z</time>
      </trkpt>
      <trkpt lat="46.53491" lon="5.73026">
        <ele>567</ele>
        <time>2020-07-29T19:03:52Z</time>
      </trkpt>
      <trkpt lat="46.53493" lon="5.73051">
        <ele>567</ele>
        <time>2020-07-29T19:03:55Z</time>
      </trkpt>
      <trkpt lat="46.53493" lon="5.73076">
        <ele>567</ele>
        <time>2020-07-29T19:03:58Z</time>
      </trkpt>
      <trkpt lat="46.53491" lon="5.7309">
        <ele>567</ele>
        <time>2020-07-29T19:04:00Z</time>
      </trkpt>
      <trkpt lat="46.53485" lon="5.73106">
        <ele>568</ele>
        <time>2020-07-29T19:04:02Z</time>
      </trkpt>
      <trkpt lat="46.53475" lon="5.73126">
        <ele>568</ele>
        <time>2020-07-29T19:04:05Z</time>
      </trkpt>
      <trkpt lat="46.53449" lon="5.73166">
        <ele>567</ele>
        <time>2020-07-29T19:04:12Z</time>
      </trkpt>
      <trkpt lat="46.53442" lon="5.7318">
        <ele>568</ele>
        <time>2020-07-29T19:04:14Z</time>
      </trkpt>
      <trkpt lat="46.53438" lon="5.732">
        <ele>568</ele>
        <time>2020-07-29T19:04:17Z</time>
      </trkpt>
      <trkpt lat="46.53439" lon="5.73245">
        <ele>568</ele>
        <time>2020-07-29T19:04:22Z</time>
      </trkpt>
      <trkpt lat="46.53438" lon="5.73261">
        <ele>568</ele>
        <time>2020-07-29T19:04:24Z</time>
      </trkpt>
      <trkpt lat="46.53421" lon="5.73344">
        <ele>567</ele>
        <time>2020-07-29T19:04:35Z</time>
      </trkpt>
      <trkpt lat="46.53415" lon="5.73408">
        <ele>568</ele>
        <time>2020-07-29T19:04:43Z</time>
      </trkpt>
      <trkpt lat="46.53412" lon="5.73423">
        <ele>568</ele>
        <time>2020-07-29T19:04:45Z</time>
      </trkpt>
      <trkpt lat="46.53399" lon="5.73458">
        <ele>568</ele>
        <time>2020-07-29T19:04:50Z</time>
      </trkpt>
      <trkpt lat="46.53398" lon="5.73478">
        <ele>569</ele>
        <time>2020-07-29T19:04:52Z</time>
      </trkpt>
      <trkpt lat="46.53377" lon="5.7349">
        <ele>568</ele>
        <time>2020-07-29T19:04:56Z</time>
      </trkpt>
      <trkpt lat="46.53351" lon="5.73501">
        <ele>568</ele>
        <time>2020-07-29T19:05:01Z</time>
      </trkpt>
      <trkpt lat="46.53342" lon="5.73513">
        <ele>568</ele>
        <time>2020-07-29T19:05:03Z</time>
      </trkpt>
      <trkpt lat="46.53335" lon="5.7351">
        <ele>568</ele>
        <time>2020-07-29T19:05:04Z</time>
      </trkpt>
      <trkpt lat="46.5325" lon="5.73534">
        <ele>569</ele>
        <time>2020-07-29T19:05:20Z</time>
      </trkpt>
      <trkpt lat="46.53233" lon="5.73532">
        <ele>568</ele>
        <time>2020-07-29T19:05:23Z</time>
      </trkpt>
      <trkpt lat="46.53198" lon="5.73515">
        <ele>567</ele>
        <time>2020-07-29T19:05:29Z</time>
      </trkpt>
      <trkpt lat="46.53168" lon="5.73516">
        <ele>567</ele>
        <time>2020-07-29T19:05:35Z</time>
      </trkpt>
      <trkpt lat="46.53047" lon="5.73555">
        <ele>570</ele>
        <time>2020-07-29T19:05:57Z</time>
      </trkpt>
      <trkpt lat="46.53021" lon="5.73571">
        <ele>572</ele>
        <time>2020-07-29T19:06:02Z</time>
      </trkpt>
      <trkpt lat="46.52984" lon="5.73603">
        <ele>574</ele>
        <time>2020-07-29T19:06:09Z</time>
      </trkpt>
      <trkpt lat="46.5292" lon="5.73639">
        <ele>577</ele>
        <time>2020-07-29T19:06:22Z</time>
      </trkpt>
      <trkpt lat="46.5291" lon="5.73647">
        <ele>577</ele>
        <time>2020-07-29T19:06:24Z</time>
      </trkpt>
      <trkpt lat="46.52807" lon="5.73752">
        <ele>577</ele>
        <time>2020-07-29T19:06:46Z</time>
      </trkpt>
      <trkpt lat="46.52741" lon="5.73812">
        <ele>580</ele>
        <time>2020-07-29T19:07:00Z</time>
      </trkpt>
      <trkpt lat="46.52691" lon="5.73874">
        <ele>579</ele>
        <time>2020-07-29T19:07:12Z</time>
      </trkpt>
      <trkpt lat="46.52651" lon="5.73915">
        <ele>578</ele>
        <time>2020-07-29T19:07:20Z</time>
      </trkpt>
      <trkpt lat="46.52616" lon="5.73971">
        <ele>580</ele>
        <time>2020-07-29T19:07:30Z</time>
      </trkpt>
      <trkpt lat="46.52581" lon="5.74041">
        <ele>583</ele>
        <time>2020-07-29T19:07:40Z</time>
      </trkpt>
      <trkpt lat="46.52566" lon="5.74079">
        <ele>584</ele>
        <time>2020-07-29T19:07:46Z</time>
      </trkpt>
      <trkpt lat="46.52545" lon="5.74148">
        <ele>584</ele>
        <time>2020-07-29T19:07:55Z</time>
      </trkpt>
      <trkpt lat="46.52514" lon="5.74234">
        <ele>583</ele>
        <time>2020-07-29T19:08:07Z</time>
      </trkpt>
      <trkpt lat="46.52496" lon="5.74294">
        <ele>583</ele>
        <time>2020-07-29T19:08:15Z</time>
      </trkpt>
      <trkpt lat="46.52453" lon="5.74407">
        <ele>583</ele>
        <time>2020-07-29T19:08:31Z</time>
      </trkpt>
      <trkpt lat="46.52432" lon="5.74448">
        <ele>583</ele>
        <time>2020-07-29T19:08:37Z</time>
      </trkpt>
      <trkpt lat="46.52418" lon="5.74467">
        <ele>583</ele>
        <time>2020-07-29T19:08:40Z</time>
      </trkpt>
      <trkpt lat="46.52372" lon="5.74523">
        <ele>585</ele>
        <time>2020-07-29T19:08:51Z</time>
      </trkpt>
      <trkpt lat="46.52362" lon="5.74539">
        <ele>586</ele>
        <time>2020-07-29T19:08:53Z</time>
      </trkpt>
      <trkpt lat="46.52355" lon="5.74559">
        <ele>587</ele>
        <time>2020-07-29T19:08:56Z</time>
      </trkpt>
      <trkpt lat="46.52346" lon="5.74609">
        <ele>588</ele>
        <time>2020-07-29T19:09:03Z</time>
      </trkpt>
      <trkpt lat="46.52341" lon="5.74626">
        <ele>587</ele>
        <time>2020-07-29T19:09:05Z</time>
      </trkpt>
      <trkpt lat="46.52328" lon="5.74653">
        <ele>587</ele>
        <time>2020-07-29T19:09:09Z</time>
      </trkpt>
      <trkpt lat="46.52236" lon="5.74823">
        <ele>579</ele>
        <time>2020-07-29T19:09:35Z</time>
      </trkpt>
      <trkpt lat="46.52216" lon="5.74852">
        <ele>580</ele>
        <time>2020-07-29T19:09:40Z</time>
      </trkpt>
      <trkpt lat="46.52205" lon="5.74861">
        <ele>580</ele>
        <time>2020-07-29T19:09:43Z</time>
      </trkpt>
      <trkpt lat="46.52155" lon="5.74886">
        <ele>581</ele>
        <time>2020-07-29T19:09:52Z</time>
      </trkpt>
      <trkpt lat="46.52146" lon="5.74896">
        <ele>581</ele>
        <time>2020-07-29T19:09:54Z</time>
      </trkpt>
      <trkpt lat="46.52138" lon="5.74915">
        <ele>582</ele>
        <time>2020-07-29T19:09:57Z</time>
      </trkpt>
      <trkpt lat="46.52135" lon="5.74949">
        <ele>580</ele>
        <time>2020-07-29T19:10:01Z</time>
      </trkpt>
      <trkpt lat="46.52137" lon="5.74965">
        <ele>580</ele>
        <time>2020-07-29T19:10:03Z</time>
      </trkpt>
      <trkpt lat="46.52143" lon="5.74978">
        <ele>579</ele>
        <time>2020-07-29T19:10:05Z</time>
      </trkpt>
      <trkpt lat="46.52158" lon="5.74995">
        <ele>579</ele>
        <time>2020-07-29T19:10:08Z</time>
      </trkpt>
      <trkpt lat="46.52218" lon="5.75017">
        <ele>581</ele>
        <time>2020-07-29T19:10:19Z</time>
      </trkpt>
      <trkpt lat="46.5223" lon="5.75026">
        <ele>581</ele>
        <time>2020-07-29T19:10:22Z</time>
      </trkpt>
      <trkpt lat="46.52245" lon="5.75043">
        <ele>580</ele>
        <time>2020-07-29T19:10:25Z</time>
      </trkpt>
      <trkpt lat="46.52259" lon="5.75064">
        <ele>579</ele>
        <time>2020-07-29T19:10:29Z</time>
      </trkpt>
      <trkpt lat="46.52268" lon="5.75083">
        <ele>579</ele>
        <time>2020-07-29T19:10:31Z</time>
      </trkpt>
      <trkpt lat="46.52273" lon="5.75103">
        <ele>580</ele>
        <time>2020-07-29T19:10:34Z</time>
      </trkpt>
      <trkpt lat="46.52275" lon="5.75117">
        <ele>580</ele>
        <time>2020-07-29T19:10:36Z</time>
      </trkpt>
      <trkpt lat="46.52268" lon="5.7516">
        <ele>581</ele>
        <time>2020-07-29T19:10:41Z</time>
      </trkpt>
      <trkpt lat="46.5226" lon="5.75184">
        <ele>584</ele>
        <time>2020-07-29T19:10:44Z</time>
      </trkpt>
      <trkpt lat="46.52241" lon="5.75166">
        <ele>584</ele>
        <time>2020-07-29T19:10:49Z</time>
      </trkpt>
      <trkpt lat="46.52222" lon="5.75153">
        <ele>584</ele>
        <time>2020-07-29T19:10:52Z</time>
      </trkpt>
      <trkpt lat="46.52193" lon="5.75136">
        <ele>584</ele>
        <time>2020-07-29T19:10:58Z</time>
      </trkpt>
      <trkpt lat="46.5216" lon="5.75121">
        <ele>584</ele>
        <time>2020-07-29T19:11:04Z</time>
      </trkpt>
      <trkpt lat="46.52133" lon="5.75107">
        <ele>584</ele>
        <time>2020-07-29T19:11:09Z</time>
      </trkpt>
      <trkpt lat="46.5211" lon="5.75089">
        <ele>584</ele>
        <time>2020-07-29T19:11:14Z</time>
      </trkpt>
      <trkpt lat="46.52089" lon="5.75069">
        <ele>583</ele>
        <time>2020-07-29T19:11:18Z</time>
      </trkpt>
      <trkpt lat="46.52049" lon="5.7502">
        <ele>579</ele>
        <time>2020-07-29T19:11:28Z</time>
      </trkpt>
      <trkpt lat="46.5203" lon="5.75">
        <ele>576</ele>
        <time>2020-07-29T19:11:32Z</time>
      </trkpt>
      <trkpt lat="46.52008" lon="5.74981">
        <ele>576</ele>
        <time>2020-07-29T19:11:36Z</time>
      </trkpt>
      <trkpt lat="46.5199" lon="5.74969">
        <ele>575</ele>
        <time>2020-07-29T19:11:40Z</time>
      </trkpt>
      <trkpt lat="46.51968" lon="5.74958">
        <ele>576</ele>
        <time>2020-07-29T19:11:44Z</time>
      </trkpt>
      <trkpt lat="46.51864" lon="5.74918">
        <ele>574</ele>
        <time>2020-07-29T19:12:03Z</time>
      </trkpt>
      <trkpt lat="46.5181" lon="5.749">
        <ele>575</ele>
        <time>2020-07-29T19:12:13Z</time>
      </trkpt>
      <trkpt lat="46.51771" lon="5.74889">
        <ele>577</ele>
        <time>2020-07-29T19:12:20Z</time>
      </trkpt>
      <trkpt lat="46.51748" lon="5.74885">
        <ele>579</ele>
        <time>2020-07-29T19:12:24Z</time>
      </trkpt>
      <trkpt lat="46.51713" lon="5.7488">
        <ele>581</ele>
        <time>2020-07-29T19:12:30Z</time>
      </trkpt>
      <trkpt lat="46.51667" lon="5.7488">
        <ele>585</ele>
        <time>2020-07-29T19:12:39Z</time>
      </trkpt>
      <trkpt lat="46.51624" lon="5.74885">
        <ele>583</ele>
        <time>2020-07-29T19:12:46Z</time>
      </trkpt>
      <trkpt lat="46.51412" lon="5.74947">
        <ele>586</ele>
        <time>2020-07-29T19:13:25Z</time>
      </trkpt>
      <trkpt lat="46.51393" lon="5.74947">
        <ele>588</ele>
        <time>2020-07-29T19:13:28Z</time>
      </trkpt>
      <trkpt lat="46.51375" lon="5.74941">
        <ele>588</ele>
        <time>2020-07-29T19:13:31Z</time>
      </trkpt>
      <trkpt lat="46.51318" lon="5.74911">
        <ele>579</ele>
        <time>2020-07-29T19:13:42Z</time>
      </trkpt>
      <trkpt lat="46.513" lon="5.74906">
        <ele>578</ele>
        <time>2020-07-29T19:13:45Z</time>
      </trkpt>
      <trkpt lat="46.51286" lon="5.74906">
        <ele>578</ele>
        <time>2020-07-29T19:13:48Z</time>
      </trkpt>
      <trkpt lat="46.51269" lon="5.7491">
        <ele>580</ele>
        <time>2020-07-29T19:13:51Z</time>
      </trkpt>
      <trkpt lat="46.51228" lon="5.74927">
        <ele>587</ele>
        <time>2020-07-29T19:13:59Z</time>
      </trkpt>
      <trkpt lat="46.51207" lon="5.7493">
        <ele>588</ele>
        <time>2020-07-29T19:14:02Z</time>
      </trkpt>
      <trkpt lat="46.51146" lon="5.74932">
        <ele>590</ele>
        <time>2020-07-29T19:14:13Z</time>
      </trkpt>
      <trkpt lat="46.51125" lon="5.74929">
        <ele>590</ele>
        <time>2020-07-29T19:14:17Z</time>
      </trkpt>
      <trkpt lat="46.51103" lon="5.74918">
        <ele>587</ele>
        <time>2020-07-29T19:14:21Z</time>
      </trkpt>
      <trkpt lat="46.51059" lon="5.74888">
        <ele>584</ele>
        <time>2020-07-29T19:14:30Z</time>
      </trkpt>
      <trkpt lat="46.51016" lon="5.74862">
        <ele>582</ele>
        <time>2020-07-29T19:14:38Z</time>
      </trkpt>
      <trkpt lat="46.50942" lon="5.74824">
        <ele>581</ele>
        <time>2020-07-29T19:14:52Z</time>
      </trkpt>
      <trkpt lat="46.50921" lon="5.74805">
        <ele>582</ele>
        <time>2020-07-29T19:14:56Z</time>
      </trkpt>
      <trkpt lat="46.50871" lon="5.74753">
        <ele>579</ele>
        <time>2020-07-29T19:15:07Z</time>
      </trkpt>
      <trkpt lat="46.50847" lon="5.74726">
        <ele>579</ele>
        <time>2020-07-29T19:15:13Z</time>
      </trkpt>
      <trkpt lat="46.50835" lon="5.74709">
        <ele>579</ele>
        <time>2020-07-29T19:15:16Z</time>
      </trkpt>
      <trkpt lat="46.50824" lon="5.74689">
        <ele>579</ele>
        <time>2020-07-29T19:15:19Z</time>
      </trkpt>
      <trkpt lat="46.50809" lon="5.74654">
        <ele>579</ele>
        <time>2020-07-29T19:15:24Z</time>
      </trkpt>
      <trkpt lat="46.50701" lon="5.74372">
        <ele>572</ele>
        <time>2020-07-29T19:16:03Z</time>
      </trkpt>
      <trkpt lat="46.5069" lon="5.74351">
        <ele>571</ele>
        <time>2020-07-29T19:16:07Z</time>
      </trkpt>
      <trkpt lat="46.50679" lon="5.74338">
        <ele>570</ele>
        <time>2020-07-29T19:16:09Z</time>
      </trkpt>
      <trkpt lat="46.50669" lon="5.74328">
        <ele>569</ele>
        <time>2020-07-29T19:16:11Z</time>
      </trkpt>
      <trkpt lat="46.50655" lon="5.7432">
        <ele>567</ele>
        <time>2020-07-29T19:16:14Z</time>
      </trkpt>
      <trkpt lat="46.50633" lon="5.74312">
        <ele>565</ele>
        <time>2020-07-29T19:16:18Z</time>
      </trkpt>
      <trkpt lat="46.50558" lon="5.74295">
        <ele>561</ele>
        <time>2020-07-29T19:16:31Z</time>
      </trkpt>
      <trkpt lat="46.50529" lon="5.74283">
        <ele>561</ele>
        <time>2020-07-29T19:16:37Z</time>
      </trkpt>
      <trkpt lat="46.50506" lon="5.74265">
        <ele>560</ele>
        <time>2020-07-29T19:16:42Z</time>
      </trkpt>
      <trkpt lat="46.50498" lon="5.74257">
        <ele>560</ele>
        <time>2020-07-29T19:16:43Z</time>
      </trkpt>
      <trkpt lat="46.5048" lon="5.74229">
        <ele>560</ele>
        <time>2020-07-29T19:16:48Z</time>
      </trkpt>
      <trkpt lat="46.50469" lon="5.74207">
        <ele>560</ele>
        <time>2020-07-29T19:16:51Z</time>
      </trkpt>
      <trkpt lat="46.50376" lon="5.73908">
        <ele>553</ele>
        <time>2020-07-29T19:17:31Z</time>
      </trkpt>
      <trkpt lat="46.50346" lon="5.73801">
        <ele>552</ele>
        <time>2020-07-29T19:17:46Z</time>
      </trkpt>
      <trkpt lat="46.50298" lon="5.73607">
        <ele>566</ele>
        <time>2020-07-29T19:18:11Z</time>
      </trkpt>
      <trkpt lat="46.50239" lon="5.73408">
        <ele>570</ele>
        <time>2020-07-29T19:18:37Z</time>
      </trkpt>
      <trkpt lat="46.50231" lon="5.73371">
        <ele>572</ele>
        <time>2020-07-29T19:18:42Z</time>
      </trkpt>
      <trkpt lat="46.50228" lon="5.73352">
        <ele>573</ele>
        <time>2020-07-29T19:18:45Z</time>
      </trkpt>
      <trkpt lat="46.50217" lon="5.73163">
        <ele>578</ele>
        <time>2020-07-29T19:19:08Z</time>
      </trkpt>
      <trkpt lat="46.50212" lon="5.73122">
        <ele>577</ele>
        <time>2020-07-29T19:19:13Z</time>
      </trkpt>
      <trkpt lat="46.50207" lon="5.73094">
        <ele>577</ele>
        <time>2020-07-29T19:19:16Z</time>
      </trkpt>
      <trkpt lat="46.50197" lon="5.73065">
        <ele>578</ele>
        <time>2020-07-29T19:19:20Z</time>
      </trkpt>
      <trkpt lat="46.50188" lon="5.73043">
        <ele>578</ele>
        <time>2020-07-29T19:19:23Z</time>
      </trkpt>
      <trkpt lat="46.50175" lon="5.73017">
        <ele>579</ele>
        <time>2020-07-29T19:19:27Z</time>
      </trkpt>
      <trkpt lat="46.50163" lon="5.72998">
        <ele>579</ele>
        <time>2020-07-29T19:19:31Z</time>
      </trkpt>
      <trkpt lat="46.49953" lon="5.72734">
        <ele>585</ele>
        <time>2020-07-29T19:20:20Z</time>
      </trkpt>
      <trkpt lat="46.49913" lon="5.72688">
        <ele>586</ele>
        <time>2020-07-29T19:20:29Z</time>
      </trkpt>
      <trkpt lat="46.49884" lon="5.7266">
        <ele>586</ele>
        <time>2020-07-29T19:20:35Z</time>
      </trkpt>
      <trkpt lat="46.49881" lon="5.72654">
        <ele>586</ele>
        <time>2020-07-29T19:20:36Z</time>
      </trkpt>
    </trkseg>
  </trk>
  <trk>
    <name><![CDATA[11575631-Clairveaux 88Km_2]]></name>
    <extensions>
      <line xmlns="http://www.topografix.com/GPX/gpx_style/0/2">
        <color>ff00d0</color>
        <width>4</width>
      </line>
    </extensions>
    <trkseg>
      <trkpt lat="46.41546" lon="5.73096">
        <ele>644.8</ele>
      </trkpt>
      <trkpt lat="46.41546" lon="5.73087">
        <ele>645.1</ele>
      </trkpt>
      <trkpt lat="46.41552" lon="5.73089">
        <ele>646</ele>
      </trkpt>
      <trkpt lat="46.4156" lon="5.73096">
        <ele>647.3</ele>
      </trkpt>
      <trkpt lat="46.41583" lon="5.73122">
        <ele>650.2</ele>
      </trkpt>
      <trkpt lat="46.41599" lon="5.73136">
        <ele>651.2</ele>
      </trkpt>
      <trkpt lat="46.41682" lon="5.73272">
        <ele>649.5</ele>
      </trkpt>
      <trkpt lat="46.4173" lon="5.73355">
        <ele>653.7</ele>
      </trkpt>
      <trkpt lat="46.41755" lon="5.73392">
        <ele>655.6</ele>
      </trkpt>
      <trkpt lat="46.41775" lon="5.73413">
        <ele>656.2</ele>
      </trkpt>
      <trkpt lat="46.41786" lon="5.7342">
        <ele>655.7</ele>
      </trkpt>
      <trkpt lat="46.41836" lon="5.73442">
        <ele>656.1</ele>
      </trkpt>
      <trkpt lat="46.41866" lon="5.73459">
        <ele>657.8</ele>
      </trkpt>
      <trkpt lat="46.41881" lon="5.7347">
        <ele>658.5</ele>
      </trkpt>
      <trkpt lat="46.41895" lon="5.73488">
        <ele>659.2</ele>
      </trkpt>
      <trkpt lat="46.41905" lon="5.73506">
        <ele>659.2</ele>
      </trkpt>
      <trkpt lat="46.41912" lon="5.73526">
        <ele>658.7</ele>
      </trkpt>
      <trkpt lat="46.41915" lon="5.73546">
        <ele>659.2</ele>
      </trkpt>
      <trkpt lat="46.41945" lon="5.73547">
        <ele>663.1</ele>
      </trkpt>
      <trkpt lat="46.41959" lon="5.73539">
        <ele>664.8</ele>
      </trkpt>
      <trkpt lat="46.41968" lon="5.73528">
        <ele>665.6</ele>
      </trkpt>
      <trkpt lat="46.41975" lon="5.73531">
        <ele>666.2</ele>
      </trkpt>
      <trkpt lat="46.41985" lon="5.73544">
        <ele>667</ele>
      </trkpt>
      <trkpt lat="46.41991" lon="5.73561">
        <ele>667.6</ele>
      </trkpt>
      <trkpt lat="46.41995" lon="5.73583">
        <ele>667.6</ele>
      </trkpt>
      <trkpt lat="46.42006" lon="5.73649">
        <ele>670</ele>
      </trkpt>
      <trkpt lat="46.42025" lon="5.73726">
        <ele>676.7</ele>
      </trkpt>
      <trkpt lat="46.42038" lon="5.73753">
        <ele>679.2</ele>
      </trkpt>
      <trkpt lat="46.42041" lon="5.73765">
        <ele>680.2</ele>
      </trkpt>
      <trkpt lat="46.42044" lon="5.738">
        <ele>681.4</ele>
      </trkpt>
      <trkpt lat="46.42051" lon="5.73811">
        <ele>683.8</ele>
      </trkpt>
      <trkpt lat="46.42123" lon="5.7389">
        <ele>695.3</ele>
      </trkpt>
      <trkpt lat="46.42161" lon="5.73918">
        <ele>701.2</ele>
      </trkpt>
      <trkpt lat="46.42252" lon="5.74032">
        <ele>712.3</ele>
      </trkpt>
      <trkpt lat="46.4227" lon="5.74051">
        <ele>711.8</ele>
      </trkpt>
      <trkpt lat="46.42283" lon="5.74072">
        <ele>712.9</ele>
      </trkpt>
      <trkpt lat="46.4229" lon="5.74091">
        <ele>713.1</ele>
      </trkpt>
      <trkpt lat="46.42297" lon="5.74121">
        <ele>713.4</ele>
      </trkpt>
      <trkpt lat="46.42302" lon="5.74133">
        <ele>714.4</ele>
      </trkpt>
      <trkpt lat="46.42325" lon="5.74177">
        <ele>715.1</ele>
      </trkpt>
      <trkpt lat="46.42334" lon="5.74189">
        <ele>716.1</ele>
      </trkpt>
      <trkpt lat="46.42362" lon="5.74208">
        <ele>718.1</ele>
      </trkpt>
      <trkpt lat="46.424" lon="5.74229">
        <ele>720.5</ele>
      </trkpt>
      <trkpt lat="46.42427" lon="5.74255">
        <ele>723</ele>
      </trkpt>
      <trkpt lat="46.42436" lon="5.74261">
        <ele>723.9</ele>
      </trkpt>
      <trkpt lat="46.42451" lon="5.74269">
        <ele>725</ele>
      </trkpt>
      <trkpt lat="46.42469" lon="5.74285">
        <ele>725.7</ele>
      </trkpt>
      <trkpt lat="46.42515" lon="5.74345">
        <ele>726</ele>
      </trkpt>
      <trkpt lat="46.42522" lon="5.74357">
        <ele>726</ele>
      </trkpt>
      <trkpt lat="46.42536" lon="5.74394">
        <ele>726.3</ele>
      </trkpt>
      <trkpt lat="46.42543" lon="5.74408">
        <ele>726.5</ele>
      </trkpt>
      <trkpt lat="46.42549" lon="5.74416">
        <ele>726.8</ele>
      </trkpt>
      <trkpt lat="46.42587" lon="5.74433">
        <ele>726.8</ele>
      </trkpt>
      <trkpt lat="46.42608" lon="5.74447">
        <ele>728.4</ele>
        <extensions>
          <visugpx:TrkExtension xmlns:visugpx="https://www.visugpx.com/editgpx/">
            <visugpx:node>1</visugpx:node>
            </visugpx:TrkExtension>
        </extensions>
      </trkpt>
      <trkpt lat="46.42629" lon="5.74461">
        <ele>729.2</ele>
      </trkpt>
      <trkpt lat="46.42648" lon="5.74491">
        <ele>730.8</ele>
      </trkpt>
      <trkpt lat="46.42652" lon="5.74503">
        <ele>730.9</ele>
      </trkpt>
      <trkpt lat="46.42645" lon="5.74534">
        <ele>730.4</ele>
      </trkpt>
      <trkpt lat="46.42652" lon="5.74535">
        <ele>730.7</ele>
      </trkpt>
      <trkpt lat="46.42656" lon="5.7455">
        <ele>731.4</ele>
      </trkpt>
      <trkpt lat="46.42663" lon="5.74558">
        <ele>732.1</ele>
      </trkpt>
      <trkpt lat="46.42671" lon="5.74574">
        <ele>733.1</ele>
      </trkpt>
      <trkpt lat="46.42673" lon="5.746">
        <ele>734.7</ele>
      </trkpt>
      <trkpt lat="46.42671" lon="5.74623">
        <ele>736.5</ele>
      </trkpt>
      <trkpt lat="46.42673" lon="5.74644">
        <ele>737.9</ele>
      </trkpt>
      <trkpt lat="46.42688" lon="5.74682">
        <ele>740.5</ele>
      </trkpt>
      <trkpt lat="46.42688" lon="5.7471">
        <ele>742.9</ele>
      </trkpt>
      <trkpt lat="46.42691" lon="5.74735">
        <ele>745.5</ele>
      </trkpt>
      <trkpt lat="46.42697" lon="5.74744">
        <ele>746.3</ele>
      </trkpt>
      <trkpt lat="46.42696" lon="5.74755">
        <ele>747.7</ele>
      </trkpt>
      <trkpt lat="46.42694" lon="5.74762">
        <ele>748.4</ele>
      </trkpt>
      <trkpt lat="46.42683" lon="5.7479">
        <ele>753.5</ele>
      </trkpt>
      <trkpt lat="46.42672" lon="5.74806">
        <ele>756.7</ele>
      </trkpt>
      <trkpt lat="46.42658" lon="5.74812">
        <ele>757.4</ele>
      </trkpt>
      <trkpt lat="46.42638" lon="5.74815">
        <ele>755.7</ele>
      </trkpt>
      <trkpt lat="46.42638" lon="5.74838">
        <ele>759.6</ele>
      </trkpt>
      <trkpt lat="46.42643" lon="5.74851">
        <ele>761.9</ele>
      </trkpt>
      <trkpt lat="46.42667" lon="5.74861">
        <ele>765</ele>
      </trkpt>
      <trkpt lat="46.427" lon="5.74886">
        <ele>768.7</ele>
      </trkpt>
      <trkpt lat="46.4271" lon="5.74907">
        <ele>772.7</ele>
      </trkpt>
      <trkpt lat="46.42724" lon="5.74922">
        <ele>772.6</ele>
      </trkpt>
      <trkpt lat="46.42734" lon="5.74949">
        <ele>775.4</ele>
      </trkpt>
      <trkpt lat="46.42748" lon="5.7497">
        <ele>777.9</ele>
      </trkpt>
      <trkpt lat="46.42779" lon="5.74991">
        <ele>779.9</ele>
      </trkpt>
      <trkpt lat="46.42792" lon="5.75009">
        <ele>782.4</ele>
      </trkpt>
      <trkpt lat="46.42806" lon="5.75042">
        <ele>785.5</ele>
      </trkpt>
      <trkpt lat="46.42813" lon="5.75055">
        <ele>786.9</ele>
      </trkpt>
      <trkpt lat="46.42821" lon="5.7508">
        <ele>789.9</ele>
      </trkpt>
      <trkpt lat="46.42826" lon="5.75091">
        <ele>790.3</ele>
      </trkpt>
      <trkpt lat="46.42833" lon="5.75117">
        <ele>790.3</ele>
      </trkpt>
      <trkpt lat="46.42832" lon="5.75144">
        <ele>791.3</ele>
      </trkpt>
      <trkpt lat="46.42829" lon="5.75157">
        <ele>791.9</ele>
      </trkpt>
      <trkpt lat="46.42821" lon="5.75177">
        <ele>794.6</ele>
      </trkpt>
      <trkpt lat="46.42832" lon="5.75191">
        <ele>794.9</ele>
      </trkpt>
      <trkpt lat="46.42839" lon="5.75198">
        <ele>796</ele>
      </trkpt>
      <trkpt lat="46.42854" lon="5.75204">
        <ele>797.3</ele>
      </trkpt>
      <trkpt lat="46.4286" lon="5.75214">
        <ele>797.8</ele>
      </trkpt>
      <trkpt lat="46.4288" lon="5.75234">
        <ele>801</ele>
      </trkpt>
      <trkpt lat="46.42883" lon="5.75266">
        <ele>803.2</ele>
      </trkpt>
      <trkpt lat="46.429" lon="5.75282">
        <ele>803.2</ele>
      </trkpt>
      <trkpt lat="46.42907" lon="5.75309">
        <ele>804.6</ele>
      </trkpt>
      <trkpt lat="46.4292" lon="5.75308">
        <ele>804.7</ele>
      </trkpt>
      <trkpt lat="46.42971" lon="5.75324">
        <ele>810.7</ele>
      </trkpt>
      <trkpt lat="46.43" lon="5.75319">
        <ele>811.4</ele>
      </trkpt>
      <trkpt lat="46.43015" lon="5.75326">
        <ele>810.3</ele>
      </trkpt>
      <trkpt lat="46.43031" lon="5.75336">
        <ele>808.8</ele>
      </trkpt>
      <trkpt lat="46.43045" lon="5.75341">
        <ele>809.6</ele>
      </trkpt>
      <trkpt lat="46.43062" lon="5.75342">
        <ele>807.6</ele>
      </trkpt>
      <trkpt lat="46.43125" lon="5.7533">
        <ele>795.9</ele>
      </trkpt>
      <trkpt lat="46.43162" lon="5.75338">
        <ele>793.5</ele>
      </trkpt>
      <trkpt lat="46.43174" lon="5.75332">
        <ele>791.7</ele>
      </trkpt>
      <trkpt lat="46.4318" lon="5.75325">
        <ele>791.2</ele>
      </trkpt>
      <trkpt lat="46.43184" lon="5.75338">
        <ele>792.1</ele>
      </trkpt>
      <trkpt lat="46.43208" lon="5.75373">
        <ele>795.7</ele>
      </trkpt>
      <trkpt lat="46.43215" lon="5.75381">
        <ele>796.5</ele>
      </trkpt>
      <trkpt lat="46.43243" lon="5.75398">
        <ele>798.1</ele>
      </trkpt>
      <trkpt lat="46.43251" lon="5.75411">
        <ele>799.3</ele>
      </trkpt>
      <trkpt lat="46.43272" lon="5.75522">
        <ele>808</ele>
      </trkpt>
      <trkpt lat="46.43274" lon="5.7554">
        <ele>809.1</ele>
      </trkpt>
      <trkpt lat="46.43274" lon="5.75581">
        <ele>810.9</ele>
      </trkpt>
      <trkpt lat="46.43278" lon="5.75594">
        <ele>810.6</ele>
      </trkpt>
      <trkpt lat="46.43283" lon="5.75602">
        <ele>810.8</ele>
      </trkpt>
      <trkpt lat="46.43289" lon="5.75611">
        <ele>810.4</ele>
      </trkpt>
      <trkpt lat="46.43326" lon="5.7562">
        <ele>813.2</ele>
      </trkpt>
      <trkpt lat="46.43366" lon="5.75653">
        <ele>814.9</ele>
      </trkpt>
      <trkpt lat="46.43378" lon="5.7567">
        <ele>815.1</ele>
      </trkpt>
      <trkpt lat="46.43388" lon="5.75706">
        <ele>813.2</ele>
      </trkpt>
      <trkpt lat="46.43398" lon="5.75722">
        <ele>812.7</ele>
      </trkpt>
      <trkpt lat="46.43415" lon="5.75742">
        <ele>813.1</ele>
      </trkpt>
      <trkpt lat="46.43473" lon="5.75797">
        <ele>812.2</ele>
      </trkpt>
      <trkpt lat="46.43485" lon="5.75813">
        <ele>815.1</ele>
      </trkpt>
      <trkpt lat="46.43494" lon="5.75829">
        <ele>815.9</ele>
      </trkpt>
      <trkpt lat="46.43512" lon="5.75874">
        <ele>817.9</ele>
      </trkpt>
      <trkpt lat="46.43515" lon="5.75887">
        <ele>818.6</ele>
      </trkpt>
      <trkpt lat="46.43516" lon="5.75909">
        <ele>820.2</ele>
      </trkpt>
      <trkpt lat="46.43513" lon="5.75952">
        <ele>822.1</ele>
      </trkpt>
      <trkpt lat="46.43515" lon="5.75962">
        <ele>821.6</ele>
      </trkpt>
      <trkpt lat="46.43525" lon="5.75982">
        <ele>821.4</ele>
      </trkpt>
      <trkpt lat="46.43533" lon="5.7599">
        <ele>821.8</ele>
      </trkpt>
      <trkpt lat="46.43563" lon="5.76007">
        <ele>821.6</ele>
      </trkpt>
      <trkpt lat="46.43581" lon="5.76012">
        <ele>823</ele>
      </trkpt>
      <trkpt lat="46.43598" lon="5.76013">
        <ele>823.9</ele>
      </trkpt>
      <trkpt lat="46.43609" lon="5.76017">
        <ele>824</ele>
      </trkpt>
      <trkpt lat="46.43617" lon="5.76024">
        <ele>824</ele>
      </trkpt>
      <trkpt lat="46.43621" lon="5.7603">
        <ele>824</ele>
      </trkpt>
      <trkpt lat="46.43624" lon="5.76046">
        <ele>823.8</ele>
      </trkpt>
      <trkpt lat="46.43625" lon="5.76068">
        <ele>823.1</ele>
      </trkpt>
      <trkpt lat="46.43613" lon="5.7618">
        <ele>825.2</ele>
      </trkpt>
      <trkpt lat="46.43607" lon="5.76207">
        <ele>827.7</ele>
      </trkpt>
      <trkpt lat="46.43597" lon="5.76234">
        <ele>831.7</ele>
      </trkpt>
      <trkpt lat="46.43593" lon="5.76256">
        <ele>832.7</ele>
      </trkpt>
      <trkpt lat="46.43595" lon="5.7628">
        <ele>833.2</ele>
      </trkpt>
      <trkpt lat="46.43601" lon="5.76302">
        <ele>834.7</ele>
      </trkpt>
      <trkpt lat="46.43611" lon="5.7633">
        <ele>833.3</ele>
      </trkpt>
      <trkpt lat="46.43622" lon="5.76342">
        <ele>833.3</ele>
      </trkpt>
      <trkpt lat="46.4363" lon="5.76346">
        <ele>833.2</ele>
      </trkpt>
      <trkpt lat="46.43646" lon="5.76347">
        <ele>833.5</ele>
      </trkpt>
      <trkpt lat="46.43664" lon="5.76356">
        <ele>834.7</ele>
      </trkpt>
      <trkpt lat="46.43672" lon="5.76366">
        <ele>835.8</ele>
      </trkpt>
      <trkpt lat="46.43676" lon="5.76378">
        <ele>836.3</ele>
      </trkpt>
      <trkpt lat="46.43684" lon="5.76392">
        <ele>836.7</ele>
      </trkpt>
      <trkpt lat="46.4369" lon="5.76399">
        <ele>837</ele>
      </trkpt>
      <trkpt lat="46.43697" lon="5.76405">
        <ele>837</ele>
      </trkpt>
      <trkpt lat="46.43735" lon="5.7642">
        <ele>836.3</ele>
      </trkpt>
      <trkpt lat="46.43746" lon="5.76425">
        <ele>836.3</ele>
      </trkpt>
      <trkpt lat="46.43816" lon="5.76427">
        <ele>839</ele>
      </trkpt>
      <trkpt lat="46.43854" lon="5.76421">
        <ele>840.5</ele>
      </trkpt>
      <trkpt lat="46.43872" lon="5.76421">
        <ele>842</ele>
      </trkpt>
      <trkpt lat="46.4389" lon="5.76423">
        <ele>844</ele>
      </trkpt>
      <trkpt lat="46.43924" lon="5.76441">
        <ele>842.4</ele>
      </trkpt>
      <trkpt lat="46.43944" lon="5.76447">
        <ele>841.6</ele>
      </trkpt>
      <trkpt lat="46.43966" lon="5.7645">
        <ele>840.3</ele>
      </trkpt>
      <trkpt lat="46.44004" lon="5.76449">
        <ele>839.3</ele>
      </trkpt>
      <trkpt lat="46.44045" lon="5.76442">
        <ele>838.5</ele>
      </trkpt>
      <trkpt lat="46.44095" lon="5.7645">
        <ele>836.4</ele>
      </trkpt>
      <trkpt lat="46.44109" lon="5.76458">
        <ele>835.9</ele>
      </trkpt>
      <trkpt lat="46.44162" lon="5.7651">
        <ele>833.3</ele>
      </trkpt>
      <trkpt lat="46.44201" lon="5.76564">
        <ele>829.3</ele>
      </trkpt>
      <trkpt lat="46.44221" lon="5.76597">
        <ele>828.9</ele>
      </trkpt>
      <trkpt lat="46.44285" lon="5.76736">
        <ele>822.4</ele>
      </trkpt>
      <trkpt lat="46.44295" lon="5.76758">
        <ele>822</ele>
      </trkpt>
      <trkpt lat="46.44351" lon="5.76882">
        <ele>824.7</ele>
      </trkpt>
      <trkpt lat="46.44355" lon="5.76898">
        <ele>826.8</ele>
      </trkpt>
      <trkpt lat="46.44357" lon="5.76916">
        <ele>828.8</ele>
      </trkpt>
      <trkpt lat="46.44357" lon="5.7695">
        <ele>830.1</ele>
      </trkpt>
      <trkpt lat="46.44353" lon="5.77009">
        <ele>831.4</ele>
      </trkpt>
      <trkpt lat="46.44355" lon="5.77024">
        <ele>832.7</ele>
      </trkpt>
      <trkpt lat="46.44373" lon="5.7708">
        <ele>833.1</ele>
      </trkpt>
      <trkpt lat="46.44395" lon="5.77134">
        <ele>833.3</ele>
      </trkpt>
      <trkpt lat="46.44403" lon="5.7717">
        <ele>833</ele>
      </trkpt>
      <trkpt lat="46.44404" lon="5.77183">
        <ele>835.2</ele>
      </trkpt>
      <trkpt lat="46.44401" lon="5.77201">
        <ele>836.6</ele>
      </trkpt>
      <trkpt lat="46.44386" lon="5.77263">
        <ele>839.5</ele>
      </trkpt>
      <trkpt lat="46.44364" lon="5.77351">
        <ele>843.2</ele>
      </trkpt>
      <trkpt lat="46.44345" lon="5.77409">
        <ele>845.9</ele>
      </trkpt>
      <trkpt lat="46.44341" lon="5.77428">
        <ele>846.7</ele>
      </trkpt>
      <trkpt lat="46.44339" lon="5.77457">
        <ele>847.8</ele>
      </trkpt>
      <trkpt lat="46.44339" lon="5.7748">
        <ele>848.7</ele>
      </trkpt>
      <trkpt lat="46.44342" lon="5.77499">
        <ele>849</ele>
      </trkpt>
      <trkpt lat="46.44359" lon="5.77567">
        <ele>849</ele>
      </trkpt>
      <trkpt lat="46.44367" lon="5.77593">
        <ele>849</ele>
      </trkpt>
      <trkpt lat="46.44382" lon="5.77621">
        <ele>849.1</ele>
      </trkpt>
      <trkpt lat="46.44429" lon="5.7769">
        <ele>851.7</ele>
      </trkpt>
      <trkpt lat="46.44447" lon="5.77724">
        <ele>851</ele>
      </trkpt>
      <trkpt lat="46.4446" lon="5.77737">
        <ele>850.9</ele>
      </trkpt>
      <trkpt lat="46.44491" lon="5.77761">
        <ele>851.6</ele>
      </trkpt>
      <trkpt lat="46.44527" lon="5.77776">
        <ele>855</ele>
      </trkpt>
      <trkpt lat="46.44588" lon="5.77807">
        <ele>855.9</ele>
      </trkpt>
      <trkpt lat="46.4461" lon="5.77815">
        <ele>855.1</ele>
      </trkpt>
      <trkpt lat="46.44636" lon="5.77821">
        <ele>854.5</ele>
      </trkpt>
      <trkpt lat="46.44704" lon="5.77845">
        <ele>856.6</ele>
      </trkpt>
      <trkpt lat="46.44749" lon="5.77869">
        <ele>851.9</ele>
      </trkpt>
      <trkpt lat="46.44801" lon="5.77911">
        <ele>848.6</ele>
      </trkpt>
      <trkpt lat="46.44811" lon="5.77917">
        <ele>847.7</ele>
      </trkpt>
      <trkpt lat="46.44832" lon="5.77923">
        <ele>845.9</ele>
      </trkpt>
      <trkpt lat="46.44885" lon="5.77928">
        <ele>843.3</ele>
      </trkpt>
      <trkpt lat="46.449" lon="5.77928">
        <ele>843.1</ele>
      </trkpt>
      <trkpt lat="46.44932" lon="5.77928">
        <ele>839.7</ele>
      </trkpt>
      <trkpt lat="46.44953" lon="5.77929">
        <ele>838.3</ele>
      </trkpt>
      <trkpt lat="46.44964" lon="5.77927">
        <ele>839.7</ele>
      </trkpt>
      <trkpt lat="46.44986" lon="5.77917">
        <ele>841.5</ele>
      </trkpt>
      <trkpt lat="46.45005" lon="5.77902">
        <ele>841.2</ele>
      </trkpt>
      <trkpt lat="46.45051" lon="5.77871">
        <ele>844.7</ele>
      </trkpt>
      <trkpt lat="46.45075" lon="5.77857">
        <ele>843.4</ele>
      </trkpt>
      <trkpt lat="46.45085" lon="5.77856">
        <ele>844.2</ele>
      </trkpt>
      <trkpt lat="46.451" lon="5.77862">
        <ele>845.7</ele>
      </trkpt>
      <trkpt lat="46.45131" lon="5.7788">
        <ele>845.5</ele>
      </trkpt>
      <trkpt lat="46.45158" lon="5.77907">
        <ele>847.4</ele>
      </trkpt>
      <trkpt lat="46.45178" lon="5.77931">
        <ele>848.1</ele>
      </trkpt>
      <trkpt lat="46.45185" lon="5.77946">
        <ele>847.8</ele>
      </trkpt>
      <trkpt lat="46.45189" lon="5.77962">
        <ele>848.1</ele>
      </trkpt>
      <trkpt lat="46.4519" lon="5.77976">
        <ele>848</ele>
      </trkpt>
      <trkpt lat="46.45189" lon="5.77996">
        <ele>847.3</ele>
      </trkpt>
      <trkpt lat="46.45171" lon="5.7807">
        <ele>848.5</ele>
      </trkpt>
      <trkpt lat="46.45172" lon="5.78081">
        <ele>848.4</ele>
      </trkpt>
      <trkpt lat="46.45174" lon="5.7809">
        <ele>847.7</ele>
        <extensions>
          <visugpx:TrkExtension xmlns:visugpx="https://www.visugpx.com/editgpx/">
            <visugpx:node>2</visugpx:node>
            </visugpx:TrkExtension>
        </extensions>
      </trkpt>
      <trkpt lat="46.45205" lon="5.78264">
        <ele>852.3</ele>
      </trkpt>
      <trkpt lat="46.45229" lon="5.78351">
        <ele>854.7</ele>
      </trkpt>
      <trkpt lat="46.45232" lon="5.78357">
        <ele>855</ele>
      </trkpt>
      <trkpt lat="46.45241" lon="5.78365">
        <ele>855.5</ele>
      </trkpt>
      <trkpt lat="46.45248" lon="5.78367">
        <ele>856</ele>
      </trkpt>
      <trkpt lat="46.45257" lon="5.78367">
        <ele>856.1</ele>
      </trkpt>
      <trkpt lat="46.45275" lon="5.7836">
        <ele>855</ele>
      </trkpt>
      <trkpt lat="46.45285" lon="5.78377">
        <ele>857.1</ele>
      </trkpt>
      <trkpt lat="46.453" lon="5.78391">
        <ele>858.7</ele>
      </trkpt>
      <trkpt lat="46.45316" lon="5.78395">
        <ele>859.4</ele>
      </trkpt>
      <trkpt lat="46.45328" lon="5.78394">
        <ele>859.8</ele>
      </trkpt>
      <trkpt lat="46.45366" lon="5.78383">
        <ele>862.1</ele>
      </trkpt>
      <trkpt lat="46.45377" lon="5.78382">
        <ele>862.6</ele>
      </trkpt>
      <trkpt lat="46.45391" lon="5.78385">
        <ele>862.7</ele>
      </trkpt>
      <trkpt lat="46.45443" lon="5.78404">
        <ele>860.6</ele>
      </trkpt>
      <trkpt lat="46.45459" lon="5.78407">
        <ele>863.2</ele>
      </trkpt>
      <trkpt lat="46.45475" lon="5.78405">
        <ele>865.3</ele>
      </trkpt>
      <trkpt lat="46.4556" lon="5.78389">
        <ele>868.2</ele>
      </trkpt>
      <trkpt lat="46.45615" lon="5.78356">
        <ele>870.5</ele>
      </trkpt>
      <trkpt lat="46.45632" lon="5.7834">
        <ele>872</ele>
      </trkpt>
      <trkpt lat="46.45646" lon="5.78336">
        <ele>872.2</ele>
      </trkpt>
      <trkpt lat="46.45663" lon="5.78338">
        <ele>871.6</ele>
      </trkpt>
      <trkpt lat="46.45677" lon="5.78343">
        <ele>869.7</ele>
      </trkpt>
      <trkpt lat="46.45745" lon="5.78396">
        <ele>865.7</ele>
      </trkpt>
      <trkpt lat="46.45752" lon="5.7839">
        <ele>863.9</ele>
      </trkpt>
      <trkpt lat="46.45758" lon="5.78376">
        <ele>863</ele>
      </trkpt>
      <trkpt lat="46.45775" lon="5.78355">
        <ele>860</ele>
      </trkpt>
      <trkpt lat="46.45791" lon="5.78342">
        <ele>861.2</ele>
      </trkpt>
      <trkpt lat="46.45825" lon="5.78329">
        <ele>860.6</ele>
      </trkpt>
      <trkpt lat="46.45835" lon="5.78323">
        <ele>860.3</ele>
      </trkpt>
      <trkpt lat="46.45854" lon="5.78306">
        <ele>861.2</ele>
      </trkpt>
      <trkpt lat="46.4588" lon="5.78238">
        <ele>847.5</ele>
      </trkpt>
      <trkpt lat="46.45894" lon="5.78222">
        <ele>846.2</ele>
      </trkpt>
      <trkpt lat="46.45931" lon="5.78152">
        <ele>852.4</ele>
      </trkpt>
      <trkpt lat="46.45971" lon="5.7806">
        <ele>852.3</ele>
      </trkpt>
      <trkpt lat="46.46013" lon="5.77979">
        <ele>846.7</ele>
      </trkpt>
      <trkpt lat="46.46022" lon="5.77953">
        <ele>842.8</ele>
      </trkpt>
      <trkpt lat="46.46051" lon="5.77924">
        <ele>838</ele>
      </trkpt>
      <trkpt lat="46.46111" lon="5.77832">
        <ele>831</ele>
      </trkpt>
      <trkpt lat="46.4618" lon="5.77708">
        <ele>832.5</ele>
      </trkpt>
      <trkpt lat="46.46202" lon="5.77675">
        <ele>829.1</ele>
      </trkpt>
      <trkpt lat="46.46229" lon="5.77646">
        <ele>832.2</ele>
      </trkpt>
      <trkpt lat="46.46245" lon="5.77616">
        <ele>831.5</ele>
      </trkpt>
      <trkpt lat="46.46257" lon="5.77577">
        <ele>829.6</ele>
      </trkpt>
      <trkpt lat="46.46278" lon="5.7755">
        <ele>829.2</ele>
      </trkpt>
      <trkpt lat="46.46286" lon="5.77542">
        <ele>829.4</ele>
      </trkpt>
      <trkpt lat="46.46297" lon="5.77536">
        <ele>828.9</ele>
      </trkpt>
      <trkpt lat="46.4632" lon="5.77548">
        <ele>829.7</ele>
      </trkpt>
      <trkpt lat="46.4634" lon="5.77562">
        <ele>831.9</ele>
      </trkpt>
      <trkpt lat="46.46348" lon="5.77564">
        <ele>833.7</ele>
      </trkpt>
      <trkpt lat="46.46366" lon="5.7756">
        <ele>835.3</ele>
      </trkpt>
      <trkpt lat="46.46387" lon="5.7756">
        <ele>835.9</ele>
      </trkpt>
      <trkpt lat="46.46409" lon="5.77564">
        <ele>838</ele>
      </trkpt>
      <trkpt lat="46.46437" lon="5.77551">
        <ele>838.6</ele>
      </trkpt>
      <trkpt lat="46.46446" lon="5.77555">
        <ele>840.1</ele>
      </trkpt>
      <trkpt lat="46.46455" lon="5.77552">
        <ele>840.3</ele>
      </trkpt>
      <trkpt lat="46.46465" lon="5.77541">
        <ele>839.5</ele>
      </trkpt>
      <trkpt lat="46.46474" lon="5.7754">
        <ele>839.6</ele>
      </trkpt>
      <trkpt lat="46.46489" lon="5.77541">
        <ele>838.1</ele>
      </trkpt>
      <trkpt lat="46.465" lon="5.77545">
        <ele>837.2</ele>
      </trkpt>
      <trkpt lat="46.46522" lon="5.77563">
        <ele>838.2</ele>
      </trkpt>
      <trkpt lat="46.46547" lon="5.77577">
        <ele>838.2</ele>
      </trkpt>
      <trkpt lat="46.46558" lon="5.77577">
        <ele>838.5</ele>
      </trkpt>
      <trkpt lat="46.46573" lon="5.77572">
        <ele>840.1</ele>
      </trkpt>
      <trkpt lat="46.46599" lon="5.77572">
        <ele>841.7</ele>
      </trkpt>
      <trkpt lat="46.46616" lon="5.77567">
        <ele>841.6</ele>
      </trkpt>
      <trkpt lat="46.46636" lon="5.7765">
        <ele>841.4</ele>
      </trkpt>
      <trkpt lat="46.46641" lon="5.77678">
        <ele>841.9</ele>
      </trkpt>
      <trkpt lat="46.46643" lon="5.77695">
        <ele>842.1</ele>
      </trkpt>
      <trkpt lat="46.46643" lon="5.77712">
        <ele>841.5</ele>
      </trkpt>
      <trkpt lat="46.4664" lon="5.7773">
        <ele>841.5</ele>
      </trkpt>
      <trkpt lat="46.46636" lon="5.77747">
        <ele>841.5</ele>
      </trkpt>
      <trkpt lat="46.46617" lon="5.77789">
        <ele>844.2</ele>
      </trkpt>
      <trkpt lat="46.466" lon="5.77824">
        <ele>844</ele>
      </trkpt>
      <trkpt lat="46.46576" lon="5.77884">
        <ele>843.1</ele>
      </trkpt>
      <trkpt lat="46.4656" lon="5.77919">
        <ele>843.7</ele>
      </trkpt>
      <trkpt lat="46.46529" lon="5.77984">
        <ele>844.1</ele>
      </trkpt>
      <trkpt lat="46.46523" lon="5.78003">
        <ele>846.4</ele>
      </trkpt>
      <trkpt lat="46.46516" lon="5.78042">
        <ele>845.7</ele>
      </trkpt>
      <trkpt lat="46.4651" lon="5.78063">
        <ele>845.8</ele>
      </trkpt>
      <trkpt lat="46.465" lon="5.78083">
        <ele>844.1</ele>
      </trkpt>
      <trkpt lat="46.46492" lon="5.78097">
        <ele>847.3</ele>
      </trkpt>
      <trkpt lat="46.46453" lon="5.78149">
        <ele>850.3</ele>
      </trkpt>
      <trkpt lat="46.46443" lon="5.78166">
        <ele>846.5</ele>
      </trkpt>
      <trkpt lat="46.46435" lon="5.78184">
        <ele>849.2</ele>
      </trkpt>
      <trkpt lat="46.4641" lon="5.78267">
        <ele>849</ele>
      </trkpt>
      <trkpt lat="46.46404" lon="5.78281">
        <ele>852</ele>
      </trkpt>
      <trkpt lat="46.46396" lon="5.78296">
        <ele>852.5</ele>
      </trkpt>
      <trkpt lat="46.46353" lon="5.78365">
        <ele>851</ele>
      </trkpt>
      <trkpt lat="46.46338" lon="5.78392">
        <ele>848.8</ele>
      </trkpt>
      <trkpt lat="46.46326" lon="5.78436">
        <ele>853</ele>
      </trkpt>
      <trkpt lat="46.46318" lon="5.78459">
        <ele>853.1</ele>
      </trkpt>
      <trkpt lat="46.46311" lon="5.78472">
        <ele>851.9</ele>
      </trkpt>
      <trkpt lat="46.463" lon="5.78488">
        <ele>853</ele>
      </trkpt>
      <trkpt lat="46.46258" lon="5.78539">
        <ele>855</ele>
      </trkpt>
      <trkpt lat="46.46248" lon="5.78558">
        <ele>856.2</ele>
      </trkpt>
      <trkpt lat="46.46243" lon="5.78574">
        <ele>857.3</ele>
      </trkpt>
      <trkpt lat="46.46241" lon="5.78589">
        <ele>858</ele>
      </trkpt>
      <trkpt lat="46.46241" lon="5.786">
        <ele>858</ele>
      </trkpt>
      <trkpt lat="46.46253" lon="5.78684">
        <ele>860.2</ele>
      </trkpt>
      <trkpt lat="46.46257" lon="5.78725">
        <ele>861.7</ele>
      </trkpt>
      <trkpt lat="46.46256" lon="5.78762">
        <ele>864.5</ele>
      </trkpt>
      <trkpt lat="46.46251" lon="5.78793">
        <ele>865.4</ele>
      </trkpt>
      <trkpt lat="46.46239" lon="5.78836">
        <ele>871</ele>
      </trkpt>
      <trkpt lat="46.46222" lon="5.78879">
        <ele>864.8</ele>
      </trkpt>
      <trkpt lat="46.46216" lon="5.78901">
        <ele>865.1</ele>
      </trkpt>
      <trkpt lat="46.46215" lon="5.78921">
        <ele>864.5</ele>
      </trkpt>
      <trkpt lat="46.46215" lon="5.7893">
        <ele>863.7</ele>
      </trkpt>
      <trkpt lat="46.46223" lon="5.78974">
        <ele>859.9</ele>
      </trkpt>
      <trkpt lat="46.46223" lon="5.78994">
        <ele>859.2</ele>
      </trkpt>
      <trkpt lat="46.46221" lon="5.79012">
        <ele>858.8</ele>
      </trkpt>
      <trkpt lat="46.4616" lon="5.79204">
        <ele>850.8</ele>
      </trkpt>
      <trkpt lat="46.46157" lon="5.79213">
        <ele>850.9</ele>
      </trkpt>
      <trkpt lat="46.46158" lon="5.79216">
        <ele>850.4</ele>
      </trkpt>
      <trkpt lat="46.46146" lon="5.79266">
        <ele>845.3</ele>
      </trkpt>
      <trkpt lat="46.46144" lon="5.793">
        <ele>841.8</ele>
      </trkpt>
      <trkpt lat="46.46162" lon="5.79294">
        <ele>843.1</ele>
        <extensions>
          <visugpx:TrkExtension xmlns:visugpx="https://www.visugpx.com/editgpx/">
            <visugpx:node>3</visugpx:node>
            </visugpx:TrkExtension>
        </extensions>
      </trkpt>
      <trkpt lat="46.46169" lon="5.79292">
        <ele>843.5</ele>
      </trkpt>
      <trkpt lat="46.46168" lon="5.793">
        <ele>842.6</ele>
      </trkpt>
      <trkpt lat="46.46153" lon="5.79319">
        <ele>840.3</ele>
      </trkpt>
      <trkpt lat="46.46143" lon="5.79356">
        <ele>835.9</ele>
      </trkpt>
      <trkpt lat="46.46138" lon="5.79366">
        <ele>834.6</ele>
      </trkpt>
      <trkpt lat="46.46122" lon="5.79379">
        <ele>832.9</ele>
      </trkpt>
      <trkpt lat="46.46105" lon="5.79388">
        <ele>831.2</ele>
      </trkpt>
      <trkpt lat="46.461" lon="5.79395">
        <ele>830.4</ele>
      </trkpt>
      <trkpt lat="46.46099" lon="5.79406">
        <ele>829.2</ele>
      </trkpt>
      <trkpt lat="46.46102" lon="5.7942">
        <ele>828.1</ele>
      </trkpt>
      <trkpt lat="46.46108" lon="5.79433">
        <ele>827.6</ele>
      </trkpt>
      <trkpt lat="46.46158" lon="5.79478">
        <ele>828.1</ele>
      </trkpt>
      <trkpt lat="46.46163" lon="5.79491">
        <ele>828.6</ele>
      </trkpt>
      <trkpt lat="46.46166" lon="5.79507">
        <ele>829.2</ele>
      </trkpt>
      <trkpt lat="46.46166" lon="5.79517">
        <ele>829.6</ele>
      </trkpt>
      <trkpt lat="46.46168" lon="5.79525">
        <ele>829.9</ele>
      </trkpt>
      <trkpt lat="46.4617" lon="5.79534">
        <ele>830.2</ele>
      </trkpt>
      <trkpt lat="46.46177" lon="5.7955">
        <ele>830.8</ele>
      </trkpt>
      <trkpt lat="46.46202" lon="5.79591">
        <ele>835</ele>
      </trkpt>
      <trkpt lat="46.4621" lon="5.79608">
        <ele>836.6</ele>
      </trkpt>
      <trkpt lat="46.46213" lon="5.7963">
        <ele>836.1</ele>
      </trkpt>
      <trkpt lat="46.46212" lon="5.79661">
        <ele>837.5</ele>
      </trkpt>
      <trkpt lat="46.4621" lon="5.79714">
        <ele>837.5</ele>
      </trkpt>
      <trkpt lat="46.46209" lon="5.79735">
        <ele>838</ele>
      </trkpt>
      <trkpt lat="46.46214" lon="5.79734">
        <ele>838.3</ele>
      </trkpt>
      <trkpt lat="46.46224" lon="5.79725">
        <ele>838.5</ele>
      </trkpt>
      <trkpt lat="46.46257" lon="5.79678">
        <ele>837</ele>
      </trkpt>
      <trkpt lat="46.46285" lon="5.79651">
        <ele>836.1</ele>
      </trkpt>
      <trkpt lat="46.4629" lon="5.79639">
        <ele>835</ele>
      </trkpt>
      <trkpt lat="46.46301" lon="5.79644">
        <ele>835.7</ele>
      </trkpt>
      <trkpt lat="46.46318" lon="5.79645">
        <ele>837.2</ele>
      </trkpt>
      <trkpt lat="46.46333" lon="5.79639">
        <ele>837</ele>
      </trkpt>
      <trkpt lat="46.46363" lon="5.79621">
        <ele>839.2</ele>
        <extensions>
          <visugpx:TrkExtension xmlns:visugpx="https://www.visugpx.com/editgpx/">
            <visugpx:node>4</visugpx:node>
            </visugpx:TrkExtension>
        </extensions>
      </trkpt>
      <trkpt lat="46.46365" lon="5.7962">
        <ele>839.2</ele>
      </trkpt>
      <trkpt lat="46.46385" lon="5.79614">
        <ele>839.4</ele>
      </trkpt>
      <trkpt lat="46.46401" lon="5.79615">
        <ele>840.2</ele>
      </trkpt>
      <trkpt lat="46.46458" lon="5.79631">
        <ele>839.4</ele>
      </trkpt>
      <trkpt lat="46.46488" lon="5.79636">
        <ele>839.5</ele>
      </trkpt>
      <trkpt lat="46.46508" lon="5.79633">
        <ele>840</ele>
      </trkpt>
      <trkpt lat="46.4652" lon="5.79628">
        <ele>840.4</ele>
      </trkpt>
      <trkpt lat="46.46534" lon="5.79618">
        <ele>839.5</ele>
      </trkpt>
      <trkpt lat="46.46548" lon="5.79604">
        <ele>838.4</ele>
      </trkpt>
      <trkpt lat="46.46561" lon="5.79585">
        <ele>838</ele>
      </trkpt>
      <trkpt lat="46.46575" lon="5.79559">
        <ele>838</ele>
      </trkpt>
      <trkpt lat="46.46588" lon="5.79541">
        <ele>838.3</ele>
      </trkpt>
      <trkpt lat="46.46615" lon="5.79519">
        <ele>839.3</ele>
      </trkpt>
      <trkpt lat="46.4667" lon="5.79461">
        <ele>839.4</ele>
      </trkpt>
      <trkpt lat="46.46735" lon="5.79406">
        <ele>840</ele>
      </trkpt>
      <trkpt lat="46.4687" lon="5.79316">
        <ele>841.9</ele>
      </trkpt>
      <trkpt lat="46.46895" lon="5.79306">
        <ele>842</ele>
      </trkpt>
      <trkpt lat="46.46966" lon="5.79307">
        <ele>841.4</ele>
      </trkpt>
      <trkpt lat="46.47018" lon="5.79291">
        <ele>839.4</ele>
      </trkpt>
      <trkpt lat="46.47041" lon="5.79298">
        <ele>839.7</ele>
      </trkpt>
      <trkpt lat="46.47061" lon="5.79317">
        <ele>839.4</ele>
      </trkpt>
      <trkpt lat="46.47075" lon="5.79337">
        <ele>837.9</ele>
      </trkpt>
      <trkpt lat="46.47091" lon="5.79381">
        <ele>837.3</ele>
      </trkpt>
      <trkpt lat="46.47108" lon="5.79411">
        <ele>835.2</ele>
      </trkpt>
      <trkpt lat="46.47119" lon="5.79423">
        <ele>834.8</ele>
      </trkpt>
      <trkpt lat="46.47204" lon="5.79477">
        <ele>830.3</ele>
      </trkpt>
      <trkpt lat="46.47222" lon="5.79481">
        <ele>828.7</ele>
      </trkpt>
      <trkpt lat="46.47239" lon="5.7948">
        <ele>829.4</ele>
      </trkpt>
      <trkpt lat="46.4735" lon="5.79448">
        <ele>830.8</ele>
      </trkpt>
      <trkpt lat="46.47423" lon="5.79408">
        <ele>829</ele>
      </trkpt>
      <trkpt lat="46.47444" lon="5.79391">
        <ele>829</ele>
      </trkpt>
      <trkpt lat="46.4753" lon="5.79295">
        <ele>828.2</ele>
      </trkpt>
      <trkpt lat="46.47561" lon="5.79273">
        <ele>827.9</ele>
      </trkpt>
      <trkpt lat="46.47584" lon="5.79261">
        <ele>828</ele>
      </trkpt>
      <trkpt lat="46.47602" lon="5.79258">
        <ele>827.1</ele>
      </trkpt>
      <trkpt lat="46.4766" lon="5.79262">
        <ele>827.4</ele>
      </trkpt>
      <trkpt lat="46.47698" lon="5.79279">
        <ele>827.1</ele>
      </trkpt>
      <trkpt lat="46.47716" lon="5.79284">
        <ele>827.2</ele>
      </trkpt>
      <trkpt lat="46.47784" lon="5.7927">
        <ele>826.1</ele>
      </trkpt>
      <trkpt lat="46.47804" lon="5.79275">
        <ele>825</ele>
      </trkpt>
      <trkpt lat="46.47818" lon="5.79282">
        <ele>825.8</ele>
      </trkpt>
      <trkpt lat="46.4783" lon="5.79292">
        <ele>826.4</ele>
      </trkpt>
      <trkpt lat="46.47836" lon="5.79301">
        <ele>826.3</ele>
      </trkpt>
      <trkpt lat="46.47879" lon="5.79367">
        <ele>825.7</ele>
      </trkpt>
      <trkpt lat="46.47895" lon="5.79387">
        <ele>824.2</ele>
      </trkpt>
      <trkpt lat="46.47912" lon="5.79397">
        <ele>823.9</ele>
      </trkpt>
      <trkpt lat="46.47924" lon="5.79398">
        <ele>823.5</ele>
        <extensions>
          <visugpx:TrkExtension xmlns:visugpx="https://www.visugpx.com/editgpx/">
            <visugpx:node>5</visugpx:node>
            </visugpx:TrkExtension>
        </extensions>
      </trkpt>
      <trkpt lat="46.48031" lon="5.79404">
        <ele>825.5</ele>
      </trkpt>
      <trkpt lat="46.48044" lon="5.79402">
        <ele>826</ele>
      </trkpt>
      <trkpt lat="46.48101" lon="5.79374">
        <ele>825.7</ele>
      </trkpt>
      <trkpt lat="46.48173" lon="5.79354">
        <ele>825.6</ele>
      </trkpt>
      <trkpt lat="46.48193" lon="5.79351">
        <ele>825.9</ele>
      </trkpt>
      <trkpt lat="46.48203" lon="5.79351">
        <ele>825.7</ele>
      </trkpt>
      <trkpt lat="46.48218" lon="5.79357">
        <ele>825.8</ele>
      </trkpt>
      <trkpt lat="46.48273" lon="5.79384">
        <ele>825.6</ele>
      </trkpt>
      <trkpt lat="46.48267" lon="5.79419">
        <ele>826.7</ele>
      </trkpt>
      <trkpt lat="46.48264" lon="5.79458">
        <ele>827.5</ele>
      </trkpt>
      <trkpt lat="46.48267" lon="5.79468">
        <ele>827.2</ele>
      </trkpt>
      <trkpt lat="46.48271" lon="5.79471">
        <ele>827</ele>
      </trkpt>
      <trkpt lat="46.48289" lon="5.79473">
        <ele>826.6</ele>
      </trkpt>
      <trkpt lat="46.48314" lon="5.79481">
        <ele>825.7</ele>
      </trkpt>
      <trkpt lat="46.48345" lon="5.79499">
        <ele>825</ele>
      </trkpt>
      <trkpt lat="46.48464" lon="5.79554">
        <ele>821.1</ele>
      </trkpt>
      <trkpt lat="46.48524" lon="5.79591">
        <ele>820.5</ele>
      </trkpt>
      <trkpt lat="46.48568" lon="5.79611">
        <ele>818</ele>
      </trkpt>
      <trkpt lat="46.48608" lon="5.79619">
        <ele>816.5</ele>
      </trkpt>
      <trkpt lat="46.48661" lon="5.79625">
        <ele>812.1</ele>
      </trkpt>
      <trkpt lat="46.48683" lon="5.79627">
        <ele>812.4</ele>
      </trkpt>
      <trkpt lat="46.48684" lon="5.79634">
        <ele>813.7</ele>
      </trkpt>
      <trkpt lat="46.487" lon="5.79643">
        <ele>815.2</ele>
      </trkpt>
      <trkpt lat="46.48773" lon="5.79652">
        <ele>816.5</ele>
      </trkpt>
      <trkpt lat="46.48804" lon="5.79659">
        <ele>816.5</ele>
      </trkpt>
      <trkpt lat="46.48818" lon="5.79666">
        <ele>816.5</ele>
      </trkpt>
      <trkpt lat="46.48843" lon="5.79687">
        <ele>814.8</ele>
      </trkpt>
      <trkpt lat="46.4885" lon="5.79689">
        <ele>814.6</ele>
      </trkpt>
      <trkpt lat="46.48856" lon="5.79689">
        <ele>814.6</ele>
      </trkpt>
      <trkpt lat="46.48899" lon="5.79674">
        <ele>816.2</ele>
      </trkpt>
      <trkpt lat="46.48935" lon="5.79665">
        <ele>817.2</ele>
      </trkpt>
      <trkpt lat="46.49027" lon="5.79644">
        <ele>818.5</ele>
      </trkpt>
      <trkpt lat="46.49067" lon="5.79646">
        <ele>818.9</ele>
      </trkpt>
      <trkpt lat="46.49116" lon="5.79664">
        <ele>819.6</ele>
      </trkpt>
      <trkpt lat="46.49174" lon="5.7969">
        <ele>818.6</ele>
      </trkpt>
      <trkpt lat="46.49221" lon="5.79699">
        <ele>818.7</ele>
      </trkpt>
      <trkpt lat="46.49227" lon="5.79698">
        <ele>818.6</ele>
      </trkpt>
      <trkpt lat="46.49229" lon="5.7971">
        <ele>817.9</ele>
      </trkpt>
      <trkpt lat="46.49239" lon="5.79723">
        <ele>817.5</ele>
      </trkpt>
      <trkpt lat="46.49243" lon="5.79727">
        <ele>817.1</ele>
      </trkpt>
      <trkpt lat="46.49254" lon="5.79732">
        <ele>816.6</ele>
      </trkpt>
      <trkpt lat="46.49313" lon="5.7974">
        <ele>819.1</ele>
      </trkpt>
      <trkpt lat="46.49339" lon="5.79739">
        <ele>821.1</ele>
      </trkpt>
      <trkpt lat="46.49371" lon="5.79741">
        <ele>822.3</ele>
      </trkpt>
      <trkpt lat="46.49403" lon="5.79747">
        <ele>822.1</ele>
      </trkpt>
      <trkpt lat="46.49425" lon="5.79755">
        <ele>821.5</ele>
      </trkpt>
      <trkpt lat="46.4945" lon="5.79767">
        <ele>820.6</ele>
      </trkpt>
      <trkpt lat="46.49471" lon="5.7978">
        <ele>819.8</ele>
      </trkpt>
      <trkpt lat="46.49483" lon="5.79785">
        <ele>818.9</ele>
      </trkpt>
      <trkpt lat="46.49499" lon="5.79783">
        <ele>818.1</ele>
      </trkpt>
      <trkpt lat="46.49509" lon="5.79736">
        <ele>817.5</ele>
      </trkpt>
      <trkpt lat="46.4951" lon="5.79731">
        <ele>817.2</ele>
      </trkpt>
      <trkpt lat="46.49515" lon="5.79724">
        <ele>816.6</ele>
      </trkpt>
      <trkpt lat="46.49539" lon="5.79728">
        <ele>815.3</ele>
      </trkpt>
      <trkpt lat="46.4955" lon="5.79732">
        <ele>814.7</ele>
      </trkpt>
      <trkpt lat="46.49571" lon="5.79743">
        <ele>814.3</ele>
      </trkpt>
      <trkpt lat="46.49588" lon="5.79759">
        <ele>814.3</ele>
      </trkpt>
      <trkpt lat="46.49612" lon="5.79809">
        <ele>813.8</ele>
      </trkpt>
      <trkpt lat="46.4962" lon="5.79819">
        <ele>813</ele>
      </trkpt>
      <trkpt lat="46.49662" lon="5.79845">
        <ele>810.8</ele>
      </trkpt>
      <trkpt lat="46.49706" lon="5.79878">
        <ele>807.9</ele>
      </trkpt>
      <trkpt lat="46.49728" lon="5.7989">
        <ele>807.1</ele>
      </trkpt>
      <trkpt lat="46.49785" lon="5.79912">
        <ele>806.9</ele>
      </trkpt>
      <trkpt lat="46.49809" lon="5.79926">
        <ele>807.2</ele>
        <extensions>
          <visugpx:TrkExtension xmlns:visugpx="https://www.visugpx.com/editgpx/">
            <visugpx:node>6</visugpx:node>
            </visugpx:TrkExtension>
        </extensions>
      </trkpt>
      <trkpt lat="46.49825" lon="5.79937">
        <ele>806.7</ele>
      </trkpt>
      <trkpt lat="46.49881" lon="5.79966">
        <ele>805.8</ele>
      </trkpt>
      <trkpt lat="46.49933" lon="5.80008">
        <ele>802.7</ele>
      </trkpt>
      <trkpt lat="46.49953" lon="5.80038">
        <ele>799.9</ele>
      </trkpt>
      <trkpt lat="46.49966" lon="5.80051">
        <ele>798.5</ele>
      </trkpt>
      <trkpt lat="46.50024" lon="5.80094">
        <ele>794.9</ele>
      </trkpt>
      <trkpt lat="46.50094" lon="5.80122">
        <ele>793.6</ele>
      </trkpt>
      <trkpt lat="46.50157" lon="5.80125">
        <ele>795.3</ele>
      </trkpt>
      <trkpt lat="46.50189" lon="5.8012">
        <ele>797</ele>
      </trkpt>
      <trkpt lat="46.50202" lon="5.80123">
        <ele>798</ele>
      </trkpt>
      <trkpt lat="46.50227" lon="5.80143">
        <ele>799</ele>
      </trkpt>
      <trkpt lat="46.50238" lon="5.80148">
        <ele>799.4</ele>
      </trkpt>
      <trkpt lat="46.50281" lon="5.80152">
        <ele>798.5</ele>
      </trkpt>
      <trkpt lat="46.50307" lon="5.8016">
        <ele>799</ele>
      </trkpt>
      <trkpt lat="46.50353" lon="5.8018">
        <ele>798.2</ele>
      </trkpt>
      <trkpt lat="46.50361" lon="5.80181">
        <ele>797.6</ele>
      </trkpt>
      <trkpt lat="46.50368" lon="5.80182">
        <ele>797.8</ele>
      </trkpt>
      <trkpt lat="46.50395" lon="5.80175">
        <ele>797.1</ele>
      </trkpt>
      <trkpt lat="46.5041" lon="5.80175">
        <ele>797</ele>
      </trkpt>
      <trkpt lat="46.50431" lon="5.80179">
        <ele>796.1</ele>
      </trkpt>
      <trkpt lat="46.50438" lon="5.80183">
        <ele>795.6</ele>
      </trkpt>
      <trkpt lat="46.50444" lon="5.80199">
        <ele>795.4</ele>
      </trkpt>
      <trkpt lat="46.50454" lon="5.80221">
        <ele>795.9</ele>
      </trkpt>
      <trkpt lat="46.50469" lon="5.80243">
        <ele>796.1</ele>
      </trkpt>
      <trkpt lat="46.5048" lon="5.80251">
        <ele>796.1</ele>
      </trkpt>
      <trkpt lat="46.5052" lon="5.80263">
        <ele>797</ele>
      </trkpt>
      <trkpt lat="46.50532" lon="5.80271">
        <ele>797.3</ele>
      </trkpt>
      <trkpt lat="46.50561" lon="5.80305">
        <ele>796.4</ele>
      </trkpt>
      <trkpt lat="46.50571" lon="5.80322">
        <ele>797.2</ele>
        <extensions>
          <visugpx:TrkExtension xmlns:visugpx="https://www.visugpx.com/editgpx/">
            <visugpx:node>7</visugpx:node>
            </visugpx:TrkExtension>
        </extensions>
      </trkpt>
      <trkpt lat="46.50571" lon="5.80322">
        <ele>797.2</ele>
      </trkpt>
      <trkpt lat="46.50582" lon="5.80344">
        <ele>797.7</ele>
      </trkpt>
      <trkpt lat="46.5059" lon="5.80353">
        <ele>797.5</ele>
      </trkpt>
      <trkpt lat="46.50616" lon="5.80377">
        <ele>797.6</ele>
      </trkpt>
      <trkpt lat="46.5066" lon="5.80405">
        <ele>797.5</ele>
      </trkpt>
      <trkpt lat="46.5067" lon="5.80416">
        <ele>797.1</ele>
      </trkpt>
      <trkpt lat="46.50677" lon="5.80431">
        <ele>796</ele>
      </trkpt>
      <trkpt lat="46.50679" lon="5.80443">
        <ele>795.1</ele>
      </trkpt>
      <trkpt lat="46.50683" lon="5.80473">
        <ele>793</ele>
      </trkpt>
      <trkpt lat="46.50684" lon="5.80524">
        <ele>793</ele>
      </trkpt>
      <trkpt lat="46.50684" lon="5.80531">
        <ele>793</ele>
      </trkpt>
      <trkpt lat="46.50682" lon="5.8059">
        <ele>793</ele>
      </trkpt>
      <trkpt lat="46.50678" lon="5.80619">
        <ele>793</ele>
      </trkpt>
      <trkpt lat="46.5067" lon="5.80643">
        <ele>793</ele>
      </trkpt>
      <trkpt lat="46.50655" lon="5.8067">
        <ele>793.2</ele>
      </trkpt>
      <trkpt lat="46.50648" lon="5.80678">
        <ele>793.8</ele>
      </trkpt>
      <trkpt lat="46.50635" lon="5.80688">
        <ele>794.3</ele>
      </trkpt>
      <trkpt lat="46.506" lon="5.80705">
        <ele>795.7</ele>
      </trkpt>
      <trkpt lat="46.50585" lon="5.80707">
        <ele>795.8</ele>
      </trkpt>
      <trkpt lat="46.50524" lon="5.80682">
        <ele>794.4</ele>
      </trkpt>
      <trkpt lat="46.50488" lon="5.80654">
        <ele>795.1</ele>
      </trkpt>
      <trkpt lat="46.50469" lon="5.80618">
        <ele>794.5</ele>
      </trkpt>
      <trkpt lat="46.50452" lon="5.806">
        <ele>794.8</ele>
      </trkpt>
      <trkpt lat="46.50442" lon="5.80592">
        <ele>794.7</ele>
      </trkpt>
      <trkpt lat="46.50428" lon="5.80587">
        <ele>794.3</ele>
      </trkpt>
      <trkpt lat="46.50398" lon="5.80588">
        <ele>794.6</ele>
      </trkpt>
      <trkpt lat="46.50382" lon="5.80587">
        <ele>794.6</ele>
      </trkpt>
      <trkpt lat="46.50355" lon="5.80576">
        <ele>794.3</ele>
      </trkpt>
      <trkpt lat="46.50327" lon="5.80561">
        <ele>795.3</ele>
      </trkpt>
      <trkpt lat="46.5028" lon="5.8053">
        <ele>794.3</ele>
      </trkpt>
      <trkpt lat="46.5026" lon="5.80519">
        <ele>794.6</ele>
      </trkpt>
      <trkpt lat="46.50221" lon="5.80506">
        <ele>795.2</ele>
      </trkpt>
      <trkpt lat="46.50173" lon="5.80497">
        <ele>799.4</ele>
      </trkpt>
      <trkpt lat="46.50165" lon="5.80493">
        <ele>799.8</ele>
      </trkpt>
      <trkpt lat="46.50073" lon="5.80421">
        <ele>797.3</ele>
      </trkpt>
      <trkpt lat="46.50041" lon="5.80397">
        <ele>795.6</ele>
      </trkpt>
      <trkpt lat="46.49983" lon="5.80366">
        <ele>795.2</ele>
      </trkpt>
      <trkpt lat="46.49975" lon="5.80364">
        <ele>795.4</ele>
      </trkpt>
      <trkpt lat="46.49956" lon="5.80365">
        <ele>795.3</ele>
      </trkpt>
      <trkpt lat="46.49983" lon="5.80387">
        <ele>799.5</ele>
      </trkpt>
      <trkpt lat="46.50067" lon="5.80437">
        <ele>805.3</ele>
      </trkpt>
      <trkpt lat="46.50103" lon="5.80469">
        <ele>810</ele>
      </trkpt>
      <trkpt lat="46.50146" lon="5.8051">
        <ele>815.3</ele>
      </trkpt>
      <trkpt lat="46.5027" lon="5.8064">
        <ele>838.5</ele>
        <extensions>
          <visugpx:TrkExtension xmlns:visugpx="https://www.visugpx.com/editgpx/">
            <visugpx:node>8</visugpx:node>
            </visugpx:TrkExtension>
        </extensions>
      </trkpt>
      <trkpt lat="46.5028" lon="5.80651">
        <ele>840.9</ele>
      </trkpt>
      <trkpt lat="46.50352" lon="5.80724">
        <ele>854</ele>
        <extensions>
          <visugpx:TrkExtension xmlns:visugpx="https://www.visugpx.com/editgpx/">
            <visugpx:node>9</visugpx:node>
            </visugpx:TrkExtension>
        </extensions>
      </trkpt>
      <trkpt lat="46.50352" lon="5.80724">
        <ele>854</ele>
      </trkpt>
      <trkpt lat="46.5037" lon="5.80753">
        <ele>864.9</ele>
      </trkpt>
      <trkpt lat="46.50376" lon="5.80764">
        <ele>866.3</ele>
      </trkpt>
      <trkpt lat="46.50378" lon="5.80772">
        <ele>868.2</ele>
      </trkpt>
      <trkpt lat="46.50378" lon="5.80795">
        <ele>871</ele>
      </trkpt>
      <trkpt lat="46.50374" lon="5.80807">
        <ele>872.1</ele>
      </trkpt>
      <trkpt lat="46.50367" lon="5.80816">
        <ele>872.5</ele>
      </trkpt>
      <trkpt lat="46.50351" lon="5.8082">
        <ele>873.7</ele>
      </trkpt>
      <trkpt lat="46.5029" lon="5.8081">
        <ele>877.8</ele>
      </trkpt>
      <trkpt lat="46.50253" lon="5.80814">
        <ele>882.1</ele>
      </trkpt>
      <trkpt lat="46.50235" lon="5.80814">
        <ele>884.2</ele>
      </trkpt>
      <trkpt lat="46.50215" lon="5.80809">
        <ele>885.6</ele>
      </trkpt>
      <trkpt lat="46.50214" lon="5.80808">
        <ele>885.5</ele>
        <extensions>
          <visugpx:TrkExtension xmlns:visugpx="https://www.visugpx.com/editgpx/">
            <visugpx:node>10</visugpx:node>
            </visugpx:TrkExtension>
        </extensions>
      </trkpt>
      <trkpt lat="46.50192" lon="5.80796">
        <ele>888.9</ele>
      </trkpt>
      <trkpt lat="46.50169" lon="5.80779">
        <ele>890.3</ele>
      </trkpt>
      <trkpt lat="46.50131" lon="5.80757">
        <ele>893.2</ele>
      </trkpt>
      <trkpt lat="46.50074" lon="5.80721">
        <ele>896</ele>
      </trkpt>
      <trkpt lat="46.50051" lon="5.80709">
        <ele>897.4</ele>
      </trkpt>
      <trkpt lat="46.49981" lon="5.80685">
        <ele>899.7</ele>
      </trkpt>
      <trkpt lat="46.49927" lon="5.80661">
        <ele>897.1</ele>
      </trkpt>
      <trkpt lat="46.49896" lon="5.80645">
        <ele>895.1</ele>
        <extensions>
          <visugpx:TrkExtension xmlns:visugpx="https://www.visugpx.com/editgpx/">
            <visugpx:node>11</visugpx:node>
            </visugpx:TrkExtension>
        </extensions>
      </trkpt>
      <trkpt lat="46.49805" lon="5.80595">
        <ele>893.8</ele>
      </trkpt>
      <trkpt lat="46.49781" lon="5.80587">
        <ele>894.8</ele>
      </trkpt>
      <trkpt lat="46.49742" lon="5.80581">
        <ele>899</ele>
      </trkpt>
      <trkpt lat="46.49723" lon="5.80581">
        <ele>900.8</ele>
      </trkpt>
      <trkpt lat="46.49711" lon="5.80583">
        <ele>902.2</ele>
      </trkpt>
      <trkpt lat="46.49701" lon="5.80588">
        <ele>904.7</ele>
      </trkpt>
      <trkpt lat="46.4962" lon="5.80647">
        <ele>903.9</ele>
      </trkpt>
      <trkpt lat="46.49578" lon="5.80669">
        <ele>900.2</ele>
      </trkpt>
      <trkpt lat="46.49556" lon="5.80677">
        <ele>900.6</ele>
      </trkpt>
      <trkpt lat="46.49522" lon="5.80683">
        <ele>899.5</ele>
      </trkpt>
      <trkpt lat="46.49514" lon="5.80685">
        <ele>898.8</ele>
      </trkpt>
      <trkpt lat="46.49505" lon="5.80691">
        <ele>897.7</ele>
      </trkpt>
      <trkpt lat="46.49498" lon="5.80698">
        <ele>897.3</ele>
      </trkpt>
      <trkpt lat="46.49494" lon="5.80705">
        <ele>897.6</ele>
        <extensions>
          <visugpx:TrkExtension xmlns:visugpx="https://www.visugpx.com/editgpx/">
            <visugpx:node>12</visugpx:node>
            </visugpx:TrkExtension>
        </extensions>
      </trkpt>
      <trkpt lat="46.49478" lon="5.80732">
        <ele>897.6</ele>
      </trkpt>
      <trkpt lat="46.49471" lon="5.80741">
        <ele>896.2</ele>
      </trkpt>
      <trkpt lat="46.49451" lon="5.80759">
        <ele>897.5</ele>
      </trkpt>
      <trkpt lat="46.49437" lon="5.80769">
        <ele>897.4</ele>
      </trkpt>
      <trkpt lat="46.49402" lon="5.80788">
        <ele>897.6</ele>
      </trkpt>
      <trkpt lat="46.49374" lon="5.80799">
        <ele>897.3</ele>
      </trkpt>
      <trkpt lat="46.49349" lon="5.80812">
        <ele>897.9</ele>
      </trkpt>
      <trkpt lat="46.49328" lon="5.80827">
        <ele>899.4</ele>
      </trkpt>
      <trkpt lat="46.49308" lon="5.80838">
        <ele>900.2</ele>
      </trkpt>
      <trkpt lat="46.49288" lon="5.8084">
        <ele>902.1</ele>
      </trkpt>
      <trkpt lat="46.49278" lon="5.80837">
        <ele>901.6</ele>
      </trkpt>
      <trkpt lat="46.49254" lon="5.80822">
        <ele>902.6</ele>
      </trkpt>
      <trkpt lat="46.49242" lon="5.80816">
        <ele>902.4</ele>
      </trkpt>
      <trkpt lat="46.49232" lon="5.80814">
        <ele>903.2</ele>
      </trkpt>
      <trkpt lat="46.49222" lon="5.80814">
        <ele>904.7</ele>
      </trkpt>
      <trkpt lat="46.49208" lon="5.80817">
        <ele>905.3</ele>
      </trkpt>
      <trkpt lat="46.49182" lon="5.80816">
        <ele>906.1</ele>
      </trkpt>
      <trkpt lat="46.49169" lon="5.80813">
        <ele>907</ele>
      </trkpt>
      <trkpt lat="46.49197" lon="5.8084">
        <ele>910.8</ele>
      </trkpt>
      <trkpt lat="46.49258" lon="5.80879">
        <ele>922.5</ele>
      </trkpt>
      <trkpt lat="46.49265" lon="5.80879">
        <ele>922</ele>
      </trkpt>
      <trkpt lat="46.49275" lon="5.80887">
        <ele>925.2</ele>
      </trkpt>
      <trkpt lat="46.49277" lon="5.80894">
        <ele>927.3</ele>
      </trkpt>
      <trkpt lat="46.49275" lon="5.80897">
        <ele>928</ele>
      </trkpt>
      <trkpt lat="46.49266" lon="5.80904">
        <ele>928.8</ele>
      </trkpt>
      <trkpt lat="46.49257" lon="5.80904">
        <ele>928.1</ele>
      </trkpt>
      <trkpt lat="46.49253" lon="5.80909">
        <ele>928.1</ele>
      </trkpt>
      <trkpt lat="46.49252" lon="5.80914">
        <ele>928.2</ele>
      </trkpt>
      <trkpt lat="46.49252" lon="5.8092">
        <ele>927.7</ele>
      </trkpt>
      <trkpt lat="46.49258" lon="5.80935">
        <ele>926.8</ele>
      </trkpt>
      <trkpt lat="46.49264" lon="5.80946">
        <ele>927.9</ele>
      </trkpt>
      <trkpt lat="46.49269" lon="5.80962">
        <ele>928.1</ele>
        <extensions>
          <visugpx:TrkExtension xmlns:visugpx="https://www.visugpx.com/editgpx/">
            <visugpx:node>13</visugpx:node>
            </visugpx:TrkExtension>
        </extensions>
      </trkpt>
      <trkpt lat="46.49272" lon="5.80969">
        <ele>928.3</ele>
      </trkpt>
      <trkpt lat="46.49272" lon="5.80975">
        <ele>927.8</ele>
      </trkpt>
      <trkpt lat="46.49275" lon="5.80982">
        <ele>928.4</ele>
      </trkpt>
      <trkpt lat="46.49276" lon="5.81005">
        <ele>927.3</ele>
      </trkpt>
      <trkpt lat="46.49274" lon="5.81019">
        <ele>926.4</ele>
      </trkpt>
      <trkpt lat="46.49278" lon="5.81028">
        <ele>927</ele>
      </trkpt>
      <trkpt lat="46.49278" lon="5.81033">
        <ele>926.9</ele>
      </trkpt>
      <trkpt lat="46.49272" lon="5.81057">
        <ele>926</ele>
      </trkpt>
      <trkpt lat="46.49288" lon="5.81092">
        <ele>929.6</ele>
      </trkpt>
      <trkpt lat="46.49289" lon="5.81131">
        <ele>928.6</ele>
      </trkpt>
      <trkpt lat="46.49295" lon="5.81194">
        <ele>939.1</ele>
      </trkpt>
      <trkpt lat="46.4929" lon="5.81212">
        <ele>939.2</ele>
      </trkpt>
      <trkpt lat="46.49273" lon="5.81248">
        <ele>936.4</ele>
      </trkpt>
      <trkpt lat="46.49271" lon="5.81256">
        <ele>935.6</ele>
      </trkpt>
      <trkpt lat="46.49263" lon="5.81267">
        <ele>934</ele>
      </trkpt>
      <trkpt lat="46.4926" lon="5.81281">
        <ele>933.3</ele>
      </trkpt>
      <trkpt lat="46.49259" lon="5.81313">
        <ele>935.8</ele>
      </trkpt>
      <trkpt lat="46.49254" lon="5.81332">
        <ele>936.4</ele>
      </trkpt>
      <trkpt lat="46.4925" lon="5.81338">
        <ele>936.5</ele>
      </trkpt>
      <trkpt lat="46.49245" lon="5.81364">
        <ele>939.9</ele>
      </trkpt>
      <trkpt lat="46.49241" lon="5.81371">
        <ele>940.9</ele>
      </trkpt>
      <trkpt lat="46.4923" lon="5.81372">
        <ele>942.4</ele>
      </trkpt>
      <trkpt lat="46.49219" lon="5.81376">
        <ele>944</ele>
      </trkpt>
      <trkpt lat="46.49202" lon="5.81373">
        <ele>946.5</ele>
      </trkpt>
      <trkpt lat="46.49188" lon="5.81377">
        <ele>946.8</ele>
      </trkpt>
      <trkpt lat="46.49185" lon="5.8138">
        <ele>946.3</ele>
      </trkpt>
      <trkpt lat="46.4918" lon="5.81379">
        <ele>946</ele>
      </trkpt>
      <trkpt lat="46.49175" lon="5.81374">
        <ele>945.8</ele>
      </trkpt>
      <trkpt lat="46.49168" lon="5.81363">
        <ele>945.2</ele>
      </trkpt>
      <trkpt lat="46.49165" lon="5.81359">
        <ele>945.3</ele>
      </trkpt>
      <trkpt lat="46.4916" lon="5.81358">
        <ele>945.5</ele>
      </trkpt>
      <trkpt lat="46.49151" lon="5.81361">
        <ele>945.6</ele>
      </trkpt>
      <trkpt lat="46.49133" lon="5.81372">
        <ele>946.1</ele>
      </trkpt>
      <trkpt lat="46.49135" lon="5.81388">
        <ele>945.4</ele>
      </trkpt>
      <trkpt lat="46.4913" lon="5.81411">
        <ele>946.8</ele>
      </trkpt>
      <trkpt lat="46.49122" lon="5.81438">
        <ele>947</ele>
      </trkpt>
      <trkpt lat="46.49121" lon="5.81463">
        <ele>944.7</ele>
      </trkpt>
      <trkpt lat="46.49123" lon="5.81481">
        <ele>943.8</ele>
        <extensions>
          <visugpx:TrkExtension xmlns:visugpx="https://www.visugpx.com/editgpx/">
            <visugpx:node>14</visugpx:node>
            </visugpx:TrkExtension>
        </extensions>
      </trkpt>
      <trkpt lat="46.49128" lon="5.8157">
        <ele>941</ele>
      </trkpt>
      <trkpt lat="46.49137" lon="5.81604">
        <ele>938.8</ele>
      </trkpt>
      <trkpt lat="46.49149" lon="5.8162">
        <ele>938.1</ele>
      </trkpt>
      <trkpt lat="46.49168" lon="5.81653">
        <ele>937</ele>
      </trkpt>
      <trkpt lat="46.49163" lon="5.81757">
        <ele>937.2</ele>
      </trkpt>
      <trkpt lat="46.49179" lon="5.81799">
        <ele>939.6</ele>
      </trkpt>
      <trkpt lat="46.49166" lon="5.81862">
        <ele>937.1</ele>
      </trkpt>
      <trkpt lat="46.49168" lon="5.81893">
        <ele>937.5</ele>
      </trkpt>
      <trkpt lat="46.49217" lon="5.81964">
        <ele>941.4</ele>
      </trkpt>
      <trkpt lat="46.49241" lon="5.82033">
        <ele>945.9</ele>
      </trkpt>
      <trkpt lat="46.49282" lon="5.82072">
        <ele>945.4</ele>
      </trkpt>
      <trkpt lat="46.49493" lon="5.82145">
        <ele>942.5</ele>
      </trkpt>
      <trkpt lat="46.49503" lon="5.82152">
        <ele>943</ele>
      </trkpt>
      <trkpt lat="46.49517" lon="5.82172">
        <ele>942.7</ele>
      </trkpt>
      <trkpt lat="46.49537" lon="5.82227">
        <ele>940.3</ele>
        <extensions>
          <visugpx:TrkExtension xmlns:visugpx="https://www.visugpx.com/editgpx/">
            <visugpx:node>15</visugpx:node>
            </visugpx:TrkExtension>
        </extensions>
      </trkpt>
      <trkpt lat="46.4954" lon="5.82237">
        <ele>940.2</ele>
      </trkpt>
      <trkpt lat="46.49548" lon="5.82258">
        <ele>940.3</ele>
      </trkpt>
      <trkpt lat="46.49556" lon="5.82277">
        <ele>939</ele>
        <extensions>
          <visugpx:TrkExtension xmlns:visugpx="https://www.visugpx.com/editgpx/">
            <visugpx:node>16</visugpx:node>
            </visugpx:TrkExtension>
        </extensions>
      </trkpt>
      <trkpt lat="46.49559" lon="5.82284">
        <ele>940.5</ele>
        <extensions>
          <visugpx:TrkExtension xmlns:visugpx="https://www.visugpx.com/editgpx/">
            <visugpx:node>2</visugpx:node>
            </visugpx:TrkExtension>
        </extensions>
      </trkpt>
      <trkpt lat="46.49569" lon="5.82303">
        <ele>942.7</ele>
      </trkpt>
      <trkpt lat="46.49662" lon="5.8244">
        <ele>943.9</ele>
      </trkpt>
      <trkpt lat="46.49668" lon="5.82453">
        <ele>944.6</ele>
      </trkpt>
      <trkpt lat="46.49658" lon="5.82475">
        <ele>947.7</ele>
      </trkpt>
      <trkpt lat="46.49652" lon="5.82495">
        <ele>947.5</ele>
      </trkpt>
      <trkpt lat="46.49645" lon="5.8251">
        <ele>946.1</ele>
      </trkpt>
      <trkpt lat="46.49663" lon="5.8253">
        <ele>945.1</ele>
      </trkpt>
      <trkpt lat="46.49709" lon="5.82552">
        <ele>947.1</ele>
      </trkpt>
      <trkpt lat="46.49764" lon="5.82584">
        <ele>953.1</ele>
      </trkpt>
      <trkpt lat="46.49777" lon="5.82597">
        <ele>954</ele>
      </trkpt>
      <trkpt lat="46.49786" lon="5.82612">
        <ele>955.1</ele>
      </trkpt>
      <trkpt lat="46.49804" lon="5.82646">
        <ele>953.6</ele>
      </trkpt>
      <trkpt lat="46.49814" lon="5.82652">
        <ele>953.2</ele>
      </trkpt>
      <trkpt lat="46.49851" lon="5.82657">
        <ele>953.4</ele>
      </trkpt>
      <trkpt lat="46.49863" lon="5.82666">
        <ele>954</ele>
      </trkpt>
      <trkpt lat="46.49857" lon="5.82688">
        <ele>954.4</ele>
      </trkpt>
      <trkpt lat="46.49851" lon="5.82732">
        <ele>954</ele>
      </trkpt>
      <trkpt lat="46.49842" lon="5.82777">
        <ele>951.1</ele>
      </trkpt>
      <trkpt lat="46.49836" lon="5.82794">
        <ele>949.2</ele>
      </trkpt>
      <trkpt lat="46.49853" lon="5.82803">
        <ele>948.3</ele>
      </trkpt>
      <trkpt lat="46.49865" lon="5.82814">
        <ele>947.3</ele>
      </trkpt>
      <trkpt lat="46.49872" lon="5.82827">
        <ele>946.2</ele>
      </trkpt>
      <trkpt lat="46.4988" lon="5.82853">
        <ele>941.9</ele>
      </trkpt>
      <trkpt lat="46.49906" lon="5.82882">
        <ele>938.8</ele>
      </trkpt>
      <trkpt lat="46.49947" lon="5.829">
        <ele>940.6</ele>
      </trkpt>
      <trkpt lat="46.4997" lon="5.82914">
        <ele>940.2</ele>
      </trkpt>
      <trkpt lat="46.50013" lon="5.82953">
        <ele>935.4</ele>
      </trkpt>
      <trkpt lat="46.5011" lon="5.83054">
        <ele>926.3</ele>
      </trkpt>
      <trkpt lat="46.50138" lon="5.83081">
        <ele>924.4</ele>
      </trkpt>
      <trkpt lat="46.5019" lon="5.83124">
        <ele>924.4</ele>
      </trkpt>
      <trkpt lat="46.50209" lon="5.83138">
        <ele>923.1</ele>
      </trkpt>
      <trkpt lat="46.50226" lon="5.83156">
        <ele>921.2</ele>
      </trkpt>
      <trkpt lat="46.50233" lon="5.83158">
        <ele>920.9</ele>
      </trkpt>
      <trkpt lat="46.50226" lon="5.8321">
        <ele>913.9</ele>
      </trkpt>
      <trkpt lat="46.5021" lon="5.8329">
        <ele>905.6</ele>
      </trkpt>
      <trkpt lat="46.5021" lon="5.83309">
        <ele>905.8</ele>
      </trkpt>
      <trkpt lat="46.50228" lon="5.83309">
        <ele>906.2</ele>
      </trkpt>
      <trkpt lat="46.50238" lon="5.83313">
        <ele>906.5</ele>
      </trkpt>
      <trkpt lat="46.50249" lon="5.83319">
        <ele>907</ele>
      </trkpt>
      <trkpt lat="46.50259" lon="5.83328">
        <ele>907</ele>
      </trkpt>
      <trkpt lat="46.50298" lon="5.83385">
        <ele>906.9</ele>
      </trkpt>
      <trkpt lat="46.50314" lon="5.83402">
        <ele>905.8</ele>
      </trkpt>
      <trkpt lat="46.50335" lon="5.8342">
        <ele>906.8</ele>
      </trkpt>
      <trkpt lat="46.50352" lon="5.83427">
        <ele>907.4</ele>
      </trkpt>
      <trkpt lat="46.50367" lon="5.8343">
        <ele>908.4</ele>
      </trkpt>
      <trkpt lat="46.50443" lon="5.83439">
        <ele>911.9</ele>
      </trkpt>
      <trkpt lat="46.5047" lon="5.83445">
        <ele>912.8</ele>
      </trkpt>
      <trkpt lat="46.5049" lon="5.83456">
        <ele>914.2</ele>
      </trkpt>
      <trkpt lat="46.50504" lon="5.83468">
        <ele>914.7</ele>
      </trkpt>
      <trkpt lat="46.50527" lon="5.83488">
        <ele>915.4</ele>
      </trkpt>
      <trkpt lat="46.5054" lon="5.83496">
        <ele>916.5</ele>
      </trkpt>
      <trkpt lat="46.50554" lon="5.835">
        <ele>917.8</ele>
      </trkpt>
      <trkpt lat="46.50596" lon="5.83504">
        <ele>919.3</ele>
      </trkpt>
      <trkpt lat="46.50659" lon="5.83516">
        <ele>922</ele>
      </trkpt>
      <trkpt lat="46.50679" lon="5.83523">
        <ele>922.1</ele>
      </trkpt>
      <trkpt lat="46.50688" lon="5.83529">
        <ele>922.2</ele>
      </trkpt>
      <trkpt lat="46.50718" lon="5.8356">
        <ele>922.7</ele>
      </trkpt>
      <trkpt lat="46.50747" lon="5.83587">
        <ele>921.2</ele>
      </trkpt>
      <trkpt lat="46.50844" lon="5.83666">
        <ele>919.5</ele>
      </trkpt>
      <trkpt lat="46.50844" lon="5.83666">
        <ele>919.5</ele>
      </trkpt>
      <trkpt lat="46.50877" lon="5.83694">
        <ele>918.9</ele>
      </trkpt>
      <trkpt lat="46.50908" lon="5.83726">
        <ele>918.1</ele>
      </trkpt>
      <trkpt lat="46.50944" lon="5.8375">
        <ele>913.1</ele>
      </trkpt>
      <trkpt lat="46.50985" lon="5.83784">
        <ele>911.7</ele>
      </trkpt>
      <trkpt lat="46.51017" lon="5.83809">
        <ele>910.7</ele>
      </trkpt>
      <trkpt lat="46.51061" lon="5.83833">
        <ele>909.5</ele>
      </trkpt>
      <trkpt lat="46.51067" lon="5.83838">
        <ele>909.6</ele>
      </trkpt>
      <trkpt lat="46.5108" lon="5.83853">
        <ele>909.4</ele>
      </trkpt>
      <trkpt lat="46.51088" lon="5.83865">
        <ele>908.9</ele>
      </trkpt>
      <trkpt lat="46.51094" lon="5.83883">
        <ele>908.1</ele>
      </trkpt>
      <trkpt lat="46.51099" lon="5.8388">
        <ele>908.6</ele>
      </trkpt>
      <trkpt lat="46.51119" lon="5.83846">
        <ele>911.1</ele>
      </trkpt>
      <trkpt lat="46.51126" lon="5.83842">
        <ele>911.8</ele>
      </trkpt>
      <trkpt lat="46.51167" lon="5.8385">
        <ele>913.4</ele>
      </trkpt>
      <trkpt lat="46.51178" lon="5.83855">
        <ele>914.4</ele>
      </trkpt>
      <trkpt lat="46.5119" lon="5.83864">
        <ele>915.5</ele>
      </trkpt>
      <trkpt lat="46.51192" lon="5.83854">
        <ele>916</ele>
      </trkpt>
      <trkpt lat="46.5121" lon="5.83863">
        <ele>917.5</ele>
      </trkpt>
      <trkpt lat="46.51222" lon="5.83871">
        <ele>917.6</ele>
      </trkpt>
      <trkpt lat="46.51241" lon="5.83878">
        <ele>919</ele>
      </trkpt>
      <trkpt lat="46.51347" lon="5.83888">
        <ele>924.7</ele>
      </trkpt>
      <trkpt lat="46.51358" lon="5.83888">
        <ele>925.1</ele>
      </trkpt>
      <trkpt lat="46.51366" lon="5.83884">
        <ele>926.1</ele>
      </trkpt>
      <trkpt lat="46.51375" lon="5.83876">
        <ele>927.1</ele>
      </trkpt>
      <trkpt lat="46.51382" lon="5.83864">
        <ele>927.8</ele>
      </trkpt>
      <trkpt lat="46.5139" lon="5.8385">
        <ele>928.3</ele>
      </trkpt>
      <trkpt lat="46.51394" lon="5.83824">
        <ele>930.2</ele>
      </trkpt>
      <trkpt lat="46.51398" lon="5.83809">
        <ele>930.5</ele>
      </trkpt>
      <trkpt lat="46.51415" lon="5.83824">
        <ele>929.4</ele>
      </trkpt>
      <trkpt lat="46.51427" lon="5.8383">
        <ele>930.4</ele>
      </trkpt>
      <trkpt lat="46.51433" lon="5.83842">
        <ele>931.3</ele>
      </trkpt>
      <trkpt lat="46.51436" lon="5.83857">
        <ele>932.1</ele>
      </trkpt>
      <trkpt lat="46.51455" lon="5.83889">
        <ele>935.3</ele>
      </trkpt>
      <trkpt lat="46.51475" lon="5.83894">
        <ele>934.7</ele>
      </trkpt>
      <trkpt lat="46.51502" lon="5.83891">
        <ele>936.3</ele>
      </trkpt>
      <trkpt lat="46.51526" lon="5.83911">
        <ele>938</ele>
      </trkpt>
      <trkpt lat="46.51544" lon="5.83916">
        <ele>940.4</ele>
      </trkpt>
      <trkpt lat="46.51548" lon="5.83913">
        <ele>941</ele>
      </trkpt>
      <trkpt lat="46.51556" lon="5.83915">
        <ele>942.1</ele>
      </trkpt>
      <trkpt lat="46.51559" lon="5.8391">
        <ele>942.7</ele>
      </trkpt>
      <trkpt lat="46.51571" lon="5.83907">
        <ele>944.4</ele>
      </trkpt>
      <trkpt lat="46.51595" lon="5.83913">
        <ele>945.2</ele>
      </trkpt>
      <trkpt lat="46.51601" lon="5.8392">
        <ele>944.9</ele>
      </trkpt>
      <trkpt lat="46.51618" lon="5.83923">
        <ele>945.3</ele>
      </trkpt>
      <trkpt lat="46.51628" lon="5.83914">
        <ele>945.1</ele>
      </trkpt>
      <trkpt lat="46.51648" lon="5.83905">
        <ele>946.9</ele>
      </trkpt>
      <trkpt lat="46.5166" lon="5.83908">
        <ele>948.6</ele>
      </trkpt>
      <trkpt lat="46.51665" lon="5.83912">
        <ele>949.1</ele>
      </trkpt>
      <trkpt lat="46.51681" lon="5.83918">
        <ele>950.1</ele>
      </trkpt>
      <trkpt lat="46.51692" lon="5.8393">
        <ele>951.4</ele>
      </trkpt>
      <trkpt lat="46.51704" lon="5.83937">
        <ele>951</ele>
      </trkpt>
      <trkpt lat="46.5171" lon="5.83939">
        <ele>950.7</ele>
      </trkpt>
      <trkpt lat="46.51713" lon="5.83937">
        <ele>950.4</ele>
      </trkpt>
      <trkpt lat="46.51716" lon="5.83939">
        <ele>950.3</ele>
      </trkpt>
      <trkpt lat="46.51728" lon="5.83922">
        <ele>948.4</ele>
      </trkpt>
      <trkpt lat="46.51754" lon="5.8386">
        <ele>935</ele>
      </trkpt>
      <trkpt lat="46.51771" lon="5.83868">
        <ele>935.8</ele>
      </trkpt>
      <trkpt lat="46.51795" lon="5.83888">
        <ele>936.1</ele>
      </trkpt>
      <trkpt lat="46.51861" lon="5.83963">
        <ele>931.7</ele>
      </trkpt>
      <trkpt lat="46.51893" lon="5.83995">
        <ele>928.8</ele>
      </trkpt>
      <trkpt lat="46.51917" lon="5.84017">
        <ele>926.4</ele>
      </trkpt>
      <trkpt lat="46.51964" lon="5.84055">
        <ele>925</ele>
      </trkpt>
      <trkpt lat="46.51985" lon="5.84066">
        <ele>925.5</ele>
      </trkpt>
      <trkpt lat="46.52059" lon="5.84086">
        <ele>928.5</ele>
      </trkpt>
      <trkpt lat="46.52078" lon="5.84094">
        <ele>929.1</ele>
      </trkpt>
      <trkpt lat="46.52094" lon="5.84104">
        <ele>928.4</ele>
      </trkpt>
      <trkpt lat="46.52113" lon="5.8412">
        <ele>927.2</ele>
      </trkpt>
      <trkpt lat="46.52175" lon="5.84182">
        <ele>924.1</ele>
      </trkpt>
      <trkpt lat="46.52218" lon="5.8422">
        <ele>925</ele>
      </trkpt>
      <trkpt lat="46.52287" lon="5.8429">
        <ele>930</ele>
      </trkpt>
      <trkpt lat="46.52401" lon="5.84326">
        <ele>934.2</ele>
      </trkpt>
      <trkpt lat="46.5243" lon="5.84341">
        <ele>934.9</ele>
      </trkpt>
      <trkpt lat="46.52448" lon="5.84359">
        <ele>934</ele>
      </trkpt>
      <trkpt lat="46.52467" lon="5.84401">
        <ele>933.1</ele>
      </trkpt>
      <trkpt lat="46.52487" lon="5.8443">
        <ele>933.1</ele>
      </trkpt>
      <trkpt lat="46.52503" lon="5.84449">
        <ele>932.5</ele>
      </trkpt>
      <trkpt lat="46.52516" lon="5.84461">
        <ele>933.5</ele>
      </trkpt>
      <trkpt lat="46.52644" lon="5.84539">
        <ele>941.2</ele>
      </trkpt>
      <trkpt lat="46.52659" lon="5.84554">
        <ele>941.4</ele>
      </trkpt>
      <trkpt lat="46.52677" lon="5.84582">
        <ele>941.1</ele>
      </trkpt>
      <trkpt lat="46.52687" lon="5.84604">
        <ele>940.2</ele>
      </trkpt>
      <trkpt lat="46.52696" lon="5.84631">
        <ele>937.3</ele>
      </trkpt>
      <trkpt lat="46.52735" lon="5.84688">
        <ele>933.4</ele>
      </trkpt>
      <trkpt lat="46.52746" lon="5.84696">
        <ele>933</ele>
      </trkpt>
      <trkpt lat="46.52768" lon="5.84702">
        <ele>934</ele>
      </trkpt>
      <trkpt lat="46.52807" lon="5.84709">
        <ele>937.6</ele>
      </trkpt>
      <trkpt lat="46.52826" lon="5.84721">
        <ele>939</ele>
      </trkpt>
      <trkpt lat="46.52825" lon="5.84727">
        <ele>939.4</ele>
      </trkpt>
      <trkpt lat="46.52846" lon="5.84734">
        <ele>939.5</ele>
      </trkpt>
      <trkpt lat="46.5295" lon="5.84779">
        <ele>939.1</ele>
      </trkpt>
      <trkpt lat="46.52963" lon="5.84787">
        <ele>938.6</ele>
      </trkpt>
      <trkpt lat="46.53045" lon="5.84853">
        <ele>939.6</ele>
      </trkpt>
      <trkpt lat="46.53147" lon="5.8491">
        <ele>943.2</ele>
      </trkpt>
      <trkpt lat="46.53396" lon="5.85056">
        <ele>952.2</ele>
      </trkpt>
      <trkpt lat="46.53602" lon="5.85169">
        <ele>964.3</ele>
      </trkpt>
      <trkpt lat="46.53741" lon="5.8527">
        <ele>971.7</ele>
      </trkpt>
      <trkpt lat="46.53759" lon="5.85283">
        <ele>971.6</ele>
      </trkpt>
      <trkpt lat="46.538" lon="5.85304">
        <ele>974.8</ele>
      </trkpt>
      <trkpt lat="46.53849" lon="5.85327">
        <ele>979</ele>
      </trkpt>
      <trkpt lat="46.53884" lon="5.85338">
        <ele>981.2</ele>
      </trkpt>
      <trkpt lat="46.53926" lon="5.8534">
        <ele>985</ele>
      </trkpt>
      <trkpt lat="46.53935" lon="5.85345">
        <ele>985.5</ele>
      </trkpt>
      <trkpt lat="46.53946" lon="5.85362">
        <ele>986.2</ele>
      </trkpt>
      <trkpt lat="46.53958" lon="5.85386">
        <ele>988</ele>
      </trkpt>
      <trkpt lat="46.53966" lon="5.85399">
        <ele>988</ele>
      </trkpt>
      <trkpt lat="46.53975" lon="5.85407">
        <ele>987.9</ele>
      </trkpt>
      <trkpt lat="46.5401" lon="5.85426">
        <ele>990.3</ele>
      </trkpt>
      <trkpt lat="46.54055" lon="5.85441">
        <ele>992.2</ele>
      </trkpt>
      <trkpt lat="46.54074" lon="5.8545">
        <ele>993.9</ele>
      </trkpt>
      <trkpt lat="46.54098" lon="5.85464">
        <ele>996.7</ele>
      </trkpt>
      <trkpt lat="46.54135" lon="5.85492">
        <ele>998.2</ele>
      </trkpt>
      <trkpt lat="46.54161" lon="5.85501">
        <ele>999.2</ele>
      </trkpt>
      <trkpt lat="46.54186" lon="5.85514">
        <ele>1000.4</ele>
      </trkpt>
      <trkpt lat="46.54208" lon="5.85538">
        <ele>1003</ele>
      </trkpt>
      <trkpt lat="46.54224" lon="5.85544">
        <ele>1004.9</ele>
      </trkpt>
      <trkpt lat="46.54234" lon="5.85567">
        <ele>1007</ele>
      </trkpt>
      <trkpt lat="46.54267" lon="5.85614">
        <ele>1008</ele>
      </trkpt>
      <trkpt lat="46.54294" lon="5.85638">
        <ele>1008.5</ele>
      </trkpt>
      <trkpt lat="46.54318" lon="5.85652">
        <ele>1011</ele>
      </trkpt>
      <trkpt lat="46.5435" lon="5.85677">
        <ele>1010</ele>
      </trkpt>
      <trkpt lat="46.54389" lon="5.85723">
        <ele>1010.9</ele>
      </trkpt>
      <trkpt lat="46.54421" lon="5.85757">
        <ele>1011.5</ele>
      </trkpt>
      <trkpt lat="46.54427" lon="5.85774">
        <ele>1011.5</ele>
      </trkpt>
      <trkpt lat="46.54436" lon="5.85808">
        <ele>1012.8</ele>
      </trkpt>
      <trkpt lat="46.54483" lon="5.85872">
        <ele>1011.8</ele>
      </trkpt>
      <trkpt lat="46.54551" lon="5.85937">
        <ele>1014.2</ele>
      </trkpt>
      <trkpt lat="46.54566" lon="5.85948">
        <ele>1013.5</ele>
      </trkpt>
      <trkpt lat="46.54588" lon="5.85946">
        <ele>1014.2</ele>
      </trkpt>
      <trkpt lat="46.54609" lon="5.85937">
        <ele>1015.8</ele>
      </trkpt>
      <trkpt lat="46.54631" lon="5.8594">
        <ele>1016.4</ele>
      </trkpt>
      <trkpt lat="46.5464" lon="5.85952">
        <ele>1015.8</ele>
      </trkpt>
      <trkpt lat="46.54661" lon="5.85986">
        <ele>1017.5</ele>
      </trkpt>
      <trkpt lat="46.54671" lon="5.86015">
        <ele>1017.4</ele>
      </trkpt>
      <trkpt lat="46.54677" lon="5.86046">
        <ele>1017.3</ele>
      </trkpt>
      <trkpt lat="46.54691" lon="5.86066">
        <ele>1018.4</ele>
      </trkpt>
      <trkpt lat="46.54737" lon="5.86085">
        <ele>1019.5</ele>
      </trkpt>
      <trkpt lat="46.54748" lon="5.86112">
        <ele>1019.5</ele>
      </trkpt>
      <trkpt lat="46.54752" lon="5.86145">
        <ele>1019.7</ele>
      </trkpt>
      <trkpt lat="46.5476" lon="5.86167">
        <ele>1020.6</ele>
      </trkpt>
      <trkpt lat="46.54769" lon="5.86183">
        <ele>1019.1</ele>
      </trkpt>
      <trkpt lat="46.54783" lon="5.86187">
        <ele>1020.5</ele>
      </trkpt>
      <trkpt lat="46.54812" lon="5.86185">
        <ele>1021.1</ele>
      </trkpt>
      <trkpt lat="46.54827" lon="5.86193">
        <ele>1022.1</ele>
      </trkpt>
      <trkpt lat="46.54836" lon="5.86212">
        <ele>1022</ele>
      </trkpt>
      <trkpt lat="46.54842" lon="5.86261">
        <ele>1022.3</ele>
      </trkpt>
      <trkpt lat="46.54855" lon="5.86289">
        <ele>1021.1</ele>
      </trkpt>
      <trkpt lat="46.5487" lon="5.86298">
        <ele>1022.7</ele>
      </trkpt>
      <trkpt lat="46.54931" lon="5.86353">
        <ele>1022.6</ele>
      </trkpt>
      <trkpt lat="46.54952" lon="5.86361">
        <ele>1024.3</ele>
      </trkpt>
      <trkpt lat="46.54982" lon="5.8636">
        <ele>1027.3</ele>
      </trkpt>
      <trkpt lat="46.54998" lon="5.86371">
        <ele>1027.8</ele>
      </trkpt>
      <trkpt lat="46.55016" lon="5.864">
        <ele>1027.6</ele>
      </trkpt>
      <trkpt lat="46.55019" lon="5.86454">
        <ele>1025.6</ele>
      </trkpt>
      <trkpt lat="46.55036" lon="5.86477">
        <ele>1026</ele>
      </trkpt>
      <trkpt lat="46.55055" lon="5.86479">
        <ele>1027.7</ele>
      </trkpt>
      <trkpt lat="46.55087" lon="5.86466">
        <ele>1027.4</ele>
      </trkpt>
      <trkpt lat="46.55097" lon="5.8647">
        <ele>1027.4</ele>
      </trkpt>
      <trkpt lat="46.55105" lon="5.86483">
        <ele>1027</ele>
      </trkpt>
      <trkpt lat="46.5511" lon="5.86518">
        <ele>1027.6</ele>
      </trkpt>
      <trkpt lat="46.55124" lon="5.8655">
        <ele>1028.3</ele>
      </trkpt>
      <trkpt lat="46.55157" lon="5.86582">
        <ele>1029.1</ele>
      </trkpt>
      <trkpt lat="46.55184" lon="5.86615">
        <ele>1029.6</ele>
      </trkpt>
      <trkpt lat="46.55196" lon="5.86655">
        <ele>1028.7</ele>
      </trkpt>
      <trkpt lat="46.55223" lon="5.8669">
        <ele>1031.8</ele>
      </trkpt>
      <trkpt lat="46.55234" lon="5.86725">
        <ele>1032.6</ele>
      </trkpt>
      <trkpt lat="46.55231" lon="5.8677">
        <ele>1028.9</ele>
      </trkpt>
      <trkpt lat="46.55245" lon="5.86809">
        <ele>1028.5</ele>
      </trkpt>
      <trkpt lat="46.55268" lon="5.86857">
        <ele>1027.7</ele>
      </trkpt>
      <trkpt lat="46.55303" lon="5.86895">
        <ele>1028.5</ele>
      </trkpt>
      <trkpt lat="46.55318" lon="5.86927">
        <ele>1028.3</ele>
      </trkpt>
      <trkpt lat="46.55339" lon="5.86958">
        <ele>1027.3</ele>
      </trkpt>
      <trkpt lat="46.5537" lon="5.86962">
        <ele>1029.7</ele>
      </trkpt>
      <trkpt lat="46.55382" lon="5.86967">
        <ele>1029.5</ele>
      </trkpt>
      <trkpt lat="46.55394" lon="5.86987">
        <ele>1029.6</ele>
      </trkpt>
      <trkpt lat="46.55434" lon="5.8704">
        <ele>1031.5</ele>
      </trkpt>
      <trkpt lat="46.55449" lon="5.87057">
        <ele>1031.8</ele>
        <extensions>
          <visugpx:TrkExtension xmlns:visugpx="https://www.visugpx.com/editgpx/">
            <visugpx:node>1</visugpx:node>
            </visugpx:TrkExtension>
        </extensions>
      </trkpt>
      <trkpt lat="46.5546" lon="5.87071">
        <ele>1031.6</ele>
      </trkpt>
      <trkpt lat="46.55508" lon="5.87152">
        <ele>1031</ele>
      </trkpt>
      <trkpt lat="46.55519" lon="5.87181">
        <ele>1030.9</ele>
      </trkpt>
      <trkpt lat="46.55542" lon="5.87216">
        <ele>1031</ele>
      </trkpt>
      <trkpt lat="46.5555" lon="5.87195">
        <ele>1033.4</ele>
      </trkpt>
      <trkpt lat="46.55557" lon="5.87182">
        <ele>1035</ele>
      </trkpt>
      <trkpt lat="46.55562" lon="5.87177">
        <ele>1036</ele>
      </trkpt>
      <trkpt lat="46.55579" lon="5.87163">
        <ele>1040.1</ele>
      </trkpt>
      <trkpt lat="46.55654" lon="5.87139">
        <ele>1049</ele>
      </trkpt>
      <trkpt lat="46.55675" lon="5.87142">
        <ele>1049.2</ele>
      </trkpt>
      <trkpt lat="46.55685" lon="5.87119">
        <ele>1049</ele>
      </trkpt>
      <trkpt lat="46.55701" lon="5.87094">
        <ele>1048.7</ele>
      </trkpt>
      <trkpt lat="46.55724" lon="5.87105">
        <ele>1049.9</ele>
      </trkpt>
      <trkpt lat="46.55774" lon="5.87166">
        <ele>1045</ele>
      </trkpt>
      <trkpt lat="46.55835" lon="5.87206">
        <ele>1044.4</ele>
      </trkpt>
      <trkpt lat="46.55864" lon="5.87242">
        <ele>1045.3</ele>
      </trkpt>
      <trkpt lat="46.55946" lon="5.87324">
        <ele>1042.5</ele>
      </trkpt>
      <trkpt lat="46.55947" lon="5.87349">
        <ele>1040</ele>
      </trkpt>
      <trkpt lat="46.56002" lon="5.87385">
        <ele>1041.1</ele>
      </trkpt>
      <trkpt lat="46.56042" lon="5.87421">
        <ele>1043.8</ele>
      </trkpt>
      <trkpt lat="46.56094" lon="5.87485">
        <ele>1044.9</ele>
      </trkpt>
      <trkpt lat="46.56117" lon="5.87504">
        <ele>1046.7</ele>
      </trkpt>
      <trkpt lat="46.56152" lon="5.87506">
        <ele>1048.8</ele>
      </trkpt>
      <trkpt lat="46.56163" lon="5.87509">
        <ele>1048.9</ele>
      </trkpt>
      <trkpt lat="46.56171" lon="5.87514">
        <ele>1049.3</ele>
      </trkpt>
      <trkpt lat="46.56181" lon="5.87524">
        <ele>1050.4</ele>
      </trkpt>
      <trkpt lat="46.56196" lon="5.87542">
        <ele>1051.1</ele>
      </trkpt>
      <trkpt lat="46.56203" lon="5.87546">
        <ele>1051</ele>
      </trkpt>
      <trkpt lat="46.5622" lon="5.87542">
        <ele>1052.8</ele>
      </trkpt>
      <trkpt lat="46.5624" lon="5.87517">
        <ele>1054.9</ele>
      </trkpt>
      <trkpt lat="46.56253" lon="5.87493">
        <ele>1054.7</ele>
      </trkpt>
      <trkpt lat="46.56262" lon="5.87481">
        <ele>1054.8</ele>
      </trkpt>
      <trkpt lat="46.56293" lon="5.87462">
        <ele>1056.8</ele>
      </trkpt>
      <trkpt lat="46.56314" lon="5.87407">
        <ele>1060.2</ele>
      </trkpt>
      <trkpt lat="46.56321" lon="5.87379">
        <ele>1061.3</ele>
      </trkpt>
      <trkpt lat="46.56331" lon="5.87353">
        <ele>1056</ele>
      </trkpt>
      <trkpt lat="46.56335" lon="5.8732">
        <ele>1053.3</ele>
      </trkpt>
      <trkpt lat="46.56342" lon="5.87305">
        <ele>1052.1</ele>
      </trkpt>
      <trkpt lat="46.56358" lon="5.87291">
        <ele>1052</ele>
      </trkpt>
      <trkpt lat="46.56394" lon="5.87271">
        <ele>1047.1</ele>
      </trkpt>
      <trkpt lat="46.56398" lon="5.87267">
        <ele>1046.3</ele>
      </trkpt>
      <trkpt lat="46.56404" lon="5.87253">
        <ele>1045.9</ele>
      </trkpt>
      <trkpt lat="46.56407" lon="5.87229">
        <ele>1043.2</ele>
      </trkpt>
      <trkpt lat="46.56412" lon="5.87224">
        <ele>1041.4</ele>
      </trkpt>
      <trkpt lat="46.56446" lon="5.87206">
        <ele>1035.7</ele>
      </trkpt>
      <trkpt lat="46.56462" lon="5.87184">
        <ele>1033.5</ele>
      </trkpt>
      <trkpt lat="46.56477" lon="5.8716">
        <ele>1030.5</ele>
      </trkpt>
      <trkpt lat="46.56483" lon="5.87155">
        <ele>1030.1</ele>
      </trkpt>
      <trkpt lat="46.56491" lon="5.87156">
        <ele>1028.1</ele>
      </trkpt>
      <trkpt lat="46.565" lon="5.8716">
        <ele>1025.7</ele>
      </trkpt>
      <trkpt lat="46.56504" lon="5.87166">
        <ele>1025.2</ele>
      </trkpt>
      <trkpt lat="46.56516" lon="5.87188">
        <ele>1023.8</ele>
      </trkpt>
      <trkpt lat="46.56519" lon="5.87198">
        <ele>1022.8</ele>
      </trkpt>
      <trkpt lat="46.56523" lon="5.87225">
        <ele>1021.4</ele>
      </trkpt>
      <trkpt lat="46.56528" lon="5.87248">
        <ele>1021</ele>
      </trkpt>
      <trkpt lat="46.56551" lon="5.87287">
        <ele>1017.2</ele>
      </trkpt>
      <trkpt lat="46.5656" lon="5.873">
        <ele>1015.9</ele>
      </trkpt>
      <trkpt lat="46.56577" lon="5.87318">
        <ele>1014.2</ele>
      </trkpt>
      <trkpt lat="46.5662" lon="5.87347">
        <ele>1011</ele>
      </trkpt>
      <trkpt lat="46.56635" lon="5.87366">
        <ele>1008.7</ele>
      </trkpt>
      <trkpt lat="46.56653" lon="5.87395">
        <ele>1007.4</ele>
      </trkpt>
      <trkpt lat="46.56668" lon="5.87408">
        <ele>1006.7</ele>
      </trkpt>
      <trkpt lat="46.56683" lon="5.87413">
        <ele>1006.5</ele>
      </trkpt>
      <trkpt lat="46.567" lon="5.87411">
        <ele>1005.9</ele>
      </trkpt>
      <trkpt lat="46.56734" lon="5.87387">
        <ele>1005.1</ele>
      </trkpt>
      <trkpt lat="46.56756" lon="5.87364">
        <ele>1006.6</ele>
      </trkpt>
      <trkpt lat="46.56766" lon="5.87357">
        <ele>1006.7</ele>
      </trkpt>
      <trkpt lat="46.56793" lon="5.87345">
        <ele>1006.6</ele>
      </trkpt>
      <trkpt lat="46.56808" lon="5.87346">
        <ele>1006.6</ele>
      </trkpt>
      <trkpt lat="46.56849" lon="5.87364">
        <ele>1006.2</ele>
      </trkpt>
      <trkpt lat="46.56898" lon="5.87379">
        <ele>1003.9</ele>
      </trkpt>
      <trkpt lat="46.56924" lon="5.874">
        <ele>1004.1</ele>
      </trkpt>
      <trkpt lat="46.56966" lon="5.87446">
        <ele>1005.4</ele>
      </trkpt>
      <trkpt lat="46.56972" lon="5.87453">
        <ele>1005.3</ele>
      </trkpt>
      <trkpt lat="46.5698" lon="5.87459">
        <ele>1005.8</ele>
      </trkpt>
      <trkpt lat="46.5699" lon="5.87461">
        <ele>1006</ele>
      </trkpt>
      <trkpt lat="46.57003" lon="5.87461">
        <ele>1005.3</ele>
      </trkpt>
      <trkpt lat="46.57021" lon="5.87455">
        <ele>1000.7</ele>
      </trkpt>
      <trkpt lat="46.57048" lon="5.87454">
        <ele>997</ele>
      </trkpt>
      <trkpt lat="46.57072" lon="5.87458">
        <ele>992.6</ele>
      </trkpt>
      <trkpt lat="46.57111" lon="5.87477">
        <ele>987.5</ele>
      </trkpt>
      <trkpt lat="46.57144" lon="5.8749">
        <ele>985</ele>
      </trkpt>
      <trkpt lat="46.57218" lon="5.87507">
        <ele>979.3</ele>
      </trkpt>
      <trkpt lat="46.57231" lon="5.87512">
        <ele>978.4</ele>
      </trkpt>
      <trkpt lat="46.57255" lon="5.87525">
        <ele>977.5</ele>
      </trkpt>
      <trkpt lat="46.57274" lon="5.87544">
        <ele>976.9</ele>
      </trkpt>
      <trkpt lat="46.57282" lon="5.8755">
        <ele>976.4</ele>
      </trkpt>
      <trkpt lat="46.57292" lon="5.87553">
        <ele>976.2</ele>
      </trkpt>
      <trkpt lat="46.57323" lon="5.87558">
        <ele>975.4</ele>
      </trkpt>
      <trkpt lat="46.57342" lon="5.87552">
        <ele>975.1</ele>
      </trkpt>
      <trkpt lat="46.57361" lon="5.87556">
        <ele>974.1</ele>
      </trkpt>
      <trkpt lat="46.57405" lon="5.87587">
        <ele>970.9</ele>
      </trkpt>
      <trkpt lat="46.57421" lon="5.87589">
        <ele>968.9</ele>
      </trkpt>
      <trkpt lat="46.57441" lon="5.87583">
        <ele>968.2</ele>
      </trkpt>
      <trkpt lat="46.57483" lon="5.87545">
        <ele>970.3</ele>
      </trkpt>
      <trkpt lat="46.57503" lon="5.87534">
        <ele>970.5</ele>
      </trkpt>
      <trkpt lat="46.57613" lon="5.87521">
        <ele>964.2</ele>
      </trkpt>
      <trkpt lat="46.57626" lon="5.87523">
        <ele>963.3</ele>
      </trkpt>
      <trkpt lat="46.57651" lon="5.87548">
        <ele>957.9</ele>
      </trkpt>
      <trkpt lat="46.57662" lon="5.87551">
        <ele>957.3</ele>
      </trkpt>
      <trkpt lat="46.57687" lon="5.8755">
        <ele>956.6</ele>
      </trkpt>
      <trkpt lat="46.57704" lon="5.87544">
        <ele>956.4</ele>
      </trkpt>
      <trkpt lat="46.5773" lon="5.87524">
        <ele>955.9</ele>
      </trkpt>
      <trkpt lat="46.57748" lon="5.87515">
        <ele>955.3</ele>
      </trkpt>
      <trkpt lat="46.57769" lon="5.87509">
        <ele>955.8</ele>
      </trkpt>
      <trkpt lat="46.57791" lon="5.87509">
        <ele>955.8</ele>
      </trkpt>
      <trkpt lat="46.57842" lon="5.87523">
        <ele>959.6</ele>
      </trkpt>
      <trkpt lat="46.57861" lon="5.87536">
        <ele>961.6</ele>
      </trkpt>
      <trkpt lat="46.5787" lon="5.87549">
        <ele>963.2</ele>
      </trkpt>
      <trkpt lat="46.57876" lon="5.87557">
        <ele>964</ele>
      </trkpt>
      <trkpt lat="46.57896" lon="5.87578">
        <ele>964.9</ele>
      </trkpt>
      <trkpt lat="46.57959" lon="5.87654">
        <ele>960.1</ele>
      </trkpt>
      <trkpt lat="46.57969" lon="5.87664">
        <ele>958.5</ele>
      </trkpt>
      <trkpt lat="46.57977" lon="5.87667">
        <ele>957.8</ele>
      </trkpt>
      <trkpt lat="46.58004" lon="5.8767">
        <ele>957.4</ele>
      </trkpt>
      <trkpt lat="46.5803" lon="5.87678">
        <ele>959.5</ele>
      </trkpt>
      <trkpt lat="46.58081" lon="5.87701">
        <ele>958</ele>
      </trkpt>
      <trkpt lat="46.58094" lon="5.87711">
        <ele>958.9</ele>
      </trkpt>
      <trkpt lat="46.58119" lon="5.87726">
        <ele>961.5</ele>
      </trkpt>
      <trkpt lat="46.58132" lon="5.87731">
        <ele>963</ele>
      </trkpt>
      <trkpt lat="46.58182" lon="5.87737">
        <ele>966.8</ele>
      </trkpt>
      <trkpt lat="46.58222" lon="5.87738">
        <ele>964.5</ele>
      </trkpt>
      <trkpt lat="46.58256" lon="5.87752">
        <ele>963.4</ele>
      </trkpt>
      <trkpt lat="46.5829" lon="5.87771">
        <ele>966.9</ele>
      </trkpt>
      <trkpt lat="46.58304" lon="5.87775">
        <ele>967.3</ele>
      </trkpt>
      <trkpt lat="46.58333" lon="5.87802">
        <ele>969.8</ele>
      </trkpt>
      <trkpt lat="46.58342" lon="5.87804">
        <ele>971</ele>
      </trkpt>
      <trkpt lat="46.58366" lon="5.87801">
        <ele>972.2</ele>
      </trkpt>
      <trkpt lat="46.58412" lon="5.87813">
        <ele>976.1</ele>
      </trkpt>
      <trkpt lat="46.58473" lon="5.87817">
        <ele>965.5</ele>
      </trkpt>
      <trkpt lat="46.58481" lon="5.87824">
        <ele>965.5</ele>
      </trkpt>
      <trkpt lat="46.58487" lon="5.87833">
        <ele>970.1</ele>
      </trkpt>
      <trkpt lat="46.58496" lon="5.87856">
        <ele>966.9</ele>
      </trkpt>
      <trkpt lat="46.58502" lon="5.8788">
        <ele>965.7</ele>
      </trkpt>
      <trkpt lat="46.58518" lon="5.87908">
        <ele>963.1</ele>
      </trkpt>
      <trkpt lat="46.5853" lon="5.87957">
        <ele>960.1</ele>
      </trkpt>
      <trkpt lat="46.58547" lon="5.87996">
        <ele>964.6</ele>
      </trkpt>
      <trkpt lat="46.5855" lon="5.8801">
        <ele>966</ele>
      </trkpt>
      <trkpt lat="46.58549" lon="5.88035">
        <ele>969.2</ele>
      </trkpt>
      <trkpt lat="46.58545" lon="5.88047">
        <ele>970.6</ele>
      </trkpt>
      <trkpt lat="46.58533" lon="5.88071">
        <ele>969.9</ele>
      </trkpt>
      <trkpt lat="46.58528" lon="5.88095">
        <ele>968.1</ele>
      </trkpt>
      <trkpt lat="46.58527" lon="5.88108">
        <ele>968</ele>
      </trkpt>
      <trkpt lat="46.58542" lon="5.88156">
        <ele>966.6</ele>
      </trkpt>
      <trkpt lat="46.58545" lon="5.88178">
        <ele>966</ele>
      </trkpt>
      <trkpt lat="46.58545" lon="5.8819">
        <ele>966.2</ele>
      </trkpt>
      <trkpt lat="46.58542" lon="5.88203">
        <ele>966.4</ele>
      </trkpt>
      <trkpt lat="46.58535" lon="5.88228">
        <ele>965.6</ele>
      </trkpt>
      <trkpt lat="46.58533" lon="5.88246">
        <ele>965.5</ele>
      </trkpt>
      <trkpt lat="46.58534" lon="5.88268">
        <ele>964.7</ele>
      </trkpt>
      <trkpt lat="46.58536" lon="5.88274">
        <ele>964.5</ele>
      </trkpt>
      <trkpt lat="46.5854" lon="5.88281">
        <ele>964.3</ele>
      </trkpt>
      <trkpt lat="46.58545" lon="5.88285">
        <ele>964.1</ele>
      </trkpt>
      <trkpt lat="46.58568" lon="5.88291">
        <ele>965</ele>
      </trkpt>
      <trkpt lat="46.58606" lon="5.88303">
        <ele>965.4</ele>
      </trkpt>
      <trkpt lat="46.58618" lon="5.88309">
        <ele>965.8</ele>
      </trkpt>
      <trkpt lat="46.58631" lon="5.88322">
        <ele>966.5</ele>
      </trkpt>
      <trkpt lat="46.58645" lon="5.88351">
        <ele>966</ele>
      </trkpt>
      <trkpt lat="46.5865" lon="5.88358">
        <ele>966</ele>
      </trkpt>
      <trkpt lat="46.58662" lon="5.88368">
        <ele>966.7</ele>
      </trkpt>
      <trkpt lat="46.58722" lon="5.88368">
        <ele>969.5</ele>
      </trkpt>
      <trkpt lat="46.58737" lon="5.8837">
        <ele>969.8</ele>
      </trkpt>
      <trkpt lat="46.58745" lon="5.88376">
        <ele>969.5</ele>
      </trkpt>
      <trkpt lat="46.58751" lon="5.88386">
        <ele>969.5</ele>
      </trkpt>
      <trkpt lat="46.58757" lon="5.88403">
        <ele>970.4</ele>
      </trkpt>
      <trkpt lat="46.58766" lon="5.88448">
        <ele>970.9</ele>
      </trkpt>
      <trkpt lat="46.58782" lon="5.88472">
        <ele>971.5</ele>
      </trkpt>
      <trkpt lat="46.58832" lon="5.88508">
        <ele>974</ele>
      </trkpt>
      <trkpt lat="46.58856" lon="5.88533">
        <ele>971.9</ele>
      </trkpt>
      <trkpt lat="46.58883" lon="5.8855">
        <ele>970.9</ele>
      </trkpt>
      <trkpt lat="46.58925" lon="5.88561">
        <ele>966.1</ele>
      </trkpt>
      <trkpt lat="46.58939" lon="5.8856">
        <ele>964.8</ele>
      </trkpt>
      <trkpt lat="46.58962" lon="5.88555">
        <ele>963.8</ele>
      </trkpt>
      <trkpt lat="46.58973" lon="5.88555">
        <ele>963.1</ele>
      </trkpt>
      <trkpt lat="46.59004" lon="5.88558">
        <ele>961.7</ele>
      </trkpt>
      <trkpt lat="46.59017" lon="5.88562">
        <ele>961.2</ele>
      </trkpt>
      <trkpt lat="46.59071" lon="5.88625">
        <ele>955.2</ele>
      </trkpt>
      <trkpt lat="46.59081" lon="5.88648">
        <ele>953.3</ele>
      </trkpt>
      <trkpt lat="46.5909" lon="5.88659">
        <ele>951.7</ele>
      </trkpt>
      <trkpt lat="46.59115" lon="5.88677">
        <ele>949.7</ele>
      </trkpt>
      <trkpt lat="46.59175" lon="5.88711">
        <ele>946.1</ele>
      </trkpt>
      <trkpt lat="46.59188" lon="5.88724">
        <ele>945.3</ele>
      </trkpt>
      <trkpt lat="46.59205" lon="5.88743">
        <ele>944.9</ele>
      </trkpt>
      <trkpt lat="46.59224" lon="5.8878">
        <ele>941.9</ele>
      </trkpt>
      <trkpt lat="46.59233" lon="5.88806">
        <ele>939.7</ele>
      </trkpt>
      <trkpt lat="46.59239" lon="5.88821">
        <ele>939.2</ele>
      </trkpt>
      <trkpt lat="46.59247" lon="5.88831">
        <ele>938.3</ele>
      </trkpt>
      <trkpt lat="46.5926" lon="5.8884">
        <ele>938.9</ele>
      </trkpt>
      <trkpt lat="46.59303" lon="5.88867">
        <ele>935.5</ele>
      </trkpt>
      <trkpt lat="46.59315" lon="5.88882">
        <ele>934.8</ele>
      </trkpt>
      <trkpt lat="46.59327" lon="5.88896">
        <ele>933.4</ele>
      </trkpt>
      <trkpt lat="46.59339" lon="5.88916">
        <ele>929.9</ele>
      </trkpt>
      <trkpt lat="46.59348" lon="5.88935">
        <ele>928.6</ele>
      </trkpt>
      <trkpt lat="46.59362" lon="5.88956">
        <ele>928</ele>
      </trkpt>
      <trkpt lat="46.59386" lon="5.88983">
        <ele>927.6</ele>
      </trkpt>
      <trkpt lat="46.59401" lon="5.89018">
        <ele>925.3</ele>
      </trkpt>
      <trkpt lat="46.59411" lon="5.89046">
        <ele>924.9</ele>
      </trkpt>
      <trkpt lat="46.59416" lon="5.89062">
        <ele>924.2</ele>
      </trkpt>
      <trkpt lat="46.59436" lon="5.89091">
        <ele>923.5</ele>
      </trkpt>
      <trkpt lat="46.59503" lon="5.89158">
        <ele>919</ele>
      </trkpt>
      <trkpt lat="46.59538" lon="5.89201">
        <ele>918.3</ele>
      </trkpt>
      <trkpt lat="46.5957" lon="5.8925">
        <ele>915</ele>
        <extensions>
          <visugpx:TrkExtension xmlns:visugpx="https://www.visugpx.com/editgpx/">
            <visugpx:node>2</visugpx:node>
            </visugpx:TrkExtension>
        </extensions>
      </trkpt>
      <trkpt lat="46.59582" lon="5.89267">
        <ele>914.7</ele>
      </trkpt>
      <trkpt lat="46.59591" lon="5.89278">
        <ele>914.3</ele>
      </trkpt>
      <trkpt lat="46.5961" lon="5.89298">
        <ele>914.2</ele>
      </trkpt>
      <trkpt lat="46.59636" lon="5.89327">
        <ele>913.7</ele>
      </trkpt>
      <trkpt lat="46.59739" lon="5.89424">
        <ele>907.6</ele>
      </trkpt>
      <trkpt lat="46.59771" lon="5.89456">
        <ele>905.1</ele>
      </trkpt>
      <trkpt lat="46.59859" lon="5.89546">
        <ele>897.3</ele>
      </trkpt>
      <trkpt lat="46.59869" lon="5.8956">
        <ele>896.6</ele>
      </trkpt>
      <trkpt lat="46.5988" lon="5.89585">
        <ele>895.6</ele>
      </trkpt>
      <trkpt lat="46.59909" lon="5.89644">
        <ele>895.6</ele>
      </trkpt>
      <trkpt lat="46.59931" lon="5.89674">
        <ele>894.9</ele>
      </trkpt>
      <trkpt lat="46.59986" lon="5.89734">
        <ele>893</ele>
      </trkpt>
      <trkpt lat="46.6" lon="5.89747">
        <ele>891.5</ele>
      </trkpt>
      <trkpt lat="46.60018" lon="5.89756">
        <ele>890.9</ele>
      </trkpt>
      <trkpt lat="46.60091" lon="5.89787">
        <ele>889.9</ele>
      </trkpt>
      <trkpt lat="46.60104" lon="5.89794">
        <ele>890.4</ele>
      </trkpt>
      <trkpt lat="46.60113" lon="5.89802">
        <ele>890</ele>
      </trkpt>
      <trkpt lat="46.60129" lon="5.89822">
        <ele>890.5</ele>
      </trkpt>
      <trkpt lat="46.60148" lon="5.89871">
        <ele>888.9</ele>
      </trkpt>
      <trkpt lat="46.60152" lon="5.89878">
        <ele>889.1</ele>
      </trkpt>
      <trkpt lat="46.60169" lon="5.89895">
        <ele>891.1</ele>
      </trkpt>
      <trkpt lat="46.60172" lon="5.89903">
        <ele>891.1</ele>
      </trkpt>
      <trkpt lat="46.60189" lon="5.89916">
        <ele>891.7</ele>
      </trkpt>
      <trkpt lat="46.60199" lon="5.89925">
        <ele>892.3</ele>
      </trkpt>
      <trkpt lat="46.60242" lon="5.89973">
        <ele>892.1</ele>
      </trkpt>
      <trkpt lat="46.60269" lon="5.90003">
        <ele>893.9</ele>
      </trkpt>
      <trkpt lat="46.60319" lon="5.90075">
        <ele>892.7</ele>
      </trkpt>
      <trkpt lat="46.60354" lon="5.90132">
        <ele>892</ele>
      </trkpt>
      <trkpt lat="46.60379" lon="5.90174">
        <ele>891.8</ele>
      </trkpt>
      <trkpt lat="46.60392" lon="5.90196">
        <ele>892.3</ele>
      </trkpt>
      <trkpt lat="46.60463" lon="5.90326">
        <ele>890.8</ele>
      </trkpt>
      <trkpt lat="46.60478" lon="5.90346">
        <ele>889.8</ele>
      </trkpt>
      <trkpt lat="46.60483" lon="5.90357">
        <ele>889.5</ele>
      </trkpt>
      <trkpt lat="46.60476" lon="5.90361">
        <ele>889.1</ele>
      </trkpt>
      <trkpt lat="46.60482" lon="5.90381">
        <ele>888.1</ele>
      </trkpt>
      <trkpt lat="46.60487" lon="5.90395">
        <ele>887</ele>
      </trkpt>
      <trkpt lat="46.60497" lon="5.90409">
        <ele>885.7</ele>
      </trkpt>
      <trkpt lat="46.60522" lon="5.90434">
        <ele>882.8</ele>
      </trkpt>
      <trkpt lat="46.60536" lon="5.90411">
        <ele>884.3</ele>
      </trkpt>
      <trkpt lat="46.60548" lon="5.90399">
        <ele>885.2</ele>
      </trkpt>
      <trkpt lat="46.60564" lon="5.90393">
        <ele>885.6</ele>
      </trkpt>
      <trkpt lat="46.60604" lon="5.90387">
        <ele>886.1</ele>
      </trkpt>
      <trkpt lat="46.60637" lon="5.90372">
        <ele>888.9</ele>
      </trkpt>
      <trkpt lat="46.60641" lon="5.90369">
        <ele>889.1</ele>
      </trkpt>
      <trkpt lat="46.60643" lon="5.90366">
        <ele>889.2</ele>
      </trkpt>
      <trkpt lat="46.60667" lon="5.90382">
        <ele>889.5</ele>
      </trkpt>
      <trkpt lat="46.60682" lon="5.90386">
        <ele>889.4</ele>
      </trkpt>
      <trkpt lat="46.60702" lon="5.90389">
        <ele>889</ele>
      </trkpt>
      <trkpt lat="46.60738" lon="5.9039">
        <ele>889</ele>
      </trkpt>
      <trkpt lat="46.60756" lon="5.90387">
        <ele>889.7</ele>
      </trkpt>
      <trkpt lat="46.60793" lon="5.90379">
        <ele>891.2</ele>
      </trkpt>
      <trkpt lat="46.60796" lon="5.90386">
        <ele>890.5</ele>
      </trkpt>
      <trkpt lat="46.60801" lon="5.90387">
        <ele>890.7</ele>
      </trkpt>
      <trkpt lat="46.60809" lon="5.90386">
        <ele>891.2</ele>
      </trkpt>
      <trkpt lat="46.60876" lon="5.90367">
        <ele>891.5</ele>
      </trkpt>
      <trkpt lat="46.60886" lon="5.90371">
        <ele>892.1</ele>
      </trkpt>
      <trkpt lat="46.60895" lon="5.90379">
        <ele>892.6</ele>
      </trkpt>
      <trkpt lat="46.60897" lon="5.90367">
        <ele>893.4</ele>
      </trkpt>
      <trkpt lat="46.60894" lon="5.90349">
        <ele>890.8</ele>
      </trkpt>
      <trkpt lat="46.60934" lon="5.90284">
        <ele>887.4</ele>
      </trkpt>
      <trkpt lat="46.60937" lon="5.90276">
        <ele>883.7</ele>
      </trkpt>
      <trkpt lat="46.60946" lon="5.90273">
        <ele>881.8</ele>
      </trkpt>
      <trkpt lat="46.60964" lon="5.90262">
        <ele>884.8</ele>
      </trkpt>
      <trkpt lat="46.61003" lon="5.90218">
        <ele>870.9</ele>
      </trkpt>
      <trkpt lat="46.61016" lon="5.90208">
        <ele>869.6</ele>
        <extensions>
          <visugpx:TrkExtension xmlns:visugpx="https://www.visugpx.com/editgpx/">
            <visugpx:node>3</visugpx:node>
            </visugpx:TrkExtension>
        </extensions>
      </trkpt>
      <trkpt lat="46.6102" lon="5.90205">
        <ele>869.1</ele>
      </trkpt>
      <trkpt lat="46.61044" lon="5.90202">
        <ele>870.3</ele>
      </trkpt>
      <trkpt lat="46.61061" lon="5.90189">
        <ele>864.8</ele>
      </trkpt>
      <trkpt lat="46.61074" lon="5.90174">
        <ele>862.5</ele>
      </trkpt>
      <trkpt lat="46.61091" lon="5.9016">
        <ele>860.3</ele>
      </trkpt>
      <trkpt lat="46.61119" lon="5.90133">
        <ele>856.4</ele>
      </trkpt>
      <trkpt lat="46.6113" lon="5.90114">
        <ele>852</ele>
      </trkpt>
      <trkpt lat="46.61134" lon="5.90102">
        <ele>851.3</ele>
      </trkpt>
      <trkpt lat="46.61135" lon="5.90081">
        <ele>850.3</ele>
      </trkpt>
      <trkpt lat="46.61135" lon="5.9004">
        <ele>845.6</ele>
      </trkpt>
      <trkpt lat="46.61138" lon="5.90011">
        <ele>841.7</ele>
      </trkpt>
      <trkpt lat="46.61148" lon="5.89968">
        <ele>839.1</ele>
      </trkpt>
      <trkpt lat="46.61155" lon="5.89947">
        <ele>838.1</ele>
      </trkpt>
      <trkpt lat="46.6116" lon="5.89917">
        <ele>831.7</ele>
      </trkpt>
      <trkpt lat="46.61162" lon="5.8991">
        <ele>831</ele>
      </trkpt>
      <trkpt lat="46.6117" lon="5.89896">
        <ele>831.5</ele>
      </trkpt>
      <trkpt lat="46.61185" lon="5.89872">
        <ele>827.4</ele>
      </trkpt>
      <trkpt lat="46.61221" lon="5.89831">
        <ele>822.8</ele>
      </trkpt>
      <trkpt lat="46.61263" lon="5.89785">
        <ele>817.2</ele>
      </trkpt>
      <trkpt lat="46.61298" lon="5.89758">
        <ele>812.3</ele>
      </trkpt>
      <trkpt lat="46.61328" lon="5.89723">
        <ele>809</ele>
      </trkpt>
      <trkpt lat="46.61338" lon="5.89693">
        <ele>808.2</ele>
      </trkpt>
      <trkpt lat="46.61341" lon="5.89674">
        <ele>809.1</ele>
      </trkpt>
      <trkpt lat="46.61339" lon="5.89647">
        <ele>809.7</ele>
      </trkpt>
      <trkpt lat="46.61336" lon="5.89633">
        <ele>809.9</ele>
      </trkpt>
      <trkpt lat="46.6129" lon="5.89527">
        <ele>812.3</ele>
      </trkpt>
      <trkpt lat="46.61285" lon="5.89499">
        <ele>811.9</ele>
      </trkpt>
      <trkpt lat="46.61285" lon="5.89489">
        <ele>810.7</ele>
      </trkpt>
      <trkpt lat="46.61286" lon="5.89478">
        <ele>809.4</ele>
      </trkpt>
      <trkpt lat="46.61289" lon="5.89469">
        <ele>808</ele>
      </trkpt>
      <trkpt lat="46.61299" lon="5.8946">
        <ele>805.7</ele>
      </trkpt>
      <trkpt lat="46.61321" lon="5.89459">
        <ele>804.9</ele>
      </trkpt>
      <trkpt lat="46.61337" lon="5.8944">
        <ele>801.7</ele>
      </trkpt>
      <trkpt lat="46.61341" lon="5.89417">
        <ele>800.5</ele>
      </trkpt>
      <trkpt lat="46.61332" lon="5.8938">
        <ele>798.9</ele>
      </trkpt>
      <trkpt lat="46.61322" lon="5.89366">
        <ele>798.3</ele>
      </trkpt>
      <trkpt lat="46.61322" lon="5.89359">
        <ele>798.5</ele>
      </trkpt>
      <trkpt lat="46.61312" lon="5.89345">
        <ele>799.3</ele>
      </trkpt>
      <trkpt lat="46.61307" lon="5.89326">
        <ele>800.2</ele>
      </trkpt>
      <trkpt lat="46.61311" lon="5.89299">
        <ele>799.5</ele>
      </trkpt>
      <trkpt lat="46.61325" lon="5.89266">
        <ele>796.1</ele>
      </trkpt>
      <trkpt lat="46.61343" lon="5.89238">
        <ele>792.5</ele>
      </trkpt>
      <trkpt lat="46.61364" lon="5.89211">
        <ele>790.5</ele>
      </trkpt>
      <trkpt lat="46.61385" lon="5.89192">
        <ele>790.2</ele>
      </trkpt>
      <trkpt lat="46.61404" lon="5.89171">
        <ele>786.5</ele>
      </trkpt>
      <trkpt lat="46.61421" lon="5.89158">
        <ele>783.3</ele>
      </trkpt>
      <trkpt lat="46.61424" lon="5.89153">
        <ele>781.9</ele>
      </trkpt>
      <trkpt lat="46.6147" lon="5.89135">
        <ele>779.3</ele>
      </trkpt>
      <trkpt lat="46.61505" lon="5.89132">
        <ele>778.1</ele>
      </trkpt>
      <trkpt lat="46.6151" lon="5.8913">
        <ele>778</ele>
      </trkpt>
      <trkpt lat="46.61514" lon="5.89119">
        <ele>776.9</ele>
      </trkpt>
      <trkpt lat="46.61516" lon="5.8911">
        <ele>776.2</ele>
      </trkpt>
      <trkpt lat="46.61552" lon="5.89106">
        <ele>778.8</ele>
      </trkpt>
      <trkpt lat="46.61581" lon="5.89095">
        <ele>778.5</ele>
      </trkpt>
      <trkpt lat="46.61626" lon="5.89111">
        <ele>775.9</ele>
      </trkpt>
      <trkpt lat="46.61645" lon="5.89118">
        <ele>775.2</ele>
      </trkpt>
      <trkpt lat="46.61692" lon="5.89149">
        <ele>775.5</ele>
      </trkpt>
      <trkpt lat="46.61712" lon="5.89167">
        <ele>775.4</ele>
      </trkpt>
      <trkpt lat="46.61742" lon="5.89203">
        <ele>775.2</ele>
      </trkpt>
      <trkpt lat="46.6176" lon="5.8923">
        <ele>776.4</ele>
      </trkpt>
      <trkpt lat="46.61794" lon="5.8927">
        <ele>777.9</ele>
      </trkpt>
      <trkpt lat="46.61826" lon="5.89322">
        <ele>779.1</ele>
      </trkpt>
      <trkpt lat="46.61873" lon="5.89411">
        <ele>781.1</ele>
      </trkpt>
      <trkpt lat="46.61905" lon="5.89452">
        <ele>780.5</ele>
      </trkpt>
      <trkpt lat="46.61917" lon="5.89481">
        <ele>779.6</ele>
      </trkpt>
      <trkpt lat="46.6192" lon="5.89518">
        <ele>782.1</ele>
      </trkpt>
      <trkpt lat="46.61924" lon="5.89537">
        <ele>782.7</ele>
      </trkpt>
      <trkpt lat="46.61929" lon="5.89591">
        <ele>784.7</ele>
      </trkpt>
      <trkpt lat="46.61932" lon="5.89602">
        <ele>785.3</ele>
      </trkpt>
      <trkpt lat="46.61939" lon="5.89621">
        <ele>787.3</ele>
      </trkpt>
      <trkpt lat="46.6195" lon="5.89628">
        <ele>787.9</ele>
      </trkpt>
      <trkpt lat="46.61957" lon="5.89638">
        <ele>788.1</ele>
      </trkpt>
      <trkpt lat="46.61969" lon="5.89664">
        <ele>787.6</ele>
      </trkpt>
      <trkpt lat="46.61978" lon="5.89688">
        <ele>787.8</ele>
      </trkpt>
      <trkpt lat="46.61985" lon="5.89719">
        <ele>788.1</ele>
      </trkpt>
      <trkpt lat="46.61987" lon="5.89735">
        <ele>788.9</ele>
      </trkpt>
      <trkpt lat="46.61986" lon="5.89766">
        <ele>791.4</ele>
      </trkpt>
      <trkpt lat="46.61984" lon="5.89775">
        <ele>792</ele>
      </trkpt>
      <trkpt lat="46.61957" lon="5.89825">
        <ele>791.5</ele>
      </trkpt>
      <trkpt lat="46.61936" lon="5.89853">
        <ele>792.3</ele>
      </trkpt>
      <trkpt lat="46.61928" lon="5.89865">
        <ele>792.8</ele>
      </trkpt>
      <trkpt lat="46.61921" lon="5.8989">
        <ele>792.8</ele>
      </trkpt>
      <trkpt lat="46.6192" lon="5.89903">
        <ele>793.4</ele>
      </trkpt>
      <trkpt lat="46.61923" lon="5.89938">
        <ele>793.3</ele>
      </trkpt>
      <trkpt lat="46.6193" lon="5.89973">
        <ele>793.8</ele>
      </trkpt>
      <trkpt lat="46.61932" lon="5.89982">
        <ele>793.9</ele>
        <extensions>
          <visugpx:TrkExtension xmlns:visugpx="https://www.visugpx.com/editgpx/">
            <visugpx:node>4</visugpx:node>
            </visugpx:TrkExtension>
        </extensions>
      </trkpt>
      <trkpt lat="46.61935" lon="5.89991">
        <ele>793.8</ele>
      </trkpt>
      <trkpt lat="46.61949" lon="5.90019">
        <ele>793.4</ele>
      </trkpt>
      <trkpt lat="46.61957" lon="5.90039">
        <ele>793.6</ele>
      </trkpt>
      <trkpt lat="46.61967" lon="5.9007">
        <ele>794</ele>
      </trkpt>
      <trkpt lat="46.6197" lon="5.90086">
        <ele>794.4</ele>
      </trkpt>
      <trkpt lat="46.61973" lon="5.90118">
        <ele>794.9</ele>
      </trkpt>
      <trkpt lat="46.61983" lon="5.90208">
        <ele>792.9</ele>
      </trkpt>
      <trkpt lat="46.61987" lon="5.90232">
        <ele>792.3</ele>
      </trkpt>
      <trkpt lat="46.61991" lon="5.90243">
        <ele>792.2</ele>
      </trkpt>
      <trkpt lat="46.62003" lon="5.90265">
        <ele>791.3</ele>
      </trkpt>
      <trkpt lat="46.62026" lon="5.90288">
        <ele>789.8</ele>
      </trkpt>
      <trkpt lat="46.62036" lon="5.90305">
        <ele>787.8</ele>
      </trkpt>
      <trkpt lat="46.62054" lon="5.90345">
        <ele>786.3</ele>
      </trkpt>
      <trkpt lat="46.62072" lon="5.90377">
        <ele>785.5</ele>
      </trkpt>
      <trkpt lat="46.62104" lon="5.9041">
        <ele>780.7</ele>
      </trkpt>
      <trkpt lat="46.62134" lon="5.90451">
        <ele>778.1</ele>
      </trkpt>
      <trkpt lat="46.62153" lon="5.90482">
        <ele>778.5</ele>
      </trkpt>
      <trkpt lat="46.62189" lon="5.90543">
        <ele>776.9</ele>
      </trkpt>
      <trkpt lat="46.62215" lon="5.90612">
        <ele>777.8</ele>
      </trkpt>
      <trkpt lat="46.62236" lon="5.90652">
        <ele>779.1</ele>
      </trkpt>
      <trkpt lat="46.62276" lon="5.90704">
        <ele>778.7</ele>
      </trkpt>
      <trkpt lat="46.62304" lon="5.90746">
        <ele>777.3</ele>
      </trkpt>
      <trkpt lat="46.62316" lon="5.9076">
        <ele>777.4</ele>
      </trkpt>
      <trkpt lat="46.62337" lon="5.90781">
        <ele>777.3</ele>
      </trkpt>
      <trkpt lat="46.6239" lon="5.9082">
        <ele>777</ele>
      </trkpt>
      <trkpt lat="46.62469" lon="5.90892">
        <ele>776.2</ele>
      </trkpt>
      <trkpt lat="46.62489" lon="5.90913">
        <ele>777.4</ele>
      </trkpt>
      <trkpt lat="46.62501" lon="5.90928">
        <ele>776.8</ele>
      </trkpt>
      <trkpt lat="46.62523" lon="5.90965">
        <ele>777.1</ele>
      </trkpt>
      <trkpt lat="46.62551" lon="5.91004">
        <ele>777</ele>
      </trkpt>
      <trkpt lat="46.62595" lon="5.91049">
        <ele>778</ele>
      </trkpt>
      <trkpt lat="46.62644" lon="5.91115">
        <ele>776.7</ele>
      </trkpt>
      <trkpt lat="46.62713" lon="5.91192">
        <ele>777.1</ele>
      </trkpt>
      <trkpt lat="46.62742" lon="5.91228">
        <ele>777.4</ele>
      </trkpt>
      <trkpt lat="46.62794" lon="5.91276">
        <ele>777.3</ele>
      </trkpt>
      <trkpt lat="46.62828" lon="5.91313">
        <ele>778.6</ele>
      </trkpt>
      <trkpt lat="46.62884" lon="5.91376">
        <ele>778</ele>
      </trkpt>
      <trkpt lat="46.62923" lon="5.91428">
        <ele>777.4</ele>
      </trkpt>
      <trkpt lat="46.63" lon="5.91541">
        <ele>777.8</ele>
      </trkpt>
      <trkpt lat="46.63115" lon="5.91752">
        <ele>777.7</ele>
      </trkpt>
      <trkpt lat="46.63161" lon="5.91817">
        <ele>777.8</ele>
      </trkpt>
      <trkpt lat="46.63162" lon="5.91818">
        <ele>777.7</ele>
        <extensions>
          <visugpx:TrkExtension xmlns:visugpx="https://www.visugpx.com/editgpx/">
            <visugpx:node>5</visugpx:node>
            </visugpx:TrkExtension>
        </extensions>
      </trkpt>
      <trkpt lat="46.63197" lon="5.91857">
        <ele>776.4</ele>
      </trkpt>
      <trkpt lat="46.63214" lon="5.91868">
        <ele>776.7</ele>
      </trkpt>
      <trkpt lat="46.63221" lon="5.91865">
        <ele>775.5</ele>
      </trkpt>
      <trkpt lat="46.63244" lon="5.91851">
        <ele>774.6</ele>
      </trkpt>
      <trkpt lat="46.6325" lon="5.91849">
        <ele>774.6</ele>
      </trkpt>
      <trkpt lat="46.63257" lon="5.9185">
        <ele>774.7</ele>
      </trkpt>
      <trkpt lat="46.63277" lon="5.9187">
        <ele>775.3</ele>
      </trkpt>
      <trkpt lat="46.63287" lon="5.91887">
        <ele>776</ele>
      </trkpt>
      <trkpt lat="46.63299" lon="5.91903">
        <ele>776.4</ele>
      </trkpt>
      <trkpt lat="46.63311" lon="5.91907">
        <ele>776.8</ele>
      </trkpt>
      <trkpt lat="46.63309" lon="5.91901">
        <ele>776.6</ele>
      </trkpt>
      <trkpt lat="46.63306" lon="5.9186">
        <ele>776</ele>
      </trkpt>
      <trkpt lat="46.63306" lon="5.91843">
        <ele>775.4</ele>
      </trkpt>
      <trkpt lat="46.63309" lon="5.91833">
        <ele>775</ele>
      </trkpt>
      <trkpt lat="46.63323" lon="5.91816">
        <ele>775</ele>
      </trkpt>
      <trkpt lat="46.63341" lon="5.91799">
        <ele>775.4</ele>
      </trkpt>
      <trkpt lat="46.6335" lon="5.91796">
        <ele>776.1</ele>
      </trkpt>
      <trkpt lat="46.63371" lon="5.91799">
        <ele>777.9</ele>
      </trkpt>
      <trkpt lat="46.63383" lon="5.91797">
        <ele>778.9</ele>
      </trkpt>
      <trkpt lat="46.63399" lon="5.91789">
        <ele>779.7</ele>
      </trkpt>
      <trkpt lat="46.63402" lon="5.91769">
        <ele>780</ele>
      </trkpt>
      <trkpt lat="46.63406" lon="5.9175">
        <ele>780.1</ele>
      </trkpt>
      <trkpt lat="46.63422" lon="5.91703">
        <ele>780.4</ele>
      </trkpt>
      <trkpt lat="46.63432" lon="5.91678">
        <ele>780.6</ele>
      </trkpt>
      <trkpt lat="46.63441" lon="5.91661">
        <ele>781</ele>
      </trkpt>
      <trkpt lat="46.63447" lon="5.9165">
        <ele>781.4</ele>
        <extensions>
          <visugpx:TrkExtension xmlns:visugpx="https://www.visugpx.com/editgpx/">
            <visugpx:node>6</visugpx:node>
            </visugpx:TrkExtension>
        </extensions>
      </trkpt>
      <trkpt lat="46.63513" lon="5.91546">
        <ele>783.8</ele>
      </trkpt>
      <trkpt lat="46.63538" lon="5.91518">
        <ele>783.5</ele>
      </trkpt>
      <trkpt lat="46.63593" lon="5.91478">
        <ele>786.2</ele>
      </trkpt>
      <trkpt lat="46.63605" lon="5.91464">
        <ele>785.9</ele>
      </trkpt>
      <trkpt lat="46.63619" lon="5.91437">
        <ele>786.2</ele>
      </trkpt>
      <trkpt lat="46.63625" lon="5.91441">
        <ele>786.1</ele>
      </trkpt>
      <trkpt lat="46.63647" lon="5.91452">
        <ele>787.3</ele>
      </trkpt>
      <trkpt lat="46.63659" lon="5.9144">
        <ele>788.1</ele>
      </trkpt>
      <trkpt lat="46.63704" lon="5.91401">
        <ele>786.6</ele>
      </trkpt>
      <trkpt lat="46.63711" lon="5.9139">
        <ele>785.9</ele>
      </trkpt>
      <trkpt lat="46.6373" lon="5.91343">
        <ele>782.3</ele>
      </trkpt>
      <trkpt lat="46.63748" lon="5.91322">
        <ele>780.5</ele>
      </trkpt>
      <trkpt lat="46.63764" lon="5.91293">
        <ele>776.7</ele>
      </trkpt>
      <trkpt lat="46.63781" lon="5.91285">
        <ele>776.5</ele>
      </trkpt>
      <trkpt lat="46.63797" lon="5.91287">
        <ele>775.4</ele>
      </trkpt>
      <trkpt lat="46.63816" lon="5.91297">
        <ele>775.9</ele>
      </trkpt>
      <trkpt lat="46.63849" lon="5.91301">
        <ele>772.5</ele>
      </trkpt>
      <trkpt lat="46.63868" lon="5.91313">
        <ele>770.7</ele>
      </trkpt>
      <trkpt lat="46.63886" lon="5.91341">
        <ele>768</ele>
      </trkpt>
      <trkpt lat="46.63932" lon="5.91397">
        <ele>765.9</ele>
      </trkpt>
      <trkpt lat="46.63998" lon="5.91483">
        <ele>757.3</ele>
        <extensions>
          <visugpx:TrkExtension xmlns:visugpx="https://www.visugpx.com/editgpx/">
            <visugpx:node>7</visugpx:node>
            </visugpx:TrkExtension>
        </extensions>
      </trkpt>
      <trkpt lat="46.64041" lon="5.9154">
        <ele>761.5</ele>
      </trkpt>
      <trkpt lat="46.64208" lon="5.91707">
        <ele>753.6</ele>
      </trkpt>
      <trkpt lat="46.64265" lon="5.91794">
        <ele>757.4</ele>
      </trkpt>
      <trkpt lat="46.64284" lon="5.91826">
        <ele>758</ele>
      </trkpt>
      <trkpt lat="46.64301" lon="5.91843">
        <ele>758.6</ele>
      </trkpt>
      <trkpt lat="46.64325" lon="5.91853">
        <ele>758</ele>
      </trkpt>
      <trkpt lat="46.64338" lon="5.91861">
        <ele>758</ele>
      </trkpt>
      <trkpt lat="46.64356" lon="5.91877">
        <ele>759.4</ele>
      </trkpt>
      <trkpt lat="46.64444" lon="5.91957">
        <ele>756.4</ele>
      </trkpt>
      <trkpt lat="46.64461" lon="5.91964">
        <ele>758.5</ele>
      </trkpt>
      <trkpt lat="46.64474" lon="5.91955">
        <ele>758.3</ele>
      </trkpt>
      <trkpt lat="46.64486" lon="5.91937">
        <ele>757.4</ele>
      </trkpt>
      <trkpt lat="46.64494" lon="5.91914">
        <ele>756.2</ele>
      </trkpt>
      <trkpt lat="46.64521" lon="5.91868">
        <ele>757.1</ele>
      </trkpt>
      <trkpt lat="46.64523" lon="5.91836">
        <ele>757</ele>
      </trkpt>
      <trkpt lat="46.64528" lon="5.91816">
        <ele>756.8</ele>
      </trkpt>
      <trkpt lat="46.64582" lon="5.91731">
        <ele>751.5</ele>
      </trkpt>
      <trkpt lat="46.64622" lon="5.91671">
        <ele>751.3</ele>
      </trkpt>
      <trkpt lat="46.64628" lon="5.91659">
        <ele>751.7</ele>
      </trkpt>
      <trkpt lat="46.64636" lon="5.91637">
        <ele>751.7</ele>
      </trkpt>
      <trkpt lat="46.64642" lon="5.91608">
        <ele>751.8</ele>
      </trkpt>
      <trkpt lat="46.64644" lon="5.91516">
        <ele>750.3</ele>
      </trkpt>
      <trkpt lat="46.64643" lon="5.91493">
        <ele>750.3</ele>
      </trkpt>
      <trkpt lat="46.64637" lon="5.91474">
        <ele>749.9</ele>
      </trkpt>
      <trkpt lat="46.64626" lon="5.91458">
        <ele>750.1</ele>
      </trkpt>
      <trkpt lat="46.64561" lon="5.91408">
        <ele>749.5</ele>
      </trkpt>
      <trkpt lat="46.64518" lon="5.91359">
        <ele>748.8</ele>
      </trkpt>
      <trkpt lat="46.64502" lon="5.91339">
        <ele>748.9</ele>
      </trkpt>
      <trkpt lat="46.64499" lon="5.91329">
        <ele>749.1</ele>
      </trkpt>
      <trkpt lat="46.64497" lon="5.91321">
        <ele>749.2</ele>
      </trkpt>
      <trkpt lat="46.64497" lon="5.91299">
        <ele>749.7</ele>
      </trkpt>
      <trkpt lat="46.64499" lon="5.91278">
        <ele>749.9</ele>
        <extensions>
          <visugpx:TrkExtension xmlns:visugpx="https://www.visugpx.com/editgpx/">
            <visugpx:node>8</visugpx:node>
            </visugpx:TrkExtension>
        </extensions>
      </trkpt>
      <trkpt lat="46.64507" lon="5.91208">
        <ele>750</ele>
      </trkpt>
      <trkpt lat="46.64506" lon="5.91172">
        <ele>749.7</ele>
      </trkpt>
      <trkpt lat="46.64503" lon="5.91153">
        <ele>748.8</ele>
      </trkpt>
      <trkpt lat="46.6448" lon="5.91051">
        <ele>748.7</ele>
      </trkpt>
      <trkpt lat="46.64459" lon="5.90982">
        <ele>749.3</ele>
      </trkpt>
      <trkpt lat="46.64456" lon="5.90963">
        <ele>749.4</ele>
      </trkpt>
      <trkpt lat="46.64439" lon="5.90898">
        <ele>747.8</ele>
      </trkpt>
      <trkpt lat="46.64431" lon="5.90857">
        <ele>748.1</ele>
      </trkpt>
      <trkpt lat="46.64423" lon="5.90807">
        <ele>748.4</ele>
      </trkpt>
      <trkpt lat="46.64424" lon="5.90788">
        <ele>748.5</ele>
      </trkpt>
      <trkpt lat="46.64417" lon="5.90698">
        <ele>748</ele>
      </trkpt>
      <trkpt lat="46.64414" lon="5.90679">
        <ele>748.5</ele>
      </trkpt>
      <trkpt lat="46.64398" lon="5.9061">
        <ele>749</ele>
      </trkpt>
      <trkpt lat="46.64394" lon="5.90581">
        <ele>748.8</ele>
      </trkpt>
      <trkpt lat="46.64398" lon="5.90529">
        <ele>749.3</ele>
      </trkpt>
      <trkpt lat="46.64398" lon="5.90509">
        <ele>749.5</ele>
      </trkpt>
      <trkpt lat="46.64395" lon="5.90475">
        <ele>750.1</ele>
      </trkpt>
      <trkpt lat="46.64392" lon="5.90457">
        <ele>750.7</ele>
      </trkpt>
      <trkpt lat="46.64379" lon="5.90404">
        <ele>752.7</ele>
      </trkpt>
      <trkpt lat="46.64375" lon="5.90395">
        <ele>752.8</ele>
      </trkpt>
      <trkpt lat="46.64362" lon="5.90385">
        <ele>752.3</ele>
      </trkpt>
      <trkpt lat="46.64313" lon="5.90386">
        <ele>753</ele>
      </trkpt>
      <trkpt lat="46.64288" lon="5.90395">
        <ele>755.7</ele>
      </trkpt>
      <trkpt lat="46.64274" lon="5.90412">
        <ele>756.8</ele>
      </trkpt>
      <trkpt lat="46.64258" lon="5.90427">
        <ele>757.7</ele>
      </trkpt>
      <trkpt lat="46.64248" lon="5.90431">
        <ele>758.6</ele>
      </trkpt>
      <trkpt lat="46.64243" lon="5.9043">
        <ele>758.8</ele>
      </trkpt>
      <trkpt lat="46.64238" lon="5.90419">
        <ele>759.7</ele>
      </trkpt>
      <trkpt lat="46.64231" lon="5.90397">
        <ele>761.7</ele>
      </trkpt>
      <trkpt lat="46.64224" lon="5.90345">
        <ele>765.3</ele>
      </trkpt>
      <trkpt lat="46.64211" lon="5.90339">
        <ele>765.6</ele>
      </trkpt>
      <trkpt lat="46.64193" lon="5.90324">
        <ele>766.4</ele>
      </trkpt>
      <trkpt lat="46.64168" lon="5.90314">
        <ele>768.6</ele>
      </trkpt>
      <trkpt lat="46.64137" lon="5.90294">
        <ele>775.3</ele>
      </trkpt>
      <trkpt lat="46.64116" lon="5.90266">
        <ele>781.2</ele>
      </trkpt>
      <trkpt lat="46.64079" lon="5.90228">
        <ele>790.1</ele>
      </trkpt>
      <trkpt lat="46.64072" lon="5.90208">
        <ele>790.1</ele>
      </trkpt>
      <trkpt lat="46.64066" lon="5.90196">
        <ele>790.8</ele>
      </trkpt>
      <trkpt lat="46.64064" lon="5.90175">
        <ele>791.7</ele>
        <extensions>
          <visugpx:TrkExtension xmlns:visugpx="https://www.visugpx.com/editgpx/">
            <visugpx:node>9</visugpx:node>
            </visugpx:TrkExtension>
        </extensions>
      </trkpt>
      <trkpt lat="46.64064" lon="5.90175">
        <ele>791.7</ele>
      </trkpt>
      <trkpt lat="46.64056" lon="5.9014">
        <ele>794.8</ele>
      </trkpt>
      <trkpt lat="46.64049" lon="5.90139">
        <ele>795.2</ele>
      </trkpt>
      <trkpt lat="46.64036" lon="5.90132">
        <ele>795.8</ele>
      </trkpt>
      <trkpt lat="46.64021" lon="5.90102">
        <ele>797.1</ele>
      </trkpt>
      <trkpt lat="46.64014" lon="5.90091">
        <ele>797.4</ele>
      </trkpt>
      <trkpt lat="46.63981" lon="5.90059">
        <ele>800.1</ele>
      </trkpt>
      <trkpt lat="46.63949" lon="5.90035">
        <ele>801.7</ele>
      </trkpt>
      <trkpt lat="46.63933" lon="5.90025">
        <ele>801.4</ele>
      </trkpt>
      <trkpt lat="46.63929" lon="5.90023">
        <ele>801.2</ele>
      </trkpt>
      <trkpt lat="46.63904" lon="5.90018">
        <ele>800.1</ele>
      </trkpt>
      <trkpt lat="46.63886" lon="5.9002">
        <ele>799</ele>
      </trkpt>
      <trkpt lat="46.63883" lon="5.90025">
        <ele>798.7</ele>
      </trkpt>
      <trkpt lat="46.63871" lon="5.90014">
        <ele>797.9</ele>
      </trkpt>
      <trkpt lat="46.63832" lon="5.89991">
        <ele>797</ele>
      </trkpt>
      <trkpt lat="46.63786" lon="5.89971">
        <ele>795.2</ele>
      </trkpt>
      <trkpt lat="46.63761" lon="5.89963">
        <ele>792.9</ele>
      </trkpt>
      <trkpt lat="46.63744" lon="5.89959">
        <ele>791.7</ele>
      </trkpt>
      <trkpt lat="46.63728" lon="5.89953">
        <ele>791</ele>
      </trkpt>
      <trkpt lat="46.63712" lon="5.89944">
        <ele>790.6</ele>
      </trkpt>
      <trkpt lat="46.63689" lon="5.89924">
        <ele>791.9</ele>
      </trkpt>
      <trkpt lat="46.63677" lon="5.8991">
        <ele>792.1</ele>
      </trkpt>
      <trkpt lat="46.63637" lon="5.89853">
        <ele>793.6</ele>
      </trkpt>
      <trkpt lat="46.63616" lon="5.89828">
        <ele>794.4</ele>
      </trkpt>
      <trkpt lat="46.63602" lon="5.89814">
        <ele>794.4</ele>
      </trkpt>
      <trkpt lat="46.63587" lon="5.89804">
        <ele>794.2</ele>
      </trkpt>
      <trkpt lat="46.63574" lon="5.89798">
        <ele>793.6</ele>
      </trkpt>
      <trkpt lat="46.63562" lon="5.89796">
        <ele>792.8</ele>
      </trkpt>
      <trkpt lat="46.63498" lon="5.89781">
        <ele>789.8</ele>
      </trkpt>
      <trkpt lat="46.63485" lon="5.8978">
        <ele>788.4</ele>
      </trkpt>
      <trkpt lat="46.63445" lon="5.89784">
        <ele>785</ele>
      </trkpt>
      <trkpt lat="46.63446" lon="5.89745">
        <ele>782.9</ele>
      </trkpt>
      <trkpt lat="46.63445" lon="5.89726">
        <ele>782.2</ele>
      </trkpt>
      <trkpt lat="46.63441" lon="5.8971">
        <ele>781.9</ele>
      </trkpt>
      <trkpt lat="46.63436" lon="5.897">
        <ele>781.9</ele>
      </trkpt>
      <trkpt lat="46.63421" lon="5.89674">
        <ele>781.8</ele>
      </trkpt>
      <trkpt lat="46.6341" lon="5.89656">
        <ele>781.5</ele>
      </trkpt>
      <trkpt lat="46.63405" lon="5.89644">
        <ele>781.4</ele>
      </trkpt>
      <trkpt lat="46.634" lon="5.89619">
        <ele>780.8</ele>
      </trkpt>
      <trkpt lat="46.63398" lon="5.89598">
        <ele>781.2</ele>
      </trkpt>
      <trkpt lat="46.63399" lon="5.89568">
        <ele>779.9</ele>
      </trkpt>
      <trkpt lat="46.63408" lon="5.89506">
        <ele>775.2</ele>
      </trkpt>
      <trkpt lat="46.63406" lon="5.89485">
        <ele>774.5</ele>
      </trkpt>
      <trkpt lat="46.63356" lon="5.89339">
        <ele>774.6</ele>
      </trkpt>
      <trkpt lat="46.63353" lon="5.89328">
        <ele>774.8</ele>
      </trkpt>
      <trkpt lat="46.63353" lon="5.8932">
        <ele>774.8</ele>
      </trkpt>
      <trkpt lat="46.63336" lon="5.89311">
        <ele>774.8</ele>
      </trkpt>
      <trkpt lat="46.63307" lon="5.89304">
        <ele>776</ele>
      </trkpt>
      <trkpt lat="46.63289" lon="5.89289">
        <ele>776</ele>
      </trkpt>
      <trkpt lat="46.63269" lon="5.89263">
        <ele>776.6</ele>
      </trkpt>
      <trkpt lat="46.63262" lon="5.8925">
        <ele>776.9</ele>
      </trkpt>
      <trkpt lat="46.63254" lon="5.89228">
        <ele>777.1</ele>
      </trkpt>
      <trkpt lat="46.63252" lon="5.89195">
        <ele>777.1</ele>
      </trkpt>
      <trkpt lat="46.63251" lon="5.89183">
        <ele>777.5</ele>
      </trkpt>
      <trkpt lat="46.63241" lon="5.89171">
        <ele>777.5</ele>
      </trkpt>
      <trkpt lat="46.63215" lon="5.89155">
        <ele>777.6</ele>
      </trkpt>
      <trkpt lat="46.6319" lon="5.89127">
        <ele>777.8</ele>
      </trkpt>
      <trkpt lat="46.63182" lon="5.89114">
        <ele>778.4</ele>
      </trkpt>
      <trkpt lat="46.63133" lon="5.8902">
        <ele>780.4</ele>
      </trkpt>
      <trkpt lat="46.63117" lon="5.88982">
        <ele>780.8</ele>
      </trkpt>
      <trkpt lat="46.63101" lon="5.88969">
        <ele>781.3</ele>
      </trkpt>
      <trkpt lat="46.63085" lon="5.8895">
        <ele>781.9</ele>
      </trkpt>
      <trkpt lat="46.63078" lon="5.8894">
        <ele>782.1</ele>
        <extensions>
          <visugpx:TrkExtension xmlns:visugpx="https://www.visugpx.com/editgpx/">
            <visugpx:node>10</visugpx:node>
            </visugpx:TrkExtension>
        </extensions>
      </trkpt>
      <trkpt lat="46.63031" lon="5.88874">
        <ele>783.7</ele>
      </trkpt>
      <trkpt lat="46.62946" lon="5.88779">
        <ele>787.1</ele>
      </trkpt>
      <trkpt lat="46.62849" lon="5.88689">
        <ele>791.7</ele>
      </trkpt>
      <trkpt lat="46.62825" lon="5.88655">
        <ele>792.8</ele>
      </trkpt>
      <trkpt lat="46.62803" lon="5.88632">
        <ele>792.5</ele>
      </trkpt>
      <trkpt lat="46.62782" lon="5.88616">
        <ele>793.1</ele>
      </trkpt>
      <trkpt lat="46.62741" lon="5.88568">
        <ele>794.4</ele>
      </trkpt>
      <trkpt lat="46.62672" lon="5.88496">
        <ele>795.4</ele>
      </trkpt>
      <trkpt lat="46.62617" lon="5.88432">
        <ele>796.5</ele>
      </trkpt>
      <trkpt lat="46.62598" lon="5.88415">
        <ele>796.6</ele>
      </trkpt>
      <trkpt lat="46.62588" lon="5.88394">
        <ele>797.1</ele>
      </trkpt>
      <trkpt lat="46.62583" lon="5.8839">
        <ele>796.9</ele>
      </trkpt>
      <trkpt lat="46.62571" lon="5.88372">
        <ele>797.2</ele>
      </trkpt>
      <trkpt lat="46.62556" lon="5.88354">
        <ele>797.1</ele>
      </trkpt>
      <trkpt lat="46.62534" lon="5.88345">
        <ele>797.9</ele>
      </trkpt>
      <trkpt lat="46.62521" lon="5.88325">
        <ele>799.4</ele>
      </trkpt>
      <trkpt lat="46.62507" lon="5.88312">
        <ele>799.8</ele>
      </trkpt>
      <trkpt lat="46.62499" lon="5.883">
        <ele>800.1</ele>
      </trkpt>
      <trkpt lat="46.6248" lon="5.8828">
        <ele>800.8</ele>
      </trkpt>
      <trkpt lat="46.62467" lon="5.88269">
        <ele>801.3</ele>
      </trkpt>
      <trkpt lat="46.62428" lon="5.8821">
        <ele>803.7</ele>
      </trkpt>
      <trkpt lat="46.6242" lon="5.882">
        <ele>803.8</ele>
      </trkpt>
      <trkpt lat="46.62406" lon="5.88188">
        <ele>804.4</ele>
        <extensions>
          <visugpx:TrkExtension xmlns:visugpx="https://www.visugpx.com/editgpx/">
            <visugpx:node>11</visugpx:node>
            </visugpx:TrkExtension>
        </extensions>
      </trkpt>
      <trkpt lat="46.62405" lon="5.88186">
        <ele>804.5</ele>
      </trkpt>
      <trkpt lat="46.62383" lon="5.88171">
        <ele>804.5</ele>
      </trkpt>
      <trkpt lat="46.6234" lon="5.88152">
        <ele>804.4</ele>
      </trkpt>
      <trkpt lat="46.62321" lon="5.88152">
        <ele>803.2</ele>
      </trkpt>
      <trkpt lat="46.62305" lon="5.88146">
        <ele>802.4</ele>
      </trkpt>
      <trkpt lat="46.62294" lon="5.88145">
        <ele>801.7</ele>
      </trkpt>
      <trkpt lat="46.62261" lon="5.88153">
        <ele>798.8</ele>
      </trkpt>
      <trkpt lat="46.62238" lon="5.88155">
        <ele>797.4</ele>
      </trkpt>
      <trkpt lat="46.62192" lon="5.88162">
        <ele>794.2</ele>
      </trkpt>
      <trkpt lat="46.62134" lon="5.88174">
        <ele>790.7</ele>
      </trkpt>
      <trkpt lat="46.62127" lon="5.88173">
        <ele>790</ele>
      </trkpt>
      <trkpt lat="46.62105" lon="5.8816">
        <ele>789.2</ele>
      </trkpt>
      <trkpt lat="46.62068" lon="5.8816">
        <ele>786.4</ele>
      </trkpt>
      <trkpt lat="46.6205" lon="5.88158">
        <ele>785.2</ele>
      </trkpt>
      <trkpt lat="46.62027" lon="5.88147">
        <ele>783.7</ele>
      </trkpt>
      <trkpt lat="46.61994" lon="5.88137">
        <ele>782.5</ele>
      </trkpt>
      <trkpt lat="46.61981" lon="5.88127">
        <ele>781.8</ele>
      </trkpt>
      <trkpt lat="46.61966" lon="5.88122">
        <ele>780.8</ele>
      </trkpt>
      <trkpt lat="46.61937" lon="5.88118">
        <ele>779.3</ele>
      </trkpt>
      <trkpt lat="46.61908" lon="5.88118">
        <ele>778.4</ele>
      </trkpt>
      <trkpt lat="46.61869" lon="5.88111">
        <ele>776.6</ele>
      </trkpt>
      <trkpt lat="46.61854" lon="5.88113">
        <ele>775.7</ele>
      </trkpt>
      <trkpt lat="46.61837" lon="5.88117">
        <ele>775.1</ele>
      </trkpt>
      <trkpt lat="46.61819" lon="5.88118">
        <ele>774.2</ele>
      </trkpt>
      <trkpt lat="46.61818" lon="5.88158">
        <ele>772.4</ele>
      </trkpt>
      <trkpt lat="46.61762" lon="5.88121">
        <ele>771.1</ele>
      </trkpt>
      <trkpt lat="46.61754" lon="5.8812">
        <ele>770.8</ele>
      </trkpt>
      <trkpt lat="46.61747" lon="5.88124">
        <ele>770.5</ele>
      </trkpt>
      <trkpt lat="46.61742" lon="5.88128">
        <ele>770.3</ele>
      </trkpt>
      <trkpt lat="46.61734" lon="5.88134">
        <ele>770.1</ele>
      </trkpt>
      <trkpt lat="46.61725" lon="5.88135">
        <ele>770</ele>
      </trkpt>
      <trkpt lat="46.61718" lon="5.88139">
        <ele>769.7</ele>
      </trkpt>
      <trkpt lat="46.61697" lon="5.88144">
        <ele>767.8</ele>
      </trkpt>
      <trkpt lat="46.61665" lon="5.88169">
        <ele>763.9</ele>
      </trkpt>
      <trkpt lat="46.6166" lon="5.88171">
        <ele>763.6</ele>
      </trkpt>
      <trkpt lat="46.61643" lon="5.88171">
        <ele>763</ele>
      </trkpt>
      <trkpt lat="46.61609" lon="5.88167">
        <ele>761.9</ele>
      </trkpt>
      <trkpt lat="46.61587" lon="5.88177">
        <ele>760.4</ele>
      </trkpt>
      <trkpt lat="46.61575" lon="5.88184">
        <ele>759.2</ele>
      </trkpt>
      <trkpt lat="46.61542" lon="5.88195">
        <ele>756.5</ele>
      </trkpt>
      <trkpt lat="46.61518" lon="5.88218">
        <ele>753.6</ele>
      </trkpt>
      <trkpt lat="46.61472" lon="5.88248">
        <ele>749.1</ele>
      </trkpt>
      <trkpt lat="46.61439" lon="5.88268">
        <ele>745.3</ele>
      </trkpt>
      <trkpt lat="46.61394" lon="5.8829">
        <ele>740.8</ele>
      </trkpt>
      <trkpt lat="46.61359" lon="5.88325">
        <ele>737.4</ele>
      </trkpt>
      <trkpt lat="46.61331" lon="5.88347">
        <ele>733.9</ele>
      </trkpt>
      <trkpt lat="46.61312" lon="5.88351">
        <ele>732.7</ele>
      </trkpt>
      <trkpt lat="46.613" lon="5.88357">
        <ele>731.5</ele>
      </trkpt>
      <trkpt lat="46.61277" lon="5.88371">
        <ele>729</ele>
      </trkpt>
      <trkpt lat="46.61271" lon="5.8838">
        <ele>729.3</ele>
      </trkpt>
      <trkpt lat="46.61262" lon="5.88384">
        <ele>730.2</ele>
      </trkpt>
      <trkpt lat="46.61253" lon="5.88385">
        <ele>731.1</ele>
      </trkpt>
      <trkpt lat="46.61228" lon="5.88377">
        <ele>732.6</ele>
      </trkpt>
      <trkpt lat="46.61215" lon="5.88361">
        <ele>730.7</ele>
      </trkpt>
      <trkpt lat="46.61202" lon="5.88356">
        <ele>730.2</ele>
      </trkpt>
      <trkpt lat="46.61196" lon="5.88354">
        <ele>730</ele>
      </trkpt>
      <trkpt lat="46.61191" lon="5.88351">
        <ele>730.4</ele>
      </trkpt>
      <trkpt lat="46.61186" lon="5.88347">
        <ele>730.9</ele>
      </trkpt>
      <trkpt lat="46.61156" lon="5.88321">
        <ele>732.3</ele>
      </trkpt>
      <trkpt lat="46.61155" lon="5.8832">
        <ele>732.3</ele>
      </trkpt>
      <trkpt lat="46.61162" lon="5.88305">
        <ele>731</ele>
      </trkpt>
      <trkpt lat="46.61164" lon="5.88285">
        <ele>730.3</ele>
      </trkpt>
      <trkpt lat="46.61162" lon="5.88266">
        <ele>729.8</ele>
      </trkpt>
      <trkpt lat="46.61158" lon="5.88248">
        <ele>729.4</ele>
      </trkpt>
      <trkpt lat="46.61148" lon="5.88227">
        <ele>729.8</ele>
      </trkpt>
      <trkpt lat="46.61142" lon="5.88218">
        <ele>730.9</ele>
      </trkpt>
      <trkpt lat="46.61131" lon="5.88209">
        <ele>731.5</ele>
      </trkpt>
      <trkpt lat="46.61103" lon="5.88179">
        <ele>733.2</ele>
      </trkpt>
      <trkpt lat="46.61065" lon="5.88161">
        <ele>734.2</ele>
      </trkpt>
      <trkpt lat="46.61042" lon="5.88131">
        <ele>734.2</ele>
      </trkpt>
      <trkpt lat="46.61037" lon="5.88115">
        <ele>733.9</ele>
      </trkpt>
      <trkpt lat="46.61036" lon="5.88098">
        <ele>734.4</ele>
      </trkpt>
      <trkpt lat="46.61047" lon="5.88054">
        <ele>737.8</ele>
      </trkpt>
      <trkpt lat="46.61059" lon="5.88015">
        <ele>740.5</ele>
      </trkpt>
      <trkpt lat="46.6107" lon="5.87986">
        <ele>742.2</ele>
      </trkpt>
      <trkpt lat="46.61014" lon="5.8774">
        <ele>762.7</ele>
      </trkpt>
      <trkpt lat="46.60978" lon="5.87609">
        <ele>770.4</ele>
      </trkpt>
      <trkpt lat="46.60869" lon="5.87435">
        <ele>780.2</ele>
      </trkpt>
      <trkpt lat="46.60795" lon="5.87344">
        <ele>783.9</ele>
      </trkpt>
      <trkpt lat="46.60676" lon="5.87169">
        <ele>789.6</ele>
      </trkpt>
      <trkpt lat="46.60634" lon="5.87095">
        <ele>795.5</ele>
      </trkpt>
      <trkpt lat="46.60595" lon="5.87041">
        <ele>797.5</ele>
      </trkpt>
      <trkpt lat="46.60586" lon="5.86999">
        <ele>800.1</ele>
      </trkpt>
      <trkpt lat="46.60566" lon="5.86953">
        <ele>803.6</ele>
      </trkpt>
      <trkpt lat="46.60517" lon="5.8692">
        <ele>806.8</ele>
      </trkpt>
      <trkpt lat="46.60448" lon="5.8687">
        <ele>808.6</ele>
      </trkpt>
      <trkpt lat="46.60372" lon="5.86784">
        <ele>811.8</ele>
      </trkpt>
      <trkpt lat="46.60344" lon="5.86769">
        <ele>812.3</ele>
      </trkpt>
      <trkpt lat="46.60334" lon="5.86716">
        <ele>815.4</ele>
      </trkpt>
      <trkpt lat="46.60319" lon="5.86673">
        <ele>817.7</ele>
      </trkpt>
      <trkpt lat="46.60307" lon="5.86648">
        <ele>819.3</ele>
      </trkpt>
      <trkpt lat="46.60297" lon="5.86631">
        <ele>820.1</ele>
      </trkpt>
      <trkpt lat="46.60264" lon="5.86585">
        <ele>821.9</ele>
      </trkpt>
      <trkpt lat="46.60243" lon="5.86541">
        <ele>822.5</ele>
      </trkpt>
      <trkpt lat="46.60226" lon="5.86497">
        <ele>822.3</ele>
      </trkpt>
      <trkpt lat="46.6019" lon="5.86391">
        <ele>818.8</ele>
      </trkpt>
      <trkpt lat="46.60182" lon="5.86373">
        <ele>819.1</ele>
      </trkpt>
      <trkpt lat="46.6014" lon="5.86294">
        <ele>818.9</ele>
      </trkpt>
      <trkpt lat="46.60111" lon="5.86267">
        <ele>817.8</ele>
      </trkpt>
      <trkpt lat="46.60075" lon="5.86244">
        <ele>814.8</ele>
      </trkpt>
      <trkpt lat="46.60046" lon="5.86231">
        <ele>813.8</ele>
      </trkpt>
      <trkpt lat="46.60031" lon="5.86225">
        <ele>813.1</ele>
      </trkpt>
      <trkpt lat="46.59996" lon="5.86217">
        <ele>809.8</ele>
      </trkpt>
      <trkpt lat="46.59973" lon="5.86206">
        <ele>807.7</ele>
      </trkpt>
      <trkpt lat="46.59964" lon="5.86199">
        <ele>806.9</ele>
      </trkpt>
      <trkpt lat="46.59959" lon="5.86193">
        <ele>806.6</ele>
      </trkpt>
      <trkpt lat="46.59944" lon="5.86177">
        <ele>804.9</ele>
      </trkpt>
      <trkpt lat="46.59931" lon="5.86156">
        <ele>803.1</ele>
      </trkpt>
      <trkpt lat="46.59915" lon="5.86125">
        <ele>801.6</ele>
      </trkpt>
      <trkpt lat="46.59912" lon="5.8611">
        <ele>800.6</ele>
      </trkpt>
      <trkpt lat="46.59914" lon="5.8607">
        <ele>799.1</ele>
      </trkpt>
      <trkpt lat="46.59912" lon="5.86042">
        <ele>797.7</ele>
      </trkpt>
      <trkpt lat="46.59913" lon="5.86015">
        <ele>796.3</ele>
      </trkpt>
      <trkpt lat="46.59918" lon="5.85998">
        <ele>796.1</ele>
      </trkpt>
      <trkpt lat="46.59943" lon="5.85932">
        <ele>792.4</ele>
      </trkpt>
      <trkpt lat="46.59956" lon="5.85892">
        <ele>792</ele>
      </trkpt>
      <trkpt lat="46.59962" lon="5.85864">
        <ele>788.9</ele>
      </trkpt>
      <trkpt lat="46.5996" lon="5.85857">
        <ele>786.9</ele>
      </trkpt>
      <trkpt lat="46.59924" lon="5.8593">
        <ele>788</ele>
      </trkpt>
      <trkpt lat="46.59915" lon="5.85954">
        <ele>788.7</ele>
      </trkpt>
      <trkpt lat="46.59902" lon="5.85992">
        <ele>790.3</ele>
      </trkpt>
      <trkpt lat="46.59889" lon="5.86042">
        <ele>788.6</ele>
        <extensions>
          <visugpx:TrkExtension xmlns:visugpx="https://www.visugpx.com/editgpx/">
            <visugpx:node>12</visugpx:node>
            </visugpx:TrkExtension>
        </extensions>
      </trkpt>
      <trkpt lat="46.59902" lon="5.85992">
        <ele>790.3</ele>
      </trkpt>
      <trkpt lat="46.59915" lon="5.85954">
        <ele>788.7</ele>
      </trkpt>
      <trkpt lat="46.59924" lon="5.8593">
        <ele>788</ele>
      </trkpt>
      <trkpt lat="46.5996" lon="5.85857">
        <ele>786.9</ele>
      </trkpt>
      <trkpt lat="46.59981" lon="5.85807">
        <ele>787.4</ele>
      </trkpt>
      <trkpt lat="46.59999" lon="5.85757">
        <ele>784.5</ele>
      </trkpt>
      <trkpt lat="46.60016" lon="5.85698">
        <ele>783.2</ele>
      </trkpt>
      <trkpt lat="46.60022" lon="5.85669">
        <ele>781.5</ele>
      </trkpt>
      <trkpt lat="46.60028" lon="5.85634">
        <ele>781</ele>
      </trkpt>
      <trkpt lat="46.60037" lon="5.85498">
        <ele>779</ele>
      </trkpt>
      <trkpt lat="46.60043" lon="5.85445">
        <ele>778.1</ele>
      </trkpt>
      <trkpt lat="46.6005" lon="5.85329">
        <ele>775.6</ele>
      </trkpt>
      <trkpt lat="46.60055" lon="5.85289">
        <ele>775.4</ele>
      </trkpt>
      <trkpt lat="46.60053" lon="5.85264">
        <ele>774.8</ele>
      </trkpt>
      <trkpt lat="46.6006" lon="5.85259">
        <ele>774.9</ele>
      </trkpt>
      <trkpt lat="46.60062" lon="5.85246">
        <ele>775</ele>
      </trkpt>
      <trkpt lat="46.60082" lon="5.85106">
        <ele>774.7</ele>
      </trkpt>
      <trkpt lat="46.60103" lon="5.84925">
        <ele>766.9</ele>
      </trkpt>
      <trkpt lat="46.60104" lon="5.84901">
        <ele>765.1</ele>
      </trkpt>
      <trkpt lat="46.60104" lon="5.84889">
        <ele>764.3</ele>
      </trkpt>
      <trkpt lat="46.60101" lon="5.84839">
        <ele>760.8</ele>
      </trkpt>
      <trkpt lat="46.60094" lon="5.84795">
        <ele>756.2</ele>
      </trkpt>
      <trkpt lat="46.60091" lon="5.84768">
        <ele>753.2</ele>
      </trkpt>
      <trkpt lat="46.60092" lon="5.8476">
        <ele>752.5</ele>
      </trkpt>
      <trkpt lat="46.60093" lon="5.84751">
        <ele>751.7</ele>
      </trkpt>
      <trkpt lat="46.60099" lon="5.8474">
        <ele>750.7</ele>
      </trkpt>
      <trkpt lat="46.60106" lon="5.84736">
        <ele>750.2</ele>
      </trkpt>
      <trkpt lat="46.60116" lon="5.84736">
        <ele>749.3</ele>
      </trkpt>
      <trkpt lat="46.60127" lon="5.84741">
        <ele>747.9</ele>
      </trkpt>
      <trkpt lat="46.60145" lon="5.84754">
        <ele>745.5</ele>
      </trkpt>
      <trkpt lat="46.60153" lon="5.84754">
        <ele>744.3</ele>
      </trkpt>
      <trkpt lat="46.60159" lon="5.84748">
        <ele>742.9</ele>
      </trkpt>
      <trkpt lat="46.6016" lon="5.84743">
        <ele>742.2</ele>
      </trkpt>
      <trkpt lat="46.6016" lon="5.84731">
        <ele>740.9</ele>
      </trkpt>
      <trkpt lat="46.60152" lon="5.84681">
        <ele>737.8</ele>
      </trkpt>
      <trkpt lat="46.60144" lon="5.84631">
        <ele>732.2</ele>
      </trkpt>
      <trkpt lat="46.60143" lon="5.84602">
        <ele>729.6</ele>
      </trkpt>
      <trkpt lat="46.60144" lon="5.84571">
        <ele>726.9</ele>
      </trkpt>
      <trkpt lat="46.60142" lon="5.84541">
        <ele>724.7</ele>
      </trkpt>
      <trkpt lat="46.6013" lon="5.84453">
        <ele>721.3</ele>
      </trkpt>
      <trkpt lat="46.6013" lon="5.8444">
        <ele>720.9</ele>
      </trkpt>
      <trkpt lat="46.60132" lon="5.84427">
        <ele>720.5</ele>
      </trkpt>
      <trkpt lat="46.60139" lon="5.84404">
        <ele>720</ele>
      </trkpt>
      <trkpt lat="46.60145" lon="5.84392">
        <ele>719.8</ele>
      </trkpt>
      <trkpt lat="46.60163" lon="5.84361">
        <ele>719.1</ele>
      </trkpt>
      <trkpt lat="46.60178" lon="5.84347">
        <ele>719.3</ele>
      </trkpt>
      <trkpt lat="46.60204" lon="5.84333">
        <ele>719.6</ele>
      </trkpt>
      <trkpt lat="46.60218" lon="5.84317">
        <ele>719.7</ele>
      </trkpt>
      <trkpt lat="46.60228" lon="5.84296">
        <ele>720.1</ele>
      </trkpt>
      <trkpt lat="46.60233" lon="5.84278">
        <ele>720.2</ele>
      </trkpt>
      <trkpt lat="46.60233" lon="5.84252">
        <ele>720.7</ele>
      </trkpt>
      <trkpt lat="46.60229" lon="5.84209">
        <ele>721.6</ele>
      </trkpt>
      <trkpt lat="46.60213" lon="5.84189">
        <ele>720.6</ele>
      </trkpt>
      <trkpt lat="46.60203" lon="5.84183">
        <ele>720.3</ele>
      </trkpt>
      <trkpt lat="46.60145" lon="5.84156">
        <ele>719.9</ele>
      </trkpt>
      <trkpt lat="46.60126" lon="5.84143">
        <ele>719.7</ele>
      </trkpt>
      <trkpt lat="46.60051" lon="5.84051">
        <ele>710.3</ele>
      </trkpt>
      <trkpt lat="46.60002" lon="5.84012">
        <ele>702.6</ele>
      </trkpt>
      <trkpt lat="46.59982" lon="5.83986">
        <ele>700.1</ele>
      </trkpt>
      <trkpt lat="46.59938" lon="5.83919">
        <ele>694.3</ele>
      </trkpt>
      <trkpt lat="46.59927" lon="5.83899">
        <ele>693.1</ele>
      </trkpt>
      <trkpt lat="46.59851" lon="5.83764">
        <ele>688.5</ele>
      </trkpt>
      <trkpt lat="46.59784" lon="5.83641">
        <ele>684.9</ele>
      </trkpt>
      <trkpt lat="46.59775" lon="5.8362">
        <ele>684.5</ele>
      </trkpt>
      <trkpt lat="46.5977" lon="5.83601">
        <ele>684.3</ele>
      </trkpt>
      <trkpt lat="46.59764" lon="5.83562">
        <ele>684</ele>
      </trkpt>
      <trkpt lat="46.59768" lon="5.8355">
        <ele>682.2</ele>
      </trkpt>
      <trkpt lat="46.59778" lon="5.83541">
        <ele>680.4</ele>
      </trkpt>
      <trkpt lat="46.59813" lon="5.83519">
        <ele>678.6</ele>
      </trkpt>
      <trkpt lat="46.59826" lon="5.83502">
        <ele>676.3</ele>
      </trkpt>
      <trkpt lat="46.59873" lon="5.83449">
        <ele>673.6</ele>
      </trkpt>
      <trkpt lat="46.59926" lon="5.83397">
        <ele>671.9</ele>
      </trkpt>
      <trkpt lat="46.5995" lon="5.8337">
        <ele>670.5</ele>
      </trkpt>
      <trkpt lat="46.59959" lon="5.83339">
        <ele>667.6</ele>
      </trkpt>
      <trkpt lat="46.59961" lon="5.83326">
        <ele>666.4</ele>
      </trkpt>
      <trkpt lat="46.59961" lon="5.83313">
        <ele>665.4</ele>
      </trkpt>
      <trkpt lat="46.59955" lon="5.83285">
        <ele>663.6</ele>
      </trkpt>
      <trkpt lat="46.59941" lon="5.83252">
        <ele>663.8</ele>
      </trkpt>
      <trkpt lat="46.59929" lon="5.83217">
        <ele>664.4</ele>
      </trkpt>
      <trkpt lat="46.59927" lon="5.83202">
        <ele>664.4</ele>
      </trkpt>
      <trkpt lat="46.59926" lon="5.83177">
        <ele>663.7</ele>
      </trkpt>
      <trkpt lat="46.59928" lon="5.83151">
        <ele>663.2</ele>
      </trkpt>
      <trkpt lat="46.59927" lon="5.83135">
        <ele>662.8</ele>
      </trkpt>
      <trkpt lat="46.59922" lon="5.83121">
        <ele>661.8</ele>
      </trkpt>
      <trkpt lat="46.59911" lon="5.831">
        <ele>660.9</ele>
      </trkpt>
      <trkpt lat="46.59889" lon="5.83084">
        <ele>660</ele>
      </trkpt>
      <trkpt lat="46.59867" lon="5.83073">
        <ele>658.5</ele>
      </trkpt>
      <trkpt lat="46.59851" lon="5.83058">
        <ele>656.9</ele>
      </trkpt>
      <trkpt lat="46.59833" lon="5.83068">
        <ele>655.4</ele>
      </trkpt>
      <trkpt lat="46.59826" lon="5.83077">
        <ele>655.2</ele>
      </trkpt>
      <trkpt lat="46.59804" lon="5.83091">
        <ele>653.9</ele>
      </trkpt>
      <trkpt lat="46.59764" lon="5.83099">
        <ele>652.5</ele>
      </trkpt>
      <trkpt lat="46.59753" lon="5.83097">
        <ele>652.9</ele>
      </trkpt>
      <trkpt lat="46.59748" lon="5.83096">
        <ele>653.1</ele>
      </trkpt>
      <trkpt lat="46.59741" lon="5.83093">
        <ele>653.3</ele>
      </trkpt>
      <trkpt lat="46.59734" lon="5.83085">
        <ele>653.6</ele>
      </trkpt>
      <trkpt lat="46.59728" lon="5.83074">
        <ele>654.1</ele>
      </trkpt>
      <trkpt lat="46.59725" lon="5.83063">
        <ele>654.6</ele>
      </trkpt>
      <trkpt lat="46.59713" lon="5.83018">
        <ele>655.7</ele>
      </trkpt>
      <trkpt lat="46.59709" lon="5.82993">
        <ele>656.2</ele>
      </trkpt>
      <trkpt lat="46.59698" lon="5.82909">
        <ele>659.9</ele>
      </trkpt>
      <trkpt lat="46.59693" lon="5.82881">
        <ele>661.2</ele>
      </trkpt>
      <trkpt lat="46.59686" lon="5.82861">
        <ele>662.2</ele>
      </trkpt>
      <trkpt lat="46.59675" lon="5.82834">
        <ele>663.4</ele>
      </trkpt>
      <trkpt lat="46.59649" lon="5.8279">
        <ele>665</ele>
      </trkpt>
      <trkpt lat="46.59634" lon="5.82755">
        <ele>665.7</ele>
      </trkpt>
      <trkpt lat="46.59621" lon="5.82711">
        <ele>666.7</ele>
      </trkpt>
      <trkpt lat="46.59611" lon="5.8267">
        <ele>667</ele>
      </trkpt>
      <trkpt lat="46.59603" lon="5.82627">
        <ele>667.6</ele>
      </trkpt>
      <trkpt lat="46.59601" lon="5.82607">
        <ele>667.7</ele>
      </trkpt>
      <trkpt lat="46.59593" lon="5.8244">
        <ele>671</ele>
      </trkpt>
      <trkpt lat="46.59591" lon="5.82417">
        <ele>671.4</ele>
      </trkpt>
      <trkpt lat="46.59586" lon="5.82397">
        <ele>672.5</ele>
      </trkpt>
      <trkpt lat="46.59577" lon="5.82367">
        <ele>673.3</ele>
      </trkpt>
      <trkpt lat="46.59566" lon="5.82344">
        <ele>673</ele>
      </trkpt>
      <trkpt lat="46.59559" lon="5.82335">
        <ele>672.9</ele>
      </trkpt>
      <trkpt lat="46.59553" lon="5.82329">
        <ele>673.1</ele>
      </trkpt>
      <trkpt lat="46.59544" lon="5.82327">
        <ele>674.1</ele>
      </trkpt>
      <trkpt lat="46.59538" lon="5.82328">
        <ele>674.8</ele>
      </trkpt>
      <trkpt lat="46.59524" lon="5.82341">
        <ele>676.2</ele>
      </trkpt>
      <trkpt lat="46.59505" lon="5.82376">
        <ele>679.4</ele>
      </trkpt>
      <trkpt lat="46.59499" lon="5.82383">
        <ele>680.1</ele>
      </trkpt>
      <trkpt lat="46.5949" lon="5.82391">
        <ele>681.1</ele>
      </trkpt>
      <trkpt lat="46.59476" lon="5.82397">
        <ele>682.8</ele>
      </trkpt>
      <trkpt lat="46.59449" lon="5.82404">
        <ele>683.2</ele>
      </trkpt>
      <trkpt lat="46.59385" lon="5.82407">
        <ele>684.6</ele>
      </trkpt>
      <trkpt lat="46.59348" lon="5.82403">
        <ele>684.2</ele>
      </trkpt>
      <trkpt lat="46.59307" lon="5.82405">
        <ele>682.5</ele>
      </trkpt>
      <trkpt lat="46.59273" lon="5.82412">
        <ele>681.7</ele>
      </trkpt>
      <trkpt lat="46.59202" lon="5.82408">
        <ele>680.1</ele>
      </trkpt>
      <trkpt lat="46.59163" lon="5.82401">
        <ele>680</ele>
      </trkpt>
      <trkpt lat="46.59132" lon="5.82386">
        <ele>678.5</ele>
      </trkpt>
      <trkpt lat="46.59124" lon="5.82386">
        <ele>677.9</ele>
      </trkpt>
      <trkpt lat="46.59117" lon="5.8239">
        <ele>677.5</ele>
      </trkpt>
      <trkpt lat="46.59082" lon="5.82414">
        <ele>677.7</ele>
      </trkpt>
      <trkpt lat="46.59036" lon="5.82438">
        <ele>677</ele>
      </trkpt>
      <trkpt lat="46.58998" lon="5.82491">
        <ele>676.6</ele>
      </trkpt>
      <trkpt lat="46.58981" lon="5.82493">
        <ele>675.9</ele>
      </trkpt>
      <trkpt lat="46.58927" lon="5.82424">
        <ele>670.4</ele>
      </trkpt>
      <trkpt lat="46.58923" lon="5.82417">
        <ele>670</ele>
      </trkpt>
      <trkpt lat="46.58918" lon="5.82412">
        <ele>669.8</ele>
      </trkpt>
      <trkpt lat="46.58912" lon="5.82392">
        <ele>669</ele>
      </trkpt>
      <trkpt lat="46.58877" lon="5.82333">
        <ele>662.3</ele>
      </trkpt>
      <trkpt lat="46.58861" lon="5.82288">
        <ele>656.7</ele>
      </trkpt>
      <trkpt lat="46.58832" lon="5.82238">
        <ele>651.9</ele>
      </trkpt>
      <trkpt lat="46.58828" lon="5.82235">
        <ele>650.9</ele>
      </trkpt>
      <trkpt lat="46.5882" lon="5.82235">
        <ele>649.3</ele>
      </trkpt>
      <trkpt lat="46.58805" lon="5.82249">
        <ele>647.8</ele>
      </trkpt>
      <trkpt lat="46.58794" lon="5.82264">
        <ele>648.1</ele>
      </trkpt>
      <trkpt lat="46.58772" lon="5.82277">
        <ele>646.2</ele>
      </trkpt>
      <trkpt lat="46.58768" lon="5.82279">
        <ele>646.3</ele>
      </trkpt>
      <trkpt lat="46.58764" lon="5.8228">
        <ele>646.5</ele>
      </trkpt>
      <trkpt lat="46.58758" lon="5.82277">
        <ele>646.7</ele>
      </trkpt>
      <trkpt lat="46.58749" lon="5.82258">
        <ele>647.2</ele>
      </trkpt>
      <trkpt lat="46.5874" lon="5.82227">
        <ele>648.8</ele>
      </trkpt>
      <trkpt lat="46.58738" lon="5.82209">
        <ele>649.2</ele>
      </trkpt>
      <trkpt lat="46.58742" lon="5.82162">
        <ele>649</ele>
      </trkpt>
      <trkpt lat="46.58754" lon="5.82074">
        <ele>648.8</ele>
      </trkpt>
      <trkpt lat="46.58758" lon="5.82016">
        <ele>647.1</ele>
      </trkpt>
      <trkpt lat="46.58759" lon="5.8199">
        <ele>646.9</ele>
      </trkpt>
      <trkpt lat="46.58757" lon="5.81977">
        <ele>647.1</ele>
      </trkpt>
      <trkpt lat="46.58752" lon="5.81942">
        <ele>647.6</ele>
      </trkpt>
      <trkpt lat="46.58748" lon="5.81924">
        <ele>647.3</ele>
      </trkpt>
      <trkpt lat="46.58743" lon="5.81908">
        <ele>647.3</ele>
      </trkpt>
      <trkpt lat="46.58731" lon="5.81881">
        <ele>647.6</ele>
      </trkpt>
      <trkpt lat="46.58724" lon="5.81869">
        <ele>647.9</ele>
      </trkpt>
      <trkpt lat="46.58704" lon="5.81841">
        <ele>647.8</ele>
      </trkpt>
      <trkpt lat="46.58696" lon="5.81828">
        <ele>647.9</ele>
      </trkpt>
      <trkpt lat="46.58692" lon="5.81813">
        <ele>648.1</ele>
      </trkpt>
      <trkpt lat="46.58692" lon="5.81789">
        <ele>647.5</ele>
      </trkpt>
      <trkpt lat="46.58688" lon="5.81766">
        <ele>646.9</ele>
      </trkpt>
      <trkpt lat="46.58665" lon="5.81715">
        <ele>647.4</ele>
      </trkpt>
      <trkpt lat="46.58653" lon="5.81686">
        <ele>648.3</ele>
      </trkpt>
      <trkpt lat="46.58644" lon="5.8168">
        <ele>648.7</ele>
      </trkpt>
      <trkpt lat="46.58623" lon="5.81679">
        <ele>650.1</ele>
      </trkpt>
      <trkpt lat="46.58617" lon="5.81676">
        <ele>650.6</ele>
      </trkpt>
      <trkpt lat="46.58613" lon="5.8167">
        <ele>650.9</ele>
      </trkpt>
      <trkpt lat="46.5861" lon="5.81664">
        <ele>651.3</ele>
      </trkpt>
      <trkpt lat="46.58601" lon="5.8161">
        <ele>653.5</ele>
      </trkpt>
      <trkpt lat="46.58601" lon="5.81571">
        <ele>653.5</ele>
      </trkpt>
      <trkpt lat="46.58607" lon="5.8153">
        <ele>651.6</ele>
      </trkpt>
      <trkpt lat="46.58612" lon="5.81511">
        <ele>650.9</ele>
      </trkpt>
      <trkpt lat="46.58648" lon="5.81414">
        <ele>647.8</ele>
      </trkpt>
      <trkpt lat="46.5867" lon="5.8134">
        <ele>646.4</ele>
      </trkpt>
      <trkpt lat="46.58677" lon="5.81311">
        <ele>646.2</ele>
      </trkpt>
      <trkpt lat="46.58678" lon="5.81279">
        <ele>647.1</ele>
      </trkpt>
      <trkpt lat="46.58676" lon="5.81261">
        <ele>647.7</ele>
      </trkpt>
      <trkpt lat="46.58668" lon="5.81219">
        <ele>649.9</ele>
      </trkpt>
      <trkpt lat="46.5864" lon="5.81139">
        <ele>654.9</ele>
      </trkpt>
      <trkpt lat="46.58637" lon="5.81119">
        <ele>656.8</ele>
      </trkpt>
      <trkpt lat="46.58637" lon="5.81104">
        <ele>658.2</ele>
      </trkpt>
      <trkpt lat="46.58644" lon="5.81082">
        <ele>659.5</ele>
      </trkpt>
      <trkpt lat="46.58649" lon="5.81074">
        <ele>660.3</ele>
      </trkpt>
      <trkpt lat="46.58666" lon="5.81059">
        <ele>661.3</ele>
      </trkpt>
      <trkpt lat="46.58673" lon="5.81048">
        <ele>661.7</ele>
      </trkpt>
      <trkpt lat="46.58676" lon="5.81037">
        <ele>662.7</ele>
      </trkpt>
      <trkpt lat="46.58681" lon="5.80998">
        <ele>665.1</ele>
      </trkpt>
      <trkpt lat="46.58677" lon="5.80916">
        <ele>671.5</ele>
      </trkpt>
      <trkpt lat="46.58675" lon="5.80898">
        <ele>672.5</ele>
      </trkpt>
      <trkpt lat="46.5867" lon="5.80884">
        <ele>673.9</ele>
      </trkpt>
      <trkpt lat="46.58664" lon="5.80869">
        <ele>675.8</ele>
      </trkpt>
      <trkpt lat="46.58657" lon="5.80861">
        <ele>677</ele>
      </trkpt>
      <trkpt lat="46.58644" lon="5.80855">
        <ele>678.4</ele>
      </trkpt>
      <trkpt lat="46.5861" lon="5.80848">
        <ele>681</ele>
      </trkpt>
      <trkpt lat="46.58611" lon="5.80824">
        <ele>681.3</ele>
      </trkpt>
      <trkpt lat="46.58615" lon="5.80799">
        <ele>681.8</ele>
      </trkpt>
      <trkpt lat="46.58619" lon="5.80785">
        <ele>681.6</ele>
      </trkpt>
      <trkpt lat="46.58636" lon="5.80755">
        <ele>681.9</ele>
      </trkpt>
      <trkpt lat="46.5864" lon="5.80738">
        <ele>682.3</ele>
      </trkpt>
      <trkpt lat="46.58642" lon="5.807">
        <ele>682.7</ele>
      </trkpt>
      <trkpt lat="46.58653" lon="5.80623">
        <ele>683.3</ele>
      </trkpt>
      <trkpt lat="46.58662" lon="5.80591">
        <ele>683.2</ele>
      </trkpt>
      <trkpt lat="46.58673" lon="5.80566">
        <ele>683.1</ele>
      </trkpt>
      <trkpt lat="46.5869" lon="5.80539">
        <ele>683</ele>
      </trkpt>
      <trkpt lat="46.58721" lon="5.80499">
        <ele>679.3</ele>
      </trkpt>
      <trkpt lat="46.58734" lon="5.80474">
        <ele>677.4</ele>
      </trkpt>
      <trkpt lat="46.58739" lon="5.8046">
        <ele>676.4</ele>
      </trkpt>
      <trkpt lat="46.58742" lon="5.80438">
        <ele>676</ele>
      </trkpt>
      <trkpt lat="46.58766" lon="5.80346">
        <ele>670.3</ele>
      </trkpt>
      <trkpt lat="46.58773" lon="5.803">
        <ele>667.9</ele>
      </trkpt>
      <trkpt lat="46.58778" lon="5.80245">
        <ele>666.9</ele>
      </trkpt>
      <trkpt lat="46.58777" lon="5.80221">
        <ele>667.3</ele>
      </trkpt>
      <trkpt lat="46.58774" lon="5.80195">
        <ele>668.1</ele>
      </trkpt>
      <trkpt lat="46.58769" lon="5.80172">
        <ele>669</ele>
      </trkpt>
      <trkpt lat="46.58765" lon="5.80144">
        <ele>669.4</ele>
      </trkpt>
      <trkpt lat="46.58756" lon="5.80063">
        <ele>670.2</ele>
      </trkpt>
      <trkpt lat="46.58757" lon="5.80037">
        <ele>670</ele>
      </trkpt>
      <trkpt lat="46.58766" lon="5.79993">
        <ele>668.3</ele>
      </trkpt>
      <trkpt lat="46.58797" lon="5.79828">
        <ele>665.2</ele>
      </trkpt>
      <trkpt lat="46.58801" lon="5.79751">
        <ele>664.3</ele>
      </trkpt>
      <trkpt lat="46.58799" lon="5.79713">
        <ele>664.3</ele>
      </trkpt>
      <trkpt lat="46.58795" lon="5.79694">
        <ele>664.5</ele>
      </trkpt>
      <trkpt lat="46.58779" lon="5.79645">
        <ele>668.6</ele>
      </trkpt>
      <trkpt lat="46.58763" lon="5.79606">
        <ele>671.2</ele>
      </trkpt>
      <trkpt lat="46.5876" lon="5.79591">
        <ele>671.5</ele>
      </trkpt>
      <trkpt lat="46.58763" lon="5.79554">
        <ele>672.4</ele>
      </trkpt>
      <trkpt lat="46.58775" lon="5.79475">
        <ele>670.8</ele>
      </trkpt>
      <trkpt lat="46.58775" lon="5.79466">
        <ele>670.8</ele>
      </trkpt>
      <trkpt lat="46.58771" lon="5.79451">
        <ele>670.7</ele>
      </trkpt>
      <trkpt lat="46.58751" lon="5.79426">
        <ele>670</ele>
      </trkpt>
      <trkpt lat="46.58744" lon="5.79415">
        <ele>669.5</ele>
      </trkpt>
      <trkpt lat="46.58738" lon="5.79392">
        <ele>668.2</ele>
      </trkpt>
      <trkpt lat="46.58736" lon="5.79369">
        <ele>666.9</ele>
      </trkpt>
      <trkpt lat="46.58738" lon="5.79357">
        <ele>666.3</ele>
      </trkpt>
      <trkpt lat="46.58745" lon="5.79336">
        <ele>665.2</ele>
      </trkpt>
      <trkpt lat="46.58712" lon="5.7929">
        <ele>666.4</ele>
      </trkpt>
      <trkpt lat="46.5869" lon="5.79236">
        <ele>665.8</ele>
      </trkpt>
      <trkpt lat="46.58693" lon="5.79166">
        <ele>662.2</ele>
      </trkpt>
      <trkpt lat="46.58687" lon="5.79067">
        <ele>657.6</ele>
      </trkpt>
      <trkpt lat="46.58675" lon="5.78946">
        <ele>648.4</ele>
      </trkpt>
      <trkpt lat="46.58677" lon="5.78881">
        <ele>642.2</ele>
      </trkpt>
      <trkpt lat="46.58657" lon="5.78752">
        <ele>631.8</ele>
      </trkpt>
      <trkpt lat="46.58655" lon="5.7874">
        <ele>631.2</ele>
      </trkpt>
      <trkpt lat="46.58632" lon="5.78686">
        <ele>630.6</ele>
      </trkpt>
      <trkpt lat="46.58609" lon="5.78609">
        <ele>635.2</ele>
      </trkpt>
      <trkpt lat="46.5858" lon="5.78475">
        <ele>641.3</ele>
      </trkpt>
      <trkpt lat="46.58577" lon="5.78416">
        <ele>642.5</ele>
      </trkpt>
      <trkpt lat="46.5857" lon="5.78284">
        <ele>645</ele>
      </trkpt>
      <trkpt lat="46.5858" lon="5.78216">
        <ele>646.1</ele>
      </trkpt>
      <trkpt lat="46.58614" lon="5.78138">
        <ele>646.8</ele>
      </trkpt>
      <trkpt lat="46.58651" lon="5.78034">
        <ele>647.1</ele>
      </trkpt>
      <trkpt lat="46.58676" lon="5.7793">
        <ele>647.2</ele>
      </trkpt>
      <trkpt lat="46.58688" lon="5.77887">
        <ele>646.2</ele>
      </trkpt>
      <trkpt lat="46.58595" lon="5.77727">
        <ele>645.1</ele>
      </trkpt>
      <trkpt lat="46.58441" lon="5.77474">
        <ele>622.9</ele>
      </trkpt>
      <trkpt lat="46.58342" lon="5.77316">
        <ele>606.3</ele>
      </trkpt>
      <trkpt lat="46.58319" lon="5.77279">
        <ele>603.1</ele>
      </trkpt>
      <trkpt lat="46.58291" lon="5.77236">
        <ele>600</ele>
      </trkpt>
      <trkpt lat="46.58282" lon="5.7722">
        <ele>599.6</ele>
      </trkpt>
      <trkpt lat="46.58273" lon="5.77187">
        <ele>598.6</ele>
      </trkpt>
      <trkpt lat="46.58266" lon="5.7715">
        <ele>597.2</ele>
      </trkpt>
      <trkpt lat="46.58261" lon="5.7714">
        <ele>597</ele>
      </trkpt>
      <trkpt lat="46.58268" lon="5.77127">
        <ele>596.7</ele>
      </trkpt>
      <trkpt lat="46.58262" lon="5.77116">
        <ele>596.6</ele>
      </trkpt>
      <trkpt lat="46.58258" lon="5.77096">
        <ele>596.2</ele>
      </trkpt>
      <trkpt lat="46.58245" lon="5.77009">
        <ele>596.8</ele>
      </trkpt>
      <trkpt lat="46.58189" lon="5.76565">
        <ele>587</ele>
      </trkpt>
      <trkpt lat="46.58179" lon="5.76472">
        <ele>585.8</ele>
      </trkpt>
      <trkpt lat="46.58186" lon="5.76414">
        <ele>582.3</ele>
      </trkpt>
      <trkpt lat="46.58187" lon="5.76406">
        <ele>582.1</ele>
      </trkpt>
      <trkpt lat="46.58201" lon="5.7628">
        <ele>575.3</ele>
      </trkpt>
      <trkpt lat="46.58205" lon="5.76186">
        <ele>564.2</ele>
      </trkpt>
      <trkpt lat="46.58223" lon="5.76069">
        <ele>555.2</ele>
      </trkpt>
      <trkpt lat="46.58227" lon="5.76033">
        <ele>552</ele>
      </trkpt>
      <trkpt lat="46.58225" lon="5.76016">
        <ele>550</ele>
      </trkpt>
      <trkpt lat="46.58216" lon="5.76041">
        <ele>550.6</ele>
      </trkpt>
      <trkpt lat="46.58203" lon="5.76064">
        <ele>549.9</ele>
      </trkpt>
      <trkpt lat="46.582" lon="5.76072">
        <ele>550.1</ele>
        <extensions>
          <visugpx:TrkExtension xmlns:visugpx="https://www.visugpx.com/editgpx/">
            <visugpx:node>13</visugpx:node>
            </visugpx:TrkExtension>
        </extensions>
      </trkpt>
      <trkpt lat="46.58186" lon="5.76107">
        <ele>551.1</ele>
      </trkpt>
      <trkpt lat="46.58162" lon="5.76114">
        <ele>547.6</ele>
      </trkpt>
      <trkpt lat="46.58156" lon="5.76111">
        <ele>546.8</ele>
      </trkpt>
      <trkpt lat="46.58143" lon="5.76047">
        <ele>543.8</ele>
      </trkpt>
      <trkpt lat="46.58138" lon="5.76017">
        <ele>542.9</ele>
      </trkpt>
      <trkpt lat="46.58135" lon="5.7601">
        <ele>542.7</ele>
      </trkpt>
      <trkpt lat="46.58132" lon="5.76006">
        <ele>542.5</ele>
      </trkpt>
      <trkpt lat="46.58087" lon="5.75991">
        <ele>539.3</ele>
      </trkpt>
      <trkpt lat="46.58095" lon="5.75949">
        <ele>539.8</ele>
      </trkpt>
      <trkpt lat="46.58087" lon="5.75879">
        <ele>541.1</ele>
      </trkpt>
      <trkpt lat="46.58086" lon="5.75874">
        <ele>541</ele>
      </trkpt>
      <trkpt lat="46.58083" lon="5.75838">
        <ele>541</ele>
      </trkpt>
      <trkpt lat="46.58086" lon="5.75827">
        <ele>541</ele>
      </trkpt>
      <trkpt lat="46.5808" lon="5.75818">
        <ele>541</ele>
      </trkpt>
      <trkpt lat="46.58085" lon="5.75779">
        <ele>541</ele>
      </trkpt>
      <trkpt lat="46.58074" lon="5.75733">
        <ele>542.7</ele>
      </trkpt>
      <trkpt lat="46.58033" lon="5.75723">
        <ele>543</ele>
      </trkpt>
      <trkpt lat="46.58024" lon="5.75734">
        <ele>542.5</ele>
      </trkpt>
      <trkpt lat="46.58002" lon="5.75703">
        <ele>541.4</ele>
      </trkpt>
      <trkpt lat="46.57965" lon="5.75653">
        <ele>537.5</ele>
      </trkpt>
      <trkpt lat="46.57965" lon="5.75642">
        <ele>537.3</ele>
      </trkpt>
      <trkpt lat="46.57953" lon="5.75612">
        <ele>536.6</ele>
      </trkpt>
      <trkpt lat="46.57946" lon="5.75565">
        <ele>531.7</ele>
      </trkpt>
      <trkpt lat="46.57943" lon="5.7555">
        <ele>530.9</ele>
      </trkpt>
      <trkpt lat="46.57936" lon="5.75529">
        <ele>530.7</ele>
      </trkpt>
      <trkpt lat="46.57927" lon="5.75512">
        <ele>529.1</ele>
      </trkpt>
      <trkpt lat="46.57915" lon="5.75493">
        <ele>524.3</ele>
      </trkpt>
      <trkpt lat="46.57896" lon="5.75473">
        <ele>521.2</ele>
      </trkpt>
      <trkpt lat="46.57885" lon="5.75465">
        <ele>518.9</ele>
      </trkpt>
      <trkpt lat="46.5788" lon="5.75466">
        <ele>517.8</ele>
      </trkpt>
      <trkpt lat="46.57874" lon="5.75469">
        <ele>517.2</ele>
      </trkpt>
      <trkpt lat="46.57869" lon="5.75478">
        <ele>517.8</ele>
      </trkpt>
      <trkpt lat="46.57865" lon="5.75486">
        <ele>517.5</ele>
      </trkpt>
      <trkpt lat="46.57856" lon="5.75538">
        <ele>515.9</ele>
      </trkpt>
      <trkpt lat="46.57852" lon="5.75547">
        <ele>515.7</ele>
      </trkpt>
      <trkpt lat="46.57846" lon="5.75554">
        <ele>514.6</ele>
      </trkpt>
      <trkpt lat="46.57816" lon="5.75578">
        <ele>512.1</ele>
      </trkpt>
      <trkpt lat="46.57807" lon="5.75583">
        <ele>510.4</ele>
      </trkpt>
      <trkpt lat="46.57795" lon="5.75585">
        <ele>510.2</ele>
      </trkpt>
      <trkpt lat="46.57784" lon="5.7558">
        <ele>508.5</ele>
      </trkpt>
      <trkpt lat="46.57782" lon="5.75575">
        <ele>507.3</ele>
      </trkpt>
      <trkpt lat="46.57774" lon="5.75546">
        <ele>504.6</ele>
      </trkpt>
      <trkpt lat="46.57769" lon="5.75517">
        <ele>507.7</ele>
      </trkpt>
      <trkpt lat="46.57758" lon="5.75463">
        <ele>512</ele>
      </trkpt>
      <trkpt lat="46.57752" lon="5.75434">
        <ele>514.8</ele>
      </trkpt>
      <trkpt lat="46.57746" lon="5.75359">
        <ele>520.4</ele>
      </trkpt>
      <trkpt lat="46.57747" lon="5.75347">
        <ele>520.7</ele>
      </trkpt>
      <trkpt lat="46.57757" lon="5.75307">
        <ele>522.2</ele>
      </trkpt>
      <trkpt lat="46.57757" lon="5.75292">
        <ele>522.1</ele>
      </trkpt>
      <trkpt lat="46.57756" lon="5.75288">
        <ele>522.4</ele>
      </trkpt>
      <trkpt lat="46.57732" lon="5.75256">
        <ele>527.5</ele>
      </trkpt>
      <trkpt lat="46.57729" lon="5.75246">
        <ele>528.4</ele>
      </trkpt>
      <trkpt lat="46.57733" lon="5.7523">
        <ele>530.6</ele>
      </trkpt>
      <trkpt lat="46.57738" lon="5.75225">
        <ele>530.4</ele>
      </trkpt>
      <trkpt lat="46.57756" lon="5.75218">
        <ele>527.8</ele>
      </trkpt>
      <trkpt lat="46.57761" lon="5.75214">
        <ele>527.8</ele>
      </trkpt>
      <trkpt lat="46.57767" lon="5.75204">
        <ele>529.2</ele>
      </trkpt>
      <trkpt lat="46.57774" lon="5.75183">
        <ele>531.6</ele>
      </trkpt>
      <trkpt lat="46.57777" lon="5.75155">
        <ele>534</ele>
      </trkpt>
      <trkpt lat="46.57777" lon="5.75147">
        <ele>534.5</ele>
      </trkpt>
      <trkpt lat="46.57774" lon="5.7514">
        <ele>535.3</ele>
      </trkpt>
      <trkpt lat="46.5777" lon="5.75135">
        <ele>535.7</ele>
      </trkpt>
      <trkpt lat="46.57758" lon="5.75124">
        <ele>537</ele>
      </trkpt>
      <trkpt lat="46.5774" lon="5.75106">
        <ele>538.2</ele>
      </trkpt>
      <trkpt lat="46.57734" lon="5.75107">
        <ele>538.5</ele>
      </trkpt>
      <trkpt lat="46.57728" lon="5.75088">
        <ele>538.6</ele>
      </trkpt>
      <trkpt lat="46.57718" lon="5.75072">
        <ele>539.1</ele>
      </trkpt>
      <trkpt lat="46.57708" lon="5.75061">
        <ele>539.1</ele>
      </trkpt>
      <trkpt lat="46.57705" lon="5.75058">
        <ele>539.1</ele>
      </trkpt>
      <trkpt lat="46.57699" lon="5.75052">
        <ele>539</ele>
      </trkpt>
      <trkpt lat="46.57665" lon="5.75028">
        <ele>540</ele>
      </trkpt>
      <trkpt lat="46.57663" lon="5.75026">
        <ele>539.9</ele>
      </trkpt>
      <trkpt lat="46.57644" lon="5.75018">
        <ele>539.9</ele>
      </trkpt>
      <trkpt lat="46.57631" lon="5.75014">
        <ele>540.3</ele>
      </trkpt>
      <trkpt lat="46.57594" lon="5.7501">
        <ele>541.6</ele>
      </trkpt>
      <trkpt lat="46.57567" lon="5.74997">
        <ele>542</ele>
      </trkpt>
      <trkpt lat="46.57561" lon="5.74995">
        <ele>542</ele>
      </trkpt>
      <trkpt lat="46.57554" lon="5.74996">
        <ele>542</ele>
      </trkpt>
      <trkpt lat="46.57548" lon="5.75003">
        <ele>542</ele>
      </trkpt>
      <trkpt lat="46.57539" lon="5.75047">
        <ele>542.7</ele>
      </trkpt>
      <trkpt lat="46.57521" lon="5.75074">
        <ele>543.4</ele>
      </trkpt>
      <trkpt lat="46.57515" lon="5.75065">
        <ele>542.9</ele>
      </trkpt>
      <trkpt lat="46.5749" lon="5.75046">
        <ele>540.6</ele>
      </trkpt>
      <trkpt lat="46.57482" lon="5.75049">
        <ele>539.8</ele>
      </trkpt>
      <trkpt lat="46.57467" lon="5.75061">
        <ele>539</ele>
      </trkpt>
      <trkpt lat="46.57403" lon="5.75091">
        <ele>534.8</ele>
      </trkpt>
      <trkpt lat="46.57398" lon="5.75108">
        <ele>535.2</ele>
      </trkpt>
      <trkpt lat="46.57374" lon="5.75159">
        <ele>537.2</ele>
      </trkpt>
      <trkpt lat="46.57364" lon="5.75174">
        <ele>537.2</ele>
      </trkpt>
      <trkpt lat="46.57343" lon="5.75198">
        <ele>538.2</ele>
      </trkpt>
      <trkpt lat="46.57325" lon="5.75221">
        <ele>539.9</ele>
      </trkpt>
      <trkpt lat="46.57314" lon="5.75239">
        <ele>540.5</ele>
      </trkpt>
      <trkpt lat="46.57289" lon="5.753">
        <ele>543.7</ele>
      </trkpt>
      <trkpt lat="46.57277" lon="5.75324">
        <ele>542.6</ele>
      </trkpt>
      <trkpt lat="46.57249" lon="5.75361">
        <ele>543.9</ele>
      </trkpt>
      <trkpt lat="46.57238" lon="5.7538">
        <ele>547.3</ele>
      </trkpt>
      <trkpt lat="46.57235" lon="5.75388">
        <ele>548.7</ele>
      </trkpt>
      <trkpt lat="46.57231" lon="5.75385">
        <ele>547.5</ele>
      </trkpt>
      <trkpt lat="46.57229" lon="5.75383">
        <ele>546.8</ele>
      </trkpt>
      <trkpt lat="46.57226" lon="5.75381">
        <ele>546</ele>
      </trkpt>
      <trkpt lat="46.57205" lon="5.75386">
        <ele>545.3</ele>
      </trkpt>
      <trkpt lat="46.57201" lon="5.75386">
        <ele>545</ele>
      </trkpt>
      <trkpt lat="46.57139" lon="5.75418">
        <ele>546.2</ele>
      </trkpt>
      <trkpt lat="46.57105" lon="5.75443">
        <ele>549.9</ele>
      </trkpt>
      <trkpt lat="46.57103" lon="5.75448">
        <ele>550.4</ele>
      </trkpt>
      <trkpt lat="46.57104" lon="5.75462">
        <ele>551.3</ele>
      </trkpt>
      <trkpt lat="46.57106" lon="5.75469">
        <ele>551.8</ele>
      </trkpt>
      <trkpt lat="46.56883" lon="5.75573">
        <ele>555.2</ele>
      </trkpt>
      <trkpt lat="46.56856" lon="5.75593">
        <ele>556.2</ele>
      </trkpt>
      <trkpt lat="46.56815" lon="5.75642">
        <ele>557.3</ele>
      </trkpt>
      <trkpt lat="46.56795" lon="5.75661">
        <ele>556.2</ele>
      </trkpt>
      <trkpt lat="46.56777" lon="5.75673">
        <ele>554.5</ele>
      </trkpt>
      <trkpt lat="46.56759" lon="5.75682">
        <ele>554</ele>
      </trkpt>
      <trkpt lat="46.56729" lon="5.75693">
        <ele>555.6</ele>
        <extensions>
          <visugpx:TrkExtension xmlns:visugpx="https://www.visugpx.com/editgpx/">
            <visugpx:node>14</visugpx:node>
            </visugpx:TrkExtension>
        </extensions>
      </trkpt>
      <trkpt lat="46.56722" lon="5.75696">
        <ele>556.1</ele>
      </trkpt>
      <trkpt lat="46.56664" lon="5.75718">
        <ele>558.5</ele>
      </trkpt>
      <trkpt lat="46.56623" lon="5.75737">
        <ele>561.5</ele>
      </trkpt>
      <trkpt lat="46.56595" lon="5.75755">
        <ele>562.9</ele>
      </trkpt>
      <trkpt lat="46.56571" lon="5.75773">
        <ele>563.9</ele>
      </trkpt>
      <trkpt lat="46.56542" lon="5.758">
        <ele>566.3</ele>
      </trkpt>
      <trkpt lat="46.56509" lon="5.75834">
        <ele>568.4</ele>
      </trkpt>
      <trkpt lat="46.56468" lon="5.75882">
        <ele>570.7</ele>
      </trkpt>
      <trkpt lat="46.56465" lon="5.75877">
        <ele>569.7</ele>
      </trkpt>
      <trkpt lat="46.5646" lon="5.75879">
        <ele>569.3</ele>
      </trkpt>
      <trkpt lat="46.56403" lon="5.75929">
        <ele>566.3</ele>
      </trkpt>
      <trkpt lat="46.56385" lon="5.75954">
        <ele>565.7</ele>
      </trkpt>
      <trkpt lat="46.56348" lon="5.76014">
        <ele>562.4</ele>
      </trkpt>
      <trkpt lat="46.56337" lon="5.76028">
        <ele>561.1</ele>
      </trkpt>
      <trkpt lat="46.56321" lon="5.76044">
        <ele>561.6</ele>
      </trkpt>
      <trkpt lat="46.56295" lon="5.76056">
        <ele>559.7</ele>
      </trkpt>
      <trkpt lat="46.56292" lon="5.76067">
        <ele>561.6</ele>
      </trkpt>
      <trkpt lat="46.56287" lon="5.76073">
        <ele>562.3</ele>
      </trkpt>
      <trkpt lat="46.56277" lon="5.76078">
        <ele>562.2</ele>
      </trkpt>
      <trkpt lat="46.56257" lon="5.76078">
        <ele>562.1</ele>
      </trkpt>
      <trkpt lat="46.56256" lon="5.7608">
        <ele>562.4</ele>
      </trkpt>
      <trkpt lat="46.5625" lon="5.76084">
        <ele>563.2</ele>
      </trkpt>
      <trkpt lat="46.56234" lon="5.76068">
        <ele>563.9</ele>
      </trkpt>
      <trkpt lat="46.56216" lon="5.76061">
        <ele>566.3</ele>
      </trkpt>
      <trkpt lat="46.56202" lon="5.76061">
        <ele>570.1</ele>
      </trkpt>
      <trkpt lat="46.56172" lon="5.76043">
        <ele>572.8</ele>
      </trkpt>
      <trkpt lat="46.56161" lon="5.76043">
        <ele>576.1</ele>
      </trkpt>
      <trkpt lat="46.56137" lon="5.76028">
        <ele>576.3</ele>
      </trkpt>
      <trkpt lat="46.56122" lon="5.76029">
        <ele>578.3</ele>
      </trkpt>
      <trkpt lat="46.5609" lon="5.76044">
        <ele>583.5</ele>
      </trkpt>
      <trkpt lat="46.56076" lon="5.76047">
        <ele>582.5</ele>
      </trkpt>
      <trkpt lat="46.56064" lon="5.76053">
        <ele>582</ele>
      </trkpt>
      <trkpt lat="46.56017" lon="5.76116">
        <ele>586.8</ele>
      </trkpt>
      <trkpt lat="46.56012" lon="5.76115">
        <ele>585.8</ele>
      </trkpt>
      <trkpt lat="46.56005" lon="5.76124">
        <ele>587.1</ele>
      </trkpt>
      <trkpt lat="46.55992" lon="5.76133">
        <ele>587.3</ele>
      </trkpt>
      <trkpt lat="46.55989" lon="5.76153">
        <ele>590.1</ele>
      </trkpt>
      <trkpt lat="46.55993" lon="5.7617">
        <ele>593</ele>
      </trkpt>
      <trkpt lat="46.56004" lon="5.76183">
        <ele>596</ele>
      </trkpt>
      <trkpt lat="46.56026" lon="5.76216">
        <ele>602.5</ele>
      </trkpt>
      <trkpt lat="46.56024" lon="5.7622">
        <ele>602.5</ele>
      </trkpt>
      <trkpt lat="46.56027" lon="5.76227">
        <ele>603.3</ele>
      </trkpt>
      <trkpt lat="46.55997" lon="5.76253">
        <ele>605.3</ele>
      </trkpt>
      <trkpt lat="46.55978" lon="5.76265">
        <ele>606.4</ele>
      </trkpt>
      <trkpt lat="46.55963" lon="5.76273">
        <ele>607.1</ele>
      </trkpt>
      <trkpt lat="46.559" lon="5.76295">
        <ele>610.4</ele>
      </trkpt>
      <trkpt lat="46.55885" lon="5.76303">
        <ele>611.4</ele>
      </trkpt>
      <trkpt lat="46.55865" lon="5.76319">
        <ele>612.6</ele>
      </trkpt>
      <trkpt lat="46.55844" lon="5.76347">
        <ele>615</ele>
      </trkpt>
      <trkpt lat="46.55822" lon="5.76387">
        <ele>616.3</ele>
        <extensions>
          <visugpx:TrkExtension xmlns:visugpx="https://www.visugpx.com/editgpx/">
            <visugpx:node>15</visugpx:node>
            </visugpx:TrkExtension>
        </extensions>
      </trkpt>
      <trkpt lat="46.55777" lon="5.76467">
        <ele>621.3</ele>
      </trkpt>
      <trkpt lat="46.55768" lon="5.76486">
        <ele>622.3</ele>
      </trkpt>
      <trkpt lat="46.55761" lon="5.76509">
        <ele>623</ele>
      </trkpt>
      <trkpt lat="46.55757" lon="5.7653">
        <ele>623.6</ele>
      </trkpt>
      <trkpt lat="46.55756" lon="5.76559">
        <ele>624.9</ele>
      </trkpt>
      <trkpt lat="46.55759" lon="5.7658">
        <ele>625.2</ele>
      </trkpt>
      <trkpt lat="46.55772" lon="5.76618">
        <ele>626.4</ele>
      </trkpt>
      <trkpt lat="46.55777" lon="5.76635">
        <ele>627.6</ele>
      </trkpt>
      <trkpt lat="46.55782" lon="5.76651">
        <ele>627.8</ele>
      </trkpt>
      <trkpt lat="46.55784" lon="5.76673">
        <ele>628.6</ele>
      </trkpt>
      <trkpt lat="46.55773" lon="5.76783">
        <ele>633.4</ele>
      </trkpt>
      <trkpt lat="46.55772" lon="5.7687">
        <ele>637.7</ele>
      </trkpt>
      <trkpt lat="46.55761" lon="5.76949">
        <ele>640.9</ele>
      </trkpt>
      <trkpt lat="46.55762" lon="5.77026">
        <ele>645.5</ele>
      </trkpt>
      <trkpt lat="46.55758" lon="5.77048">
        <ele>645.8</ele>
      </trkpt>
      <trkpt lat="46.55754" lon="5.7706">
        <ele>645.5</ele>
        <extensions>
          <visugpx:TrkExtension xmlns:visugpx="https://www.visugpx.com/editgpx/">
            <visugpx:node>16</visugpx:node>
            </visugpx:TrkExtension>
        </extensions>
      </trkpt>
      <trkpt lat="46.55749" lon="5.77075">
        <ele>645.1</ele>
      </trkpt>
      <trkpt lat="46.5574" lon="5.77082">
        <ele>645.8</ele>
      </trkpt>
      <trkpt lat="46.55733" lon="5.77093">
        <ele>646.4</ele>
      </trkpt>
      <trkpt lat="46.55711" lon="5.77142">
        <ele>647.6</ele>
      </trkpt>
      <trkpt lat="46.55701" lon="5.77159">
        <ele>647.8</ele>
      </trkpt>
      <trkpt lat="46.55689" lon="5.77167">
        <ele>648.2</ele>
      </trkpt>
      <trkpt lat="46.55682" lon="5.77169">
        <ele>648.5</ele>
      </trkpt>
      <trkpt lat="46.55709" lon="5.77181">
        <ele>648.5</ele>
      </trkpt>
      <trkpt lat="46.55681" lon="5.77274">
        <ele>652.3</ele>
      </trkpt>
      <trkpt lat="46.55669" lon="5.77304">
        <ele>654.7</ele>
      </trkpt>
      <trkpt lat="46.55657" lon="5.77326">
        <ele>656.1</ele>
      </trkpt>
      <trkpt lat="46.55641" lon="5.77349">
        <ele>657.6</ele>
      </trkpt>
      <trkpt lat="46.55628" lon="5.77361">
        <ele>657.8</ele>
      </trkpt>
      <trkpt lat="46.55604" lon="5.77379">
        <ele>659.7</ele>
      </trkpt>
      <trkpt lat="46.55592" lon="5.77394">
        <ele>660.4</ele>
      </trkpt>
      <trkpt lat="46.55582" lon="5.77413">
        <ele>660.7</ele>
      </trkpt>
      <trkpt lat="46.55563" lon="5.77479">
        <ele>663.3</ele>
      </trkpt>
      <trkpt lat="46.55554" lon="5.775">
        <ele>663.3</ele>
      </trkpt>
      <trkpt lat="46.55523" lon="5.7755">
        <ele>665.1</ele>
        <extensions>
          <visugpx:TrkExtension xmlns:visugpx="https://www.visugpx.com/editgpx/">
            <visugpx:node>17</visugpx:node>
            </visugpx:TrkExtension>
        </extensions>
      </trkpt>
      <trkpt lat="46.55513" lon="5.77564">
        <ele>665.7</ele>
      </trkpt>
      <trkpt lat="46.55485" lon="5.77627">
        <ele>667.6</ele>
      </trkpt>
      <trkpt lat="46.55471" lon="5.77654">
        <ele>669.7</ele>
      </trkpt>
      <trkpt lat="46.55453" lon="5.77675">
        <ele>671.3</ele>
      </trkpt>
      <trkpt lat="46.55435" lon="5.77685">
        <ele>671.8</ele>
      </trkpt>
      <trkpt lat="46.55414" lon="5.77691">
        <ele>673</ele>
      </trkpt>
      <trkpt lat="46.55394" lon="5.77701">
        <ele>674</ele>
      </trkpt>
      <trkpt lat="46.55384" lon="5.77708">
        <ele>674.5</ele>
      </trkpt>
      <trkpt lat="46.55349" lon="5.7774">
        <ele>676.1</ele>
      </trkpt>
      <trkpt lat="46.55332" lon="5.77753">
        <ele>677.3</ele>
      </trkpt>
      <trkpt lat="46.55291" lon="5.77778">
        <ele>678.5</ele>
      </trkpt>
      <trkpt lat="46.55241" lon="5.778">
        <ele>680.7</ele>
      </trkpt>
      <trkpt lat="46.55225" lon="5.77815">
        <ele>681.4</ele>
      </trkpt>
      <trkpt lat="46.55209" lon="5.77837">
        <ele>681</ele>
      </trkpt>
      <trkpt lat="46.55184" lon="5.77876">
        <ele>683.7</ele>
      </trkpt>
      <trkpt lat="46.55174" lon="5.77894">
        <ele>684.3</ele>
        <extensions>
          <visugpx:TrkExtension xmlns:visugpx="https://www.visugpx.com/editgpx/">
            <visugpx:node>18</visugpx:node>
            </visugpx:TrkExtension>
        </extensions>
      </trkpt>
      <trkpt lat="46.55169" lon="5.77904">
        <ele>684.4</ele>
      </trkpt>
      <trkpt lat="46.55123" lon="5.7806">
        <ele>688</ele>
      </trkpt>
      <trkpt lat="46.55111" lon="5.78089">
        <ele>688.6</ele>
      </trkpt>
      <trkpt lat="46.55091" lon="5.78127">
        <ele>689.5</ele>
      </trkpt>
      <trkpt lat="46.55067" lon="5.78165">
        <ele>689.8</ele>
      </trkpt>
      <trkpt lat="46.55057" lon="5.78183">
        <ele>690.6</ele>
      </trkpt>
      <trkpt lat="46.55048" lon="5.78205">
        <ele>692.2</ele>
      </trkpt>
      <trkpt lat="46.55046" lon="5.78217">
        <ele>693.3</ele>
      </trkpt>
      <trkpt lat="46.55041" lon="5.78252">
        <ele>693.5</ele>
      </trkpt>
      <trkpt lat="46.55039" lon="5.78298">
        <ele>693.8</ele>
      </trkpt>
      <trkpt lat="46.55035" lon="5.78325">
        <ele>694.7</ele>
      </trkpt>
      <trkpt lat="46.55029" lon="5.78352">
        <ele>695.7</ele>
      </trkpt>
      <trkpt lat="46.55008" lon="5.78419">
        <ele>697.4</ele>
      </trkpt>
      <trkpt lat="46.55003" lon="5.78447">
        <ele>698.2</ele>
      </trkpt>
      <trkpt lat="46.55" lon="5.78468">
        <ele>698</ele>
      </trkpt>
      <trkpt lat="46.55001" lon="5.78555">
        <ele>698</ele>
      </trkpt>
      <trkpt lat="46.54999" lon="5.78578">
        <ele>698.2</ele>
      </trkpt>
      <trkpt lat="46.54995" lon="5.78602">
        <ele>698.7</ele>
      </trkpt>
      <trkpt lat="46.54986" lon="5.78631">
        <ele>699.1</ele>
      </trkpt>
      <trkpt lat="46.54982" lon="5.7864">
        <ele>699</ele>
      </trkpt>
      <trkpt lat="46.5497" lon="5.78656">
        <ele>697.9</ele>
      </trkpt>
      <trkpt lat="46.54953" lon="5.78667">
        <ele>697</ele>
      </trkpt>
      <trkpt lat="46.54869" lon="5.78694">
        <ele>696.1</ele>
      </trkpt>
      <trkpt lat="46.54815" lon="5.78704">
        <ele>695.4</ele>
      </trkpt>
      <trkpt lat="46.54775" lon="5.78728">
        <ele>694</ele>
      </trkpt>
      <trkpt lat="46.54762" lon="5.78738">
        <ele>693.5</ele>
      </trkpt>
      <trkpt lat="46.54749" lon="5.78758">
        <ele>693.4</ele>
      </trkpt>
      <trkpt lat="46.54745" lon="5.78768">
        <ele>692.5</ele>
      </trkpt>
      <trkpt lat="46.54741" lon="5.78789">
        <ele>691.7</ele>
      </trkpt>
      <trkpt lat="46.54741" lon="5.78791">
        <ele>691.7</ele>
        <extensions>
          <visugpx:TrkExtension xmlns:visugpx="https://www.visugpx.com/editgpx/">
            <visugpx:node>19</visugpx:node>
            </visugpx:TrkExtension>
        </extensions>
      </trkpt>
      <trkpt lat="46.54741" lon="5.7885">
        <ele>692.9</ele>
      </trkpt>
      <trkpt lat="46.54744" lon="5.78888">
        <ele>692.8</ele>
      </trkpt>
      <trkpt lat="46.54774" lon="5.79048">
        <ele>697.3</ele>
      </trkpt>
      <trkpt lat="46.54776" lon="5.79075">
        <ele>697.9</ele>
      </trkpt>
      <trkpt lat="46.54775" lon="5.79083">
        <ele>697.8</ele>
      </trkpt>
      <trkpt lat="46.54778" lon="5.79107">
        <ele>698.9</ele>
      </trkpt>
      <trkpt lat="46.54784" lon="5.79119">
        <ele>699.9</ele>
      </trkpt>
      <trkpt lat="46.54775" lon="5.79115">
        <ele>699</ele>
      </trkpt>
      <trkpt lat="46.54765" lon="5.79119">
        <ele>698.4</ele>
      </trkpt>
      <trkpt lat="46.5476" lon="5.79125">
        <ele>698.7</ele>
      </trkpt>
      <trkpt lat="46.54749" lon="5.79134">
        <ele>699.3</ele>
      </trkpt>
      <trkpt lat="46.54715" lon="5.79144">
        <ele>701.3</ele>
      </trkpt>
      <trkpt lat="46.54701" lon="5.79152">
        <ele>701.5</ele>
      </trkpt>
      <trkpt lat="46.54623" lon="5.79227">
        <ele>706.7</ele>
      </trkpt>
      <trkpt lat="46.54602" lon="5.79243">
        <ele>706.6</ele>
      </trkpt>
      <trkpt lat="46.5458" lon="5.79253">
        <ele>706.8</ele>
      </trkpt>
      <trkpt lat="46.54569" lon="5.79254">
        <ele>706.6</ele>
        <extensions>
          <visugpx:TrkExtension xmlns:visugpx="https://www.visugpx.com/editgpx/">
            <visugpx:node>20</visugpx:node>
            </visugpx:TrkExtension>
        </extensions>
      </trkpt>
      <trkpt lat="46.54542" lon="5.79257">
        <ele>707.5</ele>
      </trkpt>
      <trkpt lat="46.54522" lon="5.79266">
        <ele>709.6</ele>
      </trkpt>
      <trkpt lat="46.54514" lon="5.79275">
        <ele>710.3</ele>
      </trkpt>
      <trkpt lat="46.54497" lon="5.79303">
        <ele>710.8</ele>
      </trkpt>
      <trkpt lat="46.54488" lon="5.79315">
        <ele>711</ele>
      </trkpt>
      <trkpt lat="46.54466" lon="5.79336">
        <ele>712</ele>
      </trkpt>
      <trkpt lat="46.5444" lon="5.79365">
        <ele>714</ele>
      </trkpt>
      <trkpt lat="46.54423" lon="5.79379">
        <ele>715.7</ele>
      </trkpt>
      <trkpt lat="46.54381" lon="5.79407">
        <ele>716.8</ele>
      </trkpt>
      <trkpt lat="46.54361" lon="5.79415">
        <ele>717.1</ele>
      </trkpt>
      <trkpt lat="46.54339" lon="5.79418">
        <ele>717.9</ele>
      </trkpt>
      <trkpt lat="46.54314" lon="5.79434">
        <ele>721.3</ele>
      </trkpt>
      <trkpt lat="46.54297" lon="5.79451">
        <ele>724.7</ele>
      </trkpt>
      <trkpt lat="46.54238" lon="5.79487">
        <ele>729.6</ele>
      </trkpt>
      <trkpt lat="46.54195" lon="5.79504">
        <ele>726.5</ele>
      </trkpt>
      <trkpt lat="46.54156" lon="5.79512">
        <ele>727.9</ele>
      </trkpt>
      <trkpt lat="46.54127" lon="5.79534">
        <ele>727.3</ele>
      </trkpt>
      <trkpt lat="46.54105" lon="5.79547">
        <ele>727.9</ele>
      </trkpt>
      <trkpt lat="46.54083" lon="5.79553">
        <ele>728.6</ele>
      </trkpt>
      <trkpt lat="46.5407" lon="5.79554">
        <ele>728.4</ele>
      </trkpt>
      <trkpt lat="46.54048" lon="5.79551">
        <ele>729.1</ele>
      </trkpt>
      <trkpt lat="46.5402" lon="5.7954">
        <ele>729</ele>
      </trkpt>
      <trkpt lat="46.53999" lon="5.79525">
        <ele>729.5</ele>
      </trkpt>
      <trkpt lat="46.53972" lon="5.79501">
        <ele>728.7</ele>
      </trkpt>
      <trkpt lat="46.53936" lon="5.7948">
        <ele>727.6</ele>
      </trkpt>
      <trkpt lat="46.53893" lon="5.79463">
        <ele>728.2</ele>
      </trkpt>
      <trkpt lat="46.53819" lon="5.79445">
        <ele>725.7</ele>
      </trkpt>
      <trkpt lat="46.53788" lon="5.79431">
        <ele>726.4</ele>
      </trkpt>
      <trkpt lat="46.53735" lon="5.79413">
        <ele>726.9</ele>
      </trkpt>
      <trkpt lat="46.53715" lon="5.79408">
        <ele>728</ele>
      </trkpt>
      <trkpt lat="46.53691" lon="5.79407">
        <ele>728</ele>
      </trkpt>
      <trkpt lat="46.53577" lon="5.79414">
        <ele>732.7</ele>
      </trkpt>
      <trkpt lat="46.53552" lon="5.79411">
        <ele>733.1</ele>
      </trkpt>
      <trkpt lat="46.53492" lon="5.79395">
        <ele>733.7</ele>
      </trkpt>
      <trkpt lat="46.53446" lon="5.79372">
        <ele>735.9</ele>
      </trkpt>
      <trkpt lat="46.53432" lon="5.79363">
        <ele>737</ele>
      </trkpt>
      <trkpt lat="46.53414" lon="5.79346">
        <ele>737.7</ele>
      </trkpt>
      <trkpt lat="46.53398" lon="5.79322">
        <ele>737.9</ele>
      </trkpt>
      <trkpt lat="46.53393" lon="5.79293">
        <ele>738.6</ele>
      </trkpt>
      <trkpt lat="46.5339" lon="5.79286">
        <ele>738.2</ele>
      </trkpt>
      <trkpt lat="46.53375" lon="5.79265">
        <ele>738.6</ele>
      </trkpt>
      <trkpt lat="46.53346" lon="5.79248">
        <ele>738.9</ele>
      </trkpt>
      <trkpt lat="46.53284" lon="5.79206">
        <ele>739.9</ele>
      </trkpt>
      <trkpt lat="46.53247" lon="5.79168">
        <ele>740.6</ele>
        <extensions>
          <visugpx:TrkExtension xmlns:visugpx="https://www.visugpx.com/editgpx/">
            <visugpx:node>21</visugpx:node>
            </visugpx:TrkExtension>
        </extensions>
      </trkpt>
      <trkpt lat="46.53235" lon="5.79155">
        <ele>741.6</ele>
      </trkpt>
      <trkpt lat="46.53218" lon="5.79141">
        <ele>741.5</ele>
      </trkpt>
      <trkpt lat="46.53203" lon="5.79132">
        <ele>742.3</ele>
      </trkpt>
      <trkpt lat="46.53171" lon="5.79114">
        <ele>742.8</ele>
      </trkpt>
      <trkpt lat="46.53085" lon="5.79072">
        <ele>744.8</ele>
      </trkpt>
      <trkpt lat="46.53051" lon="5.79062">
        <ele>744.6</ele>
      </trkpt>
      <trkpt lat="46.53013" lon="5.79053">
        <ele>743.4</ele>
      </trkpt>
      <trkpt lat="46.52986" lon="5.79049">
        <ele>743.3</ele>
      </trkpt>
      <trkpt lat="46.52966" lon="5.79053">
        <ele>743.2</ele>
      </trkpt>
      <trkpt lat="46.52949" lon="5.79066">
        <ele>743.2</ele>
      </trkpt>
      <trkpt lat="46.52916" lon="5.79104">
        <ele>745.2</ele>
      </trkpt>
      <trkpt lat="46.52898" lon="5.79117">
        <ele>746.7</ele>
      </trkpt>
      <trkpt lat="46.52867" lon="5.79129">
        <ele>748.2</ele>
      </trkpt>
      <trkpt lat="46.52853" lon="5.79132">
        <ele>748.8</ele>
      </trkpt>
      <trkpt lat="46.52839" lon="5.79132">
        <ele>749.3</ele>
      </trkpt>
      <trkpt lat="46.52827" lon="5.7913">
        <ele>749.4</ele>
      </trkpt>
      <trkpt lat="46.52801" lon="5.79122">
        <ele>750.1</ele>
      </trkpt>
      <trkpt lat="46.52784" lon="5.79121">
        <ele>751.2</ele>
      </trkpt>
      <trkpt lat="46.52765" lon="5.79127">
        <ele>752.6</ele>
      </trkpt>
      <trkpt lat="46.52753" lon="5.79136">
        <ele>753.7</ele>
      </trkpt>
      <trkpt lat="46.52747" lon="5.79134">
        <ele>754.5</ele>
      </trkpt>
      <trkpt lat="46.5272" lon="5.79156">
        <ele>760.1</ele>
      </trkpt>
      <trkpt lat="46.52722" lon="5.79164">
        <ele>760</ele>
      </trkpt>
      <trkpt lat="46.52723" lon="5.79183">
        <ele>759.2</ele>
      </trkpt>
      <trkpt lat="46.5272" lon="5.79237">
        <ele>759.5</ele>
      </trkpt>
      <trkpt lat="46.52709" lon="5.79271">
        <ele>760.1</ele>
      </trkpt>
      <trkpt lat="46.52694" lon="5.79303">
        <ele>756.4</ele>
      </trkpt>
      <trkpt lat="46.52678" lon="5.79369">
        <ele>754.4</ele>
      </trkpt>
      <trkpt lat="46.52678" lon="5.79396">
        <ele>752.9</ele>
      </trkpt>
      <trkpt lat="46.52681" lon="5.79424">
        <ele>752.8</ele>
      </trkpt>
      <trkpt lat="46.52685" lon="5.7944">
        <ele>753.5</ele>
      </trkpt>
      <trkpt lat="46.52692" lon="5.79451">
        <ele>752.2</ele>
      </trkpt>
      <trkpt lat="46.52697" lon="5.79454">
        <ele>751.8</ele>
      </trkpt>
      <trkpt lat="46.52706" lon="5.79459">
        <ele>752.5</ele>
      </trkpt>
      <trkpt lat="46.52726" lon="5.79459">
        <ele>753.1</ele>
      </trkpt>
      <trkpt lat="46.52733" lon="5.79463">
        <ele>753.7</ele>
      </trkpt>
      <trkpt lat="46.52738" lon="5.7947">
        <ele>754.7</ele>
      </trkpt>
      <trkpt lat="46.52739" lon="5.79479">
        <ele>755.8</ele>
      </trkpt>
      <trkpt lat="46.52737" lon="5.79493">
        <ele>757.6</ele>
      </trkpt>
      <trkpt lat="46.52729" lon="5.79511">
        <ele>760.1</ele>
      </trkpt>
      <trkpt lat="46.52717" lon="5.7953">
        <ele>761.4</ele>
      </trkpt>
      <trkpt lat="46.52714" lon="5.79534">
        <ele>761.8</ele>
      </trkpt>
      <trkpt lat="46.52711" lon="5.79536">
        <ele>761.9</ele>
      </trkpt>
      <trkpt lat="46.52664" lon="5.79568">
        <ele>762.1</ele>
      </trkpt>
      <trkpt lat="46.52656" lon="5.79572">
        <ele>762.4</ele>
      </trkpt>
      <trkpt lat="46.52647" lon="5.7957">
        <ele>762.7</ele>
      </trkpt>
      <trkpt lat="46.52643" lon="5.79567">
        <ele>762.9</ele>
      </trkpt>
      <trkpt lat="46.52636" lon="5.79559">
        <ele>763.3</ele>
      </trkpt>
      <trkpt lat="46.52634" lon="5.79551">
        <ele>763.4</ele>
      </trkpt>
      <trkpt lat="46.52614" lon="5.7956">
        <ele>766.1</ele>
      </trkpt>
      <trkpt lat="46.52611" lon="5.79553">
        <ele>765</ele>
      </trkpt>
      <trkpt lat="46.52599" lon="5.79553">
        <ele>766.2</ele>
      </trkpt>
      <trkpt lat="46.52591" lon="5.7956">
        <ele>766.8</ele>
      </trkpt>
      <trkpt lat="46.52566" lon="5.79589">
        <ele>770.4</ele>
      </trkpt>
      <trkpt lat="46.52556" lon="5.79596">
        <ele>770.6</ele>
      </trkpt>
      <trkpt lat="46.52541" lon="5.79598">
        <ele>771.2</ele>
      </trkpt>
      <trkpt lat="46.52505" lon="5.79592">
        <ele>773.6</ele>
      </trkpt>
      <trkpt lat="46.52484" lon="5.79582">
        <ele>774.2</ele>
      </trkpt>
      <trkpt lat="46.52474" lon="5.79571">
        <ele>775.9</ele>
      </trkpt>
      <trkpt lat="46.5247" lon="5.79564">
        <ele>777.3</ele>
      </trkpt>
      <trkpt lat="46.52467" lon="5.79554">
        <ele>779.2</ele>
      </trkpt>
      <trkpt lat="46.52465" lon="5.79539">
        <ele>781.1</ele>
      </trkpt>
      <trkpt lat="46.52468" lon="5.79516">
        <ele>782.9</ele>
      </trkpt>
      <trkpt lat="46.52473" lon="5.7948">
        <ele>784.4</ele>
      </trkpt>
      <trkpt lat="46.52472" lon="5.79453">
        <ele>785</ele>
      </trkpt>
      <trkpt lat="46.52467" lon="5.7943">
        <ele>785.5</ele>
      </trkpt>
      <trkpt lat="46.52448" lon="5.79402">
        <ele>787</ele>
      </trkpt>
      <trkpt lat="46.52399" lon="5.79361">
        <ele>787.4</ele>
      </trkpt>
      <trkpt lat="46.52379" lon="5.79339">
        <ele>789.2</ele>
      </trkpt>
      <trkpt lat="46.52345" lon="5.79314">
        <ele>790.6</ele>
      </trkpt>
      <trkpt lat="46.5232" lon="5.79299">
        <ele>789.3</ele>
      </trkpt>
      <trkpt lat="46.52276" lon="5.793">
        <ele>788.2</ele>
      </trkpt>
      <trkpt lat="46.52189" lon="5.79324">
        <ele>789.4</ele>
      </trkpt>
      <trkpt lat="46.52171" lon="5.79334">
        <ele>788.8</ele>
      </trkpt>
      <trkpt lat="46.5216" lon="5.79326">
        <ele>790.2</ele>
      </trkpt>
      <trkpt lat="46.52093" lon="5.79296">
        <ele>790.9</ele>
      </trkpt>
      <trkpt lat="46.52067" lon="5.79276">
        <ele>792.7</ele>
      </trkpt>
      <trkpt lat="46.52029" lon="5.79225">
        <ele>793.8</ele>
      </trkpt>
      <trkpt lat="46.52022" lon="5.79217">
        <ele>794.2</ele>
      </trkpt>
      <trkpt lat="46.51959" lon="5.79168">
        <ele>795.9</ele>
      </trkpt>
      <trkpt lat="46.5194" lon="5.7915">
        <ele>798.6</ele>
      </trkpt>
      <trkpt lat="46.51888" lon="5.79072">
        <ele>803</ele>
      </trkpt>
      <trkpt lat="46.51815" lon="5.78978">
        <ele>807.1</ele>
      </trkpt>
      <trkpt lat="46.51808" lon="5.78971">
        <ele>806.4</ele>
        <extensions>
          <visugpx:TrkExtension xmlns:visugpx="https://www.visugpx.com/editgpx/">
            <visugpx:node>22</visugpx:node>
            </visugpx:TrkExtension>
        </extensions>
      </trkpt>
      <trkpt lat="46.51784" lon="5.78946">
        <ele>807.5</ele>
      </trkpt>
      <trkpt lat="46.5171" lon="5.78879">
        <ele>809.8</ele>
      </trkpt>
      <trkpt lat="46.51691" lon="5.78868">
        <ele>809.4</ele>
      </trkpt>
      <trkpt lat="46.51671" lon="5.78859">
        <ele>808.9</ele>
      </trkpt>
      <trkpt lat="46.51645" lon="5.78845">
        <ele>808.7</ele>
      </trkpt>
      <trkpt lat="46.51601" lon="5.78814">
        <ele>809.3</ele>
      </trkpt>
      <trkpt lat="46.51571" lon="5.78788">
        <ele>809.1</ele>
      </trkpt>
      <trkpt lat="46.51542" lon="5.78767">
        <ele>809.6</ele>
      </trkpt>
      <trkpt lat="46.5152" lon="5.78756">
        <ele>808.9</ele>
      </trkpt>
      <trkpt lat="46.51499" lon="5.78751">
        <ele>808</ele>
      </trkpt>
      <trkpt lat="46.51478" lon="5.78751">
        <ele>807.2</ele>
      </trkpt>
      <trkpt lat="46.51466" lon="5.78752">
        <ele>806.4</ele>
      </trkpt>
      <trkpt lat="46.51416" lon="5.78766">
        <ele>804.4</ele>
      </trkpt>
      <trkpt lat="46.51266" lon="5.78808">
        <ele>805.9</ele>
      </trkpt>
      <trkpt lat="46.51236" lon="5.78821">
        <ele>806.2</ele>
      </trkpt>
      <trkpt lat="46.51217" lon="5.78838">
        <ele>807.1</ele>
      </trkpt>
      <trkpt lat="46.51215" lon="5.78835">
        <ele>807.2</ele>
      </trkpt>
      <trkpt lat="46.51212" lon="5.78834">
        <ele>807.4</ele>
      </trkpt>
      <trkpt lat="46.51091" lon="5.78882">
        <ele>808.3</ele>
      </trkpt>
      <trkpt lat="46.50948" lon="5.78937">
        <ele>808.8</ele>
      </trkpt>
      <trkpt lat="46.50911" lon="5.7895">
        <ele>810</ele>
      </trkpt>
      <trkpt lat="46.50849" lon="5.78965">
        <ele>809.2</ele>
      </trkpt>
      <trkpt lat="46.5076" lon="5.78997">
        <ele>806.1</ele>
      </trkpt>
      <trkpt lat="46.50751" lon="5.78997">
        <ele>805.8</ele>
      </trkpt>
      <trkpt lat="46.50668" lon="5.78982">
        <ele>802.1</ele>
      </trkpt>
      <trkpt lat="46.5064" lon="5.78979">
        <ele>801</ele>
        <extensions>
          <visugpx:TrkExtension xmlns:visugpx="https://www.visugpx.com/editgpx/">
            <visugpx:node>23</visugpx:node>
            </visugpx:TrkExtension>
        </extensions>
      </trkpt>
      <trkpt lat="46.50542" lon="5.78969">
        <ele>803.2</ele>
      </trkpt>
      <trkpt lat="46.50391" lon="5.78949">
        <ele>803</ele>
      </trkpt>
      <trkpt lat="46.50238" lon="5.78935">
        <ele>802.5</ele>
      </trkpt>
      <trkpt lat="46.50198" lon="5.78932">
        <ele>802.4</ele>
      </trkpt>
      <trkpt lat="46.50065" lon="5.78917">
        <ele>802.6</ele>
      </trkpt>
      <trkpt lat="46.49995" lon="5.78916">
        <ele>805.2</ele>
      </trkpt>
      <trkpt lat="46.49952" lon="5.78919">
        <ele>805.1</ele>
      </trkpt>
      <trkpt lat="46.49916" lon="5.78928">
        <ele>804.2</ele>
      </trkpt>
      <trkpt lat="46.499" lon="5.78934">
        <ele>803.5</ele>
      </trkpt>
      <trkpt lat="46.49882" lon="5.78945">
        <ele>803.2</ele>
      </trkpt>
      <trkpt lat="46.49852" lon="5.7897">
        <ele>802.8</ele>
      </trkpt>
      <trkpt lat="46.49827" lon="5.78984">
        <ele>802.7</ele>
      </trkpt>
      <trkpt lat="46.49688" lon="5.79015">
        <ele>800</ele>
      </trkpt>
      <trkpt lat="46.49662" lon="5.79021">
        <ele>801.5</ele>
      </trkpt>
      <trkpt lat="46.49645" lon="5.79022">
        <ele>801.3</ele>
      </trkpt>
      <trkpt lat="46.49614" lon="5.79015">
        <ele>802.9</ele>
      </trkpt>
      <trkpt lat="46.49605" lon="5.79014">
        <ele>803.1</ele>
      </trkpt>
      <trkpt lat="46.49576" lon="5.7901">
        <ele>802.9</ele>
      </trkpt>
      <trkpt lat="46.49459" lon="5.79009">
        <ele>802.9</ele>
      </trkpt>
      <trkpt lat="46.49442" lon="5.79011">
        <ele>804.4</ele>
      </trkpt>
      <trkpt lat="46.49417" lon="5.7902">
        <ele>805.2</ele>
        <extensions>
          <visugpx:TrkExtension xmlns:visugpx="https://www.visugpx.com/editgpx/">
            <visugpx:node>24</visugpx:node>
            </visugpx:TrkExtension>
        </extensions>
      </trkpt>
      <trkpt lat="46.49394" lon="5.79028">
        <ele>805.2</ele>
      </trkpt>
      <trkpt lat="46.49377" lon="5.7903">
        <ele>805</ele>
      </trkpt>
      <trkpt lat="46.49376" lon="5.78996">
        <ele>804.1</ele>
      </trkpt>
      <trkpt lat="46.49369" lon="5.78966">
        <ele>804</ele>
      </trkpt>
      <trkpt lat="46.49361" lon="5.78939">
        <ele>802.4</ele>
      </trkpt>
      <trkpt lat="46.49352" lon="5.78921">
        <ele>801.2</ele>
      </trkpt>
      <trkpt lat="46.4932" lon="5.78862">
        <ele>798.6</ele>
      </trkpt>
      <trkpt lat="46.49311" lon="5.78852">
        <ele>798.9</ele>
      </trkpt>
      <trkpt lat="46.49301" lon="5.78845">
        <ele>798.9</ele>
      </trkpt>
      <trkpt lat="46.49263" lon="5.78834">
        <ele>798.4</ele>
      </trkpt>
      <trkpt lat="46.49252" lon="5.78829">
        <ele>798.7</ele>
      </trkpt>
      <trkpt lat="46.49245" lon="5.78821">
        <ele>798.9</ele>
      </trkpt>
      <trkpt lat="46.49241" lon="5.78811">
        <ele>799.2</ele>
      </trkpt>
      <trkpt lat="46.4924" lon="5.78788">
        <ele>799.7</ele>
      </trkpt>
      <trkpt lat="46.49243" lon="5.78757">
        <ele>799.4</ele>
      </trkpt>
      <trkpt lat="46.49241" lon="5.7868">
        <ele>798.5</ele>
      </trkpt>
      <trkpt lat="46.49239" lon="5.78665">
        <ele>798.8</ele>
      </trkpt>
      <trkpt lat="46.49234" lon="5.78642">
        <ele>800.6</ele>
      </trkpt>
      <trkpt lat="46.49233" lon="5.78629">
        <ele>800.7</ele>
      </trkpt>
      <trkpt lat="46.49247" lon="5.78559">
        <ele>798</ele>
      </trkpt>
      <trkpt lat="46.49246" lon="5.7854">
        <ele>796.6</ele>
      </trkpt>
      <trkpt lat="46.49242" lon="5.7853">
        <ele>795.8</ele>
      </trkpt>
      <trkpt lat="46.49232" lon="5.78516">
        <ele>795.9</ele>
      </trkpt>
      <trkpt lat="46.49211" lon="5.78494">
        <ele>796.1</ele>
      </trkpt>
      <trkpt lat="46.49188" lon="5.78475">
        <ele>794.4</ele>
      </trkpt>
      <trkpt lat="46.49132" lon="5.78436">
        <ele>795</ele>
      </trkpt>
      <trkpt lat="46.49016" lon="5.78332">
        <ele>789.4</ele>
      </trkpt>
      <trkpt lat="46.48906" lon="5.78229">
        <ele>786.1</ele>
        <extensions>
          <visugpx:TrkExtension xmlns:visugpx="https://www.visugpx.com/editgpx/">
            <visugpx:node>25</visugpx:node>
            </visugpx:TrkExtension>
        </extensions>
      </trkpt>
      <trkpt lat="46.48899" lon="5.78223">
        <ele>787.2</ele>
      </trkpt>
      <trkpt lat="46.4889" lon="5.78208">
        <ele>786.8</ele>
      </trkpt>
      <trkpt lat="46.48886" lon="5.78199">
        <ele>786</ele>
      </trkpt>
      <trkpt lat="46.48882" lon="5.7817">
        <ele>784.2</ele>
      </trkpt>
      <trkpt lat="46.48882" lon="5.78151">
        <ele>783.9</ele>
      </trkpt>
      <trkpt lat="46.48884" lon="5.78142">
        <ele>783.8</ele>
      </trkpt>
      <trkpt lat="46.48893" lon="5.78117">
        <ele>785.1</ele>
      </trkpt>
      <trkpt lat="46.48868" lon="5.78106">
        <ele>785.1</ele>
      </trkpt>
      <trkpt lat="46.48775" lon="5.78085">
        <ele>785.9</ele>
      </trkpt>
      <trkpt lat="46.48746" lon="5.78073">
        <ele>787</ele>
      </trkpt>
      <trkpt lat="46.48692" lon="5.78004">
        <ele>790.8</ele>
      </trkpt>
      <trkpt lat="46.48664" lon="5.77982">
        <ele>791.4</ele>
      </trkpt>
      <trkpt lat="46.48644" lon="5.77962">
        <ele>792.8</ele>
      </trkpt>
      <trkpt lat="46.48626" lon="5.77924">
        <ele>791.3</ele>
      </trkpt>
      <trkpt lat="46.48615" lon="5.77906">
        <ele>790.3</ele>
      </trkpt>
      <trkpt lat="46.48601" lon="5.7789">
        <ele>790.3</ele>
      </trkpt>
      <trkpt lat="46.48584" lon="5.77878">
        <ele>791</ele>
      </trkpt>
      <trkpt lat="46.48546" lon="5.77861">
        <ele>792.4</ele>
        <extensions>
          <visugpx:TrkExtension xmlns:visugpx="https://www.visugpx.com/editgpx/">
            <visugpx:node>26</visugpx:node>
            </visugpx:TrkExtension>
        </extensions>
      </trkpt>
      <trkpt lat="46.48537" lon="5.77857">
        <ele>793.1</ele>
      </trkpt>
      <trkpt lat="46.48496" lon="5.77849">
        <ele>795</ele>
      </trkpt>
      <trkpt lat="46.48471" lon="5.77837">
        <ele>796.8</ele>
      </trkpt>
      <trkpt lat="46.48443" lon="5.77813">
        <ele>800.3</ele>
      </trkpt>
      <trkpt lat="46.48411" lon="5.77771">
        <ele>802.4</ele>
      </trkpt>
      <trkpt lat="46.48394" lon="5.77756">
        <ele>803.6</ele>
      </trkpt>
      <trkpt lat="46.48354" lon="5.77726">
        <ele>806.8</ele>
      </trkpt>
      <trkpt lat="46.48333" lon="5.77715">
        <ele>809.5</ele>
      </trkpt>
      <trkpt lat="46.48314" lon="5.77714">
        <ele>810.6</ele>
      </trkpt>
      <trkpt lat="46.48242" lon="5.77737">
        <ele>811.9</ele>
      </trkpt>
      <trkpt lat="46.48225" lon="5.77746">
        <ele>812.5</ele>
      </trkpt>
      <trkpt lat="46.48209" lon="5.77759">
        <ele>812.5</ele>
      </trkpt>
      <trkpt lat="46.48198" lon="5.77774">
        <ele>812.9</ele>
      </trkpt>
      <trkpt lat="46.48186" lon="5.7778">
        <ele>814</ele>
      </trkpt>
      <trkpt lat="46.48175" lon="5.77779">
        <ele>815.1</ele>
      </trkpt>
      <trkpt lat="46.48164" lon="5.77773">
        <ele>816</ele>
      </trkpt>
      <trkpt lat="46.48145" lon="5.77774">
        <ele>816.2</ele>
      </trkpt>
      <trkpt lat="46.48122" lon="5.77785">
        <ele>816.4</ele>
      </trkpt>
      <trkpt lat="46.48114" lon="5.77792">
        <ele>816.4</ele>
      </trkpt>
      <trkpt lat="46.48078" lon="5.77803">
        <ele>817.2</ele>
      </trkpt>
      <trkpt lat="46.4806" lon="5.77801">
        <ele>817.6</ele>
      </trkpt>
      <trkpt lat="46.48046" lon="5.77795">
        <ele>818.1</ele>
      </trkpt>
      <trkpt lat="46.48039" lon="5.7779">
        <ele>818.4</ele>
      </trkpt>
      <trkpt lat="46.48034" lon="5.7778">
        <ele>818.4</ele>
      </trkpt>
      <trkpt lat="46.48026" lon="5.77739">
        <ele>817.4</ele>
      </trkpt>
      <trkpt lat="46.48014" lon="5.77704">
        <ele>818.8</ele>
      </trkpt>
      <trkpt lat="46.48005" lon="5.77687">
        <ele>818.4</ele>
      </trkpt>
      <trkpt lat="46.47996" lon="5.77677">
        <ele>818.8</ele>
      </trkpt>
      <trkpt lat="46.47989" lon="5.77674">
        <ele>819.3</ele>
      </trkpt>
      <trkpt lat="46.4794" lon="5.77676">
        <ele>821.4</ele>
      </trkpt>
      <trkpt lat="46.47928" lon="5.7768">
        <ele>820.6</ele>
      </trkpt>
      <trkpt lat="46.4792" lon="5.77685">
        <ele>819.4</ele>
      </trkpt>
      <trkpt lat="46.4791" lon="5.777">
        <ele>817.9</ele>
      </trkpt>
      <trkpt lat="46.47899" lon="5.77723">
        <ele>817.5</ele>
      </trkpt>
      <trkpt lat="46.47888" lon="5.77734">
        <ele>818.6</ele>
      </trkpt>
      <trkpt lat="46.47867" lon="5.77742">
        <ele>819.9</ele>
      </trkpt>
      <trkpt lat="46.47855" lon="5.77741">
        <ele>821</ele>
      </trkpt>
      <trkpt lat="46.47844" lon="5.77737">
        <ele>822.1</ele>
      </trkpt>
      <trkpt lat="46.47821" lon="5.77716">
        <ele>825.9</ele>
      </trkpt>
      <trkpt lat="46.47812" lon="5.77698">
        <ele>827.1</ele>
      </trkpt>
      <trkpt lat="46.47801" lon="5.77658">
        <ele>828.1</ele>
      </trkpt>
      <trkpt lat="46.47792" lon="5.77607">
        <ele>831.9</ele>
      </trkpt>
      <trkpt lat="46.47786" lon="5.77593">
        <ele>832.2</ele>
      </trkpt>
      <trkpt lat="46.47778" lon="5.77587">
        <ele>832.4</ele>
      </trkpt>
      <trkpt lat="46.47739" lon="5.77581">
        <ele>833.3</ele>
      </trkpt>
      <trkpt lat="46.47717" lon="5.77575">
        <ele>833.5</ele>
      </trkpt>
      <trkpt lat="46.47707" lon="5.77568">
        <ele>833.8</ele>
      </trkpt>
      <trkpt lat="46.47701" lon="5.77561">
        <ele>834.2</ele>
      </trkpt>
      <trkpt lat="46.47687" lon="5.77525">
        <ele>834.3</ele>
      </trkpt>
      <trkpt lat="46.47681" lon="5.77515">
        <ele>834.8</ele>
      </trkpt>
      <trkpt lat="46.4763" lon="5.77492">
        <ele>836.2</ele>
      </trkpt>
      <trkpt lat="46.47618" lon="5.7748">
        <ele>837</ele>
      </trkpt>
      <trkpt lat="46.47602" lon="5.77459">
        <ele>836.8</ele>
      </trkpt>
      <trkpt lat="46.47597" lon="5.77453">
        <ele>837.3</ele>
      </trkpt>
      <trkpt lat="46.4759" lon="5.7745">
        <ele>837.6</ele>
      </trkpt>
      <trkpt lat="46.47583" lon="5.7745">
        <ele>837.6</ele>
      </trkpt>
      <trkpt lat="46.47568" lon="5.77458">
        <ele>838.3</ele>
      </trkpt>
      <trkpt lat="46.47533" lon="5.77492">
        <ele>838.9</ele>
      </trkpt>
      <trkpt lat="46.47506" lon="5.77511">
        <ele>838</ele>
      </trkpt>
      <trkpt lat="46.47491" lon="5.77518">
        <ele>837.1</ele>
      </trkpt>
      <trkpt lat="46.47485" lon="5.77518">
        <ele>836.9</ele>
      </trkpt>
      <trkpt lat="46.47463" lon="5.7751">
        <ele>837.8</ele>
      </trkpt>
      <trkpt lat="46.47452" lon="5.77503">
        <ele>839.2</ele>
      </trkpt>
      <trkpt lat="46.47447" lon="5.77495">
        <ele>840.5</ele>
      </trkpt>
      <trkpt lat="46.47436" lon="5.77448">
        <ele>845.9</ele>
      </trkpt>
      <trkpt lat="46.4743" lon="5.77437">
        <ele>847</ele>
      </trkpt>
      <trkpt lat="46.4742" lon="5.77424">
        <ele>847.2</ele>
      </trkpt>
      <trkpt lat="46.47406" lon="5.77414">
        <ele>847.5</ele>
      </trkpt>
      <trkpt lat="46.47392" lon="5.77408">
        <ele>848.5</ele>
      </trkpt>
      <trkpt lat="46.47384" lon="5.77406">
        <ele>848.7</ele>
      </trkpt>
      <trkpt lat="46.47374" lon="5.774">
        <ele>848.9</ele>
      </trkpt>
      <trkpt lat="46.47368" lon="5.77394">
        <ele>849</ele>
      </trkpt>
      <trkpt lat="46.47341" lon="5.77346">
        <ele>848.5</ele>
      </trkpt>
      <trkpt lat="46.47332" lon="5.77337">
        <ele>847.2</ele>
      </trkpt>
      <trkpt lat="46.47322" lon="5.77333">
        <ele>845.3</ele>
      </trkpt>
      <trkpt lat="46.47288" lon="5.77344">
        <ele>842.4</ele>
      </trkpt>
      <trkpt lat="46.47277" lon="5.77345">
        <ele>840.7</ele>
      </trkpt>
      <trkpt lat="46.47261" lon="5.77343">
        <ele>838.7</ele>
      </trkpt>
      <trkpt lat="46.47241" lon="5.77338">
        <ele>835.6</ele>
      </trkpt>
      <trkpt lat="46.47231" lon="5.77333">
        <ele>833.5</ele>
      </trkpt>
      <trkpt lat="46.47202" lon="5.77311">
        <ele>829.3</ele>
      </trkpt>
      <trkpt lat="46.47194" lon="5.77307">
        <ele>829.2</ele>
      </trkpt>
      <trkpt lat="46.47186" lon="5.77307">
        <ele>828.3</ele>
      </trkpt>
      <trkpt lat="46.47171" lon="5.77311">
        <ele>826.9</ele>
      </trkpt>
      <trkpt lat="46.47151" lon="5.77327">
        <ele>824.1</ele>
      </trkpt>
      <trkpt lat="46.47132" lon="5.77347">
        <ele>822.1</ele>
      </trkpt>
      <trkpt lat="46.47098" lon="5.77388">
        <ele>820.4</ele>
      </trkpt>
      <trkpt lat="46.47035" lon="5.77441">
        <ele>820.8</ele>
      </trkpt>
      <trkpt lat="46.47021" lon="5.77457">
        <ele>822.9</ele>
      </trkpt>
      <trkpt lat="46.47005" lon="5.77483">
        <ele>821.8</ele>
      </trkpt>
      <trkpt lat="46.4696" lon="5.77538">
        <ele>825.7</ele>
      </trkpt>
      <trkpt lat="46.46936" lon="5.7756">
        <ele>826.4</ele>
      </trkpt>
      <trkpt lat="46.4693" lon="5.7756">
        <ele>826.7</ele>
      </trkpt>
      <trkpt lat="46.46925" lon="5.77558">
        <ele>827.2</ele>
      </trkpt>
      <trkpt lat="46.46919" lon="5.77551">
        <ele>828.4</ele>
      </trkpt>
      <trkpt lat="46.46915" lon="5.77544">
        <ele>829.4</ele>
      </trkpt>
      <trkpt lat="46.46913" lon="5.77531">
        <ele>830.9</ele>
      </trkpt>
      <trkpt lat="46.46913" lon="5.77515">
        <ele>832.2</ele>
      </trkpt>
      <trkpt lat="46.46925" lon="5.77434">
        <ele>835.4</ele>
      </trkpt>
      <trkpt lat="46.4694" lon="5.77384">
        <ele>839.5</ele>
      </trkpt>
      <trkpt lat="46.4694" lon="5.77376">
        <ele>839.3</ele>
      </trkpt>
      <trkpt lat="46.46939" lon="5.77364">
        <ele>839</ele>
      </trkpt>
      <trkpt lat="46.46936" lon="5.77355">
        <ele>840.3</ele>
      </trkpt>
      <trkpt lat="46.4693" lon="5.7735">
        <ele>841.2</ele>
      </trkpt>
      <trkpt lat="46.46924" lon="5.77348">
        <ele>841.5</ele>
      </trkpt>
      <trkpt lat="46.46918" lon="5.77349">
        <ele>841.2</ele>
      </trkpt>
      <trkpt lat="46.46903" lon="5.7736">
        <ele>841.6</ele>
      </trkpt>
      <trkpt lat="46.46846" lon="5.7741">
        <ele>842.5</ele>
      </trkpt>
      <trkpt lat="46.46809" lon="5.77436">
        <ele>845.1</ele>
      </trkpt>
      <trkpt lat="46.46784" lon="5.7745">
        <ele>846.7</ele>
      </trkpt>
      <trkpt lat="46.46764" lon="5.77462">
        <ele>848.8</ele>
        <extensions>
          <visugpx:TrkExtension xmlns:visugpx="https://www.visugpx.com/editgpx/">
            <visugpx:node>27</visugpx:node>
            </visugpx:TrkExtension>
        </extensions>
      </trkpt>
      <trkpt lat="46.46742" lon="5.77476">
        <ele>850</ele>
      </trkpt>
      <trkpt lat="46.46733" lon="5.77479">
        <ele>850.5</ele>
      </trkpt>
      <trkpt lat="46.4671" lon="5.77477">
        <ele>850.9</ele>
      </trkpt>
      <trkpt lat="46.46704" lon="5.77478">
        <ele>850.5</ele>
      </trkpt>
      <trkpt lat="46.4667" lon="5.77514">
        <ele>847</ele>
      </trkpt>
      <trkpt lat="46.46616" lon="5.77567">
        <ele>841.6</ele>
      </trkpt>
      <trkpt lat="46.46595" lon="5.77508">
        <ele>839.1</ele>
      </trkpt>
      <trkpt lat="46.46582" lon="5.77476">
        <ele>838.8</ele>
      </trkpt>
      <trkpt lat="46.46533" lon="5.77382">
        <ele>839.2</ele>
      </trkpt>
      <trkpt lat="46.46505" lon="5.77338">
        <ele>839.5</ele>
      </trkpt>
      <trkpt lat="46.4649" lon="5.77322">
        <ele>841</ele>
      </trkpt>
      <trkpt lat="46.46477" lon="5.77312">
        <ele>841.7</ele>
      </trkpt>
      <trkpt lat="46.46475" lon="5.77311">
        <ele>841.8</ele>
      </trkpt>
      <trkpt lat="46.46272" lon="5.77208">
        <ele>850.5</ele>
      </trkpt>
      <trkpt lat="46.46262" lon="5.77203">
        <ele>850.5</ele>
      </trkpt>
      <trkpt lat="46.46239" lon="5.77185">
        <ele>849</ele>
      </trkpt>
      <trkpt lat="46.46226" lon="5.77168">
        <ele>849.2</ele>
      </trkpt>
      <trkpt lat="46.46218" lon="5.77152">
        <ele>847.9</ele>
      </trkpt>
      <trkpt lat="46.46197" lon="5.77092">
        <ele>846.1</ele>
      </trkpt>
      <trkpt lat="46.46186" lon="5.77074">
        <ele>845.4</ele>
      </trkpt>
      <trkpt lat="46.46166" lon="5.7705">
        <ele>844</ele>
      </trkpt>
      <trkpt lat="46.46137" lon="5.77037">
        <ele>842.8</ele>
      </trkpt>
      <trkpt lat="46.46095" lon="5.77022">
        <ele>840.4</ele>
      </trkpt>
      <trkpt lat="46.46079" lon="5.77019">
        <ele>840.2</ele>
      </trkpt>
      <trkpt lat="46.4605" lon="5.77023">
        <ele>838.5</ele>
      </trkpt>
      <trkpt lat="46.46032" lon="5.77017">
        <ele>835.9</ele>
      </trkpt>
      <trkpt lat="46.46019" lon="5.77006">
        <ele>834.9</ele>
      </trkpt>
      <trkpt lat="46.46007" lon="5.76992">
        <ele>834.9</ele>
      </trkpt>
      <trkpt lat="46.45978" lon="5.76945">
        <ele>834</ele>
      </trkpt>
      <trkpt lat="46.45971" lon="5.76927">
        <ele>833.3</ele>
      </trkpt>
      <trkpt lat="46.45964" lon="5.76906">
        <ele>833</ele>
      </trkpt>
      <trkpt lat="46.45958" lon="5.76879">
        <ele>834.3</ele>
      </trkpt>
      <trkpt lat="46.45957" lon="5.76856">
        <ele>832.7</ele>
      </trkpt>
      <trkpt lat="46.45966" lon="5.76792">
        <ele>828.5</ele>
      </trkpt>
      <trkpt lat="46.45966" lon="5.76768">
        <ele>825.5</ele>
      </trkpt>
      <trkpt lat="46.45964" lon="5.7673">
        <ele>822</ele>
      </trkpt>
      <trkpt lat="46.45959" lon="5.76708">
        <ele>822</ele>
      </trkpt>
      <trkpt lat="46.45955" lon="5.76697">
        <ele>822.2</ele>
      </trkpt>
      <trkpt lat="46.45948" lon="5.76689">
        <ele>823.4</ele>
      </trkpt>
      <trkpt lat="46.45933" lon="5.76682">
        <ele>825.1</ele>
      </trkpt>
      <trkpt lat="46.45898" lon="5.7668">
        <ele>821.1</ele>
      </trkpt>
      <trkpt lat="46.45857" lon="5.76715">
        <ele>821.4</ele>
      </trkpt>
      <trkpt lat="46.45823" lon="5.7673">
        <ele>818.2</ele>
      </trkpt>
      <trkpt lat="46.45812" lon="5.76732">
        <ele>818.2</ele>
      </trkpt>
      <trkpt lat="46.45798" lon="5.7673">
        <ele>817.6</ele>
      </trkpt>
      <trkpt lat="46.45788" lon="5.76726">
        <ele>817.2</ele>
      </trkpt>
      <trkpt lat="46.45766" lon="5.76712">
        <ele>816.8</ele>
      </trkpt>
      <trkpt lat="46.45709" lon="5.76655">
        <ele>818.2</ele>
      </trkpt>
      <trkpt lat="46.45697" lon="5.76637">
        <ele>816.1</ele>
      </trkpt>
      <trkpt lat="46.45685" lon="5.76613">
        <ele>815.1</ele>
      </trkpt>
      <trkpt lat="46.45682" lon="5.76602">
        <ele>814.3</ele>
      </trkpt>
      <trkpt lat="46.45682" lon="5.76576">
        <ele>812.7</ele>
      </trkpt>
      <trkpt lat="46.45693" lon="5.76494">
        <ele>808.4</ele>
      </trkpt>
      <trkpt lat="46.45702" lon="5.76365">
        <ele>802.9</ele>
      </trkpt>
      <trkpt lat="46.45703" lon="5.76337">
        <ele>801.8</ele>
      </trkpt>
      <trkpt lat="46.457" lon="5.76327">
        <ele>802.1</ele>
      </trkpt>
      <trkpt lat="46.45694" lon="5.76315">
        <ele>802.6</ele>
      </trkpt>
      <trkpt lat="46.45681" lon="5.76299">
        <ele>802.1</ele>
      </trkpt>
      <trkpt lat="46.45595" lon="5.76212">
        <ele>799.2</ele>
      </trkpt>
      <trkpt lat="46.45523" lon="5.76162">
        <ele>797.1</ele>
      </trkpt>
      <trkpt lat="46.45504" lon="5.76145">
        <ele>797</ele>
      </trkpt>
      <trkpt lat="46.45496" lon="5.76129">
        <ele>796.3</ele>
      </trkpt>
      <trkpt lat="46.45493" lon="5.7612">
        <ele>796.3</ele>
      </trkpt>
      <trkpt lat="46.45489" lon="5.76098">
        <ele>797.3</ele>
      </trkpt>
      <trkpt lat="46.45484" lon="5.76047">
        <ele>796.5</ele>
      </trkpt>
      <trkpt lat="46.4548" lon="5.76029">
        <ele>795.9</ele>
      </trkpt>
      <trkpt lat="46.45472" lon="5.76007">
        <ele>795</ele>
      </trkpt>
      <trkpt lat="46.45438" lon="5.75959">
        <ele>793.9</ele>
      </trkpt>
      <trkpt lat="46.45416" lon="5.7593">
        <ele>793.5</ele>
      </trkpt>
      <trkpt lat="46.45402" lon="5.75916">
        <ele>793</ele>
      </trkpt>
      <trkpt lat="46.45389" lon="5.75905">
        <ele>792.7</ele>
      </trkpt>
      <trkpt lat="46.45367" lon="5.75892">
        <ele>793.1</ele>
      </trkpt>
      <trkpt lat="46.45286" lon="5.7585">
        <ele>792.1</ele>
      </trkpt>
      <trkpt lat="46.45259" lon="5.75842">
        <ele>792</ele>
      </trkpt>
      <trkpt lat="46.45207" lon="5.75834">
        <ele>790.2</ele>
      </trkpt>
      <trkpt lat="46.45195" lon="5.7583">
        <ele>789.4</ele>
      </trkpt>
      <trkpt lat="46.45148" lon="5.75806">
        <ele>788.5</ele>
      </trkpt>
      <trkpt lat="46.451" lon="5.75775">
        <ele>788.1</ele>
      </trkpt>
      <trkpt lat="46.45067" lon="5.75751">
        <ele>786.8</ele>
      </trkpt>
      <trkpt lat="46.4505" lon="5.75737">
        <ele>786.3</ele>
        <extensions>
          <visugpx:TrkExtension xmlns:visugpx="https://www.visugpx.com/editgpx/">
            <visugpx:node>28</visugpx:node>
            </visugpx:TrkExtension>
        </extensions>
      </trkpt>
      <trkpt lat="46.4505" lon="5.75737">
        <ele>786.3</ele>
      </trkpt>
      <trkpt lat="46.45042" lon="5.75731">
        <ele>786.4</ele>
      </trkpt>
      <trkpt lat="46.44998" lon="5.75689">
        <ele>785</ele>
      </trkpt>
      <trkpt lat="46.4488" lon="5.75563">
        <ele>782.4</ele>
      </trkpt>
      <trkpt lat="46.44707" lon="5.7534">
        <ele>778.3</ele>
      </trkpt>
      <trkpt lat="46.44524" lon="5.7514">
        <ele>770.3</ele>
      </trkpt>
      <trkpt lat="46.44431" lon="5.75022">
        <ele>767</ele>
      </trkpt>
      <trkpt lat="46.44391" lon="5.74963">
        <ele>765.5</ele>
      </trkpt>
      <trkpt lat="46.44337" lon="5.74915">
        <ele>762.5</ele>
      </trkpt>
      <trkpt lat="46.44272" lon="5.74856">
        <ele>760.4</ele>
      </trkpt>
      <trkpt lat="46.44166" lon="5.7473">
        <ele>755.6</ele>
      </trkpt>
      <trkpt lat="46.44133" lon="5.74687">
        <ele>753.9</ele>
      </trkpt>
      <trkpt lat="46.44134" lon="5.74699">
        <ele>755.5</ele>
      </trkpt>
      <trkpt lat="46.44137" lon="5.7471">
        <ele>756.2</ele>
      </trkpt>
      <trkpt lat="46.44176" lon="5.74801">
        <ele>763.3</ele>
      </trkpt>
      <trkpt lat="46.44182" lon="5.74809">
        <ele>763.9</ele>
      </trkpt>
      <trkpt lat="46.44198" lon="5.74817">
        <ele>763.9</ele>
      </trkpt>
      <trkpt lat="46.44244" lon="5.74863">
        <ele>767.9</ele>
      </trkpt>
      <trkpt lat="46.44332" lon="5.74984">
        <ele>778.4</ele>
      </trkpt>
      <trkpt lat="46.44343" lon="5.75002">
        <ele>780.9</ele>
      </trkpt>
      <trkpt lat="46.44357" lon="5.75018">
        <ele>782.6</ele>
      </trkpt>
      <trkpt lat="46.44375" lon="5.75051">
        <ele>784.5</ele>
      </trkpt>
      <trkpt lat="46.44387" lon="5.75082">
        <ele>787.3</ele>
      </trkpt>
      <trkpt lat="46.44409" lon="5.75126">
        <ele>791.1</ele>
      </trkpt>
      <trkpt lat="46.44426" lon="5.75153">
        <ele>793</ele>
      </trkpt>
      <trkpt lat="46.44482" lon="5.75225">
        <ele>798.5</ele>
      </trkpt>
      <trkpt lat="46.44491" lon="5.75241">
        <ele>799.4</ele>
      </trkpt>
      <trkpt lat="46.44495" lon="5.75256">
        <ele>801.2</ele>
      </trkpt>
      <trkpt lat="46.44496" lon="5.75271">
        <ele>802.3</ele>
      </trkpt>
      <trkpt lat="46.4449" lon="5.75295">
        <ele>802.7</ele>
      </trkpt>
      <trkpt lat="46.44478" lon="5.75307">
        <ele>803.1</ele>
      </trkpt>
      <trkpt lat="46.44471" lon="5.75309">
        <ele>803.3</ele>
      </trkpt>
      <trkpt lat="46.44434" lon="5.75311">
        <ele>806.8</ele>
      </trkpt>
      <trkpt lat="46.44422" lon="5.75305">
        <ele>807.9</ele>
      </trkpt>
      <trkpt lat="46.44407" lon="5.7529">
        <ele>809.6</ele>
      </trkpt>
      <trkpt lat="46.44352" lon="5.75249">
        <ele>814.3</ele>
      </trkpt>
      <trkpt lat="46.44323" lon="5.75232">
        <ele>818</ele>
      </trkpt>
      <trkpt lat="46.44294" lon="5.75211">
        <ele>822</ele>
      </trkpt>
      <trkpt lat="46.44278" lon="5.75187">
        <ele>822.5</ele>
      </trkpt>
      <trkpt lat="46.44265" lon="5.75173">
        <ele>823.5</ele>
      </trkpt>
      <trkpt lat="46.44255" lon="5.75166">
        <ele>824.7</ele>
      </trkpt>
      <trkpt lat="46.44237" lon="5.75156">
        <ele>825.3</ele>
      </trkpt>
      <trkpt lat="46.44225" lon="5.75153">
        <ele>826.9</ele>
        <extensions>
          <visugpx:TrkExtension xmlns:visugpx="https://www.visugpx.com/editgpx/">
            <visugpx:node>29</visugpx:node>
            </visugpx:TrkExtension>
        </extensions>
      </trkpt>
      <trkpt lat="46.44218" lon="5.75151">
        <ele>827.2</ele>
      </trkpt>
      <trkpt lat="46.44188" lon="5.75146">
        <ele>828.4</ele>
      </trkpt>
      <trkpt lat="46.44184" lon="5.75148">
        <ele>829</ele>
      </trkpt>
      <trkpt lat="46.44162" lon="5.75128">
        <ele>826.3</ele>
      </trkpt>
      <trkpt lat="46.44133" lon="5.75107">
        <ele>827.5</ele>
      </trkpt>
      <trkpt lat="46.44116" lon="5.7506">
        <ele>829.3</ele>
      </trkpt>
      <trkpt lat="46.44095" lon="5.75022">
        <ele>829.6</ele>
      </trkpt>
      <trkpt lat="46.44074" lon="5.74977">
        <ele>835.5</ele>
      </trkpt>
      <trkpt lat="46.44033" lon="5.74947">
        <ele>834.8</ele>
      </trkpt>
      <trkpt lat="46.44002" lon="5.7496">
        <ele>833.1</ele>
      </trkpt>
      <trkpt lat="46.4398" lon="5.74967">
        <ele>829.9</ele>
      </trkpt>
      <trkpt lat="46.43964" lon="5.74969">
        <ele>828.2</ele>
      </trkpt>
      <trkpt lat="46.43947" lon="5.74968">
        <ele>827.3</ele>
      </trkpt>
      <trkpt lat="46.43921" lon="5.74958">
        <ele>828.4</ele>
      </trkpt>
      <trkpt lat="46.43896" lon="5.74939">
        <ele>828.8</ele>
      </trkpt>
      <trkpt lat="46.43866" lon="5.7492">
        <ele>830</ele>
      </trkpt>
      <trkpt lat="46.4385" lon="5.74915">
        <ele>830.9</ele>
      </trkpt>
      <trkpt lat="46.4384" lon="5.74919">
        <ele>832.5</ele>
      </trkpt>
      <trkpt lat="46.4382" lon="5.74953">
        <ele>831.4</ele>
      </trkpt>
      <trkpt lat="46.43796" lon="5.74982">
        <ele>825.4</ele>
      </trkpt>
      <trkpt lat="46.43776" lon="5.74973">
        <ele>823.8</ele>
      </trkpt>
      <trkpt lat="46.43689" lon="5.74879">
        <ele>820.7</ele>
      </trkpt>
      <trkpt lat="46.43646" lon="5.74837">
        <ele>819.4</ele>
      </trkpt>
      <trkpt lat="46.43608" lon="5.74825">
        <ele>817.3</ele>
      </trkpt>
      <trkpt lat="46.43569" lon="5.74818">
        <ele>814.8</ele>
      </trkpt>
      <trkpt lat="46.43536" lon="5.7484">
        <ele>812.2</ele>
      </trkpt>
      <trkpt lat="46.43519" lon="5.74854">
        <ele>811.5</ele>
      </trkpt>
      <trkpt lat="46.43514" lon="5.74873">
        <ele>809.3</ele>
      </trkpt>
      <trkpt lat="46.43514" lon="5.74893">
        <ele>806.6</ele>
      </trkpt>
      <trkpt lat="46.43497" lon="5.74909">
        <ele>805</ele>
      </trkpt>
      <trkpt lat="46.43489" lon="5.74919">
        <ele>804.5</ele>
      </trkpt>
      <trkpt lat="46.43481" lon="5.74942">
        <ele>802</ele>
      </trkpt>
      <trkpt lat="46.43457" lon="5.74986">
        <ele>798</ele>
      </trkpt>
      <trkpt lat="46.43447" lon="5.75011">
        <ele>797</ele>
      </trkpt>
      <trkpt lat="46.43435" lon="5.7503">
        <ele>795.5</ele>
      </trkpt>
      <trkpt lat="46.43423" lon="5.75057">
        <ele>792.6</ele>
      </trkpt>
      <trkpt lat="46.43415" lon="5.75081">
        <ele>790.8</ele>
      </trkpt>
      <trkpt lat="46.43396" lon="5.75088">
        <ele>787.5</ele>
      </trkpt>
      <trkpt lat="46.43378" lon="5.75089">
        <ele>785.7</ele>
      </trkpt>
      <trkpt lat="46.4336" lon="5.75085">
        <ele>784.8</ele>
      </trkpt>
      <trkpt lat="46.43346" lon="5.75077">
        <ele>783.3</ele>
      </trkpt>
      <trkpt lat="46.43325" lon="5.7505">
        <ele>780.5</ele>
      </trkpt>
      <trkpt lat="46.4329" lon="5.75032">
        <ele>777.5</ele>
      </trkpt>
      <trkpt lat="46.4324" lon="5.75035">
        <ele>773.8</ele>
      </trkpt>
      <trkpt lat="46.43233" lon="5.7504">
        <ele>773</ele>
      </trkpt>
      <trkpt lat="46.43229" lon="5.75046">
        <ele>772.6</ele>
      </trkpt>
      <trkpt lat="46.43222" lon="5.75068">
        <ele>772</ele>
      </trkpt>
      <trkpt lat="46.43221" lon="5.75046">
        <ele>771.6</ele>
      </trkpt>
      <trkpt lat="46.43211" lon="5.75026">
        <ele>770.6</ele>
      </trkpt>
      <trkpt lat="46.43197" lon="5.75008">
        <ele>769.4</ele>
      </trkpt>
      <trkpt lat="46.43188" lon="5.75">
        <ele>768.8</ele>
      </trkpt>
      <trkpt lat="46.4316" lon="5.74985">
        <ele>767.6</ele>
      </trkpt>
      <trkpt lat="46.43101" lon="5.74908">
        <ele>764.6</ele>
      </trkpt>
      <trkpt lat="46.43036" lon="5.74843">
        <ele>763.7</ele>
      </trkpt>
      <trkpt lat="46.4301" lon="5.74822">
        <ele>762.8</ele>
      </trkpt>
      <trkpt lat="46.42984" lon="5.74772">
        <ele>763</ele>
      </trkpt>
      <trkpt lat="46.4297" lon="5.74755">
        <ele>761.7</ele>
      </trkpt>
      <trkpt lat="46.42961" lon="5.74739">
        <ele>760.6</ele>
      </trkpt>
      <trkpt lat="46.42929" lon="5.74668">
        <ele>756.7</ele>
      </trkpt>
      <trkpt lat="46.42913" lon="5.74647">
        <ele>753.9</ele>
      </trkpt>
      <trkpt lat="46.42903" lon="5.74638">
        <ele>752.6</ele>
      </trkpt>
      <trkpt lat="46.42882" lon="5.74628">
        <ele>750.6</ele>
      </trkpt>
      <trkpt lat="46.42829" lon="5.7462">
        <ele>741.7</ele>
      </trkpt>
      <trkpt lat="46.42789" lon="5.74618">
        <ele>738.1</ele>
      </trkpt>
      <trkpt lat="46.42776" lon="5.74616">
        <ele>738.1</ele>
      </trkpt>
      <trkpt lat="46.42767" lon="5.74611">
        <ele>738.8</ele>
      </trkpt>
      <trkpt lat="46.42745" lon="5.74564">
        <ele>737.5</ele>
      </trkpt>
      <trkpt lat="46.42726" lon="5.74535">
        <ele>734.9</ele>
      </trkpt>
      <trkpt lat="46.42717" lon="5.74526">
        <ele>733.5</ele>
      </trkpt>
      <trkpt lat="46.42684" lon="5.745">
        <ele>732.2</ele>
      </trkpt>
      <trkpt lat="46.42629" lon="5.74461">
        <ele>729.2</ele>
      </trkpt>
      <trkpt lat="46.42587" lon="5.74433">
        <ele>726.8</ele>
      </trkpt>
      <trkpt lat="46.42549" lon="5.74416">
        <ele>726.8</ele>
      </trkpt>
      <trkpt lat="46.42543" lon="5.74408">
        <ele>726.5</ele>
      </trkpt>
      <trkpt lat="46.42536" lon="5.74394">
        <ele>726.3</ele>
      </trkpt>
      <trkpt lat="46.42522" lon="5.74357">
        <ele>726</ele>
      </trkpt>
      <trkpt lat="46.42515" lon="5.74345">
        <ele>726</ele>
      </trkpt>
      <trkpt lat="46.42469" lon="5.74285">
        <ele>725.7</ele>
      </trkpt>
      <trkpt lat="46.42451" lon="5.74269">
        <ele>725</ele>
      </trkpt>
      <trkpt lat="46.42436" lon="5.74261">
        <ele>723.9</ele>
      </trkpt>
      <trkpt lat="46.42427" lon="5.74255">
        <ele>723</ele>
      </trkpt>
      <trkpt lat="46.424" lon="5.74229">
        <ele>720.5</ele>
      </trkpt>
      <trkpt lat="46.42362" lon="5.74208">
        <ele>718.1</ele>
      </trkpt>
      <trkpt lat="46.42334" lon="5.74189">
        <ele>716.1</ele>
      </trkpt>
      <trkpt lat="46.42325" lon="5.74177">
        <ele>715.1</ele>
      </trkpt>
      <trkpt lat="46.42302" lon="5.74133">
        <ele>714.4</ele>
      </trkpt>
      <trkpt lat="46.42297" lon="5.74121">
        <ele>713.4</ele>
      </trkpt>
      <trkpt lat="46.4229" lon="5.74091">
        <ele>713.1</ele>
      </trkpt>
      <trkpt lat="46.42283" lon="5.74072">
        <ele>712.9</ele>
      </trkpt>
      <trkpt lat="46.4227" lon="5.74051">
        <ele>711.8</ele>
      </trkpt>
      <trkpt lat="46.42252" lon="5.74032">
        <ele>712.3</ele>
      </trkpt>
      <trkpt lat="46.42161" lon="5.73918">
        <ele>701.2</ele>
      </trkpt>
      <trkpt lat="46.42123" lon="5.7389">
        <ele>695.3</ele>
      </trkpt>
      <trkpt lat="46.42051" lon="5.73811">
        <ele>683.8</ele>
      </trkpt>
      <trkpt lat="46.42044" lon="5.738">
        <ele>681.4</ele>
      </trkpt>
      <trkpt lat="46.42041" lon="5.73765">
        <ele>680.2</ele>
      </trkpt>
      <trkpt lat="46.42038" lon="5.73753">
        <ele>679.2</ele>
      </trkpt>
      <trkpt lat="46.42025" lon="5.73726">
        <ele>676.7</ele>
      </trkpt>
      <trkpt lat="46.42006" lon="5.73649">
        <ele>670</ele>
      </trkpt>
      <trkpt lat="46.41995" lon="5.73583">
        <ele>667.6</ele>
      </trkpt>
      <trkpt lat="46.41991" lon="5.73561">
        <ele>667.6</ele>
      </trkpt>
      <trkpt lat="46.41985" lon="5.73544">
        <ele>667</ele>
      </trkpt>
      <trkpt lat="46.41975" lon="5.73531">
        <ele>666.2</ele>
      </trkpt>
      <trkpt lat="46.41968" lon="5.73528">
        <ele>665.6</ele>
      </trkpt>
      <trkpt lat="46.41959" lon="5.73539">
        <ele>664.8</ele>
      </trkpt>
      <trkpt lat="46.41945" lon="5.73547">
        <ele>663.1</ele>
      </trkpt>
      <trkpt lat="46.41915" lon="5.73546">
        <ele>659.2</ele>
      </trkpt>
      <trkpt lat="46.41912" lon="5.73526">
        <ele>658.7</ele>
      </trkpt>
      <trkpt lat="46.41905" lon="5.73506">
        <ele>659.2</ele>
      </trkpt>
      <trkpt lat="46.41895" lon="5.73488">
        <ele>659.2</ele>
      </trkpt>
      <trkpt lat="46.41881" lon="5.7347">
        <ele>658.5</ele>
      </trkpt>
      <trkpt lat="46.41866" lon="5.73459">
        <ele>657.8</ele>
      </trkpt>
      <trkpt lat="46.41836" lon="5.73442">
        <ele>656.1</ele>
      </trkpt>
      <trkpt lat="46.41786" lon="5.7342">
        <ele>655.7</ele>
      </trkpt>
      <trkpt lat="46.41775" lon="5.73413">
        <ele>656.2</ele>
      </trkpt>
      <trkpt lat="46.41755" lon="5.73392">
        <ele>655.6</ele>
      </trkpt>
      <trkpt lat="46.4173" lon="5.73355">
        <ele>653.7</ele>
      </trkpt>
      <trkpt lat="46.41682" lon="5.73272">
        <ele>649.5</ele>
      </trkpt>
      <trkpt lat="46.41599" lon="5.73136">
        <ele>651.2</ele>
      </trkpt>
      <trkpt lat="46.41583" lon="5.73122">
        <ele>650.2</ele>
      </trkpt>
      <trkpt lat="46.4156" lon="5.73096">
        <ele>647.3</ele>
      </trkpt>
      <trkpt lat="46.41552" lon="5.73089">
        <ele>646</ele>
      </trkpt>
      <trkpt lat="46.41546" lon="5.73087">
        <ele>645.1</ele>
      </trkpt>
      <trkpt lat="46.41547" lon="5.73095">
        <ele>644.9</ele>
      </trkpt>
      <trkpt lat="46.41547" lon="5.73095">
        <ele>644.9</ele>
        <extensions>
          <visugpx:TrkExtension xmlns:visugpx="https://www.visugpx.com/editgpx/">
            <visugpx:node>30</visugpx:node>
            </visugpx:TrkExtension>
        </extensions>
      </trkpt>
    </trkseg>
  </trk>
</gpx>